<?xml version='1.0' encoding='UTF-8'?><gpx version="1.1" creator="JPX - https://github.com/jenetics/jpx" xmlns="http://www.topografix.com/GPX/1/1"><trk><trkseg><trkpt lat="49.133701013646174" lon="2.507972769242524"><ele>77.66666666666667</ele><time>2026-03-22T13:42:45.081Z</time></trkpt><trkpt lat="49.13377347780929" lon="2.5077949394016965"><ele>77.33333333333334</ele><time>2026-03-22T13:42:47.1Z</time></trkpt><trkpt lat="49.133869802645656" lon="2.507566065106744"><ele>77.0</ele><time>2026-03-22T13:42:49.181Z</time></trkpt><trkpt lat="49.13405531972891" lon="2.5073187744292977"><ele>76.5</ele><time>2026-03-22T13:42:50.681Z</time></trkpt><trkpt lat="49.1340883591468" lon="2.5072179273066335"><ele>76.0</ele><time>2026-03-22T13:42:52.681Z</time></trkpt><trkpt lat="49.13413594403381" lon="2.5071191442625853"><ele>75.5</ele><time>2026-03-22T13:42:54.681Z</time></trkpt><trkpt lat="49.1341781917863" lon="2.50703825684786"><ele>75.0</ele><time>2026-03-22T13:42:56.682Z</time></trkpt><trkpt lat="49.13422267816856" lon="2.50691799871103"><ele>74.5</ele><time>2026-03-22T13:43:00Z</time></trkpt><trkpt lat="49.134260182486784" lon="2.506807865376963"><ele>74.0</ele><time>2026-03-22T13:43:03Z</time></trkpt><trkpt lat="49.13431710340076" lon="2.5067454595718437"><ele>75.0</ele><time>2026-03-22T13:43:06Z</time></trkpt><trkpt lat="49.13439978073052" lon="2.5067696339794154"><ele>76.0</ele><time>2026-03-22T13:43:09Z</time></trkpt><trkpt lat="49.13448900818808" lon="2.5068300863541637"><ele>77.0</ele><time>2026-03-22T13:43:12Z</time></trkpt><trkpt lat="49.134559877149776" lon="2.5068797100618534"><ele>78.0</ele><time>2026-03-22T13:43:14Z</time></trkpt><trkpt lat="49.13463309173555" lon="2.5069170808314913"><ele>79.0</ele><time>2026-03-22T13:43:16Z</time></trkpt><trkpt lat="49.13472102013758" lon="2.506963126384642"><ele>80.0</ele><time>2026-03-22T13:43:18Z</time></trkpt><trkpt lat="49.134811856031746" lon="2.5069976199521777"><ele>80.4</ele><time>2026-03-22T13:43:20Z</time></trkpt><trkpt lat="49.13491214787877" lon="2.5070169265226934"><ele>80.8</ele><time>2026-03-22T13:43:22Z</time></trkpt><trkpt lat="49.13501970126844" lon="2.5070494752831762"><ele>81.19999999999999</ele><time>2026-03-22T13:43:25Z</time></trkpt><trkpt lat="49.13512464644693" lon="2.507080414592801"><ele>81.6</ele><time>2026-03-22T13:43:27Z</time></trkpt><trkpt lat="49.13522459118421" lon="2.5071053352644395"><ele>82.0</ele><time>2026-03-22T13:43:29Z</time></trkpt><trkpt lat="49.135324356356655" lon="2.507149071178531"><ele>80.6</ele><time>2026-03-22T13:43:31Z</time></trkpt><trkpt lat="49.13542753616746" lon="2.507171147542341"><ele>79.19999999999999</ele><time>2026-03-22T13:43:33Z</time></trkpt><trkpt lat="49.13552994417424" lon="2.507193109123844"><ele>77.8</ele><time>2026-03-22T13:43:35Z</time></trkpt><trkpt lat="49.13563762808746" lon="2.507217349846202"><ele>76.4</ele><time>2026-03-22T13:43:36.999Z</time></trkpt><trkpt lat="49.13574589811196" lon="2.5072417225083803"><ele>75.0</ele><time>2026-03-22T13:43:38.999Z</time></trkpt><trkpt lat="49.13586017269774" lon="2.5072668614117"><ele>75.0</ele><time>2026-03-22T13:43:40.999Z</time></trkpt><trkpt lat="49.13597292507874" lon="2.5072914634475967"><ele>75.0</ele><time>2026-03-22T13:43:42.999Z</time></trkpt><trkpt lat="49.13606488357613" lon="2.5071056829560496"><ele>75.0</ele><time>2026-03-22T13:43:44.999Z</time></trkpt><trkpt lat="49.13617626694461" lon="2.507139002346908"><ele>75.0</ele><time>2026-03-22T13:43:46.999Z</time></trkpt><trkpt lat="49.136241453953694" lon="2.507050732599763"><ele>75.83333333333333</ele><time>2026-03-22T13:43:48.999Z</time></trkpt><trkpt lat="49.136318425302626" lon="2.50697160622359"><ele>76.66666666666667</ele><time>2026-03-22T13:43:50.999Z</time></trkpt><trkpt lat="49.13638955581958" lon="2.5068984841953674"><ele>77.5</ele><time>2026-03-22T13:43:52.999Z</time></trkpt><trkpt lat="49.13646178657819" lon="2.5068241705532954"><ele>78.33333333333334</ele><time>2026-03-22T13:43:54.999Z</time></trkpt><trkpt lat="49.13652747162927" lon="2.5067572743928785"><ele>79.16666666666667</ele><time>2026-03-22T13:43:56.999Z</time></trkpt><trkpt lat="49.136590134345184" lon="2.5066934563071275"><ele>80.0</ele><time>2026-03-22T13:43:58.999Z</time></trkpt><trkpt lat="49.13664720903468" lon="2.5066290405067595"><ele>80.0</ele><time>2026-03-22T13:44:00.999Z</time></trkpt><trkpt lat="49.13670163662329" lon="2.506569629721613"><ele>80.0</ele><time>2026-03-22T13:44:02.999Z</time></trkpt><trkpt lat="49.13675445462246" lon="2.506511975853819"><ele>80.0</ele><time>2026-03-22T13:44:04.999Z</time></trkpt><trkpt lat="49.137071560093204" lon="2.5069950384495634"><ele>80.0</ele><time>2026-03-22T13:44:06.999Z</time></trkpt><trkpt lat="49.137163756293994" lon="2.5069835463149657"><ele>80.0</ele><time>2026-03-22T13:44:08.999Z</time></trkpt><trkpt lat="49.137264307575" lon="2.5069721847933315"><ele>80.0</ele><time>2026-03-22T13:44:10.998Z</time></trkpt><trkpt lat="49.13735788537847" lon="2.506946610950164"><ele>80.0</ele><time>2026-03-22T13:44:12.998Z</time></trkpt><trkpt lat="49.137459374558176" lon="2.50695765202011"><ele>80.0</ele><time>2026-03-22T13:44:14.998Z</time></trkpt><trkpt lat="49.13753458233499" lon="2.5070652955917203"><ele>80.0</ele><time>2026-03-22T13:44:16.998Z</time></trkpt><trkpt lat="49.13760503673009" lon="2.507166685903305"><ele>80.0</ele><time>2026-03-22T13:44:18.998Z</time></trkpt><trkpt lat="49.13769340283066" lon="2.5072366262386776"><ele>80.0</ele><time>2026-03-22T13:44:20.998Z</time></trkpt><trkpt lat="49.13777759568243" lon="2.507302977105258"><ele>80.0</ele><time>2026-03-22T13:44:22.998Z</time></trkpt><trkpt lat="49.13786435547799" lon="2.50738750943099"><ele>80.0</ele><time>2026-03-22T13:44:24.998Z</time></trkpt><trkpt lat="49.13794462413569" lon="2.5074267749372243"><ele>80.0</ele><time>2026-03-22T13:44:26.998Z</time></trkpt><trkpt lat="49.13803774618197" lon="2.5074402741937876"><ele>80.0</ele><time>2026-03-22T13:44:28.998Z</time></trkpt><trkpt lat="49.13813150179963" lon="2.5074714245131235"><ele>80.0</ele><time>2026-03-22T13:44:30.998Z</time></trkpt><trkpt lat="49.13821976300914" lon="2.507459639566352"><ele>80.0</ele><time>2026-03-22T13:44:32.998Z</time></trkpt><trkpt lat="49.13830086292035" lon="2.5074399668767215"><ele>80.0</ele><time>2026-03-22T13:44:34.998Z</time></trkpt><trkpt lat="49.1383396528989" lon="2.507552634372599"><ele>80.0</ele><time>2026-03-22T13:44:36.998Z</time></trkpt><trkpt lat="49.13841479812759" lon="2.5075586050954377"><ele>78.8</ele><time>2026-03-22T13:44:38.998Z</time></trkpt><trkpt lat="49.13849603559606" lon="2.5075075190310225"><ele>77.6</ele><time>2026-03-22T13:44:39.998Z</time></trkpt><trkpt lat="49.138571721968496" lon="2.5074294524725365"><ele>76.4</ele><time>2026-03-22T13:44:41.998Z</time></trkpt><trkpt lat="49.13863983048832" lon="2.5073146371909805"><ele>75.2</ele><time>2026-03-22T13:44:43.998Z</time></trkpt><trkpt lat="49.13871879185754" lon="2.5071795918578283"><ele>74.0</ele><time>2026-03-22T13:44:45.997Z</time></trkpt><trkpt lat="49.13881137156574" lon="2.5071308954991354"><ele>73.8</ele><time>2026-03-22T13:44:47.997Z</time></trkpt><trkpt lat="49.13892754245633" lon="2.5070380668543453"><ele>73.60000000000001</ele><time>2026-03-22T13:44:49.997Z</time></trkpt><trkpt lat="49.138958765700984" lon="2.506943209909697"><ele>73.4</ele><time>2026-03-22T13:44:50.997Z</time></trkpt><trkpt lat="49.13903172452612" lon="2.5067908970840094"><ele>73.2</ele><time>2026-03-22T13:44:52.997Z</time></trkpt><trkpt lat="49.139088662328746" lon="2.506644880557872"><ele>73.0</ele><time>2026-03-22T13:44:54.997Z</time></trkpt><trkpt lat="49.13913728843123" lon="2.5064827098913733"><ele>73.0</ele><time>2026-03-22T13:44:56.997Z</time></trkpt><trkpt lat="49.13921347779175" lon="2.506370188080336"><ele>73.0</ele><time>2026-03-22T13:44:58.997Z</time></trkpt><trkpt lat="49.139250860696144" lon="2.5062201101641435"><ele>73.0</ele><time>2026-03-22T13:45:00.997Z</time></trkpt><trkpt lat="49.13933706189296" lon="2.5061255194768206"><ele>73.0</ele><time>2026-03-22T13:45:03Z</time></trkpt><trkpt lat="49.13942828599239" lon="2.506089168508484"><ele>73.0</ele><time>2026-03-22T13:45:05Z</time></trkpt><trkpt lat="49.139516580050824" lon="2.5060557291510985"><ele>73.0</ele><time>2026-03-22T13:45:07Z</time></trkpt><trkpt lat="49.13961653983288" lon="2.5061271213417884"><ele>73.0</ele><time>2026-03-22T13:45:09.001Z</time></trkpt><trkpt lat="49.13969432874206" lon="2.506223030591151"><ele>73.0</ele><time>2026-03-22T13:45:11Z</time></trkpt><trkpt lat="49.13978024139492" lon="2.506315453970292"><ele>73.0</ele><time>2026-03-22T13:45:13Z</time></trkpt><trkpt lat="49.139886355683274" lon="2.5062973544343925"><ele>73.0</ele><time>2026-03-22T13:45:15Z</time></trkpt><trkpt lat="49.13996838670129" lon="2.506387941307645"><ele>72.8</ele><time>2026-03-22T13:45:17Z</time></trkpt><trkpt lat="49.14005579065124" lon="2.506460339242059"><ele>72.6</ele><time>2026-03-22T13:45:19Z</time></trkpt><trkpt lat="49.14012222269235" lon="2.5065486645713557"><ele>72.4</ele><time>2026-03-22T13:45:21Z</time></trkpt><trkpt lat="49.1402076098395" lon="2.50664784005569"><ele>72.2</ele><time>2026-03-22T13:45:23Z</time></trkpt><trkpt lat="49.14027195389712" lon="2.506774585926186"><ele>72.0</ele><time>2026-03-22T13:45:25Z</time></trkpt><trkpt lat="49.140335650770034" lon="2.5069037791532685"><ele>72.0</ele><time>2026-03-22T13:45:27Z</time></trkpt><trkpt lat="49.140441879255654" lon="2.50695163171809"><ele>72.0</ele><time>2026-03-22T13:45:29Z</time></trkpt><trkpt lat="49.14051906394226" lon="2.507000793106038"><ele>72.0</ele><time>2026-03-22T13:45:31Z</time></trkpt><trkpt lat="49.14059169741571" lon="2.507105181102638"><ele>72.0</ele><time>2026-03-22T13:45:33Z</time></trkpt><trkpt lat="49.14068965669987" lon="2.5071221164867326"><ele>72.0</ele><time>2026-03-22T13:45:35Z</time></trkpt><trkpt lat="49.14077097478095" lon="2.5071062449159496"><ele>71.57142857142858</ele><time>2026-03-22T13:45:37Z</time></trkpt><trkpt lat="49.140846381365286" lon="2.507113401719473"><ele>71.14285714285714</ele><time>2026-03-22T13:45:39Z</time></trkpt><trkpt lat="49.14092644608664" lon="2.5071237037409473"><ele>70.71428571428572</ele><time>2026-03-22T13:45:41Z</time></trkpt><trkpt lat="49.14100732888529" lon="2.507118446902547"><ele>70.28571428571429</ele><time>2026-03-22T13:45:43Z</time></trkpt><trkpt lat="49.14107165437314" lon="2.5071245533449065"><ele>69.85714285714286</ele><time>2026-03-22T13:45:45Z</time></trkpt><trkpt lat="49.14114748559247" lon="2.507111158314246"><ele>69.42857142857143</ele><time>2026-03-22T13:45:46.999Z</time></trkpt><trkpt lat="49.141210998311365" lon="2.5071092077611326"><ele>69.0</ele><time>2026-03-22T13:45:48.999Z</time></trkpt><trkpt lat="49.14129573102954" lon="2.507111381079019"><ele>69.0</ele><time>2026-03-22T13:45:50.999Z</time></trkpt><trkpt lat="49.14139365761553" lon="2.507102449683732"><ele>69.0</ele><time>2026-03-22T13:45:53.999Z</time></trkpt><trkpt lat="49.14143555274633" lon="2.5070097117005985"><ele>69.0</ele><time>2026-03-22T13:45:55.999Z</time></trkpt><trkpt lat="49.14145172211069" lon="2.506895875163067"><ele>69.0</ele><time>2026-03-22T13:45:57.999Z</time></trkpt><trkpt lat="49.14147250961945" lon="2.506804551850586"><ele>69.0</ele><time>2026-03-22T13:45:59.999Z</time></trkpt><trkpt lat="49.14148803419015" lon="2.506709964087546"><ele>69.0</ele><time>2026-03-22T13:46:01.999Z</time></trkpt><trkpt lat="49.14151274704106" lon="2.5066205680151534"><ele>69.0</ele><time>2026-03-22T13:46:03.999Z</time></trkpt><trkpt lat="49.141540654539504" lon="2.506465146330398"><ele>70.0</ele><time>2026-03-22T13:46:05.999Z</time></trkpt><trkpt lat="49.14156416750086" lon="2.5063357291061164"><ele>71.0</ele><time>2026-03-22T13:46:07.999Z</time></trkpt><trkpt lat="49.14157441256981" lon="2.5061978274796126"><ele>72.0</ele><time>2026-03-22T13:46:10.999Z</time></trkpt><trkpt lat="49.14159229440102" lon="2.506104493960479"><ele>73.0</ele><time>2026-03-22T13:46:12.999Z</time></trkpt><trkpt lat="49.141618693784004" lon="2.505969590468125"><ele>74.0</ele><time>2026-03-22T13:46:15.999Z</time></trkpt><trkpt lat="49.14163228708085" lon="2.5058755163111908"><ele>75.0</ele><time>2026-03-22T13:46:17.999Z</time></trkpt><trkpt lat="49.14165911856469" lon="2.5057353088558223"><ele>74.99999999999999</ele><time>2026-03-22T13:46:20.998Z</time></trkpt><trkpt lat="49.14167736808302" lon="2.5056276389968417"><ele>75.0</ele><time>2026-03-22T13:46:22.998Z</time></trkpt><trkpt lat="49.14169525743326" lon="2.505533564374587"><ele>75.0</ele><time>2026-03-22T13:46:24.998Z</time></trkpt><trkpt lat="49.141702973399134" lon="2.5054373824438216"><ele>75.0</ele><time>2026-03-22T13:46:26.998Z</time></trkpt><trkpt lat="49.141724059316495" lon="2.5053307202377453"><ele>75.0</ele><time>2026-03-22T13:46:29.998Z</time></trkpt><trkpt lat="49.14174613516999" lon="2.505189779946095"><ele>74.99999999999999</ele><time>2026-03-22T13:46:32.998Z</time></trkpt><trkpt lat="49.14175891715847" lon="2.5050938396468387"><ele>75.0</ele><time>2026-03-22T13:46:34.998Z</time></trkpt><trkpt lat="49.14177753847256" lon="2.504964664366619"><ele>75.16666666666667</ele><time>2026-03-22T13:46:37.998Z</time></trkpt><trkpt lat="49.14179578263579" lon="2.504826963073869"><ele>75.33333333333333</ele><time>2026-03-22T13:46:40.998Z</time></trkpt><trkpt lat="49.141811631144805" lon="2.5047186008137396"><ele>75.5</ele><time>2026-03-22T13:46:42.998Z</time></trkpt><trkpt lat="49.14182195209294" lon="2.504609472793736"><ele>75.66666666666666</ele><time>2026-03-22T13:46:44.998Z</time></trkpt><trkpt lat="49.14190822083971" lon="2.5045910494121397"><ele>75.83333333333333</ele><time>2026-03-22T13:46:47.998Z</time></trkpt><trkpt lat="49.14197190260429" lon="2.504588303672676"><ele>76.0</ele><time>2026-03-22T13:46:49.998Z</time></trkpt><trkpt lat="49.1420629194691" lon="2.5045785071514537"><ele>76.0</ele><time>2026-03-22T13:46:52.997Z</time></trkpt><trkpt lat="49.1421341467498" lon="2.5045686605969513"><ele>76.0</ele><time>2026-03-22T13:46:54.997Z</time></trkpt><trkpt lat="49.14220602151622" lon="2.50456141947964"><ele>76.0</ele><time>2026-03-22T13:46:56.997Z</time></trkpt><trkpt lat="49.14230074939765" lon="2.5045578882143724"><ele>76.0</ele><time>2026-03-22T13:46:59.997Z</time></trkpt><trkpt lat="49.14236866581995" lon="2.504547536300387"><ele>76.0</ele><time>2026-03-22T13:47:01.997Z</time></trkpt><trkpt lat="49.14247122772971" lon="2.504546514551836"><ele>76.0</ele><time>2026-03-22T13:47:04.997Z</time></trkpt><trkpt lat="49.142547604398594" lon="2.5045423097093904"><ele>76.28571428571428</ele><time>2026-03-22T13:47:06.997Z</time></trkpt><trkpt lat="49.142613414423685" lon="2.5045361219490276"><ele>76.57142857142858</ele><time>2026-03-22T13:47:09.001Z</time></trkpt><trkpt lat="49.14269567748617" lon="2.5045319960312944"><ele>76.85714285714286</ele><time>2026-03-22T13:47:11.001Z</time></trkpt><trkpt lat="49.14276449985781" lon="2.5045334293335726"><ele>77.14285714285714</ele><time>2026-03-22T13:47:13Z</time></trkpt><trkpt lat="49.142837037111704" lon="2.5045260009812855"><ele>77.42857142857142</ele><time>2026-03-22T13:47:15Z</time></trkpt><trkpt lat="49.14290990771964" lon="2.5045231731928235"><ele>77.71428571428572</ele><time>2026-03-22T13:47:17Z</time></trkpt><trkpt lat="49.14298205608342" lon="2.504519418186906"><ele>78.0</ele><time>2026-03-22T13:47:19Z</time></trkpt><trkpt lat="49.14305983025034" lon="2.5045219422110376"><ele>78.0</ele><time>2026-03-22T13:47:21Z</time></trkpt><trkpt lat="49.14314148394575" lon="2.5045276329807957"><ele>78.0</ele><time>2026-03-22T13:47:23Z</time></trkpt><trkpt lat="49.143219898621155" lon="2.5045301369084507"><ele>78.0</ele><time>2026-03-22T13:47:25Z</time></trkpt><trkpt lat="49.143320651564885" lon="2.504510434395924"><ele>78.0</ele><time>2026-03-22T13:47:27Z</time></trkpt><trkpt lat="49.14339367630627" lon="2.5044877723717636"><ele>78.0</ele><time>2026-03-22T13:47:29Z</time></trkpt><trkpt lat="49.14347721778218" lon="2.504488703699735"><ele>78.0</ele><time>2026-03-22T13:47:31Z</time></trkpt><trkpt lat="49.14355693462982" lon="2.504500671892249"><ele>78.16666666666667</ele><time>2026-03-22T13:47:33Z</time></trkpt><trkpt lat="49.14363895153175" lon="2.504493070581649"><ele>78.33333333333333</ele><time>2026-03-22T13:47:35Z</time></trkpt><trkpt lat="49.14371985794201" lon="2.5044995852065712"><ele>78.5</ele><time>2026-03-22T13:47:37Z</time></trkpt><trkpt lat="49.14380427334703" lon="2.504490752944523"><ele>78.66666666666666</ele><time>2026-03-22T13:47:39Z</time></trkpt><trkpt lat="49.14388729923928" lon="2.504487590621707"><ele>78.83333333333333</ele><time>2026-03-22T13:47:41Z</time></trkpt><trkpt lat="49.143975937310465" lon="2.5044906465901287"><ele>79.0</ele><time>2026-03-22T13:47:43Z</time></trkpt><trkpt lat="49.144052929027495" lon="2.5044759329415522"><ele>78.5</ele><time>2026-03-22T13:47:44.999Z</time></trkpt><trkpt lat="49.144122657536435" lon="2.50448499381361"><ele>78.0</ele><time>2026-03-22T13:47:47.999Z</time></trkpt><trkpt lat="49.14419798189898" lon="2.50449050204662"><ele>77.5</ele><time>2026-03-22T13:47:48.999Z</time></trkpt><trkpt lat="49.144299664520304" lon="2.5044828065068487"><ele>77.0</ele><time>2026-03-22T13:47:51.999Z</time></trkpt><trkpt lat="49.14438960902624" lon="2.504474243458467"><ele>76.5</ele><time>2026-03-22T13:47:53.999Z</time></trkpt><trkpt lat="49.144472406294646" lon="2.504469283341238"><ele>76.0</ele><time>2026-03-22T13:47:55.999Z</time></trkpt><trkpt lat="49.144539348898896" lon="2.5044525958162147"><ele>76.0</ele><time>2026-03-22T13:47:57.999Z</time></trkpt><trkpt lat="49.14462728429313" lon="2.5044821058884783"><ele>76.0</ele><time>2026-03-22T13:47:59.999Z</time></trkpt><trkpt lat="49.14469874805546" lon="2.504475393812999"><ele>76.0</ele><time>2026-03-22T13:48:01.999Z</time></trkpt><trkpt lat="49.144802468148406" lon="2.504470143981202"><ele>76.0</ele><time>2026-03-22T13:48:03.999Z</time></trkpt><trkpt lat="49.14488896761412" lon="2.5044626770865412"><ele>76.0</ele><time>2026-03-22T13:48:05.999Z</time></trkpt><trkpt lat="49.14498336313647" lon="2.504444151475261"><ele>76.0</ele><time>2026-03-22T13:48:07.999Z</time></trkpt><trkpt lat="49.14507259565281" lon="2.504445603466832"><ele>75.5</ele><time>2026-03-22T13:48:09.999Z</time></trkpt><trkpt lat="49.145139748691335" lon="2.5044640704076095"><ele>75.0</ele><time>2026-03-22T13:48:11.999Z</time></trkpt><trkpt lat="49.145220816909024" lon="2.5044724906103255"><ele>74.5</ele><time>2026-03-22T13:48:13.998Z</time></trkpt><trkpt lat="49.145297866191314" lon="2.5044643064795737"><ele>74.0</ele><time>2026-03-22T13:48:15.998Z</time></trkpt><trkpt lat="49.14537817761032" lon="2.5044735100577267"><ele>73.5</ele><time>2026-03-22T13:48:17.998Z</time></trkpt><trkpt lat="49.14546906609982" lon="2.504464807023215"><ele>73.0</ele><time>2026-03-22T13:48:19.998Z</time></trkpt><trkpt lat="49.14555719578914" lon="2.5043630873449856"><ele>73.0</ele><time>2026-03-22T13:48:21.998Z</time></trkpt><trkpt lat="49.145558713454506" lon="2.504222634274492"><ele>73.0</ele><time>2026-03-22T13:48:23.998Z</time></trkpt><trkpt lat="49.14556728856645" lon="2.504093410610394"><ele>73.0</ele><time>2026-03-22T13:48:25.998Z</time></trkpt><trkpt lat="49.145587975173264" lon="2.503968216548798"><ele>73.0</ele><time>2026-03-22T13:48:27.998Z</time></trkpt><trkpt lat="49.1456080766148" lon="2.5038476068407176"><ele>73.0</ele><time>2026-03-22T13:48:29.998Z</time></trkpt><trkpt lat="49.14562488216706" lon="2.50372287875454"><ele>73.0</ele><time>2026-03-22T13:48:31.998Z</time></trkpt><trkpt lat="49.14564315752434" lon="2.5036058024593473"><ele>73.16666666666666</ele><time>2026-03-22T13:48:33.998Z</time></trkpt><trkpt lat="49.14565962199495" lon="2.503477192016508"><ele>73.33333333333333</ele><time>2026-03-22T13:48:35.998Z</time></trkpt><trkpt lat="49.14567667265393" lon="2.503375805429665"><ele>73.5</ele><time>2026-03-22T13:48:37.998Z</time></trkpt><trkpt lat="49.14569855162764" lon="2.5032141022372283"><ele>73.66666666666667</ele><time>2026-03-22T13:48:39.998Z</time></trkpt><trkpt lat="49.145719707314235" lon="2.503078242321075"><ele>73.83333333333334</ele><time>2026-03-22T13:48:41.998Z</time></trkpt><trkpt lat="49.145742593173686" lon="2.5029396651476756"><ele>74.0</ele><time>2026-03-22T13:48:43.998Z</time></trkpt><trkpt lat="49.14574656240089" lon="2.502796717463022"><ele>72.8</ele><time>2026-03-22T13:48:45.997Z</time></trkpt><trkpt lat="49.1457687173832" lon="2.502637756486787"><ele>71.60000000000001</ele><time>2026-03-22T13:48:47.997Z</time></trkpt><trkpt lat="49.145790574015095" lon="2.5024964945166697"><ele>70.4</ele><time>2026-03-22T13:48:49.997Z</time></trkpt><trkpt lat="49.145807215234896" lon="2.502344996769049"><ele>69.2</ele><time>2026-03-22T13:48:51.997Z</time></trkpt><trkpt lat="49.145831335334634" lon="2.5021989100312485"><ele>68.0</ele><time>2026-03-22T13:48:53.997Z</time></trkpt><trkpt lat="49.14587018194665" lon="2.5020975123882723"><ele>68.0</ele><time>2026-03-22T13:48:55.997Z</time></trkpt><trkpt lat="49.145964836800516" lon="2.502154608384086"><ele>68.0</ele><time>2026-03-22T13:48:58.997Z</time></trkpt><trkpt lat="49.1460267271503" lon="2.502215564692617"><ele>68.0</ele><time>2026-03-22T13:49:00.997Z</time></trkpt><trkpt lat="49.146096761796365" lon="2.5022689393594"><ele>68.0</ele><time>2026-03-22T13:49:02.997Z</time></trkpt><trkpt lat="49.146179813536854" lon="2.5023347720849447"><ele>68.0</ele><time>2026-03-22T13:49:04.997Z</time></trkpt><trkpt lat="49.14626373447048" lon="2.5024115185190077"><ele>68.0</ele><time>2026-03-22T13:49:06.997Z</time></trkpt><trkpt lat="49.146353725880054" lon="2.502479499843339"><ele>68.0</ele><time>2026-03-22T13:49:08.997Z</time></trkpt><trkpt lat="49.14642595630589" lon="2.50256826907185"><ele>68.0</ele><time>2026-03-22T13:49:10.997Z</time></trkpt><trkpt lat="49.14652524461574" lon="2.502644182295121"><ele>68.0</ele><time>2026-03-22T13:49:13Z</time></trkpt><trkpt lat="49.14661845818005" lon="2.5027329370451077"><ele>68.0</ele><time>2026-03-22T13:49:15Z</time></trkpt><trkpt lat="49.146718418394315" lon="2.5028192995612555"><ele>68.0</ele><time>2026-03-22T13:49:17Z</time></trkpt><trkpt lat="49.14681822303083" lon="2.5029041828769754"><ele>66.5</ele><time>2026-03-22T13:49:19Z</time></trkpt><trkpt lat="49.14691629881264" lon="2.502992304725244"><ele>65.0</ele><time>2026-03-22T13:49:21Z</time></trkpt><trkpt lat="49.1470175690636" lon="2.5030779002674644"><ele>63.5</ele><time>2026-03-22T13:49:23Z</time></trkpt><trkpt lat="49.14711538529416" lon="2.5031638756402668"><ele>62.0</ele><time>2026-03-22T13:49:25Z</time></trkpt><trkpt lat="49.147209028450746" lon="2.503245244901338"><ele>62.0</ele><time>2026-03-22T13:49:27Z</time></trkpt><trkpt lat="49.147303498327524" lon="2.5033286570835425"><ele>62.0</ele><time>2026-03-22T13:49:29Z</time></trkpt><trkpt lat="49.1473960704527" lon="2.5034112091739846"><ele>62.0</ele><time>2026-03-22T13:49:31Z</time></trkpt><trkpt lat="49.14749393042158" lon="2.503497384591245"><ele>62.0</ele><time>2026-03-22T13:49:33Z</time></trkpt><trkpt lat="49.14759033401314" lon="2.5035813373236144"><ele>62.0</ele><time>2026-03-22T13:49:35Z</time></trkpt><trkpt lat="49.1476860467756" lon="2.503667979846001"><ele>62.2</ele><time>2026-03-22T13:49:37Z</time></trkpt><trkpt lat="49.147782409904025" lon="2.5037493617464723"><ele>62.400000000000006</ele><time>2026-03-22T13:49:39Z</time></trkpt><trkpt lat="49.14787276283215" lon="2.5038380167788503"><ele>62.599999999999994</ele><time>2026-03-22T13:49:41Z</time></trkpt><trkpt lat="49.14797296295166" lon="2.5039199057506565"><ele>62.8</ele><time>2026-03-22T13:49:43Z</time></trkpt><trkpt lat="49.14807064054548" lon="2.50400891716469"><ele>63.0</ele><time>2026-03-22T13:49:45Z</time></trkpt><trkpt lat="49.14817044072978" lon="2.5040942007358997"><ele>64.0</ele><time>2026-03-22T13:49:47Z</time></trkpt><trkpt lat="49.14826980135533" lon="2.504172620197032"><ele>65.0</ele><time>2026-03-22T13:49:49Z</time></trkpt><trkpt lat="49.14835293691485" lon="2.504270092993043"><ele>66.0</ele><time>2026-03-22T13:49:51Z</time></trkpt><trkpt lat="49.14844642624821" lon="2.5043293691392376"><ele>67.0</ele><time>2026-03-22T13:49:52.999Z</time></trkpt><trkpt lat="49.14851636012186" lon="2.5044154643423857"><ele>68.0</ele><time>2026-03-22T13:49:54.999Z</time></trkpt><trkpt lat="49.14864422328089" lon="2.5042348197516073"><ele>67.99999999999999</ele><time>2026-03-22T13:49:57.999Z</time></trkpt><trkpt lat="49.14871145337024" lon="2.504196253521998"><ele>68.0</ele><time>2026-03-22T13:49:59.999Z</time></trkpt><trkpt lat="49.14878019446013" lon="2.5041602152689757"><ele>68.0</ele><time>2026-03-22T13:50:01.999Z</time></trkpt><trkpt lat="49.148857960188806" lon="2.5041083894906024"><ele>68.0</ele><time>2026-03-22T13:50:03.999Z</time></trkpt><trkpt lat="49.14892969314137" lon="2.504069821699706"><ele>68.0</ele><time>2026-03-22T13:50:05.999Z</time></trkpt><trkpt lat="49.148995844771925" lon="2.5040183796916486"><ele>67.99999999999999</ele><time>2026-03-22T13:50:07.999Z</time></trkpt><trkpt lat="49.149057803936955" lon="2.5039753097558872"><ele>68.0</ele><time>2026-03-22T13:50:09.999Z</time></trkpt><trkpt lat="49.149138880445854" lon="2.5039243185696725"><ele>68.16666666666667</ele><time>2026-03-22T13:50:12.999Z</time></trkpt><trkpt lat="49.14922213062326" lon="2.5038828478517607"><ele>68.33333333333334</ele><time>2026-03-22T13:50:14.999Z</time></trkpt><trkpt lat="49.149301102303085" lon="2.5038393776923167"><ele>68.5</ele><time>2026-03-22T13:50:16.999Z</time></trkpt><trkpt lat="49.14938062004098" lon="2.5037906116858664"><ele>68.66666666666667</ele><time>2026-03-22T13:50:18.999Z</time></trkpt><trkpt lat="49.14945387199044" lon="2.5037383874612478"><ele>68.83333333333333</ele><time>2026-03-22T13:50:20.999Z</time></trkpt><trkpt lat="49.14953168852727" lon="2.5037043616267995"><ele>69.0</ele><time>2026-03-22T13:50:22.999Z</time></trkpt><trkpt lat="49.149599263815205" lon="2.5036597473723656"><ele>69.14285714285714</ele><time>2026-03-22T13:50:24.998Z</time></trkpt><trkpt lat="49.14967292808544" lon="2.5036166720803528"><ele>69.28571428571429</ele><time>2026-03-22T13:50:26.998Z</time></trkpt><trkpt lat="49.1497384348155" lon="2.50358338823058"><ele>69.42857142857143</ele><time>2026-03-22T13:50:28.998Z</time></trkpt><trkpt lat="49.14980416828079" lon="2.503550100966871"><ele>69.57142857142857</ele><time>2026-03-22T13:50:30.998Z</time></trkpt><trkpt lat="49.14986094135292" lon="2.5035071774069664"><ele>69.71428571428572</ele><time>2026-03-22T13:50:32.998Z</time></trkpt><trkpt lat="49.14992436999546" lon="2.5034784717378815"><ele>69.85714285714286</ele><time>2026-03-22T13:50:34.998Z</time></trkpt><trkpt lat="49.149991056495644" lon="2.5034348466247827"><ele>70.0</ele><time>2026-03-22T13:50:36.998Z</time></trkpt><trkpt lat="49.150055048734295" lon="2.5033982899413236"><ele>70.0</ele><time>2026-03-22T13:50:38.998Z</time></trkpt><trkpt lat="49.150120029184016" lon="2.503361986200157"><ele>70.0</ele><time>2026-03-22T13:50:40.998Z</time></trkpt><trkpt lat="49.150190004591614" lon="2.5032982897471534"><ele>70.0</ele><time>2026-03-22T13:50:42.998Z</time></trkpt><trkpt lat="49.15026234975247" lon="2.5032572640159296"><ele>70.0</ele><time>2026-03-22T13:50:44.998Z</time></trkpt><trkpt lat="49.15033716058673" lon="2.5032122951438964"><ele>70.0</ele><time>2026-03-22T13:50:46.998Z</time></trkpt><trkpt lat="49.150414350303464" lon="2.5031792588106425"><ele>70.0</ele><time>2026-03-22T13:50:48.998Z</time></trkpt><trkpt lat="49.150487620258296" lon="2.5031288250691914"><ele>70.0</ele><time>2026-03-22T13:50:50.998Z</time></trkpt><trkpt lat="49.15056531903991" lon="2.503077188258924"><ele>70.0</ele><time>2026-03-22T13:50:52.998Z</time></trkpt><trkpt lat="49.150640334807925" lon="2.503042319532547"><ele>70.0</ele><time>2026-03-22T13:50:54.998Z</time></trkpt><trkpt lat="49.150713854498306" lon="2.5029926133280718"><ele>70.0</ele><time>2026-03-22T13:50:56.997Z</time></trkpt><trkpt lat="49.15079041656885" lon="2.502957065215963"><ele>70.0</ele><time>2026-03-22T13:50:58.997Z</time></trkpt><trkpt lat="49.15087347468448" lon="2.5028975944762366"><ele>70.0</ele><time>2026-03-22T13:51:00.997Z</time></trkpt><trkpt lat="49.15094816490393" lon="2.5028625491611023"><ele>69.8</ele><time>2026-03-22T13:51:02.997Z</time></trkpt><trkpt lat="49.15102835897358" lon="2.502804859666308"><ele>69.6</ele><time>2026-03-22T13:51:04.997Z</time></trkpt><trkpt lat="49.15111464359418" lon="2.5027537985149393"><ele>69.4</ele><time>2026-03-22T13:51:06.997Z</time></trkpt><trkpt lat="49.151202844864585" lon="2.502702673515958"><ele>69.2</ele><time>2026-03-22T13:51:08.997Z</time></trkpt><trkpt lat="49.15129491373834" lon="2.502649405113112"><ele>69.0</ele><time>2026-03-22T13:51:10.997Z</time></trkpt><trkpt lat="49.15137996352859" lon="2.5026013312294713"><ele>69.0</ele><time>2026-03-22T13:51:12.997Z</time></trkpt><trkpt lat="49.15146895138033" lon="2.5025455101103637"><ele>69.0</ele><time>2026-03-22T13:51:14.997Z</time></trkpt><trkpt lat="49.15155603758525" lon="2.5024771269636745"><ele>69.0</ele><time>2026-03-22T13:51:16.997Z</time></trkpt><trkpt lat="49.151653110278936" lon="2.5024322515260207"><ele>69.0</ele><time>2026-03-22T13:51:19Z</time></trkpt><trkpt lat="49.15175806414626" lon="2.502380521264793"><ele>69.0</ele><time>2026-03-22T13:51:21Z</time></trkpt><trkpt lat="49.15184703414861" lon="2.502312396803292"><ele>68.4</ele><time>2026-03-22T13:51:23Z</time></trkpt><trkpt lat="49.15194314973811" lon="2.502252270840714"><ele>67.80000000000001</ele><time>2026-03-22T13:51:25Z</time></trkpt><trkpt lat="49.15204155571712" lon="2.502200423757014"><ele>67.19999999999999</ele><time>2026-03-22T13:51:27Z</time></trkpt><trkpt lat="49.15212807289412" lon="2.502143737795569"><ele>66.6</ele><time>2026-03-22T13:51:29Z</time></trkpt><trkpt lat="49.1522103675776" lon="2.5020904346784008"><ele>66.0</ele><time>2026-03-22T13:51:31Z</time></trkpt><trkpt lat="49.15231015821104" lon="2.5020333561259527"><ele>66.2</ele><time>2026-03-22T13:51:33Z</time></trkpt><trkpt lat="49.15240520698755" lon="2.5019770934690944"><ele>66.39999999999999</ele><time>2026-03-22T13:51:35Z</time></trkpt><trkpt lat="49.15250907306778" lon="2.5019146838033866"><ele>66.6</ele><time>2026-03-22T13:51:37Z</time></trkpt><trkpt lat="49.15261130704508" lon="2.5018545394582117"><ele>66.8</ele><time>2026-03-22T13:51:39Z</time></trkpt><trkpt lat="49.15271238135637" lon="2.501793772691661"><ele>67.0</ele><time>2026-03-22T13:51:41Z</time></trkpt><trkpt lat="49.15280490451708" lon="2.5017294677597675"><ele>67.0</ele><time>2026-03-22T13:51:43Z</time></trkpt><trkpt lat="49.15290251743821" lon="2.5016731371983023"><ele>67.0</ele><time>2026-03-22T13:51:45Z</time></trkpt><trkpt lat="49.15300038695787" lon="2.501630021394824"><ele>67.0</ele><time>2026-03-22T13:51:47Z</time></trkpt><trkpt lat="49.153089840427924" lon="2.5015546433483853"><ele>67.0</ele><time>2026-03-22T13:51:49Z</time></trkpt><trkpt lat="49.15317305555977" lon="2.5015041702599445"><ele>67.0</ele><time>2026-03-22T13:51:51Z</time></trkpt><trkpt lat="49.15326064644814" lon="2.501461475247208"><ele>67.0</ele><time>2026-03-22T13:51:53Z</time></trkpt><trkpt lat="49.153350224625036" lon="2.5014086493708088"><ele>67.0</ele><time>2026-03-22T13:51:55Z</time></trkpt><trkpt lat="49.153427973633384" lon="2.501354803248709"><ele>67.0</ele><time>2026-03-22T13:51:57Z</time></trkpt><trkpt lat="49.15350391043629" lon="2.50131450295711"><ele>67.0</ele><time>2026-03-22T13:51:59Z</time></trkpt><trkpt lat="49.15358756066728" lon="2.5012654758348907"><ele>67.0</ele><time>2026-03-22T13:52:00.999Z</time></trkpt><trkpt lat="49.15367246386219" lon="2.501212334298867"><ele>67.0</ele><time>2026-03-22T13:52:02.999Z</time></trkpt><trkpt lat="49.153763494524384" lon="2.5011610826025086"><ele>67.0</ele><time>2026-03-22T13:52:04.999Z</time></trkpt><trkpt lat="49.15384593743796" lon="2.5011209611203604"><ele>67.0</ele><time>2026-03-22T13:52:06.999Z</time></trkpt><trkpt lat="49.15391662187285" lon="2.50107494047181"><ele>67.0</ele><time>2026-03-22T13:52:08.999Z</time></trkpt><trkpt lat="49.15399324680945" lon="2.5010230296410985"><ele>67.0</ele><time>2026-03-22T13:52:10.999Z</time></trkpt><trkpt lat="49.154068178114066" lon="2.50098396791694"><ele>67.0</ele><time>2026-03-22T13:52:12.999Z</time></trkpt><trkpt lat="49.154151698244966" lon="2.500940216862252"><ele>67.0</ele><time>2026-03-22T13:52:14.999Z</time></trkpt><trkpt lat="49.15422942059744" lon="2.500899218260271"><ele>67.0</ele><time>2026-03-22T13:52:16.999Z</time></trkpt><trkpt lat="49.154300342047684" lon="2.500845017595618"><ele>67.0</ele><time>2026-03-22T13:52:18.999Z</time></trkpt><trkpt lat="49.15436154278377" lon="2.5007929454303457"><ele>67.0</ele><time>2026-03-22T13:52:20.999Z</time></trkpt><trkpt lat="49.15444478359053" lon="2.5007541185385813"><ele>67.0</ele><time>2026-03-22T13:52:22.999Z</time></trkpt><trkpt lat="49.1545272541892" lon="2.5007049099564105"><ele>67.0</ele><time>2026-03-22T13:52:24.999Z</time></trkpt><trkpt lat="49.154606186731755" lon="2.5006612629898712"><ele>67.0</ele><time>2026-03-22T13:52:26.999Z</time></trkpt><trkpt lat="49.15468465895229" lon="2.500615159592682"><ele>67.0</ele><time>2026-03-22T13:52:28.999Z</time></trkpt><trkpt lat="49.15476461431276" lon="2.500564318724872"><ele>67.0</ele><time>2026-03-22T13:52:30.998Z</time></trkpt><trkpt lat="49.15484957390155" lon="2.5005093669378335"><ele>67.0</ele><time>2026-03-22T13:52:32.998Z</time></trkpt><trkpt lat="49.15492954531407" lon="2.500466815738041"><ele>67.0</ele><time>2026-03-22T13:52:34.998Z</time></trkpt><trkpt lat="49.155003536144775" lon="2.5004124019428415"><ele>67.0</ele><time>2026-03-22T13:52:36.998Z</time></trkpt><trkpt lat="49.155095340456114" lon="2.500361210102212"><ele>67.0</ele><time>2026-03-22T13:52:38.998Z</time></trkpt><trkpt lat="49.15518153877896" lon="2.500314594681686"><ele>66.6</ele><time>2026-03-22T13:52:40.998Z</time></trkpt><trkpt lat="49.15526694105042" lon="2.5002655388664765"><ele>66.2</ele><time>2026-03-22T13:52:42.998Z</time></trkpt><trkpt lat="49.15535582653366" lon="2.5002004466642163"><ele>65.8</ele><time>2026-03-22T13:52:44.998Z</time></trkpt><trkpt lat="49.15544977783425" lon="2.5001500126896237"><ele>65.4</ele><time>2026-03-22T13:52:46.998Z</time></trkpt><trkpt lat="49.15555030276561" lon="2.5000788618072396"><ele>65.0</ele><time>2026-03-22T13:52:48.998Z</time></trkpt><trkpt lat="49.155655934610486" lon="2.500021246808952"><ele>65.25</ele><time>2026-03-22T13:52:50.998Z</time></trkpt><trkpt lat="49.15576348580299" lon="2.4999548152043563"><ele>65.5</ele><time>2026-03-22T13:52:52.998Z</time></trkpt><trkpt lat="49.15586844622275" lon="2.4998979202209206"><ele>65.75</ele><time>2026-03-22T13:52:54.998Z</time></trkpt><trkpt lat="49.15597534971383" lon="2.499830960460267"><ele>66.0</ele><time>2026-03-22T13:52:56.998Z</time></trkpt><trkpt lat="49.15608390264711" lon="2.4997791260059263"><ele>66.0</ele><time>2026-03-22T13:52:58.998Z</time></trkpt><trkpt lat="49.1561927066477" lon="2.499733446925616"><ele>66.0</ele><time>2026-03-22T13:53:00.997Z</time></trkpt><trkpt lat="49.156245613374246" lon="2.4996716714816714"><ele>66.0</ele><time>2026-03-22T13:53:02.997Z</time></trkpt><trkpt lat="49.15618810705473" lon="2.499599000341491"><ele>66.0</ele><time>2026-03-22T13:53:04.997Z</time></trkpt><trkpt lat="49.15617112538202" lon="2.4997037987309327"><ele>66.0</ele><time>2026-03-22T13:53:07.997Z</time></trkpt><trkpt lat="49.156244619919235" lon="2.4997184555355645"><ele>66.0</ele><time>2026-03-22T13:53:42Z</time></trkpt><trkpt lat="49.1563220567028" lon="2.499788984811371"><ele>66.0</ele><time>2026-03-22T13:53:45Z</time></trkpt><trkpt lat="49.15639977286553" lon="2.4998703291047732"><ele>66.0</ele><time>2026-03-22T13:53:47Z</time></trkpt><trkpt lat="49.15651443311249" lon="2.4999458252472566"><ele>66.0</ele><time>2026-03-22T13:53:49Z</time></trkpt><trkpt lat="49.156578326015456" lon="2.50000771424641"><ele>66.0</ele><time>2026-03-22T13:53:50Z</time></trkpt><trkpt lat="49.15665096798834" lon="2.500073642962692"><ele>66.0</ele><time>2026-03-22T13:53:51Z</time></trkpt><trkpt lat="49.15672383204478" lon="2.500141630850089"><ele>65.0</ele><time>2026-03-22T13:53:52Z</time></trkpt><trkpt lat="49.15679539218844" lon="2.5002120574145468"><ele>63.99999999999999</ele><time>2026-03-22T13:53:53Z</time></trkpt><trkpt lat="49.15686663758649" lon="2.500282500579706"><ele>62.99999999999999</ele><time>2026-03-22T13:53:54Z</time></trkpt><trkpt lat="49.15694587180415" lon="2.50033671351768"><ele>62.0</ele><time>2026-03-22T13:53:55Z</time></trkpt><trkpt lat="49.15702959516795" lon="2.5004164240891145"><ele>61.0</ele><time>2026-03-22T13:53:56Z</time></trkpt><trkpt lat="49.15711286095126" lon="2.500498956144788"><ele>60.8</ele><time>2026-03-22T13:53:57Z</time></trkpt><trkpt lat="49.157198716241396" lon="2.500578200132741"><ele>60.599999999999994</ele><time>2026-03-22T13:53:58Z</time></trkpt><trkpt lat="49.15728628641612" lon="2.500648927531093"><ele>60.4</ele><time>2026-03-22T13:53:59Z</time></trkpt><trkpt lat="49.15737141217952" lon="2.500717832393752"><ele>60.2</ele><time>2026-03-22T13:54:00Z</time></trkpt><trkpt lat="49.157444851845256" lon="2.500812648640645"><ele>60.0</ele><time>2026-03-22T13:54:01Z</time></trkpt><trkpt lat="49.15752433763558" lon="2.5008852226408425"><ele>58.166666666666664</ele><time>2026-03-22T13:54:02Z</time></trkpt><trkpt lat="49.15760853846754" lon="2.5009347826027426"><ele>56.33333333333333</ele><time>2026-03-22T13:54:03Z</time></trkpt><trkpt lat="49.15767395057169" lon="2.501022287838873"><ele>54.5</ele><time>2026-03-22T13:54:03.999Z</time></trkpt><trkpt lat="49.15774429948862" lon="2.5010867278946174"><ele>52.666666666666664</ele><time>2026-03-22T13:54:04.999Z</time></trkpt><trkpt lat="49.15781093771748" lon="2.501147738737627"><ele>50.83333333333333</ele><time>2026-03-22T13:54:05.999Z</time></trkpt><trkpt lat="49.15787363268958" lon="2.5012050047354895"><ele>49.0</ele><time>2026-03-22T13:54:06.999Z</time></trkpt><trkpt lat="49.15793283606997" lon="2.501258929129254"><ele>48.99999999999999</ele><time>2026-03-22T13:54:07.999Z</time></trkpt><trkpt lat="49.157990739177094" lon="2.501312428618645"><ele>49.0</ele><time>2026-03-22T13:54:08.999Z</time></trkpt><trkpt lat="49.158046273102016" lon="2.50136369526817"><ele>49.0</ele><time>2026-03-22T13:54:09.999Z</time></trkpt><trkpt lat="49.1581449732645" lon="2.5014530588599757"><ele>49.0</ele><time>2026-03-22T13:54:11.999Z</time></trkpt><trkpt lat="49.158238140597646" lon="2.501512304327464"><ele>48.99999999999999</ele><time>2026-03-22T13:54:13.999Z</time></trkpt><trkpt lat="49.15830468206241" lon="2.501575041087514"><ele>49.0</ele><time>2026-03-22T13:54:15.999Z</time></trkpt><trkpt lat="49.15836169774886" lon="2.501439297425191"><ele>49.42857142857143</ele><time>2026-03-22T13:54:19.999Z</time></trkpt><trkpt lat="49.15834793315274" lon="2.501333175986718"><ele>49.85714285714286</ele><time>2026-03-22T13:54:21.999Z</time></trkpt><trkpt lat="49.15835815714922" lon="2.501220995264527"><ele>50.285714285714285</ele><time>2026-03-22T13:54:23.999Z</time></trkpt><trkpt lat="49.15835517440941" lon="2.5011132768002757"><ele>50.714285714285715</ele><time>2026-03-22T13:54:25.999Z</time></trkpt><trkpt lat="49.15835791349041" lon="2.501006078546722"><ele>51.142857142857146</ele><time>2026-03-22T13:54:27.999Z</time></trkpt><trkpt lat="49.158363728705666" lon="2.5008955431707776"><ele>51.57142857142857</ele><time>2026-03-22T13:54:29.999Z</time></trkpt><trkpt lat="49.15836546063578" lon="2.5007936697279303"><ele>52.0</ele><time>2026-03-22T13:54:31.999Z</time></trkpt><trkpt lat="49.15836833091164" lon="2.500684305828081"><ele>51.99999999999999</ele><time>2026-03-22T13:54:33.999Z</time></trkpt><trkpt lat="49.15835904639609" lon="2.5005308407008395"><ele>52.0</ele><time>2026-03-22T13:54:35.998Z</time></trkpt><trkpt lat="49.15835101547003" lon="2.5004129613900536"><ele>52.0</ele><time>2026-03-22T13:54:37.998Z</time></trkpt><trkpt lat="49.15836039871955" lon="2.500283731101121"><ele>52.0</ele><time>2026-03-22T13:54:39.998Z</time></trkpt><trkpt lat="49.15835888599241" lon="2.5001653605053575"><ele>51.99999999999999</ele><time>2026-03-22T13:54:41.998Z</time></trkpt><trkpt lat="49.15835847706932" lon="2.500043404359386"><ele>52.0</ele><time>2026-03-22T13:54:43.998Z</time></trkpt><trkpt lat="49.158359446311465" lon="2.499916554611803"><ele>52.33333333333333</ele><time>2026-03-22T13:54:45.998Z</time></trkpt><trkpt lat="49.15835896382137" lon="2.4998006717290133"><ele>52.666666666666664</ele><time>2026-03-22T13:54:47.998Z</time></trkpt><trkpt lat="49.15835591950692" lon="2.499665828257061"><ele>53.0</ele><time>2026-03-22T13:54:49.998Z</time></trkpt><trkpt lat="49.15835564635648" lon="2.499529075047896"><ele>53.33333333333333</ele><time>2026-03-22T13:54:51.998Z</time></trkpt><trkpt lat="49.15835511746546" lon="2.4993920674829906"><ele>53.666666666666664</ele><time>2026-03-22T13:54:53.998Z</time></trkpt><trkpt lat="49.15835197719702" lon="2.4992490033004344"><ele>54.0</ele><time>2026-03-22T13:54:55.998Z</time></trkpt><trkpt lat="49.15835866903735" lon="2.499104316644263"><ele>54.0</ele><time>2026-03-22T13:54:57.998Z</time></trkpt><trkpt lat="49.15836176069914" lon="2.498974010659205"><ele>54.0</ele><time>2026-03-22T13:54:59.998Z</time></trkpt><trkpt lat="49.15836537397593" lon="2.498829612036481"><ele>54.0</ele><time>2026-03-22T13:55:01.998Z</time></trkpt><trkpt lat="49.15836277568807" lon="2.4986862955363356"><ele>54.0</ele><time>2026-03-22T13:55:03.998Z</time></trkpt><trkpt lat="49.15836681874376" lon="2.4985485711745565"><ele>54.0</ele><time>2026-03-22T13:55:05.998Z</time></trkpt><trkpt lat="49.15836920977629" lon="2.4984205857386343"><ele>54.0</ele><time>2026-03-22T13:55:07.997Z</time></trkpt><trkpt lat="49.15837387789216" lon="2.4982908256200895"><ele>54.0</ele><time>2026-03-22T13:55:09.997Z</time></trkpt><trkpt lat="49.15837953496836" lon="2.498167425544883"><ele>54.0</ele><time>2026-03-22T13:55:11.997Z</time></trkpt><trkpt lat="49.158389385793036" lon="2.4980498628944696"><ele>54.0</ele><time>2026-03-22T13:55:13.997Z</time></trkpt><trkpt lat="49.158397140068935" lon="2.4979343959974933"><ele>54.0</ele><time>2026-03-22T13:55:15.997Z</time></trkpt><trkpt lat="49.158408431418096" lon="2.497817517488018"><ele>54.0</ele><time>2026-03-22T13:55:17.997Z</time></trkpt><trkpt lat="49.15841893230094" lon="2.497705486459208"><ele>54.0</ele><time>2026-03-22T13:55:19.997Z</time></trkpt><trkpt lat="49.15843386923796" lon="2.4975266021313796"><ele>54.333333333333336</ele><time>2026-03-22T13:55:22.997Z</time></trkpt><trkpt lat="49.15844792109193" lon="2.497403910571895"><ele>54.66666666666667</ele><time>2026-03-22T13:55:24.997Z</time></trkpt><trkpt lat="49.158455913715066" lon="2.497305539599287"><ele>55.0</ele><time>2026-03-22T13:55:26.997Z</time></trkpt><trkpt lat="49.1584704870231" lon="2.497151634652595"><ele>55.333333333333336</ele><time>2026-03-22T13:55:28.997Z</time></trkpt><trkpt lat="49.15848016484474" lon="2.497026350287404"><ele>55.66666666666667</ele><time>2026-03-22T13:55:31Z</time></trkpt><trkpt lat="49.15848923260413" lon="2.4969046049399912"><ele>56.0</ele><time>2026-03-22T13:55:33Z</time></trkpt><trkpt lat="49.158499260130874" lon="2.496778185520594"><ele>56.4</ele><time>2026-03-22T13:55:35Z</time></trkpt><trkpt lat="49.158510368429695" lon="2.496648930779915"><ele>56.8</ele><time>2026-03-22T13:55:37Z</time></trkpt><trkpt lat="49.15852449962119" lon="2.496514239699445"><ele>57.199999999999996</ele><time>2026-03-22T13:55:39Z</time></trkpt><trkpt lat="49.15853294455898" lon="2.4963697325560763"><ele>57.599999999999994</ele><time>2026-03-22T13:55:41Z</time></trkpt><trkpt lat="49.15854463611235" lon="2.49621620176791"><ele>58.0</ele><time>2026-03-22T13:55:43Z</time></trkpt><trkpt lat="49.158558570024844" lon="2.4960453357583234"><ele>58.0</ele><time>2026-03-22T13:55:45Z</time></trkpt><trkpt lat="49.15857562216519" lon="2.4958621497563773"><ele>58.0</ele><time>2026-03-22T13:55:47Z</time></trkpt><trkpt lat="49.158584911583816" lon="2.495666176709028"><ele>58.0</ele><time>2026-03-22T13:55:49Z</time></trkpt><trkpt lat="49.15859116374619" lon="2.495568595958856"><ele>58.0</ele><time>2026-03-22T13:55:50Z</time></trkpt><trkpt lat="49.158590716309725" lon="2.4953765386443756"><ele>58.0</ele><time>2026-03-22T13:55:52Z</time></trkpt><trkpt lat="49.15858828842244" lon="2.495191024596749"><ele>57.4</ele><time>2026-03-22T13:55:54Z</time></trkpt><trkpt lat="49.158579088004046" lon="2.495011780509325"><ele>56.8</ele><time>2026-03-22T13:55:56Z</time></trkpt><trkpt lat="49.15857047799238" lon="2.4948321531242277"><ele>56.2</ele><time>2026-03-22T13:55:58Z</time></trkpt><trkpt lat="49.158562597977294" lon="2.494733586303014"><ele>55.6</ele><time>2026-03-22T13:55:59Z</time></trkpt><trkpt lat="49.158529814038836" lon="2.494570556009681"><ele>55.0</ele><time>2026-03-22T13:56:01Z</time></trkpt><trkpt lat="49.15852699637235" lon="2.494460378041719"><ele>55.0</ele><time>2026-03-22T13:56:02Z</time></trkpt><trkpt lat="49.158510153477266" lon="2.4942747585489196"><ele>55.0</ele><time>2026-03-22T13:56:04Z</time></trkpt><trkpt lat="49.158491519309955" lon="2.494083197262967"><ele>55.0</ele><time>2026-03-22T13:56:06Z</time></trkpt><trkpt lat="49.15847535629513" lon="2.4939892360491096"><ele>55.0</ele><time>2026-03-22T13:56:07Z</time></trkpt><trkpt lat="49.1584666242448" lon="2.493893271192647"><ele>55.0</ele><time>2026-03-22T13:56:08Z</time></trkpt><trkpt lat="49.158447284403614" lon="2.493700767687507"><ele>55.25</ele><time>2026-03-22T13:56:09.999Z</time></trkpt><trkpt lat="49.15842939629216" lon="2.493515405849081"><ele>55.5</ele><time>2026-03-22T13:56:11.999Z</time></trkpt><trkpt lat="49.15840646322055" lon="2.493334577608742"><ele>55.75</ele><time>2026-03-22T13:56:13.999Z</time></trkpt><trkpt lat="49.15838809175151" lon="2.4931491404228123"><ele>56.0</ele><time>2026-03-22T13:56:15.999Z</time></trkpt><trkpt lat="49.158374979714566" lon="2.492973134115841"><ele>56.0</ele><time>2026-03-22T13:56:17.999Z</time></trkpt><trkpt lat="49.15835157958293" lon="2.492787874417951"><ele>56.0</ele><time>2026-03-22T13:56:19.999Z</time></trkpt><trkpt lat="49.158335240738296" lon="2.492613912947307"><ele>56.0</ele><time>2026-03-22T13:56:21.999Z</time></trkpt><trkpt lat="49.158316605099316" lon="2.4924387139557234"><ele>56.0</ele><time>2026-03-22T13:56:23.999Z</time></trkpt><trkpt lat="49.15830062088942" lon="2.4922808450350677"><ele>56.0</ele><time>2026-03-22T13:56:25.999Z</time></trkpt><trkpt lat="49.158283374168434" lon="2.492127260965626"><ele>55.99999999999999</ele><time>2026-03-22T13:56:27.999Z</time></trkpt><trkpt lat="49.158266750878525" lon="2.491973935394931"><ele>55.99999999999999</ele><time>2026-03-22T13:56:29.999Z</time></trkpt><trkpt lat="49.158251934130476" lon="2.4918287208159438"><ele>56.0</ele><time>2026-03-22T13:56:31.999Z</time></trkpt><trkpt lat="49.158244538901705" lon="2.4916822313368128"><ele>56.0</ele><time>2026-03-22T13:56:33.999Z</time></trkpt><trkpt lat="49.15822744299263" lon="2.491543399546248"><ele>56.199999999999996</ele><time>2026-03-22T13:56:35.999Z</time></trkpt><trkpt lat="49.15821302450322" lon="2.4913985330881463"><ele>56.39999999999999</ele><time>2026-03-22T13:56:37.999Z</time></trkpt><trkpt lat="49.158199222350085" lon="2.4912410941481404"><ele>56.6</ele><time>2026-03-22T13:56:39.999Z</time></trkpt><trkpt lat="49.158183318024584" lon="2.4910789959903776"><ele>56.8</ele><time>2026-03-22T13:56:41.998Z</time></trkpt><trkpt lat="49.158169755549636" lon="2.4909024712573413"><ele>57.0</ele><time>2026-03-22T13:56:43.998Z</time></trkpt><trkpt lat="49.158159371969816" lon="2.4907206370350106"><ele>55.25</ele><time>2026-03-22T13:56:45.998Z</time></trkpt><trkpt lat="49.158142356981394" lon="2.4905452117187457"><ele>53.5</ele><time>2026-03-22T13:56:47.998Z</time></trkpt><trkpt lat="49.158125713271644" lon="2.490366467028397"><ele>51.75</ele><time>2026-03-22T13:56:49.998Z</time></trkpt><trkpt lat="49.15810614719416" lon="2.490193259412796"><ele>50.0</ele><time>2026-03-22T13:56:51.998Z</time></trkpt><trkpt lat="49.15809682705251" lon="2.4900153524565214"><ele>50.0</ele><time>2026-03-22T13:56:53.998Z</time></trkpt><trkpt lat="49.15812221719792" lon="2.489839410765791"><ele>50.0</ele><time>2026-03-22T13:56:55.998Z</time></trkpt><trkpt lat="49.15818509985311" lon="2.4896759573774356"><ele>50.0</ele><time>2026-03-22T13:56:57.998Z</time></trkpt><trkpt lat="49.158276069843254" lon="2.4895476391854734"><ele>50.0</ele><time>2026-03-22T13:56:59.998Z</time></trkpt><trkpt lat="49.15832027576557" lon="2.4894776771728675"><ele>50.0</ele><time>2026-03-22T13:57:00.998Z</time></trkpt><trkpt lat="49.15841217650017" lon="2.4893450547374862"><ele>51.6</ele><time>2026-03-22T13:57:02.998Z</time></trkpt><trkpt lat="49.15850221696399" lon="2.4892099617764973"><ele>53.2</ele><time>2026-03-22T13:57:04.998Z</time></trkpt><trkpt lat="49.15859264973141" lon="2.4890733264263947"><ele>54.8</ele><time>2026-03-22T13:57:06.998Z</time></trkpt><trkpt lat="49.15863804403648" lon="2.4890036240070748"><ele>56.4</ele><time>2026-03-22T13:57:07.998Z</time></trkpt><trkpt lat="49.15868302763909" lon="2.4889284259230338"><ele>58.0</ele><time>2026-03-22T13:57:08.998Z</time></trkpt><trkpt lat="49.15876786264416" lon="2.4887849869202556"><ele>57.49999999999999</ele><time>2026-03-22T13:57:10.998Z</time></trkpt><trkpt lat="49.158814951887734" lon="2.488711127943873"><ele>57.0</ele><time>2026-03-22T13:57:11.998Z</time></trkpt><trkpt lat="49.1588608410457" lon="2.4886434553529737"><ele>56.5</ele><time>2026-03-22T13:57:12.998Z</time></trkpt><trkpt lat="49.1589045573209" lon="2.4885717786302335"><ele>56.0</ele><time>2026-03-22T13:57:13.997Z</time></trkpt><trkpt lat="49.15899587113946" lon="2.488439749021131"><ele>55.49999999999999</ele><time>2026-03-22T13:57:15.997Z</time></trkpt><trkpt lat="49.15908402909525" lon="2.4883040940504504"><ele>55.0</ele><time>2026-03-22T13:57:17.997Z</time></trkpt><trkpt lat="49.15916880801204" lon="2.4881662716160076"><ele>55.8</ele><time>2026-03-22T13:57:19.997Z</time></trkpt><trkpt lat="49.159258689843035" lon="2.4880390228712463"><ele>56.6</ele><time>2026-03-22T13:57:21.997Z</time></trkpt><trkpt lat="49.15934711611286" lon="2.4879204157907875"><ele>57.400000000000006</ele><time>2026-03-22T13:57:23.997Z</time></trkpt><trkpt lat="49.15939383352609" lon="2.487851716095475"><ele>58.2</ele><time>2026-03-22T13:57:24.997Z</time></trkpt><trkpt lat="49.159470720076094" lon="2.4877116312071728"><ele>59.0</ele><time>2026-03-22T13:57:26.997Z</time></trkpt><trkpt lat="49.15950564639538" lon="2.487630791672026"><ele>59.0</ele><time>2026-03-22T13:57:27.997Z</time></trkpt><trkpt lat="49.15957996784671" lon="2.4874845441915268"><ele>59.0</ele><time>2026-03-22T13:57:29.997Z</time></trkpt><trkpt lat="49.159652258665474" lon="2.487336977392184"><ele>59.0</ele><time>2026-03-22T13:57:31.997Z</time></trkpt><trkpt lat="49.159715786488576" lon="2.4871916724411705"><ele>59.0</ele><time>2026-03-22T13:57:33.997Z</time></trkpt><trkpt lat="49.15977835595028" lon="2.487070992567545"><ele>58.333333333333336</ele><time>2026-03-22T13:57:35.997Z</time></trkpt><trkpt lat="49.15986458276439" lon="2.487038576421352"><ele>57.66666666666667</ele><time>2026-03-22T13:57:38Z</time></trkpt><trkpt lat="49.159907944356746" lon="2.486967858164935"><ele>57.0</ele><time>2026-03-22T13:57:41Z</time></trkpt><trkpt lat="49.159950956031565" lon="2.486893162239536"><ele>56.33333333333333</ele><time>2026-03-22T13:57:43Z</time></trkpt><trkpt lat="49.15999905472254" lon="2.4868078168830308"><ele>55.666666666666664</ele><time>2026-03-22T13:57:45Z</time></trkpt><trkpt lat="49.16003920634174" lon="2.4866993455650803"><ele>55.0</ele><time>2026-03-22T13:57:47Z</time></trkpt><trkpt lat="49.160090522336525" lon="2.4866041147533364"><ele>56.666666666666664</ele><time>2026-03-22T13:57:49Z</time></trkpt><trkpt lat="49.16014072454606" lon="2.486502887676709"><ele>58.33333333333333</ele><time>2026-03-22T13:57:51Z</time></trkpt><trkpt lat="49.16019719428666" lon="2.486402417456347"><ele>60.0</ele><time>2026-03-22T13:57:53Z</time></trkpt><trkpt lat="49.16025166627574" lon="2.4862989567214675"><ele>61.66666666666667</ele><time>2026-03-22T13:57:55Z</time></trkpt><trkpt lat="49.160311505965666" lon="2.4862081694689433"><ele>63.333333333333336</ele><time>2026-03-22T13:57:57Z</time></trkpt><trkpt lat="49.16036991951974" lon="2.4861163448407537"><ele>65.0</ele><time>2026-03-22T13:57:59Z</time></trkpt><trkpt lat="49.16042632206569" lon="2.4860339154229756"><ele>65.33333333333334</ele><time>2026-03-22T13:58:01Z</time></trkpt><trkpt lat="49.160488227635234" lon="2.485948984390495"><ele>65.66666666666667</ele><time>2026-03-22T13:58:03Z</time></trkpt><trkpt lat="49.160532645112106" lon="2.4858416791317963"><ele>66.0</ele><time>2026-03-22T13:58:05Z</time></trkpt><trkpt lat="49.160586637564734" lon="2.485747522798666"><ele>66.33333333333333</ele><time>2026-03-22T13:58:07Z</time></trkpt><trkpt lat="49.160636928089986" lon="2.4856541260321814"><ele>66.66666666666666</ele><time>2026-03-22T13:58:09Z</time></trkpt><trkpt lat="49.1606839230781" lon="2.485552842290655"><ele>67.0</ele><time>2026-03-22T13:58:11Z</time></trkpt><trkpt lat="49.16073483493273" lon="2.485463424944835"><ele>67.33333333333333</ele><time>2026-03-22T13:58:13Z</time></trkpt><trkpt lat="49.16078676631019" lon="2.4853789851374373"><ele>67.66666666666666</ele><time>2026-03-22T13:58:14.999Z</time></trkpt><trkpt lat="49.16083378415296" lon="2.485296943184807"><ele>68.0</ele><time>2026-03-22T13:58:16.999Z</time></trkpt><trkpt lat="49.16088606972756" lon="2.4852120657702614"><ele>68.33333333333333</ele><time>2026-03-22T13:58:18.999Z</time></trkpt><trkpt lat="49.16093875785597" lon="2.4851313899995797"><ele>68.66666666666667</ele><time>2026-03-22T13:58:20.999Z</time></trkpt><trkpt lat="49.16099325453614" lon="2.4850432401230567"><ele>69.0</ele><time>2026-03-22T13:58:22.999Z</time></trkpt><trkpt lat="49.161047281603686" lon="2.4849522778700126"><ele>69.0</ele><time>2026-03-22T13:58:24.999Z</time></trkpt><trkpt lat="49.16110246963517" lon="2.484859474081448"><ele>69.0</ele><time>2026-03-22T13:58:26.999Z</time></trkpt><trkpt lat="49.16115321733532" lon="2.484765160631272"><ele>69.0</ele><time>2026-03-22T13:58:28.999Z</time></trkpt><trkpt lat="49.161207033532" lon="2.484676806222003"><ele>69.0</ele><time>2026-03-22T13:58:30.999Z</time></trkpt><trkpt lat="49.16125746012092" lon="2.484584830911196"><ele>69.0</ele><time>2026-03-22T13:58:32.999Z</time></trkpt><trkpt lat="49.16130801545579" lon="2.4844902005763374"><ele>69.0</ele><time>2026-03-22T13:58:34.999Z</time></trkpt><trkpt lat="49.16135708483455" lon="2.484394929683681"><ele>69.33333333333333</ele><time>2026-03-22T13:58:36.999Z</time></trkpt><trkpt lat="49.161400708738626" lon="2.4842907405760797"><ele>69.66666666666667</ele><time>2026-03-22T13:58:38.999Z</time></trkpt><trkpt lat="49.16145509140231" lon="2.4841981434730287"><ele>70.0</ele><time>2026-03-22T13:58:40.999Z</time></trkpt><trkpt lat="49.16151429600685" lon="2.4841098125853276"><ele>70.33333333333334</ele><time>2026-03-22T13:58:42.999Z</time></trkpt><trkpt lat="49.161573104115305" lon="2.484000741739433"><ele>70.66666666666667</ele><time>2026-03-22T13:58:44.999Z</time></trkpt><trkpt lat="49.16162914834751" lon="2.483901805145946"><ele>71.0</ele><time>2026-03-22T13:58:46.998Z</time></trkpt><trkpt lat="49.16168755002993" lon="2.4838039577627318"><ele>71.16666666666667</ele><time>2026-03-22T13:58:48.998Z</time></trkpt><trkpt lat="49.161739627461095" lon="2.4837010799650683"><ele>71.33333333333334</ele><time>2026-03-22T13:58:50.998Z</time></trkpt><trkpt lat="49.16179809022609" lon="2.4836018558415245"><ele>71.5</ele><time>2026-03-22T13:58:52.998Z</time></trkpt><trkpt lat="49.161858857802045" lon="2.4834960368519825"><ele>71.66666666666667</ele><time>2026-03-22T13:58:54.998Z</time></trkpt><trkpt lat="49.16192529918534" lon="2.483396728882328"><ele>71.83333333333333</ele><time>2026-03-22T13:58:56.998Z</time></trkpt><trkpt lat="49.16199357418655" lon="2.483309324077158"><ele>72.0</ele><time>2026-03-22T13:58:58.998Z</time></trkpt><trkpt lat="49.162050038859995" lon="2.483191192615721"><ele>72.0</ele><time>2026-03-22T13:59:00.998Z</time></trkpt><trkpt lat="49.16212383214071" lon="2.483092358974753"><ele>72.0</ele><time>2026-03-22T13:59:02.998Z</time></trkpt><trkpt lat="49.16219240234075" lon="2.482978096603674"><ele>72.0</ele><time>2026-03-22T13:59:04.998Z</time></trkpt><trkpt lat="49.162261109061006" lon="2.482868824391606"><ele>72.0</ele><time>2026-03-22T13:59:06.998Z</time></trkpt><trkpt lat="49.162320861964204" lon="2.482749468468128"><ele>72.0</ele><time>2026-03-22T13:59:08.998Z</time></trkpt><trkpt lat="49.16238687026789" lon="2.4826478385687727"><ele>71.6</ele><time>2026-03-22T13:59:10.998Z</time></trkpt><trkpt lat="49.16244788477576" lon="2.482541992308326"><ele>71.2</ele><time>2026-03-22T13:59:12.998Z</time></trkpt><trkpt lat="49.162510919838105" lon="2.4824367746672724"><ele>70.8</ele><time>2026-03-22T13:59:14.998Z</time></trkpt><trkpt lat="49.162574954285255" lon="2.482327784057147"><ele>70.4</ele><time>2026-03-22T13:59:16.998Z</time></trkpt><trkpt lat="49.162634209273776" lon="2.4822158091971147"><ele>70.0</ele><time>2026-03-22T13:59:18.997Z</time></trkpt><trkpt lat="49.162687730642915" lon="2.482103328962023"><ele>70.6</ele><time>2026-03-22T13:59:20.997Z</time></trkpt><trkpt lat="49.16274634673324" lon="2.481993167997755"><ele>71.2</ele><time>2026-03-22T13:59:22.997Z</time></trkpt><trkpt lat="49.16281770697055" lon="2.481901442983667"><ele>71.8</ele><time>2026-03-22T13:59:24.997Z</time></trkpt><trkpt lat="49.1628669416745" lon="2.4817860340519653"><ele>72.4</ele><time>2026-03-22T13:59:26.997Z</time></trkpt><trkpt lat="49.16292986760029" lon="2.4816880191283768"><ele>73.0</ele><time>2026-03-22T13:59:28.997Z</time></trkpt><trkpt lat="49.16299300599035" lon="2.4815905694916953"><ele>73.0</ele><time>2026-03-22T13:59:30.997Z</time></trkpt><trkpt lat="49.16304803934605" lon="2.481482378349143"><ele>73.0</ele><time>2026-03-22T13:59:32.997Z</time></trkpt><trkpt lat="49.16310795099045" lon="2.481373250134421"><ele>73.0</ele><time>2026-03-22T13:59:34.997Z</time></trkpt><trkpt lat="49.163167966138275" lon="2.4812645267354116"><ele>73.0</ele><time>2026-03-22T13:59:36.997Z</time></trkpt><trkpt lat="49.16322817388527" lon="2.4811551824557356"><ele>73.0</ele><time>2026-03-22T13:59:38.997Z</time></trkpt><trkpt lat="49.16329063298733" lon="2.4810470410935945"><ele>72.6</ele><time>2026-03-22T13:59:40.997Z</time></trkpt><trkpt lat="49.16335279045923" lon="2.48093799665036"><ele>72.19999999999999</ele><time>2026-03-22T13:59:43Z</time></trkpt><trkpt lat="49.16341676565277" lon="2.480831292633608"><ele>71.8</ele><time>2026-03-22T13:59:45Z</time></trkpt><trkpt lat="49.16348116768592" lon="2.4807310894987373"><ele>71.39999999999999</ele><time>2026-03-22T13:59:47Z</time></trkpt><trkpt lat="49.16353685848372" lon="2.480608178535325"><ele>71.0</ele><time>2026-03-22T13:59:49Z</time></trkpt><trkpt lat="49.16360125088236" lon="2.4805023516521696"><ele>71.2</ele><time>2026-03-22T13:59:51Z</time></trkpt><trkpt lat="49.16366341273715" lon="2.4803990066359587"><ele>71.39999999999999</ele><time>2026-03-22T13:59:53Z</time></trkpt><trkpt lat="49.163722776847905" lon="2.480286385689044"><ele>71.6</ele><time>2026-03-22T13:59:55Z</time></trkpt><trkpt lat="49.163787611919005" lon="2.480187291319007"><ele>71.8</ele><time>2026-03-22T13:59:57Z</time></trkpt><trkpt lat="49.163850651014464" lon="2.4800858243908337"><ele>72.0</ele><time>2026-03-22T13:59:59Z</time></trkpt><trkpt lat="49.163911374835216" lon="2.4799819283969673"><ele>72.0</ele><time>2026-03-22T14:00:01Z</time></trkpt><trkpt lat="49.16397412534563" lon="2.4798742960179236"><ele>72.0</ele><time>2026-03-22T14:00:03Z</time></trkpt><trkpt lat="49.164034840259255" lon="2.479769067876212"><ele>72.0</ele><time>2026-03-22T14:00:05Z</time></trkpt><trkpt lat="49.1640969916944" lon="2.479665707322173"><ele>72.0</ele><time>2026-03-22T14:00:07Z</time></trkpt><trkpt lat="49.164160573892325" lon="2.479563982453175"><ele>72.0</ele><time>2026-03-22T14:00:09Z</time></trkpt><trkpt lat="49.16422307467562" lon="2.479464351397585"><ele>71.4</ele><time>2026-03-22T14:00:11Z</time></trkpt><trkpt lat="49.16428386492311" lon="2.4793583539848787"><ele>70.80000000000001</ele><time>2026-03-22T14:00:13Z</time></trkpt><trkpt lat="49.16434637217818" lon="2.4792582090230013"><ele>70.2</ele><time>2026-03-22T14:00:15Z</time></trkpt><trkpt lat="49.16440684655324" lon="2.479145993586904"><ele>69.60000000000001</ele><time>2026-03-22T14:00:17Z</time></trkpt><trkpt lat="49.16447004203762" lon="2.479038119901058"><ele>69.0</ele><time>2026-03-22T14:00:19Z</time></trkpt><trkpt lat="49.164535212818556" lon="2.478927153428506"><ele>69.0</ele><time>2026-03-22T14:00:20.999Z</time></trkpt><trkpt lat="49.16459632201534" lon="2.4788141788631366"><ele>69.0</ele><time>2026-03-22T14:00:22.999Z</time></trkpt><trkpt lat="49.16466414602685" lon="2.478708352856473"><ele>69.0</ele><time>2026-03-22T14:00:24.999Z</time></trkpt><trkpt lat="49.164739597856965" lon="2.4785914391885964"><ele>69.0</ele><time>2026-03-22T14:00:26.999Z</time></trkpt><trkpt lat="49.164796469809005" lon="2.4784741656549256"><ele>69.0</ele><time>2026-03-22T14:00:28.999Z</time></trkpt><trkpt lat="49.164861986578934" lon="2.4783705843163513"><ele>69.60000000000001</ele><time>2026-03-22T14:00:30.999Z</time></trkpt><trkpt lat="49.16495077179076" lon="2.478257874047141"><ele>70.2</ele><time>2026-03-22T14:00:32.999Z</time></trkpt><trkpt lat="49.16502094779126" lon="2.4781424765770805"><ele>70.80000000000001</ele><time>2026-03-22T14:00:34.999Z</time></trkpt><trkpt lat="49.165091169176605" lon="2.478026972010824"><ele>71.4</ele><time>2026-03-22T14:00:36.999Z</time></trkpt><trkpt lat="49.16515321972116" lon="2.4779235927867926"><ele>72.0</ele><time>2026-03-22T14:00:38.999Z</time></trkpt><trkpt lat="49.165223778482314" lon="2.47781365752753"><ele>72.0</ele><time>2026-03-22T14:00:40.999Z</time></trkpt><trkpt lat="49.16528732458789" lon="2.477696035574269"><ele>72.0</ele><time>2026-03-22T14:00:42.999Z</time></trkpt><trkpt lat="49.16535206047323" lon="2.477584952279419"><ele>72.0</ele><time>2026-03-22T14:00:44.999Z</time></trkpt><trkpt lat="49.16538111514442" lon="2.4774542797663393"><ele>72.0</ele><time>2026-03-22T14:00:46.999Z</time></trkpt><trkpt lat="49.165444738531605" lon="2.4773346036783015"><ele>72.0</ele><time>2026-03-22T14:00:48.999Z</time></trkpt><trkpt lat="49.16550760818124" lon="2.477231007009526"><ele>72.0</ele><time>2026-03-22T14:00:50.999Z</time></trkpt><trkpt lat="49.165571019653854" lon="2.477115446645378"><ele>72.0</ele><time>2026-03-22T14:00:52.998Z</time></trkpt><trkpt lat="49.16564096404492" lon="2.4769932662914402"><ele>72.0</ele><time>2026-03-22T14:00:54.998Z</time></trkpt><trkpt lat="49.16570813861596" lon="2.4768699139367403"><ele>72.0</ele><time>2026-03-22T14:00:56.998Z</time></trkpt><trkpt lat="49.165780867917825" lon="2.4767567402789292"><ele>72.0</ele><time>2026-03-22T14:00:58.998Z</time></trkpt><trkpt lat="49.16585255700522" lon="2.4766410293499526"><ele>71.8</ele><time>2026-03-22T14:01:00.998Z</time></trkpt><trkpt lat="49.16592103000861" lon="2.476525113566258"><ele>71.6</ele><time>2026-03-22T14:01:02.998Z</time></trkpt><trkpt lat="49.1659865424462" lon="2.476410208698155"><ele>71.39999999999999</ele><time>2026-03-22T14:01:04.998Z</time></trkpt><trkpt lat="49.16605209968405" lon="2.476299337315361"><ele>71.2</ele><time>2026-03-22T14:01:06.998Z</time></trkpt><trkpt lat="49.1661173449858" lon="2.4761865143642594"><ele>71.0</ele><time>2026-03-22T14:01:08.998Z</time></trkpt><trkpt lat="49.16617780961195" lon="2.476068890225445"><ele>71.0</ele><time>2026-03-22T14:01:10.998Z</time></trkpt><trkpt lat="49.166240795891" lon="2.4759615103553343"><ele>71.0</ele><time>2026-03-22T14:01:12.998Z</time></trkpt><trkpt lat="49.16630497447822" lon="2.4758553371047176"><ele>71.0</ele><time>2026-03-22T14:01:14.998Z</time></trkpt><trkpt lat="49.16636539501295" lon="2.4757458485727457"><ele>71.0</ele><time>2026-03-22T14:01:16.998Z</time></trkpt><trkpt lat="49.166424419637366" lon="2.4756375062849805"><ele>71.0</ele><time>2026-03-22T14:01:18.998Z</time></trkpt><trkpt lat="49.166486184849106" lon="2.4755332578080824"><ele>70.39999999999999</ele><time>2026-03-22T14:01:20.998Z</time></trkpt><trkpt lat="49.16655390949783" lon="2.4754212908619753"><ele>69.8</ele><time>2026-03-22T14:01:22.998Z</time></trkpt><trkpt lat="49.16662075107349" lon="2.4753044648013884"><ele>69.19999999999999</ele><time>2026-03-22T14:01:24.997Z</time></trkpt><trkpt lat="49.16668287250442" lon="2.475182591254659"><ele>68.6</ele><time>2026-03-22T14:01:26.997Z</time></trkpt><trkpt lat="49.16675277023994" lon="2.4750642099184357"><ele>68.0</ele><time>2026-03-22T14:01:28.997Z</time></trkpt><trkpt lat="49.16682224351382" lon="2.4749478726893335"><ele>68.0</ele><time>2026-03-22T14:01:30.997Z</time></trkpt><trkpt lat="49.16689305760378" lon="2.4748293625355164"><ele>68.0</ele><time>2026-03-22T14:01:32.997Z</time></trkpt><trkpt lat="49.166960958918544" lon="2.474702974565734"><ele>68.0</ele><time>2026-03-22T14:01:34.997Z</time></trkpt><trkpt lat="49.167030105304804" lon="2.4745787258720644"><ele>68.0</ele><time>2026-03-22T14:01:36.997Z</time></trkpt><trkpt lat="49.167103201607944" lon="2.4744559879000194"><ele>68.0</ele><time>2026-03-22T14:01:38.997Z</time></trkpt><trkpt lat="49.1671755096489" lon="2.474327699395999"><ele>68.4</ele><time>2026-03-22T14:01:40.997Z</time></trkpt><trkpt lat="49.1672618906301" lon="2.474225750779694"><ele>68.8</ele><time>2026-03-22T14:01:42.997Z</time></trkpt><trkpt lat="49.16733825042457" lon="2.4741149554652497"><ele>69.2</ele><time>2026-03-22T14:01:44.997Z</time></trkpt><trkpt lat="49.167402584383424" lon="2.4739915736368947"><ele>69.6</ele><time>2026-03-22T14:01:46.997Z</time></trkpt><trkpt lat="49.167467282075336" lon="2.4738625191490207"><ele>70.0</ele><time>2026-03-22T14:01:49Z</time></trkpt><trkpt lat="49.1675372409468" lon="2.4737322453650967"><ele>71.0</ele><time>2026-03-22T14:01:51Z</time></trkpt><trkpt lat="49.16760152665111" lon="2.4736330514977336"><ele>72.0</ele><time>2026-03-22T14:01:53Z</time></trkpt><trkpt lat="49.16764369849653" lon="2.4735472390357507"><ele>73.0</ele><time>2026-03-22T14:01:54Z</time></trkpt><trkpt lat="49.16772903775374" lon="2.4734381013643025"><ele>74.0</ele><time>2026-03-22T14:01:56Z</time></trkpt><trkpt lat="49.16779020809061" lon="2.473312808369937"><ele>75.0</ele><time>2026-03-22T14:01:58Z</time></trkpt><trkpt lat="49.16786343257619" lon="2.473190631802002"><ele>75.0</ele><time>2026-03-22T14:02:00Z</time></trkpt><trkpt lat="49.16792990637331" lon="2.4730808669938553"><ele>75.0</ele><time>2026-03-22T14:02:02Z</time></trkpt><trkpt lat="49.16800026666458" lon="2.472990501955073"><ele>75.0</ele><time>2026-03-22T14:02:03Z</time></trkpt><trkpt lat="49.16806030374469" lon="2.47289240571765"><ele>75.0</ele><time>2026-03-22T14:02:05Z</time></trkpt><trkpt lat="49.16812157044462" lon="2.4728217043479157"><ele>75.0</ele><time>2026-03-22T14:02:07Z</time></trkpt><trkpt lat="49.16815773916696" lon="2.4727284315325497"><ele>75.0</ele><time>2026-03-22T14:02:09Z</time></trkpt><trkpt lat="49.168199649178135" lon="2.472649214453552"><ele>75.0</ele><time>2026-03-22T14:02:11Z</time></trkpt><trkpt lat="49.16826830517456" lon="2.47253741852358"><ele>75.0</ele><time>2026-03-22T14:02:14Z</time></trkpt><trkpt lat="49.16832444723483" lon="2.4724539012518156"><ele>75.0</ele><time>2026-03-22T14:02:16Z</time></trkpt><trkpt lat="49.16836806842878" lon="2.4723686883315317"><ele>75.0</ele><time>2026-03-22T14:02:18Z</time></trkpt><trkpt lat="49.16842197043619" lon="2.4722726628882494"><ele>75.0</ele><time>2026-03-22T14:02:20Z</time></trkpt><trkpt lat="49.168488161810636" lon="2.4722099880404405"><ele>75.0</ele><time>2026-03-22T14:02:22Z</time></trkpt><trkpt lat="49.168579840420755" lon="2.472138853768022"><ele>75.0</ele><time>2026-03-22T14:02:24.999Z</time></trkpt><trkpt lat="49.1686538520264" lon="2.472100506913882"><ele>75.0</ele><time>2026-03-22T14:02:26.999Z</time></trkpt><trkpt lat="49.168738386740934" lon="2.47203297319435"><ele>75.0</ele><time>2026-03-22T14:02:28.999Z</time></trkpt><trkpt lat="49.16880067187362" lon="2.471968406720358"><ele>75.0</ele><time>2026-03-22T14:02:30.999Z</time></trkpt><trkpt lat="49.16886278885771" lon="2.4719137862549294"><ele>75.0</ele><time>2026-03-22T14:02:32.999Z</time></trkpt><trkpt lat="49.168988339337325" lon="2.471873854979978"><ele>75.0</ele><time>2026-03-22T14:02:37.999Z</time></trkpt><trkpt lat="49.169065253861284" lon="2.4718734907023134"><ele>74.6</ele><time>2026-03-22T14:02:40.999Z</time></trkpt><trkpt lat="49.16916513635164" lon="2.471863233852954"><ele>74.2</ele><time>2026-03-22T14:02:43.999Z</time></trkpt><trkpt lat="49.16925528805883" lon="2.471849598309417"><ele>73.8</ele><time>2026-03-22T14:02:45.999Z</time></trkpt><trkpt lat="49.169338934761555" lon="2.4718443601797913"><ele>73.4</ele><time>2026-03-22T14:02:47.999Z</time></trkpt><trkpt lat="49.169425981573994" lon="2.471820571503032"><ele>73.0</ele><time>2026-03-22T14:02:49.999Z</time></trkpt><trkpt lat="49.16952847692298" lon="2.4718116425403465"><ele>73.0</ele><time>2026-03-22T14:02:51.999Z</time></trkpt><trkpt lat="49.169632011356875" lon="2.4718035163854104"><ele>73.0</ele><time>2026-03-22T14:02:53.999Z</time></trkpt><trkpt lat="49.16973756147735" lon="2.47178150944402"><ele>73.0</ele><time>2026-03-22T14:02:55.999Z</time></trkpt><trkpt lat="49.16984567419423" lon="2.471770645095073"><ele>73.0</ele><time>2026-03-22T14:02:57.998Z</time></trkpt><trkpt lat="49.16995255501331" lon="2.4717451400221444"><ele>73.0</ele><time>2026-03-22T14:02:59.998Z</time></trkpt><trkpt lat="49.17006512359396" lon="2.4717329364595853"><ele>72.75</ele><time>2026-03-22T14:03:01.998Z</time></trkpt><trkpt lat="49.17017895265236" lon="2.471717280186939"><ele>72.5</ele><time>2026-03-22T14:03:03.998Z</time></trkpt><trkpt lat="49.17029672476559" lon="2.471693296357728"><ele>72.25</ele><time>2026-03-22T14:03:05.998Z</time></trkpt><trkpt lat="49.17041522365182" lon="2.4716767202041714"><ele>72.0</ele><time>2026-03-22T14:03:07.998Z</time></trkpt><trkpt lat="49.170537052244015" lon="2.4716614556170886"><ele>72.0</ele><time>2026-03-22T14:03:09.998Z</time></trkpt><trkpt lat="49.17065106577771" lon="2.471643440793982"><ele>72.0</ele><time>2026-03-22T14:03:11.998Z</time></trkpt><trkpt lat="49.170770042041866" lon="2.471627169867475"><ele>72.0</ele><time>2026-03-22T14:03:13.998Z</time></trkpt><trkpt lat="49.17088224767457" lon="2.471608651741052"><ele>72.0</ele><time>2026-03-22T14:03:15.998Z</time></trkpt><trkpt lat="49.170985505292414" lon="2.47159440666232"><ele>71.6</ele><time>2026-03-22T14:03:17.998Z</time></trkpt><trkpt lat="49.171092949411445" lon="2.4715799935063627"><ele>71.2</ele><time>2026-03-22T14:03:19.998Z</time></trkpt><trkpt lat="49.1712011693792" lon="2.4715666356960426"><ele>70.8</ele><time>2026-03-22T14:03:21.998Z</time></trkpt><trkpt lat="49.171310206364375" lon="2.471552156286899"><ele>70.4</ele><time>2026-03-22T14:03:23.998Z</time></trkpt><trkpt lat="49.17141711747815" lon="2.4715352573747875"><ele>70.0</ele><time>2026-03-22T14:03:25.998Z</time></trkpt><trkpt lat="49.171522464991604" lon="2.471523229548436"><ele>70.0</ele><time>2026-03-22T14:03:27.998Z</time></trkpt><trkpt lat="49.171629366254514" lon="2.4715088429720877"><ele>70.0</ele><time>2026-03-22T14:03:29.997Z</time></trkpt><trkpt lat="49.171739205257474" lon="2.4714964551176006"><ele>70.0</ele><time>2026-03-22T14:03:31.997Z</time></trkpt><trkpt lat="49.171844258525844" lon="2.471480566443268"><ele>70.0</ele><time>2026-03-22T14:03:33.997Z</time></trkpt><trkpt lat="49.17195324161363" lon="2.4714688740614794"><ele>70.0</ele><time>2026-03-22T14:03:35.997Z</time></trkpt><trkpt lat="49.17206697994072" lon="2.471451548362657"><ele>70.0</ele><time>2026-03-22T14:03:37.997Z</time></trkpt><trkpt lat="49.172181546833684" lon="2.471438296182601"><ele>70.0</ele><time>2026-03-22T14:03:39.997Z</time></trkpt><trkpt lat="49.17229358194881" lon="2.471422642071454"><ele>70.0</ele><time>2026-03-22T14:03:41.997Z</time></trkpt><trkpt lat="49.17240586746201" lon="2.471404627395477"><ele>70.0</ele><time>2026-03-22T14:03:43.997Z</time></trkpt><trkpt lat="49.172520203579055" lon="2.471384396097817"><ele>70.4</ele><time>2026-03-22T14:03:45.997Z</time></trkpt><trkpt lat="49.172627932396324" lon="2.471368988203642"><ele>70.8</ele><time>2026-03-22T14:03:47.997Z</time></trkpt><trkpt lat="49.172735123436176" lon="2.471357935382244"><ele>71.2</ele><time>2026-03-22T14:03:49.997Z</time></trkpt><trkpt lat="49.17283122458495" lon="2.4713379001704423"><ele>71.6</ele><time>2026-03-22T14:03:51.997Z</time></trkpt><trkpt lat="49.1729303677934" lon="2.471331085071104"><ele>72.0</ele><time>2026-03-22T14:03:53.997Z</time></trkpt><trkpt lat="49.17303276757246" lon="2.4713135424314747"><ele>72.0</ele><time>2026-03-22T14:03:56Z</time></trkpt><trkpt lat="49.17313979773721" lon="2.471303660617394"><ele>72.0</ele><time>2026-03-22T14:03:58Z</time></trkpt><trkpt lat="49.17324207708157" lon="2.4712897419766264"><ele>72.0</ele><time>2026-03-22T14:04:00Z</time></trkpt><trkpt lat="49.17335125164921" lon="2.4712849889316377"><ele>72.0</ele><time>2026-03-22T14:04:02Z</time></trkpt><trkpt lat="49.17345785974726" lon="2.471268235056514"><ele>72.0</ele><time>2026-03-22T14:04:04Z</time></trkpt><trkpt lat="49.173563910156524" lon="2.471251738827134"><ele>71.8</ele><time>2026-03-22T14:04:06Z</time></trkpt><trkpt lat="49.173669363980395" lon="2.471236670632781"><ele>71.6</ele><time>2026-03-22T14:04:08Z</time></trkpt><trkpt lat="49.173774836830965" lon="2.47121840807202"><ele>71.39999999999999</ele><time>2026-03-22T14:04:10Z</time></trkpt><trkpt lat="49.17388422981092" lon="2.471200629946357"><ele>71.2</ele><time>2026-03-22T14:04:12Z</time></trkpt><trkpt lat="49.173990529032835" lon="2.4711842901420047"><ele>71.0</ele><time>2026-03-22T14:04:14Z</time></trkpt><trkpt lat="49.17410129038976" lon="2.4711711041224635"><ele>70.75</ele><time>2026-03-22T14:04:16Z</time></trkpt><trkpt lat="49.17421580384451" lon="2.4711572835190703"><ele>70.5</ele><time>2026-03-22T14:04:18Z</time></trkpt><trkpt lat="49.174327057960724" lon="2.471140870543343"><ele>70.25</ele><time>2026-03-22T14:04:20Z</time></trkpt><trkpt lat="49.17444292111381" lon="2.471117825533947"><ele>70.0</ele><time>2026-03-22T14:04:22Z</time></trkpt><trkpt lat="49.174562705134996" lon="2.4711083660468036"><ele>70.0</ele><time>2026-03-22T14:04:24Z</time></trkpt><trkpt lat="49.17462607247937" lon="2.4711034183657197"><ele>70.0</ele><time>2026-03-22T14:04:25Z</time></trkpt><trkpt lat="49.174747442473404" lon="2.471086559758124"><ele>70.0</ele><time>2026-03-22T14:04:27Z</time></trkpt><trkpt lat="49.17486428769752" lon="2.471054616250344"><ele>70.0</ele><time>2026-03-22T14:04:28.999Z</time></trkpt><trkpt lat="49.17498253346043" lon="2.471043045609482"><ele>70.0</ele><time>2026-03-22T14:04:30.999Z</time></trkpt><trkpt lat="49.17510121827904" lon="2.471032043245825"><ele>69.5</ele><time>2026-03-22T14:04:32.999Z</time></trkpt><trkpt lat="49.17521864857629" lon="2.471011335127358"><ele>69.0</ele><time>2026-03-22T14:04:34.999Z</time></trkpt><trkpt lat="49.17533635138071" lon="2.4709937145667293"><ele>68.5</ele><time>2026-03-22T14:04:36.999Z</time></trkpt><trkpt lat="49.17544915336623" lon="2.4709803028619124"><ele>68.0</ele><time>2026-03-22T14:04:38.999Z</time></trkpt><trkpt lat="49.1755658756362" lon="2.4709629056251106"><ele>68.0</ele><time>2026-03-22T14:04:40.999Z</time></trkpt><trkpt lat="49.17568266208305" lon="2.470946511452698"><ele>68.0</ele><time>2026-03-22T14:04:42.999Z</time></trkpt><trkpt lat="49.17579856680816" lon="2.4709517536888006"><ele>68.0</ele><time>2026-03-22T14:04:44.999Z</time></trkpt><trkpt lat="49.175910267946065" lon="2.4709360765134494"><ele>68.0</ele><time>2026-03-22T14:04:46.999Z</time></trkpt><trkpt lat="49.17602631182204" lon="2.470917937860199"><ele>68.0</ele><time>2026-03-22T14:04:48.999Z</time></trkpt><trkpt lat="49.176133489297634" lon="2.470877997153045"><ele>68.0</ele><time>2026-03-22T14:04:50.999Z</time></trkpt><trkpt lat="49.176239747354074" lon="2.4708634779252616"><ele>68.0</ele><time>2026-03-22T14:04:52.999Z</time></trkpt><trkpt lat="49.17635612094784" lon="2.470844789432761"><ele>68.0</ele><time>2026-03-22T14:04:54.999Z</time></trkpt><trkpt lat="49.176472205181675" lon="2.470827342250808"><ele>68.0</ele><time>2026-03-22T14:04:56.999Z</time></trkpt><trkpt lat="49.176588702756504" lon="2.4708084825812633"><ele>68.0</ele><time>2026-03-22T14:04:58.999Z</time></trkpt><trkpt lat="49.176708316039104" lon="2.470782776290376"><ele>68.0</ele><time>2026-03-22T14:05:00.998Z</time></trkpt><trkpt lat="49.17677149492995" lon="2.470769222468069"><ele>68.0</ele><time>2026-03-22T14:05:01.998Z</time></trkpt><trkpt lat="49.17689655936529" lon="2.4707543458380763"><ele>68.0</ele><time>2026-03-22T14:05:03.998Z</time></trkpt><trkpt lat="49.177019687322364" lon="2.470734682019945"><ele>68.0</ele><time>2026-03-22T14:05:05.998Z</time></trkpt><trkpt lat="49.1770828739451" lon="2.470721630680623"><ele>68.0</ele><time>2026-03-22T14:05:06.998Z</time></trkpt><trkpt lat="49.17720496577172" lon="2.4707064177761837"><ele>68.0</ele><time>2026-03-22T14:05:08.998Z</time></trkpt><trkpt lat="49.17732953703855" lon="2.4706970673423787"><ele>68.0</ele><time>2026-03-22T14:05:10.998Z</time></trkpt><trkpt lat="49.177457850190535" lon="2.4706901801627676"><ele>68.0</ele><time>2026-03-22T14:05:12.998Z</time></trkpt><trkpt lat="49.17752365415301" lon="2.470682982770129"><ele>68.4</ele><time>2026-03-22T14:05:13.998Z</time></trkpt><trkpt lat="49.177586750560984" lon="2.4706713786741115"><ele>68.8</ele><time>2026-03-22T14:05:14.998Z</time></trkpt><trkpt lat="49.1777096787677" lon="2.4706504215836684"><ele>69.2</ele><time>2026-03-22T14:05:16.998Z</time></trkpt><trkpt lat="49.17783153627172" lon="2.470632963085173"><ele>69.6</ele><time>2026-03-22T14:05:18.998Z</time></trkpt><trkpt lat="49.17795165001658" lon="2.4706148010047206"><ele>70.0</ele><time>2026-03-22T14:05:20.998Z</time></trkpt><trkpt lat="49.178067862055684" lon="2.470600454073589"><ele>70.0</ele><time>2026-03-22T14:05:22.998Z</time></trkpt><trkpt lat="49.17818662262139" lon="2.470611333943953"><ele>70.0</ele><time>2026-03-22T14:05:24.998Z</time></trkpt><trkpt lat="49.17830594011067" lon="2.470594065736236"><ele>70.0</ele><time>2026-03-22T14:05:26.998Z</time></trkpt><trkpt lat="49.17842532253669" lon="2.4705766529104802"><ele>70.0</ele><time>2026-03-22T14:05:28.998Z</time></trkpt><trkpt lat="49.17854139664365" lon="2.470558398762985"><ele>70.0</ele><time>2026-03-22T14:05:30.998Z</time></trkpt><trkpt lat="49.178660347588334" lon="2.470527953399498"><ele>70.0</ele><time>2026-03-22T14:05:32.997Z</time></trkpt><trkpt lat="49.178782303332596" lon="2.4705153119203263"><ele>70.0</ele><time>2026-03-22T14:05:34.997Z</time></trkpt><trkpt lat="49.17890573890019" lon="2.4704914392376316"><ele>70.0</ele><time>2026-03-22T14:05:36.997Z</time></trkpt><trkpt lat="49.17897079641423" lon="2.4704822481440902"><ele>70.0</ele><time>2026-03-22T14:05:37.997Z</time></trkpt><trkpt lat="49.17903466692185" lon="2.470472872391872"><ele>69.71428571428571</ele><time>2026-03-22T14:05:38.997Z</time></trkpt><trkpt lat="49.179100081677994" lon="2.4704661518776305"><ele>69.42857142857143</ele><time>2026-03-22T14:05:39.997Z</time></trkpt><trkpt lat="49.179165287403734" lon="2.4704556317123867"><ele>69.14285714285714</ele><time>2026-03-22T14:05:40.997Z</time></trkpt><trkpt lat="49.17923278263425" lon="2.470443187508638"><ele>68.85714285714286</ele><time>2026-03-22T14:05:41.997Z</time></trkpt><trkpt lat="49.1792992887441" lon="2.470428005745041"><ele>68.57142857142857</ele><time>2026-03-22T14:05:42.997Z</time></trkpt><trkpt lat="49.179368591462755" lon="2.4704380351265987"><ele>68.28571428571428</ele><time>2026-03-22T14:05:43.997Z</time></trkpt><trkpt lat="49.17943543576154" lon="2.470429005985925"><ele>68.0</ele><time>2026-03-22T14:05:44.997Z</time></trkpt><trkpt lat="49.179503175384596" lon="2.47041983483154"><ele>67.99999999999999</ele><time>2026-03-22T14:05:45.997Z</time></trkpt><trkpt lat="49.17957154626379" lon="2.4703972623637647"><ele>68.0</ele><time>2026-03-22T14:05:46.997Z</time></trkpt><trkpt lat="49.17963946708529" lon="2.4704010383555337"><ele>68.0</ele><time>2026-03-22T14:05:47.997Z</time></trkpt><trkpt lat="49.179708505303736" lon="2.4703916428958794"><ele>68.0</ele><time>2026-03-22T14:05:48.997Z</time></trkpt><trkpt lat="49.17977914857558" lon="2.470376690911878"><ele>68.0</ele><time>2026-03-22T14:05:49.997Z</time></trkpt><trkpt lat="49.17984748383839" lon="2.470365681990002"><ele>67.99999999999999</ele><time>2026-03-22T14:05:50.997Z</time></trkpt><trkpt lat="49.17991782741696" lon="2.470355982489337"><ele>68.0</ele><time>2026-03-22T14:05:51.997Z</time></trkpt><trkpt lat="49.17998339981864" lon="2.4703445444564016"><ele>67.71428571428571</ele><time>2026-03-22T14:05:52.997Z</time></trkpt><trkpt lat="49.18005352919638" lon="2.470329143831721"><ele>67.42857142857143</ele><time>2026-03-22T14:05:53.997Z</time></trkpt><trkpt lat="49.180122720052644" lon="2.4703211730010017"><ele>67.14285714285714</ele><time>2026-03-22T14:05:54.997Z</time></trkpt><trkpt lat="49.180194694206726" lon="2.4703080856678987"><ele>66.85714285714286</ele><time>2026-03-22T14:05:55.997Z</time></trkpt><trkpt lat="49.180266860123446" lon="2.470303276257939"><ele>66.57142857142857</ele><time>2026-03-22T14:05:56.997Z</time></trkpt><trkpt lat="49.18033726453397" lon="2.4702966698820896"><ele>66.28571428571428</ele><time>2026-03-22T14:05:57.997Z</time></trkpt><trkpt lat="49.18040888701131" lon="2.4702857324033047"><ele>66.0</ele><time>2026-03-22T14:05:58.997Z</time></trkpt><trkpt lat="49.1804802778981" lon="2.47026710086752"><ele>66.0</ele><time>2026-03-22T14:05:59.997Z</time></trkpt><trkpt lat="49.18055206378953" lon="2.4702637152425813"><ele>66.0</ele><time>2026-03-22T14:06:01Z</time></trkpt><trkpt lat="49.18062211330131" lon="2.4702609639673536"><ele>66.0</ele><time>2026-03-22T14:06:02Z</time></trkpt><trkpt lat="49.18069156148356" lon="2.470254279658091"><ele>66.0</ele><time>2026-03-22T14:06:03Z</time></trkpt><trkpt lat="49.1807627253732" lon="2.4702363052732537"><ele>66.0</ele><time>2026-03-22T14:06:04Z</time></trkpt><trkpt lat="49.18082823194622" lon="2.470223591397409"><ele>66.0</ele><time>2026-03-22T14:06:05Z</time></trkpt><trkpt lat="49.18089934462931" lon="2.470210557809709"><ele>66.0</ele><time>2026-03-22T14:06:06Z</time></trkpt><trkpt lat="49.18097096809755" lon="2.4702020735099146"><ele>65.85714285714286</ele><time>2026-03-22T14:06:07Z</time></trkpt><trkpt lat="49.18104586639448" lon="2.470193425447571"><ele>65.71428571428572</ele><time>2026-03-22T14:06:08Z</time></trkpt><trkpt lat="49.18111879563592" lon="2.4701868495911574"><ele>65.57142857142858</ele><time>2026-03-22T14:06:09Z</time></trkpt><trkpt lat="49.181194044580266" lon="2.470179905480298"><ele>65.42857142857143</ele><time>2026-03-22T14:06:10Z</time></trkpt><trkpt lat="49.18126518362644" lon="2.47016973959962"><ele>65.28571428571429</ele><time>2026-03-22T14:06:11Z</time></trkpt><trkpt lat="49.18133690440427" lon="2.4701529214753526"><ele>65.14285714285715</ele><time>2026-03-22T14:06:12Z</time></trkpt><trkpt lat="49.18140946723805" lon="2.4701361203599825"><ele>65.0</ele><time>2026-03-22T14:06:13Z</time></trkpt><trkpt lat="49.181482712625495" lon="2.4701177836445622"><ele>65.14285714285715</ele><time>2026-03-22T14:06:14Z</time></trkpt><trkpt lat="49.181556109034474" lon="2.4701025784561765"><ele>65.28571428571429</ele><time>2026-03-22T14:06:15Z</time></trkpt><trkpt lat="49.18162769214979" lon="2.470088286445237"><ele>65.42857142857143</ele><time>2026-03-22T14:06:16Z</time></trkpt><trkpt lat="49.18170120107019" lon="2.4700706854508416"><ele>65.57142857142858</ele><time>2026-03-22T14:06:17Z</time></trkpt><trkpt lat="49.18177243890835" lon="2.4700530782739425"><ele>65.71428571428572</ele><time>2026-03-22T14:06:18Z</time></trkpt><trkpt lat="49.18184492127473" lon="2.47003668517382"><ele>65.85714285714286</ele><time>2026-03-22T14:06:19Z</time></trkpt><trkpt lat="49.18191568143594" lon="2.470021011736587"><ele>66.0</ele><time>2026-03-22T14:06:20Z</time></trkpt><trkpt lat="49.18198478025369" lon="2.47000516753987"><ele>66.0</ele><time>2026-03-22T14:06:21Z</time></trkpt><trkpt lat="49.18205529760643" lon="2.4699895368757754"><ele>66.0</ele><time>2026-03-22T14:06:22Z</time></trkpt><trkpt lat="49.182125838727295" lon="2.4699734839603167"><ele>66.0</ele><time>2026-03-22T14:06:23Z</time></trkpt><trkpt lat="49.182196583040394" lon="2.469957582536355"><ele>66.0</ele><time>2026-03-22T14:06:24Z</time></trkpt><trkpt lat="49.18226667719961" lon="2.469942387968846"><ele>66.0</ele><time>2026-03-22T14:06:25Z</time></trkpt><trkpt lat="49.18233695525708" lon="2.469925444704663"><ele>66.0</ele><time>2026-03-22T14:06:26Z</time></trkpt><trkpt lat="49.18240695448662" lon="2.469910020405802"><ele>66.0</ele><time>2026-03-22T14:06:27Z</time></trkpt><trkpt lat="49.182476910994545" lon="2.4698906045354496"><ele>65.85714285714286</ele><time>2026-03-22T14:06:28Z</time></trkpt><trkpt lat="49.182546119874175" lon="2.469871501049255"><ele>65.71428571428572</ele><time>2026-03-22T14:06:29Z</time></trkpt><trkpt lat="49.18261543967351" lon="2.4698544271644307"><ele>65.57142857142858</ele><time>2026-03-22T14:06:30Z</time></trkpt><trkpt lat="49.18268638778641" lon="2.4698397412916653"><ele>65.42857142857143</ele><time>2026-03-22T14:06:31Z</time></trkpt><trkpt lat="49.18275834751055" lon="2.46982319683974"><ele>65.28571428571429</ele><time>2026-03-22T14:06:32Z</time></trkpt><trkpt lat="49.18282627116854" lon="2.469803966750983"><ele>65.14285714285715</ele><time>2026-03-22T14:06:33Z</time></trkpt><trkpt lat="49.18289666935236" lon="2.4697851643162494"><ele>65.0</ele><time>2026-03-22T14:06:34Z</time></trkpt><trkpt lat="49.18296575686126" lon="2.4697668474021435"><ele>65.00000000000001</ele><time>2026-03-22T14:06:34.999Z</time></trkpt><trkpt lat="49.183038574302806" lon="2.469749280778737"><ele>65.0</ele><time>2026-03-22T14:06:35.999Z</time></trkpt><trkpt lat="49.18311068482569" lon="2.4697335912822687"><ele>65.0</ele><time>2026-03-22T14:06:36.999Z</time></trkpt><trkpt lat="49.18318288085719" lon="2.4697166911188484"><ele>65.0</ele><time>2026-03-22T14:06:37.999Z</time></trkpt><trkpt lat="49.18325462844036" lon="2.469698341035713"><ele>65.0</ele><time>2026-03-22T14:06:38.999Z</time></trkpt><trkpt lat="49.183327056747316" lon="2.4697028509615535"><ele>65.00000000000001</ele><time>2026-03-22T14:06:39.999Z</time></trkpt><trkpt lat="49.183398713835565" lon="2.469685874037694"><ele>65.0</ele><time>2026-03-22T14:06:40.999Z</time></trkpt><trkpt lat="49.18346781915837" lon="2.469669501671559"><ele>65.14285714285715</ele><time>2026-03-22T14:06:41.999Z</time></trkpt><trkpt lat="49.18353496857455" lon="2.4696376224878245"><ele>65.28571428571429</ele><time>2026-03-22T14:06:42.999Z</time></trkpt><trkpt lat="49.18360442768514" lon="2.469624869343131"><ele>65.42857142857143</ele><time>2026-03-22T14:06:43.999Z</time></trkpt><trkpt lat="49.18367304539466" lon="2.469606214234494"><ele>65.57142857142858</ele><time>2026-03-22T14:06:44.999Z</time></trkpt><trkpt lat="49.18373888365219" lon="2.4695902118653565"><ele>65.71428571428572</ele><time>2026-03-22T14:06:45.999Z</time></trkpt><trkpt lat="49.18380696644708" lon="2.469572142948277"><ele>65.85714285714286</ele><time>2026-03-22T14:06:46.999Z</time></trkpt><trkpt lat="49.1838750849183" lon="2.469552882754708"><ele>66.0</ele><time>2026-03-22T14:06:47.999Z</time></trkpt><trkpt lat="49.18394302402493" lon="2.469538539679491"><ele>66.0</ele><time>2026-03-22T14:06:48.999Z</time></trkpt><trkpt lat="49.18401013079425" lon="2.4695255990865723"><ele>66.0</ele><time>2026-03-22T14:06:49.999Z</time></trkpt><trkpt lat="49.1840763236113" lon="2.469510225710142"><ele>66.0</ele><time>2026-03-22T14:06:50.999Z</time></trkpt><trkpt lat="49.184141130826475" lon="2.4694922683636458"><ele>66.0</ele><time>2026-03-22T14:06:51.999Z</time></trkpt><trkpt lat="49.184204981414965" lon="2.469472581127412"><ele>66.0</ele><time>2026-03-22T14:06:52.999Z</time></trkpt><trkpt lat="49.18426998247172" lon="2.4694622421165366"><ele>66.0</ele><time>2026-03-22T14:06:53.999Z</time></trkpt><trkpt lat="49.18433400542154" lon="2.469443597408063"><ele>66.0</ele><time>2026-03-22T14:06:54.999Z</time></trkpt><trkpt lat="49.18439885039436" lon="2.4694281576135775"><ele>66.14285714285714</ele><time>2026-03-22T14:06:55.999Z</time></trkpt><trkpt lat="49.18446338215522" lon="2.469411429832614"><ele>66.28571428571429</ele><time>2026-03-22T14:06:56.999Z</time></trkpt><trkpt lat="49.184525839888025" lon="2.469396998106733"><ele>66.42857142857143</ele><time>2026-03-22T14:06:57.999Z</time></trkpt><trkpt lat="49.18458908715197" lon="2.4693826084397337"><ele>66.57142857142857</ele><time>2026-03-22T14:06:58.999Z</time></trkpt><trkpt lat="49.1846516349543" lon="2.4693697782187995"><ele>66.71428571428571</ele><time>2026-03-22T14:06:59.999Z</time></trkpt><trkpt lat="49.18471448012578" lon="2.469354099149707"><ele>66.85714285714286</ele><time>2026-03-22T14:07:00.999Z</time></trkpt><trkpt lat="49.18477785229007" lon="2.469336314998697"><ele>67.0</ele><time>2026-03-22T14:07:01.999Z</time></trkpt><trkpt lat="49.18490083499733" lon="2.469303962547709"><ele>66.5</ele><time>2026-03-22T14:07:03.999Z</time></trkpt><trkpt lat="49.185023969599676" lon="2.4692778512202"><ele>66.0</ele><time>2026-03-22T14:07:05.999Z</time></trkpt><trkpt lat="49.18514240188274" lon="2.4692505264090507"><ele>65.5</ele><time>2026-03-22T14:07:07.998Z</time></trkpt><trkpt lat="49.185258646908416" lon="2.4692205566580547"><ele>65.0</ele><time>2026-03-22T14:07:09.998Z</time></trkpt><trkpt lat="49.185372231416856" lon="2.4692114322700687"><ele>65.0</ele><time>2026-03-22T14:07:11.998Z</time></trkpt><trkpt lat="49.185474629906096" lon="2.469186581911221"><ele>65.0</ele><time>2026-03-22T14:07:13.998Z</time></trkpt><trkpt lat="49.18558273064102" lon="2.4691611848981894"><ele>65.0</ele><time>2026-03-22T14:07:15.998Z</time></trkpt><trkpt lat="49.185688923934286" lon="2.469137191285606"><ele>65.0</ele><time>2026-03-22T14:07:17.998Z</time></trkpt><trkpt lat="49.18579989643399" lon="2.4691003674713268"><ele>65.0</ele><time>2026-03-22T14:07:19.998Z</time></trkpt><trkpt lat="49.18590954942593" lon="2.469062491683026"><ele>65.0</ele><time>2026-03-22T14:07:21.998Z</time></trkpt><trkpt lat="49.1860211138871" lon="2.4690370625394187"><ele>65.0</ele><time>2026-03-22T14:07:23.998Z</time></trkpt><trkpt lat="49.186136492155626" lon="2.4690154048391335"><ele>65.0</ele><time>2026-03-22T14:07:25.998Z</time></trkpt><trkpt lat="49.186250342659015" lon="2.468993264760582"><ele>65.0</ele><time>2026-03-22T14:07:27.998Z</time></trkpt><trkpt lat="49.18636465796719" lon="2.4689725699332112"><ele>65.0</ele><time>2026-03-22T14:07:29.998Z</time></trkpt><trkpt lat="49.186480189788945" lon="2.4689503769180545"><ele>65.0</ele><time>2026-03-22T14:07:31.998Z</time></trkpt><trkpt lat="49.18659355799802" lon="2.4689232629771145"><ele>65.0</ele><time>2026-03-22T14:07:33.998Z</time></trkpt><trkpt lat="49.18670360439688" lon="2.4688964027237144"><ele>65.0</ele><time>2026-03-22T14:07:35.998Z</time></trkpt><trkpt lat="49.18681432215245" lon="2.4688765426577812"><ele>65.0</ele><time>2026-03-22T14:07:37.998Z</time></trkpt><trkpt lat="49.18692395641266" lon="2.4688437368209604"><ele>65.0</ele><time>2026-03-22T14:07:39.997Z</time></trkpt><trkpt lat="49.18703062793109" lon="2.4688196487443204"><ele>65.0</ele><time>2026-03-22T14:07:41.997Z</time></trkpt><trkpt lat="49.1871416176913" lon="2.468786425648915"><ele>65.0</ele><time>2026-03-22T14:07:43.997Z</time></trkpt><trkpt lat="49.18725656139668" lon="2.4687622771879827"><ele>65.0</ele><time>2026-03-22T14:07:45.997Z</time></trkpt><trkpt lat="49.18735078851908" lon="2.46886281646175"><ele>63.8</ele><time>2026-03-22T14:07:47.997Z</time></trkpt><trkpt lat="49.18744560151562" lon="2.4688466750687788"><ele>62.6</ele><time>2026-03-22T14:07:49.997Z</time></trkpt><trkpt lat="49.18750063755302" lon="2.468728333687782"><ele>61.400000000000006</ele><time>2026-03-22T14:07:51.997Z</time></trkpt><trkpt lat="49.18749061519416" lon="2.4685803516153"><ele>60.2</ele><time>2026-03-22T14:07:53.997Z</time></trkpt><trkpt lat="49.18743842594954" lon="2.468513455061204"><ele>59.0</ele><time>2026-03-22T14:07:55.997Z</time></trkpt><trkpt lat="49.18752012083818" lon="2.4684013246993763"><ele>59.0</ele><time>2026-03-22T14:07:56.997Z</time></trkpt><trkpt lat="49.18754756952129" lon="2.4683138681565264"><ele>59.0</ele><time>2026-03-22T14:07:58.997Z</time></trkpt><trkpt lat="49.18759555250575" lon="2.468208165986658"><ele>59.0</ele><time>2026-03-22T14:08:01.997Z</time></trkpt><trkpt lat="49.18761309339627" lon="2.468105099026313"><ele>59.0</ele><time>2026-03-22T14:08:03.997Z</time></trkpt><trkpt lat="49.18764421212252" lon="2.4680059521444435"><ele>59.0</ele><time>2026-03-22T14:08:05.997Z</time></trkpt><trkpt lat="49.18769368931261" lon="2.467925416413628"><ele>59.0</ele><time>2026-03-22T14:08:08Z</time></trkpt><trkpt lat="49.18775146594845" lon="2.467872620674541"><ele>59.0</ele><time>2026-03-22T14:08:10Z</time></trkpt><trkpt lat="49.18783128777158" lon="2.467848728445017"><ele>59.16666666666667</ele><time>2026-03-22T14:08:13Z</time></trkpt><trkpt lat="49.187797826647135" lon="2.467670742339009"><ele>59.333333333333336</ele><time>2026-03-22T14:08:16Z</time></trkpt><trkpt lat="49.18779072911874" lon="2.46755535180349"><ele>59.5</ele><time>2026-03-22T14:08:18Z</time></trkpt><trkpt lat="49.18776603182345" lon="2.4674446907709715"><ele>59.66666666666667</ele><time>2026-03-22T14:08:20Z</time></trkpt><trkpt lat="49.187741542978614" lon="2.4673314938812037"><ele>59.833333333333336</ele><time>2026-03-22T14:08:22Z</time></trkpt><trkpt lat="49.187699810939606" lon="2.467219535023893"><ele>60.0</ele><time>2026-03-22T14:08:24Z</time></trkpt><trkpt lat="49.1876915023035" lon="2.4670927975066843"><ele>60.4</ele><time>2026-03-22T14:08:26Z</time></trkpt><trkpt lat="49.18765372136051" lon="2.4669759172623573"><ele>60.8</ele><time>2026-03-22T14:08:28Z</time></trkpt><trkpt lat="49.18763239349623" lon="2.4668437642467724"><ele>61.2</ele><time>2026-03-22T14:08:30Z</time></trkpt><trkpt lat="49.187608351418206" lon="2.466709766908175"><ele>61.6</ele><time>2026-03-22T14:08:32Z</time></trkpt><trkpt lat="49.187586151294965" lon="2.4665678425946416"><ele>62.0</ele><time>2026-03-22T14:08:34Z</time></trkpt><trkpt lat="49.18755909511948" lon="2.4664281488476583"><ele>62.0</ele><time>2026-03-22T14:08:36Z</time></trkpt><trkpt lat="49.187533973344124" lon="2.4662848211667554"><ele>62.0</ele><time>2026-03-22T14:08:37.999Z</time></trkpt><trkpt lat="49.1875077574518" lon="2.4661379756464474"><ele>62.0</ele><time>2026-03-22T14:08:39.999Z</time></trkpt><trkpt lat="49.18748087053677" lon="2.4659876833749537"><ele>62.0</ele><time>2026-03-22T14:08:41.999Z</time></trkpt><trkpt lat="49.187453549561354" lon="2.4658323989039608"><ele>62.0</ele><time>2026-03-22T14:08:43.999Z</time></trkpt><trkpt lat="49.18741893061999" lon="2.4656752434364155"><ele>62.0</ele><time>2026-03-22T14:08:45.999Z</time></trkpt><trkpt lat="49.18739893584216" lon="2.465505902260461"><ele>62.0</ele><time>2026-03-22T14:08:47.999Z</time></trkpt><trkpt lat="49.187362649271805" lon="2.4653531383046308"><ele>62.0</ele><time>2026-03-22T14:08:49.999Z</time></trkpt><trkpt lat="49.1873236565485" lon="2.4652006949019754"><ele>62.0</ele><time>2026-03-22T14:08:51.999Z</time></trkpt><trkpt lat="49.18726891226254" lon="2.4650604487540977"><ele>62.0</ele><time>2026-03-22T14:08:53.999Z</time></trkpt><trkpt lat="49.187231127954576" lon="2.4649051588865936"><ele>62.0</ele><time>2026-03-22T14:08:55.999Z</time></trkpt><trkpt lat="49.18718967843846" lon="2.4647519279606036"><ele>62.0</ele><time>2026-03-22T14:08:57.999Z</time></trkpt><trkpt lat="49.187149336054866" lon="2.4645974835121516"><ele>62.0</ele><time>2026-03-22T14:08:59.999Z</time></trkpt><trkpt lat="49.18710852811441" lon="2.464443486159154"><ele>62.0</ele><time>2026-03-22T14:09:01.999Z</time></trkpt><trkpt lat="49.18708112479839" lon="2.4642823361637887"><ele>62.0</ele><time>2026-03-22T14:09:03.999Z</time></trkpt><trkpt lat="49.18702764506466" lon="2.4641340435526127"><ele>61.8</ele><time>2026-03-22T14:09:05.999Z</time></trkpt><trkpt lat="49.18700606689876" lon="2.4639659091465678"><ele>61.6</ele><time>2026-03-22T14:09:07.999Z</time></trkpt><trkpt lat="49.18697295122219" lon="2.463794616178732"><ele>61.39999999999999</ele><time>2026-03-22T14:09:09.998Z</time></trkpt><trkpt lat="49.186948728338514" lon="2.4636307277085185"><ele>61.199999999999996</ele><time>2026-03-22T14:09:11.998Z</time></trkpt><trkpt lat="49.18693124141288" lon="2.463467129997533"><ele>61.0</ele><time>2026-03-22T14:09:13.998Z</time></trkpt><trkpt lat="49.18690164017954" lon="2.4633035719037806"><ele>60.75</ele><time>2026-03-22T14:09:15.998Z</time></trkpt><trkpt lat="49.1868787477995" lon="2.4631324766868943"><ele>60.5</ele><time>2026-03-22T14:09:17.998Z</time></trkpt><trkpt lat="49.18684838666906" lon="2.4629634450318894"><ele>60.25</ele><time>2026-03-22T14:09:19.998Z</time></trkpt><trkpt lat="49.18680855197665" lon="2.462800476987309"><ele>60.0</ele><time>2026-03-22T14:09:21.998Z</time></trkpt><trkpt lat="49.186769813085846" lon="2.462638241350505"><ele>59.8</ele><time>2026-03-22T14:09:23.998Z</time></trkpt><trkpt lat="49.186726864135814" lon="2.462482606233899"><ele>59.6</ele><time>2026-03-22T14:09:25.998Z</time></trkpt><trkpt lat="49.18670529705595" lon="2.462321310715253"><ele>59.400000000000006</ele><time>2026-03-22T14:09:27.998Z</time></trkpt><trkpt lat="49.1866896190263" lon="2.4621675225517636"><ele>59.2</ele><time>2026-03-22T14:09:29.998Z</time></trkpt><trkpt lat="49.1866519096061" lon="2.4620337920103794"><ele>59.0</ele><time>2026-03-22T14:09:31.998Z</time></trkpt><trkpt lat="49.186638409668184" lon="2.4619064615617674"><ele>58.833333333333336</ele><time>2026-03-22T14:09:33.998Z</time></trkpt><trkpt lat="49.18664127345603" lon="2.461776564050578"><ele>58.66666666666667</ele><time>2026-03-22T14:09:35.998Z</time></trkpt><trkpt lat="49.18662450911126" lon="2.461680019054735"><ele>58.5</ele><time>2026-03-22T14:09:37.998Z</time></trkpt><trkpt lat="49.186600525165105" lon="2.4615552888130545"><ele>58.33333333333333</ele><time>2026-03-22T14:09:40.997Z</time></trkpt><trkpt lat="49.18669901436385" lon="2.4614676755586147"><ele>58.166666666666664</ele><time>2026-03-22T14:09:41.997Z</time></trkpt><trkpt lat="49.186719456188975" lon="2.4613721490294242"><ele>58.0</ele><time>2026-03-22T14:09:43.997Z</time></trkpt><trkpt lat="49.1867669428962" lon="2.4612692053708867"><ele>58.00000000000001</ele><time>2026-03-22T14:09:46.997Z</time></trkpt><trkpt lat="49.186821466968546" lon="2.4613178265547924"><ele>58.0</ele><time>2026-03-22T14:09:48.997Z</time></trkpt><trkpt lat="49.18688985153469" lon="2.461379791290638"><ele>58.00000000000001</ele><time>2026-03-22T14:09:50.997Z</time></trkpt><trkpt lat="49.18696177972885" lon="2.4614178145050998"><ele>58.00000000000001</ele><time>2026-03-22T14:09:52.997Z</time></trkpt><trkpt lat="49.18702733151106" lon="2.461450069852409"><ele>58.0</ele><time>2026-03-22T14:09:54.997Z</time></trkpt><trkpt lat="49.187084988205854" lon="2.461498053287065"><ele>58.00000000000001</ele><time>2026-03-22T14:09:56.997Z</time></trkpt><trkpt lat="49.18714114651289" lon="2.4615421080005153"><ele>58.00000000000001</ele><time>2026-03-22T14:09:58.997Z</time></trkpt><trkpt lat="49.18724210436444" lon="2.461571022141517"><ele>58.0</ele><time>2026-03-22T14:10:00.997Z</time></trkpt><trkpt lat="49.18733814321465" lon="2.461624216018032"><ele>58.0</ele><time>2026-03-22T14:10:02.997Z</time></trkpt><trkpt lat="49.18742430766806" lon="2.4616805769559114"><ele>58.0</ele><time>2026-03-22T14:10:04.997Z</time></trkpt><trkpt lat="49.187512620252214" lon="2.46172919960042"><ele>58.0</ele><time>2026-03-22T14:10:06.997Z</time></trkpt><trkpt lat="49.18759157548399" lon="2.461793109769272"><ele>58.0</ele><time>2026-03-22T14:10:08.997Z</time></trkpt><trkpt lat="49.187696138907484" lon="2.461825109852286"><ele>58.2</ele><time>2026-03-22T14:10:10.997Z</time></trkpt><trkpt lat="49.187780536989386" lon="2.461886340408623"><ele>58.4</ele><time>2026-03-22T14:10:13Z</time></trkpt><trkpt lat="49.187856555830656" lon="2.4619577454321258"><ele>58.60000000000001</ele><time>2026-03-22T14:10:15Z</time></trkpt><trkpt lat="49.18793266759315" lon="2.462021744590977"><ele>58.800000000000004</ele><time>2026-03-22T14:10:17Z</time></trkpt><trkpt lat="49.18802005202589" lon="2.4620853508913023"><ele>59.0</ele><time>2026-03-22T14:10:19Z</time></trkpt><trkpt lat="49.188126314379275" lon="2.4621451945872894"><ele>58.800000000000004</ele><time>2026-03-22T14:10:21Z</time></trkpt><trkpt lat="49.18824257853943" lon="2.4620984742859373"><ele>58.60000000000001</ele><time>2026-03-22T14:10:23Z</time></trkpt><trkpt lat="49.188329724507696" lon="2.4621554458632247"><ele>58.4</ele><time>2026-03-22T14:10:25Z</time></trkpt><trkpt lat="49.18838808252107" lon="2.462193597297737"><ele>58.2</ele><time>2026-03-22T14:10:26Z</time></trkpt><trkpt lat="49.18848487984837" lon="2.462256878390878"><ele>58.0</ele><time>2026-03-22T14:10:28Z</time></trkpt><trkpt lat="49.18858209504833" lon="2.4623204320554812"><ele>57.8</ele><time>2026-03-22T14:10:30Z</time></trkpt><trkpt lat="49.18867359079692" lon="2.4623777001415816"><ele>57.599999999999994</ele><time>2026-03-22T14:10:32Z</time></trkpt><trkpt lat="49.18876325007232" lon="2.462434464676111"><ele>57.400000000000006</ele><time>2026-03-22T14:10:34Z</time></trkpt><trkpt lat="49.188853938564094" lon="2.462491886637468"><ele>57.2</ele><time>2026-03-22T14:10:36Z</time></trkpt><trkpt lat="49.1889481502252" lon="2.462551206423342"><ele>57.0</ele><time>2026-03-22T14:10:37.999Z</time></trkpt><trkpt lat="49.18900973940138" lon="2.4625899856092004"><ele>56.8</ele><time>2026-03-22T14:10:39.999Z</time></trkpt><trkpt lat="49.18908304209919" lon="2.462636140299172"><ele>56.6</ele><time>2026-03-22T14:10:40.999Z</time></trkpt><trkpt lat="49.18917234283124" lon="2.4626923680200585"><ele>56.39999999999999</ele><time>2026-03-22T14:10:42.999Z</time></trkpt><trkpt lat="49.1892629326922" lon="2.4627494074365397"><ele>56.199999999999996</ele><time>2026-03-22T14:10:44.999Z</time></trkpt><trkpt lat="49.189346640055355" lon="2.462802113341996"><ele>56.0</ele><time>2026-03-22T14:10:46.999Z</time></trkpt><trkpt lat="49.189440040100955" lon="2.4628627326963293"><ele>56.00000000000001</ele><time>2026-03-22T14:10:48.999Z</time></trkpt><trkpt lat="49.189526554486875" lon="2.462918512987076"><ele>56.0</ele><time>2026-03-22T14:10:50.999Z</time></trkpt><trkpt lat="49.18961609897899" lon="2.462976246862235"><ele>56.0</ele><time>2026-03-22T14:10:52.999Z</time></trkpt><trkpt lat="49.18970018782438" lon="2.463030463223354"><ele>56.0</ele><time>2026-03-22T14:10:54.999Z</time></trkpt><trkpt lat="49.18978065564529" lon="2.4630823562943025"><ele>56.00000000000001</ele><time>2026-03-22T14:10:56.999Z</time></trkpt><trkpt lat="49.18983901668785" lon="2.4631204183360973"><ele>56.0</ele><time>2026-03-22T14:10:58.999Z</time></trkpt><trkpt lat="49.18980858629162" lon="2.4633460143802672"><ele>56.00000000000001</ele><time>2026-03-22T14:10:59.999Z</time></trkpt><trkpt lat="49.18985781324018" lon="2.463461100890939"><ele>56.0</ele><time>2026-03-22T14:11:01.999Z</time></trkpt><trkpt lat="49.189878276089445" lon="2.4635912919922887"><ele>56.0</ele><time>2026-03-22T14:11:03.999Z</time></trkpt><trkpt lat="49.18992832039492" lon="2.46370361366172"><ele>56.0</ele><time>2026-03-22T14:11:05.999Z</time></trkpt><trkpt lat="49.18996070306856" lon="2.4638317330616655"><ele>56.00000000000001</ele><time>2026-03-22T14:11:07.999Z</time></trkpt><trkpt lat="49.18997839878118" lon="2.4639661710614646"><ele>56.0</ele><time>2026-03-22T14:11:09.999Z</time></trkpt><trkpt lat="49.18998962397575" lon="2.464105138180796"><ele>56.199999999999996</ele><time>2026-03-22T14:11:11.998Z</time></trkpt><trkpt lat="49.1899986284754" lon="2.4642401679053436"><ele>56.39999999999999</ele><time>2026-03-22T14:11:13.998Z</time></trkpt><trkpt lat="49.189996487024395" lon="2.46438428681372"><ele>56.6</ele><time>2026-03-22T14:11:15.998Z</time></trkpt><trkpt lat="49.19000625844724" lon="2.464527793350127"><ele>56.8</ele><time>2026-03-22T14:11:17.998Z</time></trkpt><trkpt lat="49.19001586209379" lon="2.4646681226194165"><ele>57.0</ele><time>2026-03-22T14:11:19.998Z</time></trkpt><trkpt lat="49.19002161962395" lon="2.464803214227627"><ele>57.333333333333336</ele><time>2026-03-22T14:11:21.998Z</time></trkpt><trkpt lat="49.19003524410347" lon="2.4649395601438147"><ele>57.66666666666667</ele><time>2026-03-22T14:11:23.998Z</time></trkpt><trkpt lat="49.19004759807745" lon="2.4650639620997468"><ele>58.0</ele><time>2026-03-22T14:11:25.998Z</time></trkpt><trkpt lat="49.19006503868316" lon="2.465178312588189"><ele>58.333333333333336</ele><time>2026-03-22T14:11:27.998Z</time></trkpt><trkpt lat="49.19011021837202" lon="2.465267138276992"><ele>58.66666666666667</ele><time>2026-03-22T14:11:29.998Z</time></trkpt><trkpt lat="49.190119380501194" lon="2.465378831052082"><ele>59.0</ele><time>2026-03-22T14:11:31.998Z</time></trkpt><trkpt lat="49.19009208961306" lon="2.4654774237033883"><ele>59.0</ele><time>2026-03-22T14:11:33.998Z</time></trkpt><trkpt lat="49.19022628763795" lon="2.4654858634650054"><ele>59.0</ele><time>2026-03-22T14:11:34.998Z</time></trkpt><trkpt lat="49.190288032240005" lon="2.4655969285199153"><ele>59.0</ele><time>2026-03-22T14:11:36.998Z</time></trkpt><trkpt lat="49.190328253140095" lon="2.4654749190581113"><ele>59.0</ele><time>2026-03-22T14:11:37.998Z</time></trkpt><trkpt lat="49.19029283638805" lon="2.4658569808936277"><ele>59.0</ele><time>2026-03-22T14:11:39.998Z</time></trkpt><trkpt lat="49.19033252319253" lon="2.465986314959892"><ele>59.00000000000001</ele><time>2026-03-22T14:11:41.998Z</time></trkpt><trkpt lat="49.19036539308961" lon="2.46612511028893"><ele>59.00000000000001</ele><time>2026-03-22T14:11:43.997Z</time></trkpt><trkpt lat="49.19039652969073" lon="2.4662621470197674"><ele>59.0</ele><time>2026-03-22T14:11:45.997Z</time></trkpt><trkpt lat="49.190435668919214" lon="2.4663872129169815"><ele>59.0</ele><time>2026-03-22T14:11:47.997Z</time></trkpt><trkpt lat="49.1904934561796" lon="2.466500682048364"><ele>58.6</ele><time>2026-03-22T14:11:49.997Z</time></trkpt><trkpt lat="49.19056715237545" lon="2.466602828451573"><ele>58.2</ele><time>2026-03-22T14:11:51.997Z</time></trkpt><trkpt lat="49.190646642816226" lon="2.4667028222609884"><ele>57.800000000000004</ele><time>2026-03-22T14:11:53.997Z</time></trkpt><trkpt lat="49.19070803318653" lon="2.4668090128306535"><ele>57.400000000000006</ele><time>2026-03-22T14:11:55.997Z</time></trkpt><trkpt lat="49.19077353242769" lon="2.466907690605882"><ele>57.0</ele><time>2026-03-22T14:11:57.997Z</time></trkpt><trkpt lat="49.19083518310394" lon="2.467002504025082"><ele>56.2</ele><time>2026-03-22T14:11:59.997Z</time></trkpt><trkpt lat="49.19089883868632" lon="2.4671071869748897"><ele>55.400000000000006</ele><time>2026-03-22T14:12:01.997Z</time></trkpt><trkpt lat="49.190960787827215" lon="2.467210645557787"><ele>54.599999999999994</ele><time>2026-03-22T14:12:03.997Z</time></trkpt><trkpt lat="49.19100079030208" lon="2.4673329454723847"><ele>53.8</ele><time>2026-03-22T14:12:05.997Z</time></trkpt><trkpt lat="49.19107008874226" lon="2.467417821563577"><ele>53.0</ele><time>2026-03-22T14:12:07.997Z</time></trkpt><trkpt lat="49.19112767659021" lon="2.4675321317465166"><ele>53.0</ele><time>2026-03-22T14:12:09.997Z</time></trkpt><trkpt lat="49.19119933589919" lon="2.4676168699684067"><ele>53.0</ele><time>2026-03-22T14:12:11.997Z</time></trkpt><trkpt lat="49.19126230152921" lon="2.467712523180626"><ele>53.0</ele><time>2026-03-22T14:12:13.997Z</time></trkpt><trkpt lat="49.19132527579541" lon="2.467812517118587"><ele>53.0</ele><time>2026-03-22T14:12:15.996Z</time></trkpt><trkpt lat="49.19139335095899" lon="2.4679124158025174"><ele>53.0</ele><time>2026-03-22T14:12:18Z</time></trkpt><trkpt lat="49.191459669897405" lon="2.468017999710878"><ele>53.0</ele><time>2026-03-22T14:12:20Z</time></trkpt><trkpt lat="49.19152933249297" lon="2.468115121681573"><ele>53.0</ele><time>2026-03-22T14:12:22Z</time></trkpt><trkpt lat="49.19159939854675" lon="2.4682090791040117"><ele>53.0</ele><time>2026-03-22T14:12:24Z</time></trkpt><trkpt lat="49.19165411669566" lon="2.4683288042762372"><ele>53.0</ele><time>2026-03-22T14:12:26Z</time></trkpt><trkpt lat="49.19171723894038" lon="2.468423481310071"><ele>53.0</ele><time>2026-03-22T14:12:28Z</time></trkpt><trkpt lat="49.19178147130128" lon="2.468521793988296"><ele>53.00000000000001</ele><time>2026-03-22T14:12:30Z</time></trkpt><trkpt lat="49.19184462303756" lon="2.4686196346576463"><ele>53.0</ele><time>2026-03-22T14:12:32Z</time></trkpt><trkpt lat="49.19190565528912" lon="2.468720214554544"><ele>53.0</ele><time>2026-03-22T14:12:34Z</time></trkpt><trkpt lat="49.19196641988105" lon="2.4688130918774975"><ele>53.0</ele><time>2026-03-22T14:12:36Z</time></trkpt><trkpt lat="49.19202711588143" lon="2.4689026609349636"><ele>53.00000000000001</ele><time>2026-03-22T14:12:38Z</time></trkpt><trkpt lat="49.19208504150093" lon="2.4689876361796954"><ele>53.0</ele><time>2026-03-22T14:12:40Z</time></trkpt><trkpt lat="49.19214268187817" lon="2.4690879270996704"><ele>53.0</ele><time>2026-03-22T14:12:42Z</time></trkpt><trkpt lat="49.19217231015786" lon="2.469221831911573"><ele>53.0</ele><time>2026-03-22T14:12:43.999Z</time></trkpt><trkpt lat="49.19218100001282" lon="2.4693734717919544"><ele>53.0</ele><time>2026-03-22T14:12:45.999Z</time></trkpt><trkpt lat="49.192204569016894" lon="2.469513883714004"><ele>53.0</ele><time>2026-03-22T14:12:47.999Z</time></trkpt><trkpt lat="49.1922432826184" lon="2.4696371879182"><ele>53.0</ele><time>2026-03-22T14:12:49.999Z</time></trkpt><trkpt lat="49.19227235303136" lon="2.4697591872018645"><ele>53.2</ele><time>2026-03-22T14:12:51.999Z</time></trkpt><trkpt lat="49.19230854982493" lon="2.469889340265904"><ele>53.4</ele><time>2026-03-22T14:12:53.999Z</time></trkpt><trkpt lat="49.19234268496825" lon="2.4700143357507938"><ele>53.60000000000001</ele><time>2026-03-22T14:12:55.999Z</time></trkpt><trkpt lat="49.192375110730524" lon="2.4701467749952473"><ele>53.800000000000004</ele><time>2026-03-22T14:12:57.999Z</time></trkpt><trkpt lat="49.19240705491052" lon="2.4702816300811326"><ele>54.0</ele><time>2026-03-22T14:12:59.999Z</time></trkpt><trkpt lat="49.19243520975514" lon="2.470407383674017"><ele>54.5</ele><time>2026-03-22T14:13:01.999Z</time></trkpt><trkpt lat="49.19246521287548" lon="2.4705397798630697"><ele>55.0</ele><time>2026-03-22T14:13:03.999Z</time></trkpt><trkpt lat="49.192489082299325" lon="2.4706760280860385"><ele>55.5</ele><time>2026-03-22T14:13:05.999Z</time></trkpt><trkpt lat="49.19251960859601" lon="2.4708092079774846"><ele>56.0</ele><time>2026-03-22T14:13:07.999Z</time></trkpt><trkpt lat="49.19253949544685" lon="2.4709391388707247"><ele>56.5</ele><time>2026-03-22T14:13:09.999Z</time></trkpt><trkpt lat="49.192547757632944" lon="2.471063134978582"><ele>57.0</ele><time>2026-03-22T14:13:11.999Z</time></trkpt><trkpt lat="49.19253519594914" lon="2.4712034754238337"><ele>57.6</ele><time>2026-03-22T14:13:13.999Z</time></trkpt><trkpt lat="49.19253259436407" lon="2.4713480796499234"><ele>58.2</ele><time>2026-03-22T14:13:15.998Z</time></trkpt><trkpt lat="49.19254781073272" lon="2.4714735931274836"><ele>58.8</ele><time>2026-03-22T14:13:17.998Z</time></trkpt><trkpt lat="49.19255751037242" lon="2.4716224438042853"><ele>59.4</ele><time>2026-03-22T14:13:19.998Z</time></trkpt><trkpt lat="49.19257143191515" lon="2.4717509194572256"><ele>60.0</ele><time>2026-03-22T14:13:21.998Z</time></trkpt><trkpt lat="49.19255523803753" lon="2.4719133134248095"><ele>60.0</ele><time>2026-03-22T14:13:23.998Z</time></trkpt><trkpt lat="49.192565091605864" lon="2.472064661216953"><ele>60.0</ele><time>2026-03-22T14:13:25.998Z</time></trkpt><trkpt lat="49.19256435468716" lon="2.4721988009055953"><ele>60.0</ele><time>2026-03-22T14:13:27.998Z</time></trkpt><trkpt lat="49.192568491621856" lon="2.4723516788032738"><ele>60.0</ele><time>2026-03-22T14:13:29.998Z</time></trkpt><trkpt lat="49.19258386850174" lon="2.4724548095179877"><ele>60.0</ele><time>2026-03-22T14:13:30.998Z</time></trkpt><trkpt lat="49.19258774818222" lon="2.472629709124417"><ele>59.6</ele><time>2026-03-22T14:13:32.998Z</time></trkpt><trkpt lat="49.19263390922998" lon="2.472798999033547"><ele>59.2</ele><time>2026-03-22T14:13:34.998Z</time></trkpt><trkpt lat="49.19267638443617" lon="2.4729490284365694"><ele>58.8</ele><time>2026-03-22T14:13:36.998Z</time></trkpt><trkpt lat="49.192738557310946" lon="2.47302992150509"><ele>58.4</ele><time>2026-03-22T14:13:38.998Z</time></trkpt><trkpt lat="49.19281726985347" lon="2.4731004877677956"><ele>58.0</ele><time>2026-03-22T14:13:40.998Z</time></trkpt><trkpt lat="49.19288964980378" lon="2.4731844749870717"><ele>57.33333333333333</ele><time>2026-03-22T14:13:42.998Z</time></trkpt><trkpt lat="49.192950803176785" lon="2.4732680006641283"><ele>56.666666666666664</ele><time>2026-03-22T14:13:44.998Z</time></trkpt><trkpt lat="49.19301533396242" lon="2.4733440196175804"><ele>56.0</ele><time>2026-03-22T14:13:46.998Z</time></trkpt><trkpt lat="49.19307940511486" lon="2.473409009242004"><ele>55.33333333333333</ele><time>2026-03-22T14:13:48.997Z</time></trkpt><trkpt lat="49.193145716058616" lon="2.4734809409229084"><ele>54.666666666666664</ele><time>2026-03-22T14:13:50.997Z</time></trkpt><trkpt lat="49.19322608971965" lon="2.4735504265265185"><ele>54.0</ele><time>2026-03-22T14:13:52.997Z</time></trkpt><trkpt lat="49.19330238828463" lon="2.4736343421219744"><ele>54.0</ele><time>2026-03-22T14:13:54.997Z</time></trkpt><trkpt lat="49.1933711307125" lon="2.4737442056586616"><ele>54.00000000000001</ele><time>2026-03-22T14:13:56.997Z</time></trkpt><trkpt lat="49.19343518454233" lon="2.4738699490413385"><ele>54.00000000000001</ele><time>2026-03-22T14:13:58.997Z</time></trkpt><trkpt lat="49.19342685011901" lon="2.4740374081351058"><ele>54.0</ele><time>2026-03-22T14:14:00.997Z</time></trkpt><trkpt lat="49.19342834433018" lon="2.474183579559258"><ele>54.0</ele><time>2026-03-22T14:14:02.997Z</time></trkpt><trkpt lat="49.19343161449968" lon="2.474331381783008"><ele>53.800000000000004</ele><time>2026-03-22T14:14:04.997Z</time></trkpt><trkpt lat="49.19343206861879" lon="2.4744800087436762"><ele>53.60000000000001</ele><time>2026-03-22T14:14:06.997Z</time></trkpt><trkpt lat="49.19343306248436" lon="2.4746275238887327"><ele>53.4</ele><time>2026-03-22T14:14:08.997Z</time></trkpt><trkpt lat="49.193439277987544" lon="2.4747783354988306"><ele>53.2</ele><time>2026-03-22T14:14:10.997Z</time></trkpt><trkpt lat="49.19344257214739" lon="2.4749259003314044"><ele>53.0</ele><time>2026-03-22T14:14:12.997Z</time></trkpt><trkpt lat="49.19344504635989" lon="2.4750755604717045"><ele>53.0</ele><time>2026-03-22T14:14:14.997Z</time></trkpt><trkpt lat="49.193447185525045" lon="2.4752284324615963"><ele>53.0</ele><time>2026-03-22T14:14:16.997Z</time></trkpt><trkpt lat="49.19345149493963" lon="2.475380226212739"><ele>53.0</ele><time>2026-03-22T14:14:18.997Z</time></trkpt><trkpt lat="49.19345289151853" lon="2.4755285558434563"><ele>53.0</ele><time>2026-03-22T14:14:20.997Z</time></trkpt><trkpt lat="49.193454031409075" lon="2.4756896375816986"><ele>53.0</ele><time>2026-03-22T14:14:22.996Z</time></trkpt><trkpt lat="49.193455590295926" lon="2.4758309145501163"><ele>53.0</ele><time>2026-03-22T14:14:25Z</time></trkpt><trkpt lat="49.1934564882382" lon="2.4759704028624583"><ele>53.0</ele><time>2026-03-22T14:14:27Z</time></trkpt><trkpt lat="49.193435411740374" lon="2.47610993861503"><ele>53.0</ele><time>2026-03-22T14:14:29Z</time></trkpt><trkpt lat="49.19342934986451" lon="2.476259429039306"><ele>53.0</ele><time>2026-03-22T14:14:31Z</time></trkpt><trkpt lat="49.19343721088699" lon="2.4764119430098437"><ele>53.0</ele><time>2026-03-22T14:14:33Z</time></trkpt><trkpt lat="49.19344158937915" lon="2.4765671895972923"><ele>52.8</ele><time>2026-03-22T14:14:35Z</time></trkpt><trkpt lat="49.19344192169815" lon="2.4767265695668277"><ele>52.599999999999994</ele><time>2026-03-22T14:14:37Z</time></trkpt><trkpt lat="49.19344982744036" lon="2.4768862700577987"><ele>52.400000000000006</ele><time>2026-03-22T14:14:39Z</time></trkpt><trkpt lat="49.19344870725518" lon="2.477044863075088"><ele>52.2</ele><time>2026-03-22T14:14:41Z</time></trkpt><trkpt lat="49.193457342169545" lon="2.477207347365534"><ele>52.0</ele><time>2026-03-22T14:14:43Z</time></trkpt><trkpt lat="49.1934615522717" lon="2.4773687113703606"><ele>52.400000000000006</ele><time>2026-03-22T14:14:45Z</time></trkpt><trkpt lat="49.193462305075855" lon="2.477538578872601"><ele>52.800000000000004</ele><time>2026-03-22T14:14:47Z</time></trkpt><trkpt lat="49.19345235716061" lon="2.4777152061993424"><ele>53.2</ele><time>2026-03-22T14:14:48.999Z</time></trkpt><trkpt lat="49.19346101590851" lon="2.477874822148459"><ele>53.6</ele><time>2026-03-22T14:14:50.999Z</time></trkpt><trkpt lat="49.19346716025447" lon="2.478017118279063"><ele>54.0</ele><time>2026-03-22T14:14:52.999Z</time></trkpt><trkpt lat="49.19347102265376" lon="2.4781648661216495"><ele>54.2</ele><time>2026-03-22T14:14:54.999Z</time></trkpt><trkpt lat="49.193479642238145" lon="2.478317770142427"><ele>54.400000000000006</ele><time>2026-03-22T14:14:56.999Z</time></trkpt><trkpt lat="49.19348162322264" lon="2.478473180697717"><ele>54.6</ele><time>2026-03-22T14:14:58.999Z</time></trkpt><trkpt lat="49.19348093794921" lon="2.478628528123953"><ele>54.8</ele><time>2026-03-22T14:15:00.999Z</time></trkpt><trkpt lat="49.19347865445692" lon="2.4787774445945354"><ele>55.0</ele><time>2026-03-22T14:15:02.999Z</time></trkpt><trkpt lat="49.1934636547199" lon="2.4788924710227707"><ele>55.166666666666664</ele><time>2026-03-22T14:15:04.999Z</time></trkpt><trkpt lat="49.193467022961954" lon="2.479007982044145"><ele>55.33333333333333</ele><time>2026-03-22T14:15:06.999Z</time></trkpt><trkpt lat="49.193469302108284" lon="2.4791167583810174"><ele>55.5</ele><time>2026-03-22T14:15:09.999Z</time></trkpt><trkpt lat="49.19348146508249" lon="2.479265174704273"><ele>55.66666666666667</ele><time>2026-03-22T14:15:12.999Z</time></trkpt><trkpt lat="49.1934917770375" lon="2.479379934647407"><ele>55.833333333333336</ele><time>2026-03-22T14:15:14.999Z</time></trkpt><trkpt lat="49.19349666553228" lon="2.4795019961858396"><ele>56.0</ele><time>2026-03-22T14:15:16.999Z</time></trkpt><trkpt lat="49.19350357656396" lon="2.479629596157686"><ele>55.50000000000001</ele><time>2026-03-22T14:15:18.999Z</time></trkpt><trkpt lat="49.193513141933735" lon="2.4797558432712057"><ele>55.0</ele><time>2026-03-22T14:15:20.999Z</time></trkpt><trkpt lat="49.19353356735576" lon="2.4798858423795944"><ele>54.5</ele><time>2026-03-22T14:15:22.999Z</time></trkpt><trkpt lat="49.193537362562914" lon="2.4800249548740934"><ele>54.0</ele><time>2026-03-22T14:15:24.998Z</time></trkpt><trkpt lat="49.193540909099134" lon="2.4801591650257646"><ele>53.50000000000001</ele><time>2026-03-22T14:15:26.998Z</time></trkpt><trkpt lat="49.193540587156456" lon="2.480285625850947"><ele>53.0</ele><time>2026-03-22T14:15:28.998Z</time></trkpt><trkpt lat="49.193544994058975" lon="2.4803909628699063"><ele>53.0</ele><time>2026-03-22T14:15:30.998Z</time></trkpt><trkpt lat="49.193598772040886" lon="2.480457305394274"><ele>53.0</ele><time>2026-03-22T14:15:33.998Z</time></trkpt><trkpt lat="49.19366316451439" lon="2.480434287243125"><ele>53.0</ele><time>2026-03-22T14:15:37.998Z</time></trkpt><trkpt lat="49.19363496872768" lon="2.48034419837223"><ele>53.0</ele><time>2026-03-22T14:16:05.997Z</time></trkpt><trkpt lat="49.19357042913236" lon="2.4803196496182323"><ele>53.0</ele><time>2026-03-22T14:16:09.997Z</time></trkpt><trkpt lat="49.19352397804155" lon="2.480412403128923"><ele>53.0</ele><time>2026-03-22T14:16:13.997Z</time></trkpt><trkpt lat="49.193450652610636" lon="2.48052551030044"><ele>53.0</ele><time>2026-03-22T14:16:16.997Z</time></trkpt><trkpt lat="49.19344015921537" lon="2.4806317200600274"><ele>52.66666666666667</ele><time>2026-03-22T14:16:19.997Z</time></trkpt><trkpt lat="49.193420972391706" lon="2.4807780143076457"><ele>52.333333333333336</ele><time>2026-03-22T14:16:22.997Z</time></trkpt><trkpt lat="49.19340331509293" lon="2.48089183729558"><ele>52.0</ele><time>2026-03-22T14:16:24.997Z</time></trkpt><trkpt lat="49.19338567552094" lon="2.4809857954545143"><ele>51.66666666666667</ele><time>2026-03-22T14:16:26.997Z</time></trkpt><trkpt lat="49.19336350563372" lon="2.481091383085649"><ele>51.333333333333336</ele><time>2026-03-22T14:16:28.997Z</time></trkpt><trkpt lat="49.19332834448217" lon="2.4812241503765615"><ele>51.0</ele><time>2026-03-22T14:16:32Z</time></trkpt><trkpt lat="49.19328939895886" lon="2.4813448172091706"><ele>50.666666666666664</ele><time>2026-03-22T14:16:35Z</time></trkpt><trkpt lat="49.19325544131868" lon="2.4814365746594036"><ele>50.33333333333333</ele><time>2026-03-22T14:16:37Z</time></trkpt><trkpt lat="49.19322038731054" lon="2.4815241559551753"><ele>50.0</ele><time>2026-03-22T14:16:39Z</time></trkpt><trkpt lat="49.19317940920053" lon="2.4816187370410767"><ele>49.666666666666664</ele><time>2026-03-22T14:16:41Z</time></trkpt><trkpt lat="49.193134490073895" lon="2.481714752865513"><ele>49.33333333333333</ele><time>2026-03-22T14:16:43Z</time></trkpt><trkpt lat="49.19308261717057" lon="2.4818173702588093"><ele>49.0</ele><time>2026-03-22T14:16:45Z</time></trkpt><trkpt lat="49.19303176880012" lon="2.481907745560784"><ele>48.666666666666664</ele><time>2026-03-22T14:16:47Z</time></trkpt><trkpt lat="49.1929743257807" lon="2.481997052795117"><ele>48.33333333333333</ele><time>2026-03-22T14:16:49Z</time></trkpt><trkpt lat="49.19291266489373" lon="2.482079878732314"><ele>48.0</ele><time>2026-03-22T14:16:51Z</time></trkpt><trkpt lat="49.1928439191201" lon="2.4821562339206897"><ele>47.666666666666664</ele><time>2026-03-22T14:16:53Z</time></trkpt><trkpt lat="49.19277332618059" lon="2.4822248475803566"><ele>47.33333333333333</ele><time>2026-03-22T14:16:55Z</time></trkpt><trkpt lat="49.192699375004096" lon="2.482288701661848"><ele>47.0</ele><time>2026-03-22T14:16:56.999Z</time></trkpt><trkpt lat="49.19262829025956" lon="2.482340755457924"><ele>47.5</ele><time>2026-03-22T14:16:58.999Z</time></trkpt><trkpt lat="49.19255024798952" lon="2.4824015374301616"><ele>48.0</ele><time>2026-03-22T14:17:00.999Z</time></trkpt><trkpt lat="49.192367307451" lon="2.4825365508289834"><ele>48.5</ele><time>2026-03-22T14:17:05.999Z</time></trkpt><trkpt lat="49.19228715506383" lon="2.482590678083388"><ele>49.0</ele><time>2026-03-22T14:17:07.999Z</time></trkpt><trkpt lat="49.19220594946403" lon="2.482645516736722"><ele>49.0</ele><time>2026-03-22T14:17:09.999Z</time></trkpt><trkpt lat="49.1921277075122" lon="2.482698295916014"><ele>49.0</ele><time>2026-03-22T14:17:11.999Z</time></trkpt><trkpt lat="49.19204209440574" lon="2.4827543664691865"><ele>49.0</ele><time>2026-03-22T14:17:13.999Z</time></trkpt><trkpt lat="49.19195466661775" lon="2.4828116255246346"><ele>49.0</ele><time>2026-03-22T14:17:15.999Z</time></trkpt><trkpt lat="49.191875700902244" lon="2.482865247026348"><ele>49.0</ele><time>2026-03-22T14:17:17.999Z</time></trkpt><trkpt lat="49.191793519861115" lon="2.482924442398173"><ele>48.83333333333333</ele><time>2026-03-22T14:17:19.999Z</time></trkpt><trkpt lat="49.19172326738314" lon="2.482977322116806"><ele>48.666666666666664</ele><time>2026-03-22T14:17:21.999Z</time></trkpt><trkpt lat="49.19165899945379" lon="2.4830346741135134"><ele>48.5</ele><time>2026-03-22T14:17:23.999Z</time></trkpt><trkpt lat="49.191594515708225" lon="2.4831379118032006"><ele>48.33333333333333</ele><time>2026-03-22T14:17:25.999Z</time></trkpt><trkpt lat="49.19157024072937" lon="2.4832462669993323"><ele>48.166666666666664</ele><time>2026-03-22T14:17:27.999Z</time></trkpt><trkpt lat="49.191550010015476" lon="2.483339128522319"><ele>48.0</ele><time>2026-03-22T14:17:29.998Z</time></trkpt><trkpt lat="49.19152470526358" lon="2.483471350249096"><ele>47.99999999999999</ele><time>2026-03-22T14:17:32.998Z</time></trkpt><trkpt lat="49.19152335532374" lon="2.4835809191517337"><ele>48.0</ele><time>2026-03-22T14:17:34.998Z</time></trkpt><trkpt lat="49.191509041867825" lon="2.4836963220742825"><ele>48.0</ele><time>2026-03-22T14:17:36.998Z</time></trkpt><trkpt lat="49.19151576546269" lon="2.4838002962959695"><ele>48.0</ele><time>2026-03-22T14:17:38.998Z</time></trkpt><trkpt lat="49.191497441734235" lon="2.4838987297869717"><ele>48.0</ele><time>2026-03-22T14:17:40.998Z</time></trkpt><trkpt lat="49.19141948913994" lon="2.4839626009352855"><ele>47.99999999999999</ele><time>2026-03-22T14:17:43.998Z</time></trkpt><trkpt lat="49.19134453473003" lon="2.4839830578835635"><ele>48.0</ele><time>2026-03-22T14:17:46.998Z</time></trkpt><trkpt lat="49.191246137691536" lon="2.48400259341154"><ele>48.0</ele><time>2026-03-22T14:17:51.998Z</time></trkpt><trkpt lat="49.19122783423974" lon="2.4843695092946247"><ele>48.0</ele><time>2026-03-22T14:17:57.998Z</time></trkpt><trkpt lat="49.19126087020833" lon="2.4844716002799996"><ele>48.0</ele><time>2026-03-22T14:18:00.998Z</time></trkpt><trkpt lat="49.1913104509893" lon="2.4845803511263203"><ele>48.0</ele><time>2026-03-22T14:18:03.997Z</time></trkpt><trkpt lat="49.19136764965767" lon="2.484703207008372"><ele>47.99999999999999</ele><time>2026-03-22T14:18:06.997Z</time></trkpt><trkpt lat="49.19140716539583" lon="2.484787477788401"><ele>48.0</ele><time>2026-03-22T14:18:08.997Z</time></trkpt><trkpt lat="49.19148013858559" lon="2.4848007082717496"><ele>48.0</ele><time>2026-03-22T14:18:11.997Z</time></trkpt><trkpt lat="49.19154218269193" lon="2.484850023268026"><ele>48.0</ele><time>2026-03-22T14:18:14.997Z</time></trkpt><trkpt lat="49.19158011478258" lon="2.484927683422721"><ele>48.0</ele><time>2026-03-22T14:18:18.997Z</time></trkpt><trkpt lat="49.19158525121315" lon="2.4850277460054238"><ele>47.99999999999999</ele><time>2026-03-22T14:18:23.997Z</time></trkpt><trkpt lat="49.191644977826" lon="2.485112809015006"><ele>48.0</ele><time>2026-03-22T14:18:27.997Z</time></trkpt><trkpt lat="49.191616003100734" lon="2.485237288903388"><ele>47.0</ele><time>2026-03-22T14:18:32.997Z</time></trkpt><trkpt lat="49.19152775795123" lon="2.485115402937147"><ele>46.0</ele><time>2026-03-22T14:18:33.997Z</time></trkpt><trkpt lat="49.19147651872418" lon="2.4857476142209154"><ele>46.57142857142858</ele><time>2026-03-22T14:22:08.998Z</time></trkpt><trkpt lat="49.19144864198728" lon="2.4858440515944134"><ele>47.14285714285714</ele><time>2026-03-22T14:22:10.998Z</time></trkpt><trkpt lat="49.191414951594716" lon="2.4859376521583996"><ele>47.714285714285715</ele><time>2026-03-22T14:22:12.998Z</time></trkpt><trkpt lat="49.19135905164776" lon="2.4860037931863173"><ele>48.28571428571429</ele><time>2026-03-22T14:22:14.998Z</time></trkpt><trkpt lat="49.19128753818244" lon="2.486008993082878"><ele>48.85714285714286</ele><time>2026-03-22T14:22:16.998Z</time></trkpt><trkpt lat="49.19121878839547" lon="2.486107361547011"><ele>49.42857142857143</ele><time>2026-03-22T14:22:19.998Z</time></trkpt><trkpt lat="49.1911758019958" lon="2.4861824085564024"><ele>50.0</ele><time>2026-03-22T14:22:21.997Z</time></trkpt><trkpt lat="49.19112412674754" lon="2.486262055458699"><ele>50.57142857142858</ele><time>2026-03-22T14:22:23.997Z</time></trkpt><trkpt lat="49.19108215464166" lon="2.4863351812765644"><ele>51.142857142857146</ele><time>2026-03-22T14:22:25.997Z</time></trkpt><trkpt lat="49.1910354122936" lon="2.486407228179058"><ele>51.714285714285715</ele><time>2026-03-22T14:22:27.997Z</time></trkpt><trkpt lat="49.19098971638996" lon="2.4864843030490147"><ele>52.28571428571429</ele><time>2026-03-22T14:22:29.997Z</time></trkpt><trkpt lat="49.19094276974056" lon="2.486562215038022"><ele>52.857142857142854</ele><time>2026-03-22T14:22:31.997Z</time></trkpt><trkpt lat="49.190895745097954" lon="2.486638588635368"><ele>53.42857142857143</ele><time>2026-03-22T14:22:33.997Z</time></trkpt><trkpt lat="49.1908480398119" lon="2.486711263308684"><ele>54.0</ele><time>2026-03-22T14:22:35.997Z</time></trkpt><trkpt lat="49.19080036139286" lon="2.486791562779403"><ele>54.0</ele><time>2026-03-22T14:22:37.997Z</time></trkpt><trkpt lat="49.19074801580494" lon="2.486867214260213"><ele>54.00000000000001</ele><time>2026-03-22T14:22:39.997Z</time></trkpt><trkpt lat="49.19063339496049" lon="2.486757901888084"><ele>54.00000000000001</ele><time>2026-03-22T14:22:40.997Z</time></trkpt><trkpt lat="49.190576692725045" lon="2.4868012781885205"><ele>54.0</ele><time>2026-03-22T14:22:43.997Z</time></trkpt><trkpt lat="49.190494421293714" lon="2.4868442144907354"><ele>54.0</ele><time>2026-03-22T14:22:46.997Z</time></trkpt><trkpt lat="49.19044478418149" lon="2.4872475924865918"><ele>54.333333333333336</ele><time>2026-03-22T14:22:49Z</time></trkpt><trkpt lat="49.19046237745405" lon="2.487388357163756"><ele>54.66666666666667</ele><time>2026-03-22T14:22:54Z</time></trkpt><trkpt lat="49.1904841281904" lon="2.48751627689877"><ele>55.0</ele><time>2026-03-22T14:22:57Z</time></trkpt><trkpt lat="49.19050066546256" lon="2.4876511445326983"><ele>55.333333333333336</ele><time>2026-03-22T14:22:59Z</time></trkpt><trkpt lat="49.190491507388934" lon="2.4877950806263933"><ele>55.66666666666667</ele><time>2026-03-22T14:23:00Z</time></trkpt><trkpt lat="49.190462824090666" lon="2.4879084854245317"><ele>56.0</ele><time>2026-03-22T14:23:01Z</time></trkpt><trkpt lat="49.190405496491216" lon="2.488054473177168"><ele>56.00000000000001</ele><time>2026-03-22T14:23:03Z</time></trkpt><trkpt lat="49.19035766277007" lon="2.4881636432893672"><ele>56.0</ele><time>2026-03-22T14:23:05Z</time></trkpt><trkpt lat="49.19030550254608" lon="2.4882801804199617"><ele>56.0</ele><time>2026-03-22T14:23:07Z</time></trkpt><trkpt lat="49.1902558672356" lon="2.4883866998100745"><ele>56.0</ele><time>2026-03-22T14:23:09Z</time></trkpt><trkpt lat="49.19020739079714" lon="2.4884888951419972"><ele>56.00000000000001</ele><time>2026-03-22T14:23:11Z</time></trkpt><trkpt lat="49.19016976302702" lon="2.4885681029970006"><ele>56.0</ele><time>2026-03-22T14:23:13Z</time></trkpt><trkpt lat="49.19012662101109" lon="2.488658918413902"><ele>55.333333333333336</ele><time>2026-03-22T14:23:19.999Z</time></trkpt><trkpt lat="49.19007742857039" lon="2.4887624705172025"><ele>54.66666666666667</ele><time>2026-03-22T14:23:21.999Z</time></trkpt><trkpt lat="49.19002258410245" lon="2.4888779197389095"><ele>54.0</ele><time>2026-03-22T14:23:23.999Z</time></trkpt><trkpt lat="49.189952716676636" lon="2.4890312013055267"><ele>53.33333333333333</ele><time>2026-03-22T14:23:25.999Z</time></trkpt><trkpt lat="49.18991132917412" lon="2.4891240118847375"><ele>52.666666666666664</ele><time>2026-03-22T14:23:26.999Z</time></trkpt><trkpt lat="49.18987100168389" lon="2.489214494648739"><ele>52.0</ele><time>2026-03-22T14:23:27.999Z</time></trkpt><trkpt lat="49.189827513504355" lon="2.4893169708182645"><ele>51.99999999999999</ele><time>2026-03-22T14:23:28.999Z</time></trkpt><trkpt lat="49.189784609893906" lon="2.489418070170505"><ele>52.0</ele><time>2026-03-22T14:23:29.999Z</time></trkpt><trkpt lat="49.18974768993259" lon="2.489513207583995"><ele>52.0</ele><time>2026-03-22T14:23:30.999Z</time></trkpt><trkpt lat="49.18971217710147" lon="2.4896109901735617"><ele>52.0</ele><time>2026-03-22T14:23:31.999Z</time></trkpt><trkpt lat="49.18967855526852" lon="2.4897076003859997"><ele>51.99999999999999</ele><time>2026-03-22T14:23:32.999Z</time></trkpt><trkpt lat="49.18962650560423" lon="2.489887515953177"><ele>52.0</ele><time>2026-03-22T14:23:34.999Z</time></trkpt><trkpt lat="49.18960336846524" lon="2.49003378486146"><ele>53.5</ele><time>2026-03-22T14:23:36.999Z</time></trkpt><trkpt lat="49.18959513255655" lon="2.4901376882614388"><ele>55.0</ele><time>2026-03-22T14:23:38.999Z</time></trkpt><trkpt lat="49.18928464948118" lon="2.490503618047874"><ele>55.166666666666664</ele><time>2026-03-22T14:23:49.999Z</time></trkpt><trkpt lat="49.18930749828849" lon="2.490626162971315"><ele>55.33333333333333</ele><time>2026-03-22T14:23:52.998Z</time></trkpt><trkpt lat="49.189329379429374" lon="2.4907405273624166"><ele>55.5</ele><time>2026-03-22T14:23:55.998Z</time></trkpt><trkpt lat="49.18933213070635" lon="2.4908550716354365"><ele>55.66666666666667</ele><time>2026-03-22T14:23:58.998Z</time></trkpt><trkpt lat="49.18933877345489" lon="2.490984961112514"><ele>55.833333333333336</ele><time>2026-03-22T14:24:01.998Z</time></trkpt><trkpt lat="49.18934672931314" lon="2.4911258474021785"><ele>56.0</ele><time>2026-03-22T14:24:04.998Z</time></trkpt><trkpt lat="49.18935331714421" lon="2.491226678438684"><ele>56.16666666666667</ele><time>2026-03-22T14:24:06.998Z</time></trkpt><trkpt lat="49.18936037347112" lon="2.491324536780202"><ele>56.333333333333336</ele><time>2026-03-22T14:24:08.998Z</time></trkpt><trkpt lat="49.189368531686696" lon="2.491460337592051"><ele>56.5</ele><time>2026-03-22T14:24:11.998Z</time></trkpt><trkpt lat="49.18937418610141" lon="2.4915872799920105"><ele>56.66666666666667</ele><time>2026-03-22T14:24:14.998Z</time></trkpt><trkpt lat="49.18937577821839" lon="2.491709093115099"><ele>56.833333333333336</ele><time>2026-03-22T14:24:17.998Z</time></trkpt><trkpt lat="49.18937777634459" lon="2.491835238941171"><ele>57.0</ele><time>2026-03-22T14:24:20.998Z</time></trkpt><trkpt lat="49.18938125973205" lon="2.4919803711433417"><ele>57.333333333333336</ele><time>2026-03-22T14:24:23.998Z</time></trkpt><trkpt lat="49.189377307323845" lon="2.492110037079782"><ele>57.66666666666667</ele><time>2026-03-22T14:24:26.997Z</time></trkpt><trkpt lat="49.18936615913853" lon="2.492261382599215"><ele>58.0</ele><time>2026-03-22T14:24:29.997Z</time></trkpt><trkpt lat="49.189480226067374" lon="2.492281224170865"><ele>58.333333333333336</ele><time>2026-03-22T14:24:30.997Z</time></trkpt><trkpt lat="49.18949324876509" lon="2.492385696907239"><ele>58.66666666666667</ele><time>2026-03-22T14:24:32.997Z</time></trkpt><trkpt lat="49.18950701648399" lon="2.4924961493366458"><ele>59.0</ele><time>2026-03-22T14:24:34.997Z</time></trkpt><trkpt lat="49.18952153581979" lon="2.4926126358794662"><ele>59.00000000000001</ele><time>2026-03-22T14:24:36.997Z</time></trkpt><trkpt lat="49.18952932734511" lon="2.4927469933752997"><ele>59.0</ele><time>2026-03-22T14:24:38.997Z</time></trkpt><trkpt lat="49.18952186271123" lon="2.492869429665237"><ele>59.0</ele><time>2026-03-22T14:24:40.997Z</time></trkpt><trkpt lat="49.189506292446346" lon="2.4929720460075613"><ele>59.0</ele><time>2026-03-22T14:24:42.997Z</time></trkpt><trkpt lat="49.18951369296074" lon="2.493091626108126"><ele>59.00000000000001</ele><time>2026-03-22T14:24:44.997Z</time></trkpt><trkpt lat="49.18952349122282" lon="2.4931996777663246"><ele>59.0</ele><time>2026-03-22T14:24:46.997Z</time></trkpt><trkpt lat="49.189536010245426" lon="2.493313255780317"><ele>59.00000000000001</ele><time>2026-03-22T14:24:48.997Z</time></trkpt><trkpt lat="49.18957520433635" lon="2.4934083975393158"><ele>59.0</ele><time>2026-03-22T14:24:50.997Z</time></trkpt><trkpt lat="49.18959274998531" lon="2.4935268237842894"><ele>59.0</ele><time>2026-03-22T14:24:52.997Z</time></trkpt><trkpt lat="49.18964077647874" lon="2.4936536412958974"><ele>59.0</ele><time>2026-03-22T14:24:56Z</time></trkpt><trkpt lat="49.18962696714759" lon="2.4937577759776426"><ele>59.00000000000001</ele><time>2026-03-22T14:24:57Z</time></trkpt><trkpt lat="49.18955188574512" lon="2.493902545504896"><ele>59.0</ele><time>2026-03-22T14:24:59Z</time></trkpt><trkpt lat="49.1895560448796" lon="2.4940201506401873"><ele>59.16666666666667</ele><time>2026-03-22T14:25:01Z</time></trkpt><trkpt lat="49.18956567224136" lon="2.49414034734911"><ele>59.333333333333336</ele><time>2026-03-22T14:25:03Z</time></trkpt><trkpt lat="49.18956259379731" lon="2.494259885130818"><ele>59.5</ele><time>2026-03-22T14:25:05Z</time></trkpt><trkpt lat="49.18955600916198" lon="2.494382270245295"><ele>59.66666666666667</ele><time>2026-03-22T14:25:07Z</time></trkpt><trkpt lat="49.18954944707528" lon="2.4944977751457813"><ele>59.833333333333336</ele><time>2026-03-22T14:25:09Z</time></trkpt><trkpt lat="49.189541198227616" lon="2.494611583211699"><ele>60.0</ele><time>2026-03-22T14:25:11Z</time></trkpt><trkpt lat="49.18953354440301" lon="2.4947216224542186"><ele>60.0</ele><time>2026-03-22T14:25:13Z</time></trkpt><trkpt lat="49.18951730935813" lon="2.4948387554672227"><ele>60.0</ele><time>2026-03-22T14:25:15Z</time></trkpt><trkpt lat="49.1895071178881" lon="2.4949536695752896"><ele>60.0</ele><time>2026-03-22T14:25:17Z</time></trkpt><trkpt lat="49.18949419601798" lon="2.495082596065778"><ele>60.0</ele><time>2026-03-22T14:25:19Z</time></trkpt><trkpt lat="49.189483699059636" lon="2.4952196839305265"><ele>60.0</ele><time>2026-03-22T14:25:21Z</time></trkpt><trkpt lat="49.18947252158956" lon="2.495360438240498"><ele>60.0</ele><time>2026-03-22T14:25:23Z</time></trkpt><trkpt lat="49.18946137184599" lon="2.4955022984774775"><ele>60.0</ele><time>2026-03-22T14:25:24.999Z</time></trkpt><trkpt lat="49.1894528705525" lon="2.495645657915606"><ele>60.0</ele><time>2026-03-22T14:25:26.999Z</time></trkpt><trkpt lat="49.18944944701105" lon="2.495786594450049"><ele>60.0</ele><time>2026-03-22T14:25:28.999Z</time></trkpt><trkpt lat="49.189440931555446" lon="2.4959241432783346"><ele>60.0</ele><time>2026-03-22T14:25:30.999Z</time></trkpt><trkpt lat="49.18943137684712" lon="2.496069090945491"><ele>60.0</ele><time>2026-03-22T14:25:32.999Z</time></trkpt><trkpt lat="49.18942682452403" lon="2.496182393645107"><ele>60.0</ele><time>2026-03-22T14:25:34.999Z</time></trkpt><trkpt lat="49.18942546069596" lon="2.496312154481175"><ele>60.166666666666664</ele><time>2026-03-22T14:25:36.999Z</time></trkpt><trkpt lat="49.1894129781791" lon="2.4964455834120636"><ele>60.33333333333333</ele><time>2026-03-22T14:25:38.999Z</time></trkpt><trkpt lat="49.189404096163365" lon="2.4965777619233807"><ele>60.5</ele><time>2026-03-22T14:25:40.999Z</time></trkpt><trkpt lat="49.1893988316398" lon="2.496699563598864"><ele>60.666666666666664</ele><time>2026-03-22T14:25:42.999Z</time></trkpt><trkpt lat="49.18939459370993" lon="2.49681348531888"><ele>60.83333333333333</ele><time>2026-03-22T14:25:44.999Z</time></trkpt><trkpt lat="49.18939044457688" lon="2.4969441265497423"><ele>61.0</ele><time>2026-03-22T14:25:46.999Z</time></trkpt><trkpt lat="49.18938244470635" lon="2.497074872286719"><ele>61.666666666666664</ele><time>2026-03-22T14:25:48.999Z</time></trkpt><trkpt lat="49.18937465799399" lon="2.4972066371689516"><ele>62.33333333333333</ele><time>2026-03-22T14:25:50.999Z</time></trkpt><trkpt lat="49.18936751479688" lon="2.49733893125569"><ele>63.0</ele><time>2026-03-22T14:25:52.999Z</time></trkpt><trkpt lat="49.18935831803969" lon="2.497469010852194"><ele>63.66666666666667</ele><time>2026-03-22T14:25:54.999Z</time></trkpt><trkpt lat="49.189364810705456" lon="2.497603683346379"><ele>64.33333333333334</ele><time>2026-03-22T14:25:56.998Z</time></trkpt><trkpt lat="49.18939367499886" lon="2.497739301110594"><ele>65.0</ele><time>2026-03-22T14:25:58.998Z</time></trkpt><trkpt lat="49.18942098768363" lon="2.49787261631222"><ele>64.4</ele><time>2026-03-22T14:26:00.998Z</time></trkpt><trkpt lat="49.18945556253171" lon="2.498004055192218"><ele>63.8</ele><time>2026-03-22T14:26:02.998Z</time></trkpt><trkpt lat="49.18948506491592" lon="2.4981312516439167"><ele>63.2</ele><time>2026-03-22T14:26:04.998Z</time></trkpt><trkpt lat="49.18952109618752" lon="2.4982702007006843"><ele>62.6</ele><time>2026-03-22T14:26:06.998Z</time></trkpt><trkpt lat="49.189553934678855" lon="2.4984050548988033"><ele>62.0</ele><time>2026-03-22T14:26:08.998Z</time></trkpt><trkpt lat="49.18958532655053" lon="2.49853856117858"><ele>62.0</ele><time>2026-03-22T14:26:10.998Z</time></trkpt><trkpt lat="49.18960819138463" lon="2.4986826453530138"><ele>62.0</ele><time>2026-03-22T14:26:12.998Z</time></trkpt><trkpt lat="49.189637054169836" lon="2.49881761083875"><ele>62.0</ele><time>2026-03-22T14:26:14.998Z</time></trkpt><trkpt lat="49.18966893071447" lon="2.4989467836118955"><ele>62.0</ele><time>2026-03-22T14:26:16.998Z</time></trkpt><trkpt lat="49.189695451767435" lon="2.4990804531271533"><ele>62.0</ele><time>2026-03-22T14:26:18.998Z</time></trkpt><trkpt lat="49.189720134527036" lon="2.4992139048692716"><ele>61.8</ele><time>2026-03-22T14:26:20.998Z</time></trkpt><trkpt lat="49.18974696571105" lon="2.499346521987417"><ele>61.6</ele><time>2026-03-22T14:26:22.998Z</time></trkpt><trkpt lat="49.18977517296702" lon="2.4994765986220457"><ele>61.39999999999999</ele><time>2026-03-22T14:26:24.998Z</time></trkpt><trkpt lat="49.189804554110985" lon="2.499612131648749"><ele>61.199999999999996</ele><time>2026-03-22T14:26:26.998Z</time></trkpt><trkpt lat="49.1898307137302" lon="2.499748432020145"><ele>61.0</ele><time>2026-03-22T14:26:28.997Z</time></trkpt><trkpt lat="49.1898622994807" lon="2.4998835465413958"><ele>61.4</ele><time>2026-03-22T14:26:30.997Z</time></trkpt><trkpt lat="49.18988505098274" lon="2.5000209258238475"><ele>61.8</ele><time>2026-03-22T14:26:32.997Z</time></trkpt><trkpt lat="49.18990862608141" lon="2.5001604684609835"><ele>62.199999999999996</ele><time>2026-03-22T14:26:34.997Z</time></trkpt><trkpt lat="49.1899420147231" lon="2.50030451892575"><ele>62.599999999999994</ele><time>2026-03-22T14:26:36.997Z</time></trkpt><trkpt lat="49.18997506999165" lon="2.500447090639997"><ele>63.0</ele><time>2026-03-22T14:26:38.997Z</time></trkpt><trkpt lat="49.19000453730182" lon="2.5005915482163066"><ele>63.2</ele><time>2026-03-22T14:26:40.997Z</time></trkpt><trkpt lat="49.19002766416009" lon="2.5007372144126503"><ele>63.4</ele><time>2026-03-22T14:26:42.997Z</time></trkpt><trkpt lat="49.19006154750998" lon="2.500882346307723"><ele>63.60000000000001</ele><time>2026-03-22T14:26:44.997Z</time></trkpt><trkpt lat="49.190102240184245" lon="2.5010241760079372"><ele>63.800000000000004</ele><time>2026-03-22T14:26:46.997Z</time></trkpt><trkpt lat="49.19013703712885" lon="2.501166656375892"><ele>64.0</ele><time>2026-03-22T14:26:48.997Z</time></trkpt><trkpt lat="49.19017352031335" lon="2.5013154465608864"><ele>64.0</ele><time>2026-03-22T14:26:50.997Z</time></trkpt><trkpt lat="49.19020365492438" lon="2.5014674770340357"><ele>64.0</ele><time>2026-03-22T14:26:52.997Z</time></trkpt><trkpt lat="49.19023792305509" lon="2.5016276049166373"><ele>64.0</ele><time>2026-03-22T14:26:54.997Z</time></trkpt><trkpt lat="49.19026908730312" lon="2.5017840630537056"><ele>64.0</ele><time>2026-03-22T14:26:56.997Z</time></trkpt><trkpt lat="49.19030146550119" lon="2.501937899203978"><ele>64.0</ele><time>2026-03-22T14:26:59Z</time></trkpt><trkpt lat="49.19034048179553" lon="2.502089722583824"><ele>63.6</ele><time>2026-03-22T14:27:01Z</time></trkpt><trkpt lat="49.19037022832585" lon="2.5022404061847765"><ele>63.2</ele><time>2026-03-22T14:27:03Z</time></trkpt><trkpt lat="49.19040085503459" lon="2.5023852715019808"><ele>62.800000000000004</ele><time>2026-03-22T14:27:05Z</time></trkpt><trkpt lat="49.1904316448377" lon="2.50252644568285"><ele>62.400000000000006</ele><time>2026-03-22T14:27:07Z</time></trkpt><trkpt lat="49.190451213931574" lon="2.5026201689008434"><ele>62.0</ele><time>2026-03-22T14:27:08Z</time></trkpt><trkpt lat="49.190483274095925" lon="2.502779513165541"><ele>61.8</ele><time>2026-03-22T14:27:10Z</time></trkpt><trkpt lat="49.19051273644823" lon="2.5029489316741245"><ele>61.6</ele><time>2026-03-22T14:27:12Z</time></trkpt><trkpt lat="49.190549163860915" lon="2.5031119784824822"><ele>61.39999999999999</ele><time>2026-03-22T14:27:14Z</time></trkpt><trkpt lat="49.19058372872121" lon="2.5032644298091893"><ele>61.199999999999996</ele><time>2026-03-22T14:27:16Z</time></trkpt><trkpt lat="49.190625327954976" lon="2.5034051957547656"><ele>61.0</ele><time>2026-03-22T14:27:18Z</time></trkpt><trkpt lat="49.190685264892934" lon="2.503529829913678"><ele>60.8</ele><time>2026-03-22T14:27:20Z</time></trkpt><trkpt lat="49.19074729496588" lon="2.503668968573487"><ele>60.599999999999994</ele><time>2026-03-22T14:27:22Z</time></trkpt><trkpt lat="49.190802785636976" lon="2.5038135945769677"><ele>60.4</ele><time>2026-03-22T14:27:24Z</time></trkpt><trkpt lat="49.19086779542335" lon="2.5039611614484576"><ele>60.2</ele><time>2026-03-22T14:27:26Z</time></trkpt><trkpt lat="49.190928058849096" lon="2.5041056861392184"><ele>60.0</ele><time>2026-03-22T14:27:28Z</time></trkpt><trkpt lat="49.19099701307836" lon="2.5042429758000355"><ele>60.0</ele><time>2026-03-22T14:27:29.999Z</time></trkpt><trkpt lat="49.191054891310266" lon="2.504394140234471"><ele>60.0</ele><time>2026-03-22T14:27:31.999Z</time></trkpt><trkpt lat="49.19111746912507" lon="2.504531700479354"><ele>60.0</ele><time>2026-03-22T14:27:33.999Z</time></trkpt><trkpt lat="49.191181919773136" lon="2.5046747683012134"><ele>60.0</ele><time>2026-03-22T14:27:35.999Z</time></trkpt><trkpt lat="49.19124153578104" lon="2.5048242118487583"><ele>60.25</ele><time>2026-03-22T14:27:37.999Z</time></trkpt><trkpt lat="49.1913081796078" lon="2.5049787789632765"><ele>60.5</ele><time>2026-03-22T14:27:39.999Z</time></trkpt><trkpt lat="49.1913751067844" lon="2.505117691273669"><ele>60.75</ele><time>2026-03-22T14:27:41.999Z</time></trkpt><trkpt lat="49.1914347628179" lon="2.5052766963697706"><ele>61.0</ele><time>2026-03-22T14:27:43.999Z</time></trkpt><trkpt lat="49.19150228087181" lon="2.5054200046266413"><ele>60.4</ele><time>2026-03-22T14:27:45.999Z</time></trkpt><trkpt lat="49.191559389535264" lon="2.505565975024742"><ele>59.8</ele><time>2026-03-22T14:27:47.999Z</time></trkpt><trkpt lat="49.19161517805157" lon="2.505705931698136"><ele>59.199999999999996</ele><time>2026-03-22T14:27:49.999Z</time></trkpt><trkpt lat="49.191679958915614" lon="2.5058413939765676"><ele>58.599999999999994</ele><time>2026-03-22T14:27:51.999Z</time></trkpt><trkpt lat="49.191735818202226" lon="2.505973577489723"><ele>58.0</ele><time>2026-03-22T14:27:53.999Z</time></trkpt><trkpt lat="49.191783547468056" lon="2.506106768658584"><ele>58.0</ele><time>2026-03-22T14:27:55.999Z</time></trkpt><trkpt lat="49.19184013537975" lon="2.5062306361922446"><ele>58.0</ele><time>2026-03-22T14:27:57.999Z</time></trkpt><trkpt lat="49.19188967940821" lon="2.5063612391194274"><ele>58.0</ele><time>2026-03-22T14:27:59.999Z</time></trkpt><trkpt lat="49.191950260281345" lon="2.506489347136986"><ele>58.0</ele><time>2026-03-22T14:28:01.998Z</time></trkpt><trkpt lat="49.19200359589558" lon="2.5066158597333805"><ele>58.0</ele><time>2026-03-22T14:28:03.998Z</time></trkpt><trkpt lat="49.19206544259132" lon="2.5067216130155217"><ele>57.666666666666664</ele><time>2026-03-22T14:28:05.998Z</time></trkpt><trkpt lat="49.19212728571931" lon="2.506817247094801"><ele>57.33333333333333</ele><time>2026-03-22T14:28:07.998Z</time></trkpt><trkpt lat="49.19207202478661" lon="2.5069255922701985"><ele>57.0</ele><time>2026-03-22T14:28:09.998Z</time></trkpt><trkpt lat="49.192060635816915" lon="2.507042060474429"><ele>56.66666666666667</ele><time>2026-03-22T14:28:11.998Z</time></trkpt><trkpt lat="49.19204674910556" lon="2.507177754441405"><ele>56.333333333333336</ele><time>2026-03-22T14:28:13.998Z</time></trkpt><trkpt lat="49.19203418649428" lon="2.5073005058118985"><ele>56.0</ele><time>2026-03-22T14:28:15.998Z</time></trkpt><trkpt lat="49.1922815557571" lon="2.5075419692482415"><ele>55.333333333333336</ele><time>2026-03-22T14:28:19.998Z</time></trkpt><trkpt lat="49.19233221155087" lon="2.5076623196661707"><ele>54.66666666666667</ele><time>2026-03-22T14:28:21.998Z</time></trkpt><trkpt lat="49.19240190498987" lon="2.50775381120744"><ele>54.0</ele><time>2026-03-22T14:28:23.998Z</time></trkpt><trkpt lat="49.1924640000086" lon="2.5078333804492625"><ele>53.33333333333333</ele><time>2026-03-22T14:28:25.998Z</time></trkpt><trkpt lat="49.192521023021634" lon="2.5079064502779835"><ele>52.666666666666664</ele><time>2026-03-22T14:28:27.998Z</time></trkpt><trkpt lat="49.192573613771266" lon="2.5079730212995486"><ele>52.0</ele><time>2026-03-22T14:28:29.998Z</time></trkpt><trkpt lat="49.19262433586972" lon="2.5080361212480584"><ele>51.57142857142857</ele><time>2026-03-22T14:28:31.998Z</time></trkpt><trkpt lat="49.19267312953901" lon="2.508104486065362"><ele>51.142857142857146</ele><time>2026-03-22T14:28:33.997Z</time></trkpt><trkpt lat="49.19272079177164" lon="2.508171658751705"><ele>50.714285714285715</ele><time>2026-03-22T14:28:35.997Z</time></trkpt><trkpt lat="49.19280296227287" lon="2.508240495575836"><ele>50.285714285714285</ele><time>2026-03-22T14:28:38.997Z</time></trkpt><trkpt lat="49.19286708889499" lon="2.508321238395556"><ele>49.85714285714286</ele><time>2026-03-22T14:28:41.997Z</time></trkpt><trkpt lat="49.192916663746935" lon="2.508381547976454"><ele>49.42857142857143</ele><time>2026-03-22T14:28:43.997Z</time></trkpt><trkpt lat="49.19298547469591" lon="2.5083965483894075"><ele>49.0</ele><time>2026-03-22T14:28:45.997Z</time></trkpt><trkpt lat="49.193038673119226" lon="2.5085211377969525"><ele>48.99999999999999</ele><time>2026-03-22T14:28:48.997Z</time></trkpt><trkpt lat="49.19310366864517" lon="2.5085968039550326"><ele>49.0</ele><time>2026-03-22T14:28:51.997Z</time></trkpt><trkpt lat="49.19316226479628" lon="2.5086662590013318"><ele>49.0</ele><time>2026-03-22T14:28:54.997Z</time></trkpt><trkpt lat="49.19322381235853" lon="2.5087394592200734"><ele>49.0</ele><time>2026-03-22T14:28:57.997Z</time></trkpt><trkpt lat="49.19328925216077" lon="2.508818409589404"><ele>48.99999999999999</ele><time>2026-03-22T14:29:00.997Z</time></trkpt><trkpt lat="49.19335522682726" lon="2.508903214718974"><ele>49.0</ele><time>2026-03-22T14:29:03.997Z</time></trkpt><trkpt lat="49.19340525063834" lon="2.508969162434939"><ele>49.166666666666664</ele><time>2026-03-22T14:29:06Z</time></trkpt><trkpt lat="49.193451427880234" lon="2.5090370311025474"><ele>49.33333333333333</ele><time>2026-03-22T14:29:08Z</time></trkpt><trkpt lat="49.19351302084942" lon="2.5091494394644815"><ele>49.5</ele><time>2026-03-22T14:29:11Z</time></trkpt><trkpt lat="49.193550507377054" lon="2.5092344330763328"><ele>49.66666666666667</ele><time>2026-03-22T14:29:13Z</time></trkpt><trkpt lat="49.1935891051931" lon="2.509323351503044"><ele>49.833333333333336</ele><time>2026-03-22T14:29:15Z</time></trkpt><trkpt lat="49.193637079794556" lon="2.5094440969043896"><ele>50.0</ele><time>2026-03-22T14:29:18Z</time></trkpt><trkpt lat="49.19367685889667" lon="2.5095601359090254"><ele>50.142857142857146</ele><time>2026-03-22T14:29:21Z</time></trkpt><trkpt lat="49.19370965863884" lon="2.5096777464590136"><ele>50.285714285714285</ele><time>2026-03-22T14:29:24Z</time></trkpt><trkpt lat="49.193729776669834" lon="2.509770090470877"><ele>50.42857142857143</ele><time>2026-03-22T14:29:26Z</time></trkpt><trkpt lat="49.19374826279982" lon="2.5098643375271954"><ele>50.57142857142857</ele><time>2026-03-22T14:29:28Z</time></trkpt><trkpt lat="49.19376678610348" lon="2.509967382812726"><ele>50.714285714285715</ele><time>2026-03-22T14:29:30Z</time></trkpt><trkpt lat="49.19378076939457" lon="2.510071967659418"><ele>50.85714285714286</ele><time>2026-03-22T14:29:32Z</time></trkpt><trkpt lat="49.19378716348829" lon="2.510169402496208"><ele>51.0</ele><time>2026-03-22T14:29:33.999Z</time></trkpt><trkpt lat="49.19378946545386" lon="2.5102790745322014"><ele>51.0</ele><time>2026-03-22T14:29:35.999Z</time></trkpt><trkpt lat="49.193789465454024" lon="2.5103947569700718"><ele>51.0</ele><time>2026-03-22T14:29:37.999Z</time></trkpt><trkpt lat="49.19378802690318" lon="2.5105151991012153"><ele>51.0</ele><time>2026-03-22T14:29:39.999Z</time></trkpt><trkpt lat="49.193786158511436" lon="2.510639740896743"><ele>51.0</ele><time>2026-03-22T14:29:41.999Z</time></trkpt><trkpt lat="49.193785965455334" lon="2.5107721274168537"><ele>51.0</ele><time>2026-03-22T14:29:43.999Z</time></trkpt><trkpt lat="49.193785965454644" lon="2.5109075915792043"><ele>51.0</ele><time>2026-03-22T14:29:45.999Z</time></trkpt><trkpt lat="49.19378820072494" lon="2.5110440206444875"><ele>51.0</ele><time>2026-03-22T14:29:47.999Z</time></trkpt><trkpt lat="49.19379176523421" lon="2.51118125200421"><ele>51.0</ele><time>2026-03-22T14:29:49.999Z</time></trkpt><trkpt lat="49.19379710482844" lon="2.5113158815143586"><ele>51.0</ele><time>2026-03-22T14:29:51.999Z</time></trkpt><trkpt lat="49.193805561791834" lon="2.5114495173771068"><ele>51.0</ele><time>2026-03-22T14:29:53.999Z</time></trkpt><trkpt lat="49.19381529521912" lon="2.5115739715899914"><ele>51.0</ele><time>2026-03-22T14:29:55.999Z</time></trkpt><trkpt lat="49.19381990072987" lon="2.5117081511855046"><ele>51.0</ele><time>2026-03-22T14:29:57.999Z</time></trkpt><trkpt lat="49.19382150347541" lon="2.5118410255236343"><ele>51.0</ele><time>2026-03-22T14:29:59.999Z</time></trkpt><trkpt lat="49.19382242604397" lon="2.511974005385056"><ele>51.0</ele><time>2026-03-22T14:30:01.999Z</time></trkpt><trkpt lat="49.193819273810796" lon="2.5121146097789797"><ele>51.0</ele><time>2026-03-22T14:30:03.998Z</time></trkpt><trkpt lat="49.19381967606177" lon="2.51226139548823"><ele>51.0</ele><time>2026-03-22T14:30:05.998Z</time></trkpt><trkpt lat="49.19382300449048" lon="2.5123902475034208"><ele>51.0</ele><time>2026-03-22T14:30:07.998Z</time></trkpt><trkpt lat="49.193826112278046" lon="2.5125105578863125"><ele>51.0</ele><time>2026-03-22T14:30:09.998Z</time></trkpt><trkpt lat="49.19382909640445" lon="2.5126260812156493"><ele>51.0</ele><time>2026-03-22T14:30:11.998Z</time></trkpt><trkpt lat="49.193832155055475" lon="2.5127444894662934"><ele>51.0</ele><time>2026-03-22T14:30:13.998Z</time></trkpt><trkpt lat="49.1938346575965" lon="2.512841369345917"><ele>51.0</ele><time>2026-03-22T14:30:15.998Z</time></trkpt><trkpt lat="49.19392098267077" lon="2.512922736957115"><ele>51.0</ele><time>2026-03-22T14:30:19.998Z</time></trkpt><trkpt lat="49.19398478072336" lon="2.513001334165663"><ele>51.0</ele><time>2026-03-22T14:30:22.998Z</time></trkpt><trkpt lat="49.194048657030145" lon="2.513044183977626"><ele>51.0</ele><time>2026-03-22T14:30:24.998Z</time></trkpt><trkpt lat="49.194120671737856" lon="2.513098811466063"><ele>50.833333333333336</ele><time>2026-03-22T14:30:26.998Z</time></trkpt><trkpt lat="49.194180408778735" lon="2.513147837728204"><ele>50.66666666666667</ele><time>2026-03-22T14:30:28.998Z</time></trkpt><trkpt lat="49.19421076662022" lon="2.513284682607194"><ele>50.5</ele><time>2026-03-22T14:30:31.998Z</time></trkpt><trkpt lat="49.19420565113199" lon="2.5134012144136437"><ele>50.333333333333336</ele><time>2026-03-22T14:30:33.998Z</time></trkpt><trkpt lat="49.194207616292736" lon="2.5135179732548973"><ele>50.16666666666667</ele><time>2026-03-22T14:30:35.997Z</time></trkpt><trkpt lat="49.19418452180407" lon="2.513650739552726"><ele>50.0</ele><time>2026-03-22T14:30:38.997Z</time></trkpt><trkpt lat="49.194186063942915" lon="2.5137947008195463"><ele>49.8</ele><time>2026-03-22T14:30:41.997Z</time></trkpt><trkpt lat="49.194157457371865" lon="2.5138956259967213"><ele>49.6</ele><time>2026-03-22T14:30:43.997Z</time></trkpt><trkpt lat="49.194138863030275" lon="2.5140274747647906"><ele>49.400000000000006</ele><time>2026-03-22T14:30:45.997Z</time></trkpt><trkpt lat="49.194117405081215" lon="2.5141733705406106"><ele>49.2</ele><time>2026-03-22T14:30:47.997Z</time></trkpt><trkpt lat="49.19409389959947" lon="2.5143300247840186"><ele>49.0</ele><time>2026-03-22T14:30:49.997Z</time></trkpt><trkpt lat="49.194068437643686" lon="2.5144932249054954"><ele>49.0</ele><time>2026-03-22T14:30:51.997Z</time></trkpt><trkpt lat="49.194041532301135" lon="2.5146630966199903"><ele>49.0</ele><time>2026-03-22T14:30:53.997Z</time></trkpt><trkpt lat="49.19401671924228" lon="2.514832837047029"><ele>49.0</ele><time>2026-03-22T14:30:55.997Z</time></trkpt><trkpt lat="49.193968124800975" lon="2.514961576291055"><ele>49.0</ele><time>2026-03-22T14:30:57.997Z</time></trkpt><trkpt lat="49.19388539768871" lon="2.5150514191173516"><ele>49.0</ele><time>2026-03-22T14:30:59.997Z</time></trkpt><trkpt lat="49.1937837204779" lon="2.5150652106981832"><ele>49.166666666666664</ele><time>2026-03-22T14:31:01.997Z</time></trkpt><trkpt lat="49.193702877065085" lon="2.5151373861141617"><ele>49.33333333333333</ele><time>2026-03-22T14:31:03.997Z</time></trkpt><trkpt lat="49.19364041478634" lon="2.5152349059259467"><ele>49.5</ele><time>2026-03-22T14:31:05.997Z</time></trkpt><trkpt lat="49.193600881900466" lon="2.5153489799762783"><ele>49.66666666666667</ele><time>2026-03-22T14:31:07.996Z</time></trkpt><trkpt lat="49.19354233894143" lon="2.515449995274651"><ele>49.833333333333336</ele><time>2026-03-22T14:31:09.996Z</time></trkpt><trkpt lat="49.19350996722353" lon="2.515575677125739"><ele>50.0</ele><time>2026-03-22T14:31:12Z</time></trkpt><trkpt lat="49.19347816318218" lon="2.5156963422879413"><ele>49.6</ele><time>2026-03-22T14:31:14Z</time></trkpt><trkpt lat="49.19344333269619" lon="2.5158199775250685"><ele>49.2</ele><time>2026-03-22T14:31:16Z</time></trkpt><trkpt lat="49.193407050071954" lon="2.5159436724646778"><ele>48.8</ele><time>2026-03-22T14:31:18Z</time></trkpt><trkpt lat="49.19336850512132" lon="2.516072742410378"><ele>48.4</ele><time>2026-03-22T14:31:20Z</time></trkpt><trkpt lat="49.19332880480558" lon="2.516205673326436"><ele>48.0</ele><time>2026-03-22T14:31:22Z</time></trkpt><trkpt lat="49.19328456408278" lon="2.516336078537582"><ele>48.0</ele><time>2026-03-22T14:31:24Z</time></trkpt><trkpt lat="49.1932415068074" lon="2.5164686406587484"><ele>48.0</ele><time>2026-03-22T14:31:26Z</time></trkpt><trkpt lat="49.19319889828264" lon="2.5165999794527276"><ele>48.0</ele><time>2026-03-22T14:31:28Z</time></trkpt><trkpt lat="49.19315571744042" lon="2.516728430725986"><ele>48.0</ele><time>2026-03-22T14:31:30Z</time></trkpt><trkpt lat="49.193112078690746" lon="2.516857016708563"><ele>48.0</ele><time>2026-03-22T14:31:32Z</time></trkpt><trkpt lat="49.193069960240486" lon="2.5169884675925247"><ele>48.4</ele><time>2026-03-22T14:31:34Z</time></trkpt><trkpt lat="49.193032637084954" lon="2.5171195772807127"><ele>48.8</ele><time>2026-03-22T14:31:36Z</time></trkpt><trkpt lat="49.192996756895276" lon="2.517253819345198"><ele>49.2</ele><time>2026-03-22T14:31:37.999Z</time></trkpt><trkpt lat="49.192962822821855" lon="2.5173869287987682"><ele>49.6</ele><time>2026-03-22T14:31:39.999Z</time></trkpt><trkpt lat="49.192931343892326" lon="2.5175225027386485"><ele>50.0</ele><time>2026-03-22T14:31:41.999Z</time></trkpt><trkpt lat="49.19290117262629" lon="2.5176623079880276"><ele>50.0</ele><time>2026-03-22T14:31:43.999Z</time></trkpt><trkpt lat="49.19287375767867" lon="2.5178013454153056"><ele>50.0</ele><time>2026-03-22T14:31:45.999Z</time></trkpt><trkpt lat="49.19284773124425" lon="2.517940073209714"><ele>50.0</ele><time>2026-03-22T14:31:47.999Z</time></trkpt><trkpt lat="49.1928227329668" lon="2.5180795285633044"><ele>50.0</ele><time>2026-03-22T14:31:49.999Z</time></trkpt><trkpt lat="49.19279698742852" lon="2.518223152544467"><ele>50.0</ele><time>2026-03-22T14:31:51.999Z</time></trkpt><trkpt lat="49.19277079000442" lon="2.518369297347367"><ele>49.8</ele><time>2026-03-22T14:31:53.999Z</time></trkpt><trkpt lat="49.192745098816346" lon="2.5185126180859054"><ele>49.6</ele><time>2026-03-22T14:31:55.999Z</time></trkpt><trkpt lat="49.192719173600466" lon="2.51865724443425"><ele>49.400000000000006</ele><time>2026-03-22T14:31:57.999Z</time></trkpt><trkpt lat="49.192692537079175" lon="2.518805838913947"><ele>49.2</ele><time>2026-03-22T14:31:59.999Z</time></trkpt><trkpt lat="49.192665489302" lon="2.518956727436983"><ele>49.0</ele><time>2026-03-22T14:32:01.999Z</time></trkpt><trkpt lat="49.1926382620203" lon="2.5191086174855872"><ele>49.0</ele><time>2026-03-22T14:32:03.999Z</time></trkpt><trkpt lat="49.1926103084048" lon="2.5192645596109244"><ele>49.0</ele><time>2026-03-22T14:32:05.999Z</time></trkpt><trkpt lat="49.192582788084934" lon="2.519418076219501"><ele>49.0</ele><time>2026-03-22T14:32:07.999Z</time></trkpt><trkpt lat="49.19255060140282" lon="2.519570031684065"><ele>49.0</ele><time>2026-03-22T14:32:09.998Z</time></trkpt><trkpt lat="49.19251714464344" lon="2.5197268479421555"><ele>49.0</ele><time>2026-03-22T14:32:11.998Z</time></trkpt><trkpt lat="49.192485497668436" lon="2.5198860747980163"><ele>48.800000000000004</ele><time>2026-03-22T14:32:13.998Z</time></trkpt><trkpt lat="49.19246286843842" lon="2.5200468720511786"><ele>48.6</ele><time>2026-03-22T14:32:15.998Z</time></trkpt><trkpt lat="49.19244509441563" lon="2.5202055562698056"><ele>48.4</ele><time>2026-03-22T14:32:17.998Z</time></trkpt><trkpt lat="49.192429461212704" lon="2.5203567600354386"><ele>48.2</ele><time>2026-03-22T14:32:19.998Z</time></trkpt><trkpt lat="49.19241387485305" lon="2.52050751029827"><ele>48.0</ele><time>2026-03-22T14:32:21.998Z</time></trkpt><trkpt lat="49.19239854978751" lon="2.52065573353809"><ele>48.0</ele><time>2026-03-22T14:32:23.998Z</time></trkpt><trkpt lat="49.19238252211154" lon="2.5207993145151977"><ele>48.0</ele><time>2026-03-22T14:32:25.998Z</time></trkpt><trkpt lat="49.19236537871787" lon="2.520946155884903"><ele>48.0</ele><time>2026-03-22T14:32:27.998Z</time></trkpt><trkpt lat="49.19234660590956" lon="2.5210980326557566"><ele>48.0</ele><time>2026-03-22T14:32:29.998Z</time></trkpt><trkpt lat="49.19232689668218" lon="2.5212574856481145"><ele>48.0</ele><time>2026-03-22T14:32:31.998Z</time></trkpt><trkpt lat="49.19230931434876" lon="2.521421652145936"><ele>48.0</ele><time>2026-03-22T14:32:33.998Z</time></trkpt><trkpt lat="49.192292328511265" lon="2.521591910770619"><ele>48.0</ele><time>2026-03-22T14:32:35.998Z</time></trkpt><trkpt lat="49.192276626742014" lon="2.521763523604606"><ele>48.0</ele><time>2026-03-22T14:32:37.998Z</time></trkpt><trkpt lat="49.19226469145066" lon="2.5219437851143547"><ele>48.0</ele><time>2026-03-22T14:32:39.998Z</time></trkpt><trkpt lat="49.19226157129449" lon="2.52211700062817"><ele>48.2</ele><time>2026-03-22T14:32:41.997Z</time></trkpt><trkpt lat="49.19227181094399" lon="2.5222955938680567"><ele>48.4</ele><time>2026-03-22T14:32:43.997Z</time></trkpt><trkpt lat="49.19228750852436" lon="2.5224588148773823"><ele>48.6</ele><time>2026-03-22T14:32:45.997Z</time></trkpt><trkpt lat="49.1923062396151" lon="2.522617521405779"><ele>48.800000000000004</ele><time>2026-03-22T14:32:47.997Z</time></trkpt><trkpt lat="49.19232369020141" lon="2.5227655957881265"><ele>49.0</ele><time>2026-03-22T14:32:49.997Z</time></trkpt><trkpt lat="49.19234275898787" lon="2.5229043548887464"><ele>48.49999999999999</ele><time>2026-03-22T14:32:51.997Z</time></trkpt><trkpt lat="49.192359781608694" lon="2.523036062224425"><ele>48.0</ele><time>2026-03-22T14:32:53.997Z</time></trkpt><trkpt lat="49.192375580709" lon="2.5231607945535846"><ele>47.5</ele><time>2026-03-22T14:32:55.997Z</time></trkpt><trkpt lat="49.19238943248653" lon="2.5232789962937465"><ele>47.0</ele><time>2026-03-22T14:32:57.997Z</time></trkpt><trkpt lat="49.192402442265774" lon="2.523390013122345"><ele>46.5</ele><time>2026-03-22T14:32:59.997Z</time></trkpt><trkpt lat="49.19241583342297" lon="2.523504284282666"><ele>46.0</ele><time>2026-03-22T14:33:01.997Z</time></trkpt><trkpt lat="49.19243005232369" lon="2.523625618913885"><ele>46.0</ele><time>2026-03-22T14:33:03.997Z</time></trkpt><trkpt lat="49.19244448585561" lon="2.5237487850681135"><ele>46.0</ele><time>2026-03-22T14:33:05.997Z</time></trkpt><trkpt lat="49.19245928667561" lon="2.5238750853962406"><ele>46.0</ele><time>2026-03-22T14:33:07.997Z</time></trkpt><trkpt lat="49.19247506634668" lon="2.524004880517371"><ele>46.0</ele><time>2026-03-22T14:33:09.997Z</time></trkpt><trkpt lat="49.192491597570076" lon="2.5241402635985075"><ele>46.0</ele><time>2026-03-22T14:33:11.997Z</time></trkpt><trkpt lat="49.19250860102452" lon="2.5242795140027634"><ele>46.0</ele><time>2026-03-22T14:33:13.996Z</time></trkpt><trkpt lat="49.192526487637394" lon="2.5244259970689633"><ele>46.199999999999996</ele><time>2026-03-22T14:33:15.996Z</time></trkpt><trkpt lat="49.192544643308096" lon="2.5245746836889165"><ele>46.4</ele><time>2026-03-22T14:33:18Z</time></trkpt><trkpt lat="49.192563697423736" lon="2.5247307279852973"><ele>46.6</ele><time>2026-03-22T14:33:20Z</time></trkpt><trkpt lat="49.192581354997586" lon="2.524875560392672"><ele>46.8</ele><time>2026-03-22T14:33:22Z</time></trkpt><trkpt lat="49.192599443682234" lon="2.5250247666747123"><ele>47.0</ele><time>2026-03-22T14:33:24Z</time></trkpt><trkpt lat="49.19261711838555" lon="2.5251705582349464"><ele>47.0</ele><time>2026-03-22T14:33:26Z</time></trkpt><trkpt lat="49.19263390928328" lon="2.5253100659943475"><ele>47.0</ele><time>2026-03-22T14:33:28Z</time></trkpt><trkpt lat="49.192650648143356" lon="2.5254539925211303"><ele>47.0</ele><time>2026-03-22T14:33:30Z</time></trkpt><trkpt lat="49.1926668675986" lon="2.525593452972008"><ele>47.0</ele><time>2026-03-22T14:33:32Z</time></trkpt><trkpt lat="49.19268296329835" lon="2.5257318495497034"><ele>47.0</ele><time>2026-03-22T14:33:34Z</time></trkpt><trkpt lat="49.19269836386228" lon="2.5258642689837436"><ele>47.33333333333333</ele><time>2026-03-22T14:33:36Z</time></trkpt><trkpt lat="49.192713567672335" lon="2.5259911520908154"><ele>47.666666666666664</ele><time>2026-03-22T14:33:37.999Z</time></trkpt><trkpt lat="49.19272942626853" lon="2.5261213103943505"><ele>48.0</ele><time>2026-03-22T14:33:39.999Z</time></trkpt><trkpt lat="49.19279345941449" lon="2.526229410457119"><ele>48.33333333333333</ele><time>2026-03-22T14:33:41.999Z</time></trkpt><trkpt lat="49.19280387255019" lon="2.5263537859648038"><ele>48.666666666666664</ele><time>2026-03-22T14:33:43.999Z</time></trkpt><trkpt lat="49.19281719904581" lon="2.5264748219278257"><ele>49.0</ele><time>2026-03-22T14:33:45.999Z</time></trkpt><trkpt lat="49.192830132907815" lon="2.5265907424977945"><ele>49.33333333333333</ele><time>2026-03-22T14:33:47.999Z</time></trkpt><trkpt lat="49.19284262641911" lon="2.5267105899049116"><ele>49.666666666666664</ele><time>2026-03-22T14:33:49.999Z</time></trkpt><trkpt lat="49.19285532558379" lon="2.5268300018267085"><ele>50.0</ele><time>2026-03-22T14:33:51.999Z</time></trkpt><trkpt lat="49.1928684978601" lon="2.5269439805492047"><ele>50.33333333333333</ele><time>2026-03-22T14:33:53.999Z</time></trkpt><trkpt lat="49.19288601182345" lon="2.5270548866330484"><ele>50.666666666666664</ele><time>2026-03-22T14:33:55.999Z</time></trkpt><trkpt lat="49.19290163973989" lon="2.527166068807513"><ele>51.0</ele><time>2026-03-22T14:33:57.999Z</time></trkpt><trkpt lat="49.19291025836219" lon="2.5272824497685646"><ele>51.166666666666664</ele><time>2026-03-22T14:33:59.999Z</time></trkpt><trkpt lat="49.192927908707105" lon="2.5274022327129724"><ele>51.33333333333333</ele><time>2026-03-22T14:34:01.999Z</time></trkpt><trkpt lat="49.19294052420417" lon="2.527525580736136"><ele>51.5</ele><time>2026-03-22T14:34:03.999Z</time></trkpt><trkpt lat="49.19295470605866" lon="2.5276468367684584"><ele>51.666666666666664</ele><time>2026-03-22T14:34:05.998Z</time></trkpt><trkpt lat="49.19297018596501" lon="2.5277717574480048"><ele>51.83333333333333</ele><time>2026-03-22T14:34:07.998Z</time></trkpt><trkpt lat="49.192982587254065" lon="2.527898060507078"><ele>52.0</ele><time>2026-03-22T14:34:09.998Z</time></trkpt><trkpt lat="49.192998566900606" lon="2.5280260754810833"><ele>51.99999999999999</ele><time>2026-03-22T14:34:11.998Z</time></trkpt><trkpt lat="49.19301241057414" lon="2.5281528047576343"><ele>52.0</ele><time>2026-03-22T14:34:13.998Z</time></trkpt><trkpt lat="49.19302657362894" lon="2.5282807206017965"><ele>52.0</ele><time>2026-03-22T14:34:15.998Z</time></trkpt><trkpt lat="49.19304202790295" lon="2.5284050823449284"><ele>52.0</ele><time>2026-03-22T14:34:17.998Z</time></trkpt><trkpt lat="49.193059271550545" lon="2.528533929454252"><ele>51.99999999999999</ele><time>2026-03-22T14:34:19.998Z</time></trkpt><trkpt lat="49.19307494975957" lon="2.5286583525933084"><ele>52.0</ele><time>2026-03-22T14:34:21.998Z</time></trkpt><trkpt lat="49.19309537027256" lon="2.5287819937515237"><ele>51.99999999999999</ele><time>2026-03-22T14:34:23.998Z</time></trkpt><trkpt lat="49.19311020145557" lon="2.528906958062497"><ele>52.0</ele><time>2026-03-22T14:34:25.998Z</time></trkpt><trkpt lat="49.193128771168695" lon="2.529033202648008"><ele>52.0</ele><time>2026-03-22T14:34:27.998Z</time></trkpt><trkpt lat="49.19314713509071" lon="2.5291619295144954"><ele>52.0</ele><time>2026-03-22T14:34:29.998Z</time></trkpt><trkpt lat="49.19316421712117" lon="2.5292885506334364"><ele>51.99999999999999</ele><time>2026-03-22T14:34:31.998Z</time></trkpt><trkpt lat="49.193185141142735" lon="2.5294141207922958"><ele>52.0</ele><time>2026-03-22T14:34:33.998Z</time></trkpt><trkpt lat="49.193209431148965" lon="2.5295374124340655"><ele>51.99999999999999</ele><time>2026-03-22T14:34:35.997Z</time></trkpt><trkpt lat="49.19323294437487" lon="2.5296566986442213"><ele>52.0</ele><time>2026-03-22T14:34:37.997Z</time></trkpt><trkpt lat="49.19325486393016" lon="2.5297728447227454"><ele>52.0</ele><time>2026-03-22T14:34:39.997Z</time></trkpt><trkpt lat="49.193278912988056" lon="2.52988550853326"><ele>52.0</ele><time>2026-03-22T14:34:41.997Z</time></trkpt><trkpt lat="49.19330308426389" lon="2.529992530439154"><ele>51.99999999999999</ele><time>2026-03-22T14:34:43.997Z</time></trkpt><trkpt lat="49.19332409558302" lon="2.5301025124061782"><ele>52.0</ele><time>2026-03-22T14:34:45.997Z</time></trkpt><trkpt lat="49.19334714158596" lon="2.530216536246156"><ele>51.99999999999999</ele><time>2026-03-22T14:34:47.997Z</time></trkpt><trkpt lat="49.19337228486997" lon="2.530331585720165"><ele>52.0</ele><time>2026-03-22T14:34:49.997Z</time></trkpt><trkpt lat="49.193398990900675" lon="2.5304490535779878"><ele>52.0</ele><time>2026-03-22T14:34:51.997Z</time></trkpt><trkpt lat="49.19342674565723" lon="2.5305655569125265"><ele>52.0</ele><time>2026-03-22T14:34:53.997Z</time></trkpt><trkpt lat="49.19345016691065" lon="2.530686464646943"><ele>51.99999999999999</ele><time>2026-03-22T14:34:55.997Z</time></trkpt><trkpt lat="49.193481129241334" lon="2.5307995618720964"><ele>52.0</ele><time>2026-03-22T14:34:57.997Z</time></trkpt><trkpt lat="49.193506280626615" lon="2.5309147926805267"><ele>51.99999999999999</ele><time>2026-03-22T14:34:59.997Z</time></trkpt><trkpt lat="49.193528460996156" lon="2.5310349569559096"><ele>52.0</ele><time>2026-03-22T14:35:01.997Z</time></trkpt><trkpt lat="49.19355909183192" lon="2.5311539971477113"><ele>52.0</ele><time>2026-03-22T14:35:03.997Z</time></trkpt><trkpt lat="49.193582562821035" lon="2.531277285473453"><ele>52.0</ele><time>2026-03-22T14:35:05.997Z</time></trkpt><trkpt lat="49.19361513747978" lon="2.5313982084663205"><ele>51.99999999999999</ele><time>2026-03-22T14:35:07.996Z</time></trkpt><trkpt lat="49.193645022345684" lon="2.5315217842599256"><ele>52.0</ele><time>2026-03-22T14:35:09.996Z</time></trkpt><trkpt lat="49.19367905176731" lon="2.5316462955066443"><ele>52.400000000000006</ele><time>2026-03-22T14:35:11.996Z</time></trkpt><trkpt lat="49.19371721230528" lon="2.5317700904597653"><ele>52.800000000000004</ele><time>2026-03-22T14:35:13.996Z</time></trkpt><trkpt lat="49.1937578125993" lon="2.5318968414511134"><ele>53.2</ele><time>2026-03-22T14:35:15.996Z</time></trkpt><trkpt lat="49.19380014158877" lon="2.532021061285234"><ele>53.6</ele><time>2026-03-22T14:35:17.996Z</time></trkpt><trkpt lat="49.19384851134295" lon="2.5321431201362916"><ele>54.0</ele><time>2026-03-22T14:35:19.996Z</time></trkpt><trkpt lat="49.193890914578816" lon="2.5322722994967104"><ele>54.0</ele><time>2026-03-22T14:35:21.996Z</time></trkpt><trkpt lat="49.193936604955724" lon="2.532393808966531"><ele>54.00000000000001</ele><time>2026-03-22T14:35:23.999Z</time></trkpt><trkpt lat="49.19398426441736" lon="2.532525393630986"><ele>54.00000000000001</ele><time>2026-03-22T14:35:25.999Z</time></trkpt><trkpt lat="49.19403162676098" lon="2.5326611043402583"><ele>54.0</ele><time>2026-03-22T14:35:27.999Z</time></trkpt><trkpt lat="49.19408185912577" lon="2.5327956655480905"><ele>54.0</ele><time>2026-03-22T14:35:30Z</time></trkpt><trkpt lat="49.19412829774123" lon="2.5329305734651215"><ele>53.800000000000004</ele><time>2026-03-22T14:35:32Z</time></trkpt><trkpt lat="49.19418183366638" lon="2.533062374444007"><ele>53.60000000000001</ele><time>2026-03-22T14:35:34Z</time></trkpt><trkpt lat="49.19422679353772" lon="2.533220661567885"><ele>53.4</ele><time>2026-03-22T14:35:36Z</time></trkpt><trkpt lat="49.19426115926924" lon="2.5333890027272457"><ele>53.2</ele><time>2026-03-22T14:35:38Z</time></trkpt><trkpt lat="49.19427824510706" lon="2.5335571056621435"><ele>53.0</ele><time>2026-03-22T14:35:40Z</time></trkpt><trkpt lat="49.19428513049409" lon="2.5337284074684505"><ele>53.0</ele><time>2026-03-22T14:35:41.999Z</time></trkpt><trkpt lat="49.19427440261591" lon="2.533895168951792"><ele>53.0</ele><time>2026-03-22T14:35:43.999Z</time></trkpt><trkpt lat="49.19426946628023" lon="2.5340500784240327"><ele>53.0</ele><time>2026-03-22T14:35:45.999Z</time></trkpt><trkpt lat="49.194251957149206" lon="2.5342035375840926"><ele>53.0</ele><time>2026-03-22T14:35:47.999Z</time></trkpt><trkpt lat="49.194241915494175" lon="2.5343584444829754"><ele>53.0</ele><time>2026-03-22T14:35:49.999Z</time></trkpt><trkpt lat="49.19423888251814" lon="2.5345216310615815"><ele>53.4</ele><time>2026-03-22T14:35:51.999Z</time></trkpt><trkpt lat="49.1942365447965" lon="2.534681234161262"><ele>53.8</ele><time>2026-03-22T14:35:53.999Z</time></trkpt><trkpt lat="49.19422488560571" lon="2.5348475980428007"><ele>54.2</ele><time>2026-03-22T14:35:55.999Z</time></trkpt><trkpt lat="49.19421079332038" lon="2.5350057478014083"><ele>54.6</ele><time>2026-03-22T14:35:57.999Z</time></trkpt><trkpt lat="49.19420014321869" lon="2.535167744190919"><ele>55.0</ele><time>2026-03-22T14:35:59.999Z</time></trkpt><trkpt lat="49.194194176525684" lon="2.5353230143015786"><ele>55.0</ele><time>2026-03-22T14:36:01.999Z</time></trkpt><trkpt lat="49.194187534165394" lon="2.535475635955923"><ele>55.0</ele><time>2026-03-22T14:36:03.999Z</time></trkpt><trkpt lat="49.194185363739436" lon="2.5356232064695226"><ele>55.0</ele><time>2026-03-22T14:36:05.999Z</time></trkpt><trkpt lat="49.19418959312724" lon="2.53576497299459"><ele>55.0</ele><time>2026-03-22T14:36:07.999Z</time></trkpt><trkpt lat="49.19419907883742" lon="2.535906577634835"><ele>55.0</ele><time>2026-03-22T14:36:09.999Z</time></trkpt><trkpt lat="49.19420555025574" lon="2.536041807882024"><ele>55.0</ele><time>2026-03-22T14:36:11.999Z</time></trkpt><trkpt lat="49.194207682547905" lon="2.5361777173163684"><ele>55.0</ele><time>2026-03-22T14:36:13.999Z</time></trkpt><trkpt lat="49.19420579986521" lon="2.5363252756796357"><ele>55.0</ele><time>2026-03-22T14:36:15.999Z</time></trkpt><trkpt lat="49.19417623687842" lon="2.536463710927169"><ele>55.0</ele><time>2026-03-22T14:36:17.998Z</time></trkpt><trkpt lat="49.194130593162086" lon="2.5365955552918344"><ele>55.0</ele><time>2026-03-22T14:36:19.998Z</time></trkpt><trkpt lat="49.194072667780446" lon="2.5367139579240403"><ele>55.2</ele><time>2026-03-22T14:36:21.998Z</time></trkpt><trkpt lat="49.193995522061236" lon="2.5368281960992007"><ele>55.4</ele><time>2026-03-22T14:36:23.998Z</time></trkpt><trkpt lat="49.19392466675477" lon="2.5368292665016368"><ele>55.599999999999994</ele><time>2026-03-22T14:36:24.998Z</time></trkpt><trkpt lat="49.19384425252373" lon="2.5369333803260417"><ele>55.8</ele><time>2026-03-22T14:36:26.998Z</time></trkpt><trkpt lat="49.193774346101684" lon="2.5370395168304687"><ele>56.0</ele><time>2026-03-22T14:36:28.998Z</time></trkpt><trkpt lat="49.19371933708779" lon="2.537178903042619"><ele>56.0</ele><time>2026-03-22T14:36:30.998Z</time></trkpt><trkpt lat="49.19373336332771" lon="2.537277126797821"><ele>55.99999999999999</ele><time>2026-03-22T14:36:31.998Z</time></trkpt><trkpt lat="49.193733872231334" lon="2.5374474351120644"><ele>55.99999999999999</ele><time>2026-03-22T14:36:33.998Z</time></trkpt><trkpt lat="49.19375899096918" lon="2.5375962247005117"><ele>56.0</ele><time>2026-03-22T14:36:35.998Z</time></trkpt><trkpt lat="49.19376406548366" lon="2.537732224200104"><ele>56.0</ele><time>2026-03-22T14:36:37.998Z</time></trkpt><trkpt lat="49.19375070811104" lon="2.537873958661958"><ele>55.8</ele><time>2026-03-22T14:36:39.998Z</time></trkpt><trkpt lat="49.193733336155255" lon="2.538032390869744"><ele>55.599999999999994</ele><time>2026-03-22T14:36:41.998Z</time></trkpt><trkpt lat="49.193718625487946" lon="2.538208415509804"><ele>55.4</ele><time>2026-03-22T14:36:43.998Z</time></trkpt><trkpt lat="49.19372772002582" lon="2.5383053007466527"><ele>55.2</ele><time>2026-03-22T14:36:44.998Z</time></trkpt><trkpt lat="49.193746878348534" lon="2.5384838851662472"><ele>55.0</ele><time>2026-03-22T14:36:46.998Z</time></trkpt><trkpt lat="49.19376699100871" lon="2.5386561340811484"><ele>54.71428571428571</ele><time>2026-03-22T14:36:48.997Z</time></trkpt><trkpt lat="49.19378085060526" lon="2.5387617604485926"><ele>54.42857142857143</ele><time>2026-03-22T14:36:49.997Z</time></trkpt><trkpt lat="49.19379401398632" lon="2.53885926680923"><ele>54.14285714285714</ele><time>2026-03-22T14:36:50.997Z</time></trkpt><trkpt lat="49.193810573790124" lon="2.538965863888452"><ele>53.857142857142854</ele><time>2026-03-22T14:36:51.997Z</time></trkpt><trkpt lat="49.19383146606849" lon="2.539072617679357"><ele>53.57142857142857</ele><time>2026-03-22T14:36:52.997Z</time></trkpt><trkpt lat="49.19386077740263" lon="2.5391800648667346"><ele>53.285714285714285</ele><time>2026-03-22T14:36:53.997Z</time></trkpt><trkpt lat="49.19388936299618" lon="2.5392779350167394"><ele>53.0</ele><time>2026-03-22T14:36:54.997Z</time></trkpt><trkpt lat="49.1939180135633" lon="2.5393840794573412"><ele>53.00000000000001</ele><time>2026-03-22T14:36:55.997Z</time></trkpt><trkpt lat="49.19394456434984" lon="2.539493791025835"><ele>53.0</ele><time>2026-03-22T14:36:56.997Z</time></trkpt><trkpt lat="49.19397014460294" lon="2.539610097505478"><ele>53.0</ele><time>2026-03-22T14:36:57.997Z</time></trkpt><trkpt lat="49.19399460358043" lon="2.53972457642219"><ele>53.0</ele><time>2026-03-22T14:36:58.997Z</time></trkpt><trkpt lat="49.19401828819825" lon="2.5398409015805488"><ele>53.00000000000001</ele><time>2026-03-22T14:36:59.997Z</time></trkpt><trkpt lat="49.194041373474256" lon="2.539955191711545"><ele>53.0</ele><time>2026-03-22T14:37:00.997Z</time></trkpt><trkpt lat="49.194065001679" lon="2.540074837807903"><ele>52.50000000000001</ele><time>2026-03-22T14:37:01.997Z</time></trkpt><trkpt lat="49.19408805421037" lon="2.5401917248171992"><ele>52.0</ele><time>2026-03-22T14:37:02.997Z</time></trkpt><trkpt lat="49.19411092201419" lon="2.5403058317757776"><ele>51.5</ele><time>2026-03-22T14:37:03.997Z</time></trkpt><trkpt lat="49.19413365847636" lon="2.540417304655276"><ele>51.0</ele><time>2026-03-22T14:37:04.997Z</time></trkpt><trkpt lat="49.194156822454815" lon="2.54053087365524"><ele>50.50000000000001</ele><time>2026-03-22T14:37:05.997Z</time></trkpt><trkpt lat="49.19418061207146" lon="2.540647510018736"><ele>50.0</ele><time>2026-03-22T14:37:06.997Z</time></trkpt><trkpt lat="49.19420429778808" lon="2.540763636986222"><ele>50.00000000000001</ele><time>2026-03-22T14:37:07.997Z</time></trkpt><trkpt lat="49.19422851416626" lon="2.5408823662774553"><ele>50.0</ele><time>2026-03-22T14:37:08.997Z</time></trkpt><trkpt lat="49.194252129860274" lon="2.540998149233465"><ele>50.0</ele><time>2026-03-22T14:37:09.997Z</time></trkpt><trkpt lat="49.19427462616538" lon="2.541108444856019"><ele>50.0</ele><time>2026-03-22T14:37:10.997Z</time></trkpt><trkpt lat="49.19429630155995" lon="2.541214847896566"><ele>50.0</ele><time>2026-03-22T14:37:11.997Z</time></trkpt><trkpt lat="49.194316861028284" lon="2.5413155680809933"><ele>50.00000000000001</ele><time>2026-03-22T14:37:12.997Z</time></trkpt><trkpt lat="49.19433768346702" lon="2.5414127466172527"><ele>50.0</ele><time>2026-03-22T14:37:13.997Z</time></trkpt><trkpt lat="49.19438305031019" lon="2.5415869602699304"><ele>50.0</ele><time>2026-03-22T14:37:15.997Z</time></trkpt><trkpt lat="49.1944170831179" lon="2.5416709816272456"><ele>50.0</ele><time>2026-03-22T14:37:16.997Z</time></trkpt><trkpt lat="49.194494691788314" lon="2.5418002204506522"><ele>50.0</ele><time>2026-03-22T14:37:18.997Z</time></trkpt><trkpt lat="49.19457180764024" lon="2.5419012952873468"><ele>50.0</ele><time>2026-03-22T14:37:20.996Z</time></trkpt><trkpt lat="49.19464869224754" lon="2.5419921128961396"><ele>50.0</ele><time>2026-03-22T14:37:22.996Z</time></trkpt><trkpt lat="49.19472571763146" lon="2.542074658523636"><ele>50.833333333333336</ele><time>2026-03-22T14:37:24.996Z</time></trkpt><trkpt lat="49.194797566969626" lon="2.5421383974712812"><ele>51.66666666666667</ele><time>2026-03-22T14:37:26.996Z</time></trkpt><trkpt lat="49.19487057196704" lon="2.5422069493198998"><ele>52.5</ele><time>2026-03-22T14:37:29Z</time></trkpt><trkpt lat="49.19492881467665" lon="2.542303625050363"><ele>53.33333333333333</ele><time>2026-03-22T14:37:31Z</time></trkpt><trkpt lat="49.1949992921144" lon="2.5423866177890293"><ele>54.166666666666664</ele><time>2026-03-22T14:37:33Z</time></trkpt><trkpt lat="49.19506351999694" lon="2.5424622513044133"><ele>55.0</ele><time>2026-03-22T14:37:35Z</time></trkpt><trkpt lat="49.19512454319387" lon="2.5425425913506743"><ele>54.99999999999999</ele><time>2026-03-22T14:37:37Z</time></trkpt><trkpt lat="49.19517550865688" lon="2.542641441665143"><ele>55.0</ele><time>2026-03-22T14:37:39Z</time></trkpt><trkpt lat="49.19520056948756" lon="2.542759653069512"><ele>55.0</ele><time>2026-03-22T14:37:41Z</time></trkpt><trkpt lat="49.195206446027775" lon="2.542877654344354"><ele>55.0</ele><time>2026-03-22T14:37:43Z</time></trkpt><trkpt lat="49.19520996280358" lon="2.542994243812431"><ele>54.99999999999999</ele><time>2026-03-22T14:37:45Z</time></trkpt><trkpt lat="49.19521295204834" lon="2.5431092088567455"><ele>55.0</ele><time>2026-03-22T14:37:47Z</time></trkpt><trkpt lat="49.19521589777704" lon="2.5432225001705175"><ele>55.166666666666664</ele><time>2026-03-22T14:37:48.999Z</time></trkpt><trkpt lat="49.19521903112736" lon="2.543343007429621"><ele>55.33333333333333</ele><time>2026-03-22T14:37:50.999Z</time></trkpt><trkpt lat="49.19522222412939" lon="2.5434658089110793"><ele>55.5</ele><time>2026-03-22T14:37:52.999Z</time></trkpt><trkpt lat="49.19522537876504" lon="2.5435871348075967"><ele>55.66666666666667</ele><time>2026-03-22T14:37:54.999Z</time></trkpt><trkpt lat="49.19522856774914" lon="2.543709781676006"><ele>55.833333333333336</ele><time>2026-03-22T14:37:56.999Z</time></trkpt><trkpt lat="49.19523172925158" lon="2.5438313716521668"><ele>56.0</ele><time>2026-03-22T14:37:58.999Z</time></trkpt><trkpt lat="49.195235066562525" lon="2.543959723186231"><ele>56.00000000000001</ele><time>2026-03-22T14:38:00.999Z</time></trkpt><trkpt lat="49.19523946068384" lon="2.5440897706344514"><ele>56.0</ele><time>2026-03-22T14:38:02.999Z</time></trkpt><trkpt lat="49.19524406464251" lon="2.544218071847436"><ele>56.0</ele><time>2026-03-22T14:38:04.999Z</time></trkpt><trkpt lat="49.195248595132135" lon="2.5443443256064953"><ele>56.0</ele><time>2026-03-22T14:38:06.999Z</time></trkpt><trkpt lat="49.195253436162474" lon="2.5444792334569057"><ele>56.00000000000001</ele><time>2026-03-22T14:38:08.999Z</time></trkpt><trkpt lat="49.19525827911665" lon="2.5446155443561995"><ele>56.0</ele><time>2026-03-22T14:38:10.999Z</time></trkpt><trkpt lat="49.1952627890783" lon="2.5447515304581714"><ele>55.833333333333336</ele><time>2026-03-22T14:38:12.999Z</time></trkpt><trkpt lat="49.195267158205475" lon="2.5448832700075474"><ele>55.66666666666667</ele><time>2026-03-22T14:38:14.999Z</time></trkpt><trkpt lat="49.19527136794871" lon="2.545010207876236"><ele>55.5</ele><time>2026-03-22T14:38:16.999Z</time></trkpt><trkpt lat="49.19527452475058" lon="2.5451385439349594"><ele>55.33333333333333</ele><time>2026-03-22T14:38:18.999Z</time></trkpt><trkpt lat="49.19527801375171" lon="2.545261988232115"><ele>55.166666666666664</ele><time>2026-03-22T14:38:20.998Z</time></trkpt><trkpt lat="49.19528193320439" lon="2.5454006670251608"><ele>55.0</ele><time>2026-03-22T14:38:22.998Z</time></trkpt><trkpt lat="49.195286247175616" lon="2.5455316770283942"><ele>54.99999999999999</ele><time>2026-03-22T14:38:24.998Z</time></trkpt><trkpt lat="49.19532746161324" lon="2.5456642936750105"><ele>55.0</ele><time>2026-03-22T14:38:26.998Z</time></trkpt><trkpt lat="49.195326628501476" lon="2.5457976510263336"><ele>55.0</ele><time>2026-03-22T14:38:28.998Z</time></trkpt><trkpt lat="49.19533318677302" lon="2.545931125168946"><ele>55.0</ele><time>2026-03-22T14:38:30.998Z</time></trkpt><trkpt lat="49.1953342529983" lon="2.5460640310193674"><ele>54.99999999999999</ele><time>2026-03-22T14:38:32.998Z</time></trkpt><trkpt lat="49.19533695364958" lon="2.5461950005802656"><ele>55.0</ele><time>2026-03-22T14:38:34.998Z</time></trkpt><trkpt lat="49.19530909549363" lon="2.5463296568490392"><ele>55.33333333333333</ele><time>2026-03-22T14:38:36.998Z</time></trkpt><trkpt lat="49.195312777944245" lon="2.5464635495124956"><ele>55.666666666666664</ele><time>2026-03-22T14:38:38.998Z</time></trkpt><trkpt lat="49.195316541375576" lon="2.5465959844682735"><ele>56.0</ele><time>2026-03-22T14:38:40.998Z</time></trkpt><trkpt lat="49.19532010507998" lon="2.54672127401596"><ele>56.33333333333333</ele><time>2026-03-22T14:38:42.998Z</time></trkpt><trkpt lat="49.19532362277814" lon="2.5468449462718055"><ele>56.666666666666664</ele><time>2026-03-22T14:38:44.998Z</time></trkpt><trkpt lat="49.19532756469722" lon="2.5469835340095384"><ele>57.0</ele><time>2026-03-22T14:38:46.998Z</time></trkpt><trkpt lat="49.19533230751972" lon="2.547114120833196"><ele>57.0</ele><time>2026-03-22T14:38:48.998Z</time></trkpt><trkpt lat="49.195336986657736" lon="2.5472474279517114"><ele>57.0</ele><time>2026-03-22T14:38:50.998Z</time></trkpt><trkpt lat="49.195341662844775" lon="2.547380650908111"><ele>57.0</ele><time>2026-03-22T14:38:52.997Z</time></trkpt><trkpt lat="49.19534607541152" lon="2.5475063634145583"><ele>57.0</ele><time>2026-03-22T14:38:54.997Z</time></trkpt><trkpt lat="49.19535103406456" lon="2.547647633804977"><ele>57.0</ele><time>2026-03-22T14:38:56.997Z</time></trkpt><trkpt lat="49.19535624561048" lon="2.5477942265029077"><ele>57.0</ele><time>2026-03-22T14:38:58.997Z</time></trkpt><trkpt lat="49.195361916093745" lon="2.5479253496396725"><ele>56.833333333333336</ele><time>2026-03-22T14:39:00.997Z</time></trkpt><trkpt lat="49.19536793930921" lon="2.5480597657189383"><ele>56.66666666666667</ele><time>2026-03-22T14:39:02.997Z</time></trkpt><trkpt lat="49.195375969770694" lon="2.5482199666978285"><ele>56.5</ele><time>2026-03-22T14:39:04.997Z</time></trkpt><trkpt lat="49.19538266408922" lon="2.548353512640283"><ele>56.333333333333336</ele><time>2026-03-22T14:39:06.997Z</time></trkpt><trkpt lat="49.19538954555256" lon="2.5484907920522044"><ele>56.16666666666667</ele><time>2026-03-22T14:39:08.997Z</time></trkpt><trkpt lat="49.19539427514756" lon="2.5486066831457834"><ele>56.0</ele><time>2026-03-22T14:39:10.997Z</time></trkpt><trkpt lat="49.19539908490829" lon="2.548726890427259"><ele>56.00000000000001</ele><time>2026-03-22T14:39:12.997Z</time></trkpt><trkpt lat="49.195404011086566" lon="2.54884912993951"><ele>56.0</ele><time>2026-03-22T14:39:14.997Z</time></trkpt><trkpt lat="49.19540928468069" lon="2.5489752376145556"><ele>56.0</ele><time>2026-03-22T14:39:16.997Z</time></trkpt><trkpt lat="49.19541446650403" lon="2.5490991507322893"><ele>56.0</ele><time>2026-03-22T14:39:18.997Z</time></trkpt><trkpt lat="49.19541981512882" lon="2.5492270526916943"><ele>56.00000000000001</ele><time>2026-03-22T14:39:20.997Z</time></trkpt><trkpt lat="49.19542615776792" lon="2.5493624681867875"><ele>56.0</ele><time>2026-03-22T14:39:22.997Z</time></trkpt><trkpt lat="49.19543205644528" lon="2.5494824607861064"><ele>56.00000000000001</ele><time>2026-03-22T14:39:24.996Z</time></trkpt><trkpt lat="49.195438179072426" lon="2.5496006791415637"><ele>56.0</ele><time>2026-03-22T14:39:26.996Z</time></trkpt><trkpt lat="49.195445885061055" lon="2.5497279869625413"><ele>56.0</ele><time>2026-03-22T14:39:28.996Z</time></trkpt><trkpt lat="49.195453569449825" lon="2.549854938004637"><ele>56.0</ele><time>2026-03-22T14:39:30.996Z</time></trkpt><trkpt lat="49.195461152324306" lon="2.5499802118822914"><ele>56.00000000000001</ele><time>2026-03-22T14:39:32.996Z</time></trkpt><trkpt lat="49.19546939024092" lon="2.5501181984941312"><ele>56.0</ele><time>2026-03-22T14:39:35Z</time></trkpt><trkpt lat="49.19547662631682" lon="2.5502478067341343"><ele>56.16666666666667</ele><time>2026-03-22T14:39:37Z</time></trkpt><trkpt lat="49.19548397796305" lon="2.550379485264676"><ele>56.333333333333336</ele><time>2026-03-22T14:39:39Z</time></trkpt><trkpt lat="49.19549363623936" lon="2.5505144033626874"><ele>56.5</ele><time>2026-03-22T14:39:41Z</time></trkpt><trkpt lat="49.19550431971143" lon="2.5506499209136506"><ele>56.66666666666667</ele><time>2026-03-22T14:39:43Z</time></trkpt><trkpt lat="49.19551474244865" lon="2.550772963648384"><ele>56.833333333333336</ele><time>2026-03-22T14:39:45Z</time></trkpt><trkpt lat="49.195529588687315" lon="2.550923777752407"><ele>57.0</ele><time>2026-03-22T14:39:47Z</time></trkpt><trkpt lat="49.19554453626013" lon="2.5510509291444947"><ele>57.0</ele><time>2026-03-22T14:39:49Z</time></trkpt><trkpt lat="49.19556195967019" lon="2.551182219698269"><ele>57.0</ele><time>2026-03-22T14:39:51Z</time></trkpt><trkpt lat="49.195580015137864" lon="2.551313672860444"><ele>57.0</ele><time>2026-03-22T14:39:52.999Z</time></trkpt><trkpt lat="49.19560112879452" lon="2.551459227852684"><ele>57.0</ele><time>2026-03-22T14:39:54.999Z</time></trkpt><trkpt lat="49.1956258107606" lon="2.551615496258499"><ele>57.0</ele><time>2026-03-22T14:39:56.999Z</time></trkpt><trkpt lat="49.19565386307335" lon="2.55177784198662"><ele>56.400000000000006</ele><time>2026-03-22T14:39:58.999Z</time></trkpt><trkpt lat="49.19568547552798" lon="2.551934943176588"><ele>55.800000000000004</ele><time>2026-03-22T14:40:00.999Z</time></trkpt><trkpt lat="49.19572272696914" lon="2.552098372600637"><ele>55.2</ele><time>2026-03-22T14:40:02.999Z</time></trkpt><trkpt lat="49.195767888974856" lon="2.5522745325919542"><ele>54.6</ele><time>2026-03-22T14:40:04.999Z</time></trkpt><trkpt lat="49.19579565188757" lon="2.5523621841420265"><ele>54.0</ele><time>2026-03-22T14:40:05.999Z</time></trkpt><trkpt lat="49.1958255107499" lon="2.5524601327122327"><ele>53.857142857142854</ele><time>2026-03-22T14:40:06.999Z</time></trkpt><trkpt lat="49.19585239975822" lon="2.5525483391920925"><ele>53.71428571428571</ele><time>2026-03-22T14:40:07.999Z</time></trkpt><trkpt lat="49.19588184286303" lon="2.552644923711809"><ele>53.57142857142857</ele><time>2026-03-22T14:40:08.999Z</time></trkpt><trkpt lat="49.19591131021921" lon="2.5527425476700567"><ele>53.42857142857143</ele><time>2026-03-22T14:40:09.999Z</time></trkpt><trkpt lat="49.195940737139516" lon="2.5528406918620075"><ele>53.285714285714285</ele><time>2026-03-22T14:40:10.999Z</time></trkpt><trkpt lat="49.19596942669001" lon="2.5529417149785636"><ele>53.142857142857146</ele><time>2026-03-22T14:40:11.999Z</time></trkpt><trkpt lat="49.19599665812094" lon="2.553052344296482"><ele>53.0</ele><time>2026-03-22T14:40:12.999Z</time></trkpt><trkpt lat="49.196020501139856" lon="2.5531660783406047"><ele>52.833333333333336</ele><time>2026-03-22T14:40:13.999Z</time></trkpt><trkpt lat="49.19604053270054" lon="2.5532823091083117"><ele>52.66666666666667</ele><time>2026-03-22T14:40:14.999Z</time></trkpt><trkpt lat="49.19605408987996" lon="2.5533994315347845"><ele>52.5</ele><time>2026-03-22T14:40:15.999Z</time></trkpt><trkpt lat="49.19606102299234" lon="2.5535203156680253"><ele>52.33333333333333</ele><time>2026-03-22T14:40:16.999Z</time></trkpt><trkpt lat="49.196063165466825" lon="2.553641882300303"><ele>52.166666666666664</ele><time>2026-03-22T14:40:17.999Z</time></trkpt><trkpt lat="49.19605701039101" lon="2.5537584348085045"><ele>52.0</ele><time>2026-03-22T14:40:18.999Z</time></trkpt><trkpt lat="49.19604479466299" lon="2.5538720287323304"><ele>51.857142857142854</ele><time>2026-03-22T14:40:19.999Z</time></trkpt><trkpt lat="49.19603228740315" lon="2.553981352864941"><ele>51.714285714285715</ele><time>2026-03-22T14:40:20.999Z</time></trkpt><trkpt lat="49.196019181007486" lon="2.554090263989757"><ele>51.57142857142857</ele><time>2026-03-22T14:40:21.999Z</time></trkpt><trkpt lat="49.19600680648877" lon="2.554193093745925"><ele>51.42857142857143</ele><time>2026-03-22T14:40:22.999Z</time></trkpt><trkpt lat="49.195994188237336" lon="2.5542966055258756"><ele>51.28571428571429</ele><time>2026-03-22T14:40:23.999Z</time></trkpt><trkpt lat="49.19598211937131" lon="2.5543938124858347"><ele>51.142857142857146</ele><time>2026-03-22T14:40:24.999Z</time></trkpt><trkpt lat="49.19597023660535" lon="2.554489520553152"><ele>51.0</ele><time>2026-03-22T14:40:25.998Z</time></trkpt><trkpt lat="49.19595837088189" lon="2.5545850916067447"><ele>51.0</ele><time>2026-03-22T14:40:26.998Z</time></trkpt><trkpt lat="49.19594563773908" lon="2.554687648885748"><ele>51.0</ele><time>2026-03-22T14:40:27.998Z</time></trkpt><trkpt lat="49.1959240767575" lon="2.5548613086996497"><ele>51.0</ele><time>2026-03-22T14:40:29.998Z</time></trkpt><trkpt lat="49.19590338782951" lon="2.5550279451184377"><ele>51.0</ele><time>2026-03-22T14:40:31.998Z</time></trkpt><trkpt lat="49.195881975514865" lon="2.5552004074958496"><ele>51.0</ele><time>2026-03-22T14:40:33.998Z</time></trkpt><trkpt lat="49.19586291475669" lon="2.555353930095379"><ele>50.4</ele><time>2026-03-22T14:40:35.998Z</time></trkpt><trkpt lat="49.19584363196983" lon="2.5555092404671105"><ele>49.8</ele><time>2026-03-22T14:40:37.998Z</time></trkpt><trkpt lat="49.19582498653395" lon="2.5556594174627283"><ele>49.199999999999996</ele><time>2026-03-22T14:40:39.998Z</time></trkpt><trkpt lat="49.195807022384564" lon="2.555804107816793"><ele>48.599999999999994</ele><time>2026-03-22T14:40:41.998Z</time></trkpt><trkpt lat="49.19578927642927" lon="2.555947040084466"><ele>48.0</ele><time>2026-03-22T14:40:43.998Z</time></trkpt><trkpt lat="49.195770958432625" lon="2.5560945802102184"><ele>47.8</ele><time>2026-03-22T14:40:45.998Z</time></trkpt><trkpt lat="49.195752957832916" lon="2.556237754050987"><ele>47.599999999999994</ele><time>2026-03-22T14:40:47.998Z</time></trkpt><trkpt lat="49.19573501316308" lon="2.5563735503057035"><ele>47.400000000000006</ele><time>2026-03-22T14:40:49.998Z</time></trkpt><trkpt lat="49.1957158451095" lon="2.5565186049021738"><ele>47.2</ele><time>2026-03-22T14:40:51.998Z</time></trkpt><trkpt lat="49.19569699394337" lon="2.5566612611151402"><ele>47.0</ele><time>2026-03-22T14:40:53.998Z</time></trkpt><trkpt lat="49.195677982032755" lon="2.556805133814449"><ele>48.0</ele><time>2026-03-22T14:40:55.998Z</time></trkpt><trkpt lat="49.19565840241056" lon="2.5569469538233442"><ele>49.0</ele><time>2026-03-22T14:40:57.997Z</time></trkpt><trkpt lat="49.195636853387185" lon="2.5570911090775947"><ele>50.0</ele><time>2026-03-22T14:40:59.997Z</time></trkpt><trkpt lat="49.19561543198354" lon="2.5572396438484164"><ele>51.0</ele><time>2026-03-22T14:41:01.997Z</time></trkpt><trkpt lat="49.19559818181595" lon="2.5573934766469546"><ele>52.0</ele><time>2026-03-22T14:41:03.997Z</time></trkpt><trkpt lat="49.19558512448127" lon="2.5575467304907855"><ele>52.2</ele><time>2026-03-22T14:41:05.997Z</time></trkpt><trkpt lat="49.19557776319377" lon="2.557696287681738"><ele>52.400000000000006</ele><time>2026-03-22T14:41:07.997Z</time></trkpt><trkpt lat="49.195580451079486" lon="2.5578407085576034"><ele>52.599999999999994</ele><time>2026-03-22T14:41:09.997Z</time></trkpt><trkpt lat="49.19558414574344" lon="2.5579881207530444"><ele>52.8</ele><time>2026-03-22T14:41:11.997Z</time></trkpt><trkpt lat="49.19558835699657" lon="2.558137424384659"><ele>53.0</ele><time>2026-03-22T14:41:13.997Z</time></trkpt><trkpt lat="49.195593687562436" lon="2.558283764796435"><ele>53.0</ele><time>2026-03-22T14:41:15.997Z</time></trkpt><trkpt lat="49.19560003150413" lon="2.5584288103599073"><ele>53.0</ele><time>2026-03-22T14:41:17.997Z</time></trkpt><trkpt lat="49.19560636621162" lon="2.5585736448115197"><ele>53.0</ele><time>2026-03-22T14:41:19.997Z</time></trkpt><trkpt lat="49.195612154794766" lon="2.558715446357477"><ele>53.0</ele><time>2026-03-22T14:41:21.997Z</time></trkpt><trkpt lat="49.19564958136682" lon="2.5588540760183642"><ele>53.0</ele><time>2026-03-22T14:41:23.997Z</time></trkpt><trkpt lat="49.19566003931808" lon="2.55899867272748"><ele>53.0</ele><time>2026-03-22T14:41:25.997Z</time></trkpt><trkpt lat="49.19566549218864" lon="2.5591454301511756"><ele>53.0</ele><time>2026-03-22T14:41:27.997Z</time></trkpt><trkpt lat="49.19566930354085" lon="2.559292075000035"><ele>53.0</ele><time>2026-03-22T14:41:29.996Z</time></trkpt><trkpt lat="49.19567389421692" lon="2.559442019700936"><ele>53.0</ele><time>2026-03-22T14:41:31.996Z</time></trkpt><trkpt lat="49.195684496804404" lon="2.559589577767916"><ele>53.0</ele><time>2026-03-22T14:41:33.996Z</time></trkpt><trkpt lat="49.195682050115735" lon="2.5597368133449505"><ele>53.0</ele><time>2026-03-22T14:41:35.996Z</time></trkpt><trkpt lat="49.19568666138119" lon="2.559885299945932"><ele>53.0</ele><time>2026-03-22T14:41:37.996Z</time></trkpt><trkpt lat="49.195689895019825" lon="2.5600328481248553"><ele>53.0</ele><time>2026-03-22T14:41:39.996Z</time></trkpt><trkpt lat="49.1956912258803" lon="2.560178160814045"><ele>53.0</ele><time>2026-03-22T14:41:42Z</time></trkpt><trkpt lat="49.19569584766503" lon="2.5603238925347274"><ele>53.0</ele><time>2026-03-22T14:41:44Z</time></trkpt><trkpt lat="49.195694811431004" lon="2.560471732991029"><ele>53.2</ele><time>2026-03-22T14:41:46Z</time></trkpt><trkpt lat="49.195706077758665" lon="2.560627388601401"><ele>53.4</ele><time>2026-03-22T14:41:48Z</time></trkpt><trkpt lat="49.19571209172072" lon="2.5607901574565433"><ele>53.60000000000001</ele><time>2026-03-22T14:41:50Z</time></trkpt><trkpt lat="49.195716195413645" lon="2.560954659522437"><ele>53.800000000000004</ele><time>2026-03-22T14:41:52Z</time></trkpt><trkpt lat="49.195726587643925" lon="2.5611230717429407"><ele>54.0</ele><time>2026-03-22T14:41:54Z</time></trkpt><trkpt lat="49.19574244597107" lon="2.561289386625125"><ele>54.0</ele><time>2026-03-22T14:41:56Z</time></trkpt><trkpt lat="49.1957847426757" lon="2.5614478240699805"><ele>54.00000000000001</ele><time>2026-03-22T14:41:58Z</time></trkpt><trkpt lat="49.19582627215133" lon="2.5616056568320342"><ele>54.00000000000001</ele><time>2026-03-22T14:42:00Z</time></trkpt><trkpt lat="49.195845580239" lon="2.5617590969314175"><ele>54.0</ele><time>2026-03-22T14:42:01.999Z</time></trkpt><trkpt lat="49.19591019437164" lon="2.5618618840367913"><ele>54.0</ele><time>2026-03-22T14:42:03.999Z</time></trkpt><trkpt lat="49.19595593720039" lon="2.5619977774001774"><ele>54.0</ele><time>2026-03-22T14:42:05.999Z</time></trkpt><trkpt lat="49.19599857641223" lon="2.5621313481008055"><ele>54.00000000000001</ele><time>2026-03-22T14:42:07.999Z</time></trkpt><trkpt lat="49.196041680296894" lon="2.5622640094950895"><ele>54.00000000000001</ele><time>2026-03-22T14:42:09.999Z</time></trkpt><trkpt lat="49.19607880129821" lon="2.5623939886883633"><ele>54.0</ele><time>2026-03-22T14:42:11.999Z</time></trkpt><trkpt lat="49.19611945226108" lon="2.562518444068062"><ele>54.0</ele><time>2026-03-22T14:42:13.999Z</time></trkpt><trkpt lat="49.196157086731915" lon="2.562632332394825"><ele>54.0</ele><time>2026-03-22T14:42:15.999Z</time></trkpt><trkpt lat="49.19619366415151" lon="2.562751025061297"><ele>54.0</ele><time>2026-03-22T14:42:17.999Z</time></trkpt><trkpt lat="49.1962198401825" lon="2.5628634822993135"><ele>54.0</ele><time>2026-03-22T14:42:19.999Z</time></trkpt><trkpt lat="49.19625518715338" lon="2.56299836556525"><ele>54.0</ele><time>2026-03-22T14:42:21.999Z</time></trkpt><trkpt lat="49.19628414310991" lon="2.563124007035494"><ele>54.0</ele><time>2026-03-22T14:42:23.999Z</time></trkpt><trkpt lat="49.19632452848898" lon="2.5632615542640247"><ele>54.0</ele><time>2026-03-22T14:42:25.999Z</time></trkpt><trkpt lat="49.19635576242171" lon="2.5634041111517147"><ele>54.400000000000006</ele><time>2026-03-22T14:42:27.999Z</time></trkpt><trkpt lat="49.196379232672456" lon="2.5635436812088828"><ele>54.800000000000004</ele><time>2026-03-22T14:42:29.999Z</time></trkpt><trkpt lat="49.196412157207895" lon="2.563670532177909"><ele>55.199999999999996</ele><time>2026-03-22T14:42:31.999Z</time></trkpt><trkpt lat="49.19644393598171" lon="2.5638037167413814"><ele>55.599999999999994</ele><time>2026-03-22T14:42:33.998Z</time></trkpt><trkpt lat="49.19646900931943" lon="2.5639355423466608"><ele>56.0</ele><time>2026-03-22T14:42:35.998Z</time></trkpt><trkpt lat="49.19649819638022" lon="2.5640698186365363"><ele>54.8</ele><time>2026-03-22T14:42:37.998Z</time></trkpt><trkpt lat="49.19652409694602" lon="2.5642068709133885"><ele>53.599999999999994</ele><time>2026-03-22T14:42:39.998Z</time></trkpt><trkpt lat="49.196546246201315" lon="2.564344402946431"><ele>52.4</ele><time>2026-03-22T14:42:41.998Z</time></trkpt><trkpt lat="49.19656648800108" lon="2.5644857781020125"><ele>51.2</ele><time>2026-03-22T14:42:43.998Z</time></trkpt><trkpt lat="49.19657874795696" lon="2.564628798527923"><ele>50.0</ele><time>2026-03-22T14:42:45.998Z</time></trkpt><trkpt lat="49.19659228485757" lon="2.5647776597004595"><ele>50.0</ele><time>2026-03-22T14:42:47.998Z</time></trkpt><trkpt lat="49.196593407655605" lon="2.564930775286555"><ele>50.0</ele><time>2026-03-22T14:42:49.998Z</time></trkpt><trkpt lat="49.19653813634259" lon="2.5650666718031867"><ele>50.0</ele><time>2026-03-22T14:42:51.998Z</time></trkpt><trkpt lat="49.19650715744605" lon="2.565209534037611"><ele>50.0</ele><time>2026-03-22T14:42:53.998Z</time></trkpt><trkpt lat="49.19646843111553" lon="2.5653585111884527"><ele>50.0</ele><time>2026-03-22T14:42:55.998Z</time></trkpt><trkpt lat="49.19642962919845" lon="2.5655025231470425"><ele>50.4</ele><time>2026-03-22T14:42:57.998Z</time></trkpt><trkpt lat="49.19639041633021" lon="2.5656480606488774"><ele>50.8</ele><time>2026-03-22T14:42:59.998Z</time></trkpt><trkpt lat="49.196351847186506" lon="2.5657912091060724"><ele>51.2</ele><time>2026-03-22T14:43:01.998Z</time></trkpt><trkpt lat="49.19631188078661" lon="2.565935508309266"><ele>51.6</ele><time>2026-03-22T14:43:03.998Z</time></trkpt><trkpt lat="49.19626977702212" lon="2.566083939988359"><ele>52.0</ele><time>2026-03-22T14:43:05.997Z</time></trkpt><trkpt lat="49.19622684075373" lon="2.566230498902203"><ele>52.0</ele><time>2026-03-22T14:43:07.997Z</time></trkpt><trkpt lat="49.19620101128593" lon="2.5663198217551337"><ele>52.0</ele><time>2026-03-22T14:43:08.997Z</time></trkpt><trkpt lat="49.196154671997" lon="2.566480070468909"><ele>52.0</ele><time>2026-03-22T14:43:10.997Z</time></trkpt><trkpt lat="49.19610584787755" lon="2.566647727461876"><ele>52.0</ele><time>2026-03-22T14:43:12.997Z</time></trkpt><trkpt lat="49.196060098652616" lon="2.5668140881481483"><ele>52.0</ele><time>2026-03-22T14:43:14.997Z</time></trkpt><trkpt lat="49.196015851598325" lon="2.566987244860551"><ele>52.0</ele><time>2026-03-22T14:43:16.997Z</time></trkpt><trkpt lat="49.195982092242545" lon="2.56716603204862"><ele>52.0</ele><time>2026-03-22T14:43:18.997Z</time></trkpt><trkpt lat="49.195968748998425" lon="2.5673463940217225"><ele>52.0</ele><time>2026-03-22T14:43:20.997Z</time></trkpt><trkpt lat="49.19601210781999" lon="2.5675180597034113"><ele>52.0</ele><time>2026-03-22T14:43:22.997Z</time></trkpt><trkpt lat="49.19603075788392" lon="2.5676833268692882"><ele>52.0</ele><time>2026-03-22T14:43:24.997Z</time></trkpt><trkpt lat="49.19606983030197" lon="2.567838505801095"><ele>52.0</ele><time>2026-03-22T14:43:26.997Z</time></trkpt><trkpt lat="49.19610929936" lon="2.5679887373486205"><ele>52.0</ele><time>2026-03-22T14:43:28.997Z</time></trkpt><trkpt lat="49.19614727410647" lon="2.5681332731829807"><ele>52.0</ele><time>2026-03-22T14:43:30.997Z</time></trkpt><trkpt lat="49.196183865561714" lon="2.5682794829520184"><ele>52.0</ele><time>2026-03-22T14:43:32.997Z</time></trkpt><trkpt lat="49.19622152758743" lon="2.5684296539464913"><ele>52.400000000000006</ele><time>2026-03-22T14:43:34.997Z</time></trkpt><trkpt lat="49.19627338451939" lon="2.5685658109722103"><ele>52.800000000000004</ele><time>2026-03-22T14:43:36.996Z</time></trkpt><trkpt lat="49.19630711217925" lon="2.56871462034646"><ele>53.2</ele><time>2026-03-22T14:43:38.996Z</time></trkpt><trkpt lat="49.19634472208412" lon="2.5688627190109967"><ele>53.6</ele><time>2026-03-22T14:43:40.996Z</time></trkpt><trkpt lat="49.19638176654783" lon="2.5690068771828947"><ele>54.0</ele><time>2026-03-22T14:43:42.996Z</time></trkpt><trkpt lat="49.196417016118744" lon="2.5691590798311106"><ele>54.0</ele><time>2026-03-22T14:43:44.996Z</time></trkpt><trkpt lat="49.19645124215558" lon="2.5693033785438497"><ele>54.00000000000001</ele><time>2026-03-22T14:43:47Z</time></trkpt><trkpt lat="49.19647865630718" lon="2.569456770176606"><ele>54.00000000000001</ele><time>2026-03-22T14:43:49Z</time></trkpt><trkpt lat="49.19652259471013" lon="2.5696156491631816"><ele>54.0</ele><time>2026-03-22T14:43:51Z</time></trkpt><trkpt lat="49.19650771777622" lon="2.56977047071168"><ele>54.0</ele><time>2026-03-22T14:43:53Z</time></trkpt><trkpt lat="49.19647674050536" lon="2.569915764656772"><ele>53.6</ele><time>2026-03-22T14:43:55Z</time></trkpt><trkpt lat="49.196468494985545" lon="2.570061646434293"><ele>53.2</ele><time>2026-03-22T14:43:57Z</time></trkpt><trkpt lat="49.19645797926661" lon="2.570207604944566"><ele>52.800000000000004</ele><time>2026-03-22T14:43:59Z</time></trkpt><trkpt lat="49.19645036130197" lon="2.5703471528076323"><ele>52.400000000000006</ele><time>2026-03-22T14:44:01Z</time></trkpt><trkpt lat="49.19644161547217" lon="2.570485788811747"><ele>52.0</ele><time>2026-03-22T14:44:03Z</time></trkpt><trkpt lat="49.196438897033154" lon="2.570620353474219"><ele>52.0</ele><time>2026-03-22T14:44:04.999Z</time></trkpt><trkpt lat="49.196447119606525" lon="2.5707551757670384"><ele>52.0</ele><time>2026-03-22T14:44:06.999Z</time></trkpt><trkpt lat="49.19644759993512" lon="2.5708987085235573"><ele>52.0</ele><time>2026-03-22T14:44:08.999Z</time></trkpt><trkpt lat="49.19645280848352" lon="2.5710469483539864"><ele>52.0</ele><time>2026-03-22T14:44:10.999Z</time></trkpt><trkpt lat="49.19645492997049" lon="2.5711905547632297"><ele>52.0</ele><time>2026-03-22T14:44:12.999Z</time></trkpt><trkpt lat="49.19643962462302" lon="2.5713294668411493"><ele>52.0</ele><time>2026-03-22T14:44:14.999Z</time></trkpt><trkpt lat="49.1964233827642" lon="2.5714731361632275"><ele>52.0</ele><time>2026-03-22T14:44:16.999Z</time></trkpt><trkpt lat="49.196394833711565" lon="2.5716112190583336"><ele>52.0</ele><time>2026-03-22T14:44:18.999Z</time></trkpt><trkpt lat="49.19638138449677" lon="2.571746904938894"><ele>52.0</ele><time>2026-03-22T14:44:20.999Z</time></trkpt><trkpt lat="49.196367388155174" lon="2.571882606158393"><ele>52.0</ele><time>2026-03-22T14:44:22.999Z</time></trkpt><trkpt lat="49.196356436858764" lon="2.5720178844056556"><ele>52.166666666666664</ele><time>2026-03-22T14:44:24.999Z</time></trkpt><trkpt lat="49.19633971635483" lon="2.572154424066438"><ele>52.33333333333333</ele><time>2026-03-22T14:44:26.999Z</time></trkpt><trkpt lat="49.196324570768894" lon="2.572287426391651"><ele>52.5</ele><time>2026-03-22T14:44:28.999Z</time></trkpt><trkpt lat="49.196306800035615" lon="2.5724221652578"><ele>52.66666666666667</ele><time>2026-03-22T14:44:30.999Z</time></trkpt><trkpt lat="49.196290775220525" lon="2.572551515342937"><ele>52.833333333333336</ele><time>2026-03-22T14:44:32.999Z</time></trkpt><trkpt lat="49.19627372860241" lon="2.5726802882025592"><ele>53.0</ele><time>2026-03-22T14:44:34.999Z</time></trkpt><trkpt lat="49.196258548722845" lon="2.5728105839819726"><ele>53.00000000000001</ele><time>2026-03-22T14:44:36.999Z</time></trkpt><trkpt lat="49.1962448553131" lon="2.5729419124175523"><ele>53.0</ele><time>2026-03-22T14:44:38.998Z</time></trkpt><trkpt lat="49.19622445110155" lon="2.5730668896046125"><ele>53.0</ele><time>2026-03-22T14:44:40.998Z</time></trkpt><trkpt lat="49.1962070971774" lon="2.5731905038828637"><ele>53.0</ele><time>2026-03-22T14:44:42.998Z</time></trkpt><trkpt lat="49.19619018315408" lon="2.573321043953899"><ele>53.00000000000001</ele><time>2026-03-22T14:44:44.998Z</time></trkpt><trkpt lat="49.196170629058365" lon="2.5734461524406105"><ele>53.0</ele><time>2026-03-22T14:44:46.998Z</time></trkpt><trkpt lat="49.19615324183855" lon="2.573570090038196"><ele>53.00000000000001</ele><time>2026-03-22T14:44:48.998Z</time></trkpt><trkpt lat="49.196140639270524" lon="2.5736935483343397"><ele>53.0</ele><time>2026-03-22T14:44:50.998Z</time></trkpt><trkpt lat="49.196124405840855" lon="2.573818365515181"><ele>53.0</ele><time>2026-03-22T14:44:52.998Z</time></trkpt><trkpt lat="49.19610860200158" lon="2.5739447446197383"><ele>53.0</ele><time>2026-03-22T14:44:54.998Z</time></trkpt><trkpt lat="49.19609155854229" lon="2.5740722558869584"><ele>53.00000000000001</ele><time>2026-03-22T14:44:56.998Z</time></trkpt><trkpt lat="49.19607344103299" lon="2.574201561178326"><ele>53.0</ele><time>2026-03-22T14:44:58.998Z</time></trkpt><trkpt lat="49.19605658998" lon="2.5743342844721164"><ele>53.0</ele><time>2026-03-22T14:45:00.998Z</time></trkpt><trkpt lat="49.19604190559941" lon="2.5744691528760195"><ele>53.0</ele><time>2026-03-22T14:45:02.998Z</time></trkpt><trkpt lat="49.196022616859985" lon="2.5746078495390865"><ele>53.0</ele><time>2026-03-22T14:45:04.998Z</time></trkpt><trkpt lat="49.19599887186381" lon="2.5747484351176544"><ele>53.0</ele><time>2026-03-22T14:45:06.998Z</time></trkpt><trkpt lat="49.19597989961876" lon="2.5748921041490647"><ele>53.0</ele><time>2026-03-22T14:45:08.998Z</time></trkpt><trkpt lat="49.195958538447016" lon="2.5750353930228"><ele>52.8</ele><time>2026-03-22T14:45:10.997Z</time></trkpt><trkpt lat="49.195928004492615" lon="2.5751742225159533"><ele>52.599999999999994</ele><time>2026-03-22T14:45:12.997Z</time></trkpt><trkpt lat="49.195898687348944" lon="2.575314998273176"><ele>52.400000000000006</ele><time>2026-03-22T14:45:14.997Z</time></trkpt><trkpt lat="49.1958678951381" lon="2.5754541669770727"><ele>52.2</ele><time>2026-03-22T14:45:16.997Z</time></trkpt><trkpt lat="49.19583947245293" lon="2.5755934339109743"><ele>52.0</ele><time>2026-03-22T14:45:18.997Z</time></trkpt><trkpt lat="49.19581115160457" lon="2.5757334776697927"><ele>52.400000000000006</ele><time>2026-03-22T14:45:20.997Z</time></trkpt><trkpt lat="49.195778994440566" lon="2.575870637560522"><ele>52.800000000000004</ele><time>2026-03-22T14:45:22.997Z</time></trkpt><trkpt lat="49.19574209735951" lon="2.576010701502502"><ele>53.2</ele><time>2026-03-22T14:45:24.997Z</time></trkpt><trkpt lat="49.1957088414675" lon="2.576158144721809"><ele>53.6</ele><time>2026-03-22T14:45:26.997Z</time></trkpt><trkpt lat="49.195676243622465" lon="2.5763015062640977"><ele>54.0</ele><time>2026-03-22T14:45:28.997Z</time></trkpt><trkpt lat="49.195645645079814" lon="2.5764460534041818"><ele>54.166666666666664</ele><time>2026-03-22T14:45:30.997Z</time></trkpt><trkpt lat="49.195633365167794" lon="2.5765843104609862"><ele>54.33333333333333</ele><time>2026-03-22T14:45:32.997Z</time></trkpt><trkpt lat="49.19561499851246" lon="2.5767059266799124"><ele>54.5</ele><time>2026-03-22T14:45:34.997Z</time></trkpt><trkpt lat="49.195591520022944" lon="2.5768216781566378"><ele>54.666666666666664</ele><time>2026-03-22T14:45:36.997Z</time></trkpt><trkpt lat="49.19560345590932" lon="2.576941457174607"><ele>54.83333333333333</ele><time>2026-03-22T14:45:38.997Z</time></trkpt><trkpt lat="49.19563146934311" lon="2.5770431081890117"><ele>55.0</ele><time>2026-03-22T14:45:40.997Z</time></trkpt><trkpt lat="49.195683752410964" lon="2.577097667654251"><ele>54.99999999999999</ele><time>2026-03-22T14:45:42.996Z</time></trkpt><trkpt lat="49.19576119374743" lon="2.57713426854589"><ele>55.0</ele><time>2026-03-22T14:45:44.996Z</time></trkpt><trkpt lat="49.19583166558884" lon="2.577184945751028"><ele>55.0</ele><time>2026-03-22T14:45:46.996Z</time></trkpt><trkpt lat="49.195910190420115" lon="2.5772402237006515"><ele>55.0</ele><time>2026-03-22T14:45:48.996Z</time></trkpt><trkpt lat="49.19598949159592" lon="2.5772916460975175"><ele>54.99999999999999</ele><time>2026-03-22T14:45:50.996Z</time></trkpt><trkpt lat="49.19607095288728" lon="2.577344184436615"><ele>55.0</ele><time>2026-03-22T14:45:53Z</time></trkpt><trkpt lat="49.196151516071865" lon="2.577396120730937"><ele>55.0</ele><time>2026-03-22T14:45:55Z</time></trkpt><trkpt lat="49.196222984320066" lon="2.5774500110129144"><ele>55.0</ele><time>2026-03-22T14:45:57Z</time></trkpt><trkpt lat="49.196312085825404" lon="2.5775062736989214"><ele>55.0</ele><time>2026-03-22T14:45:59Z</time></trkpt><trkpt lat="49.19640170394622" lon="2.5775632435029006"><ele>55.0</ele><time>2026-03-22T14:46:01Z</time></trkpt><trkpt lat="49.19648952199633" lon="2.577629767804123"><ele>55.0</ele><time>2026-03-22T14:46:03Z</time></trkpt><trkpt lat="49.196573824335076" lon="2.5776780858370483"><ele>54.99999999999999</ele><time>2026-03-22T14:46:05Z</time></trkpt><trkpt lat="49.19665946916851" lon="2.5777303153533544"><ele>55.0</ele><time>2026-03-22T14:46:07Z</time></trkpt><trkpt lat="49.19673586369246" lon="2.5777791692804723"><ele>55.0</ele><time>2026-03-22T14:46:08.999Z</time></trkpt><trkpt lat="49.196814201967555" lon="2.5778379311907513"><ele>55.0</ele><time>2026-03-22T14:46:10.999Z</time></trkpt><trkpt lat="49.1968908907444" lon="2.5778953928708095"><ele>54.99999999999999</ele><time>2026-03-22T14:46:12.999Z</time></trkpt><trkpt lat="49.19696871880929" lon="2.5779551273674977"><ele>55.0</ele><time>2026-03-22T14:46:14.999Z</time></trkpt><trkpt lat="49.19704855674122" lon="2.578002323084795"><ele>54.99999999999999</ele><time>2026-03-22T14:46:16.999Z</time></trkpt><trkpt lat="49.19712693073528" lon="2.5780521940565824"><ele>55.0</ele><time>2026-03-22T14:46:18.999Z</time></trkpt><trkpt lat="49.19720462492907" lon="2.5780986481508372"><ele>55.0</ele><time>2026-03-22T14:46:20.999Z</time></trkpt><trkpt lat="49.19728514153486" lon="2.5781408954258795"><ele>55.0</ele><time>2026-03-22T14:46:22.999Z</time></trkpt><trkpt lat="49.19736216419222" lon="2.5781828183609905"><ele>54.99999999999999</ele><time>2026-03-22T14:46:24.999Z</time></trkpt><trkpt lat="49.197439422708705" lon="2.5782302450974655"><ele>55.0</ele><time>2026-03-22T14:46:26.999Z</time></trkpt><trkpt lat="49.19752588682912" lon="2.578282333970309"><ele>55.166666666666664</ele><time>2026-03-22T14:46:28.999Z</time></trkpt><trkpt lat="49.19760711731614" lon="2.5783334207634145"><ele>55.33333333333333</ele><time>2026-03-22T14:46:30.999Z</time></trkpt><trkpt lat="49.19768933080054" lon="2.5783750073853255"><ele>55.5</ele><time>2026-03-22T14:46:32.999Z</time></trkpt><trkpt lat="49.19776573301432" lon="2.5784164780569"><ele>55.66666666666667</ele><time>2026-03-22T14:46:34.999Z</time></trkpt><trkpt lat="49.19783347896731" lon="2.5784651894420625"><ele>55.833333333333336</ele><time>2026-03-22T14:46:36.999Z</time></trkpt><trkpt lat="49.197900413904236" lon="2.578519468314184"><ele>56.0</ele><time>2026-03-22T14:46:38.999Z</time></trkpt><trkpt lat="49.197964676510516" lon="2.578564583599908"><ele>56.00000000000001</ele><time>2026-03-22T14:46:40.999Z</time></trkpt><trkpt lat="49.19801783319488" lon="2.578626887397048"><ele>56.0</ele><time>2026-03-22T14:46:42.998Z</time></trkpt><trkpt lat="49.198082656239855" lon="2.5786541938509555"><ele>56.0</ele><time>2026-03-22T14:46:44.998Z</time></trkpt><trkpt lat="49.19815816084159" lon="2.5787135044747336"><ele>56.0</ele><time>2026-03-22T14:46:46.998Z</time></trkpt><trkpt lat="49.19822811373838" lon="2.578772199852569"><ele>56.00000000000001</ele><time>2026-03-22T14:46:48.998Z</time></trkpt><trkpt lat="49.19829845654029" lon="2.5788255914003524"><ele>56.0</ele><time>2026-03-22T14:46:50.998Z</time></trkpt><trkpt lat="49.198371320084625" lon="2.578865567712869"><ele>56.333333333333336</ele><time>2026-03-22T14:46:52.998Z</time></trkpt><trkpt lat="49.1984400261494" lon="2.5789194721900826"><ele>56.66666666666667</ele><time>2026-03-22T14:46:54.998Z</time></trkpt><trkpt lat="49.19851114436306" lon="2.5789702920663693"><ele>57.0</ele><time>2026-03-22T14:46:56.998Z</time></trkpt><trkpt lat="49.198581164291156" lon="2.579017458704777"><ele>57.33333333333333</ele><time>2026-03-22T14:46:58.998Z</time></trkpt><trkpt lat="49.19865404170097" lon="2.5790738172492356"><ele>57.666666666666664</ele><time>2026-03-22T14:47:00.998Z</time></trkpt><trkpt lat="49.198720866924596" lon="2.5791257885890864"><ele>58.0</ele><time>2026-03-22T14:47:02.998Z</time></trkpt><trkpt lat="49.198791962484975" lon="2.579173308193146"><ele>58.00000000000001</ele><time>2026-03-22T14:47:04.998Z</time></trkpt><trkpt lat="49.19884179416514" lon="2.5792784867522585"><ele>58.0</ele><time>2026-03-22T14:47:06.998Z</time></trkpt><trkpt lat="49.19890598141825" lon="2.5793223919399884"><ele>58.00000000000001</ele><time>2026-03-22T14:47:08.998Z</time></trkpt><trkpt lat="49.19896643590525" lon="2.579363743831259"><ele>58.00000000000001</ele><time>2026-03-22T14:47:11.998Z</time></trkpt><trkpt lat="49.19903667725588" lon="2.579411791075558"><ele>58.0</ele><time>2026-03-22T14:47:13.998Z</time></trkpt><trkpt lat="49.199098373904555" lon="2.579455225293729"><ele>58.00000000000001</ele><time>2026-03-22T14:47:15.997Z</time></trkpt><trkpt lat="49.19916835190427" lon="2.579503934231612"><ele>58.00000000000001</ele><time>2026-03-22T14:47:17.997Z</time></trkpt><trkpt lat="49.19923717023805" lon="2.579551836417537"><ele>58.599999999999994</ele><time>2026-03-22T14:47:19.997Z</time></trkpt><trkpt lat="49.199311991788356" lon="2.579605623820279"><ele>59.199999999999996</ele><time>2026-03-22T14:47:21.997Z</time></trkpt><trkpt lat="49.199390483622764" lon="2.579661703458977"><ele>59.8</ele><time>2026-03-22T14:47:23.997Z</time></trkpt><trkpt lat="49.19947498664423" lon="2.5797184790810666"><ele>60.4</ele><time>2026-03-22T14:47:25.997Z</time></trkpt><trkpt lat="49.199552815955194" lon="2.5797892846630535"><ele>61.0</ele><time>2026-03-22T14:47:27.997Z</time></trkpt><trkpt lat="49.19964567790732" lon="2.579857520265198"><ele>60.99999999999999</ele><time>2026-03-22T14:47:29.997Z</time></trkpt><trkpt lat="49.19972710149602" lon="2.579918038877894"><ele>61.0</ele><time>2026-03-22T14:47:31.997Z</time></trkpt><trkpt lat="49.19974781197773" lon="2.580034031588014"><ele>61.0</ele><time>2026-03-22T14:47:33.997Z</time></trkpt><trkpt lat="49.19969994252654" lon="2.580129436080429"><ele>61.0</ele><time>2026-03-22T14:47:35.997Z</time></trkpt><trkpt lat="49.1996342710184" lon="2.5801608206168294"><ele>60.99999999999999</ele><time>2026-03-22T14:47:37.997Z</time></trkpt><trkpt lat="49.199551658037436" lon="2.580226232935066"><ele>61.0</ele><time>2026-03-22T14:47:40.997Z</time></trkpt><trkpt lat="49.19948509995584" lon="2.5802300181888658"><ele>60.99999999999999</ele><time>2026-03-22T14:47:42.997Z</time></trkpt><trkpt lat="49.19941422766311" lon="2.580292541692806"><ele>61.0</ele><time>2026-03-22T14:47:44.997Z</time></trkpt><trkpt lat="49.199399949467846" lon="2.580397218262807"><ele>60.99999999999999</ele><time>2026-03-22T14:47:46.996Z</time></trkpt><trkpt lat="49.19935416173889" lon="2.5804870369663613"><ele>60.99999999999999</ele><time>2026-03-22T14:47:48.996Z</time></trkpt><trkpt lat="49.19933344366349" lon="2.5806028070872515"><ele>61.0</ele><time>2026-03-22T14:47:50.996Z</time></trkpt><trkpt lat="49.19929976039014" lon="2.5807093346033447"><ele>60.99999999999999</ele><time>2026-03-22T14:47:52.996Z</time></trkpt><trkpt lat="49.199255985246914" lon="2.5807855108771602"><ele>60.99999999999999</ele><time>2026-03-22T14:47:54.996Z</time></trkpt><trkpt lat="49.199222972711524" lon="2.5808843870913574"><ele>60.83333333333333</ele><time>2026-03-22T14:47:58Z</time></trkpt><trkpt lat="49.19920179925005" lon="2.580994791625369"><ele>60.666666666666664</ele><time>2026-03-22T14:48:01Z</time></trkpt><trkpt lat="49.19926754214375" lon="2.5810913755666274"><ele>60.5</ele><time>2026-03-22T14:48:05Z</time></trkpt><trkpt lat="49.199333918057626" lon="2.5811646251570464"><ele>60.33333333333333</ele><time>2026-03-22T14:48:09Z</time></trkpt><trkpt lat="49.19939786438791" lon="2.581207722341451"><ele>60.166666666666664</ele><time>2026-03-22T14:48:13Z</time></trkpt><trkpt lat="49.19946356675225" lon="2.5812459108356727"><ele>60.0</ele><time>2026-03-22T14:48:15.999Z</time></trkpt><trkpt lat="49.19954049731906" lon="2.5812879485403375"><ele>59.85714285714286</ele><time>2026-03-22T14:48:19.999Z</time></trkpt><trkpt lat="49.1995952813404" lon="2.581346673830723"><ele>59.71428571428571</ele><time>2026-03-22T14:48:23.999Z</time></trkpt><trkpt lat="49.199665637509945" lon="2.581402916578991"><ele>59.57142857142857</ele><time>2026-03-22T14:48:27.999Z</time></trkpt><trkpt lat="49.1997300830323" lon="2.581462146362108"><ele>59.42857142857143</ele><time>2026-03-22T14:48:31.999Z</time></trkpt><trkpt lat="49.19979236436527" lon="2.5815153565242825"><ele>59.28571428571429</ele><time>2026-03-22T14:48:39.999Z</time></trkpt><trkpt lat="49.199857452340915" lon="2.581570139632654"><ele>59.14285714285714</ele><time>2026-03-22T14:48:48.998Z</time></trkpt><trkpt lat="49.19992611576229" lon="2.5816259713598284"><ele>59.0</ele><time>2026-03-22T14:56:24.001Z</time></trkpt><trkpt lat="49.19999341461102" lon="2.581671489690267"><ele>59.0</ele><time>2026-03-22T14:56:27.001Z</time></trkpt><trkpt lat="49.20005099086378" lon="2.5817273359798514"><ele>59.0</ele><time>2026-03-22T14:56:29.001Z</time></trkpt><trkpt lat="49.200108587439985" lon="2.5817736442833663"><ele>59.0</ele><time>2026-03-22T14:56:31Z</time></trkpt><trkpt lat="49.200179583912735" lon="2.581821082112064"><ele>59.0</ele><time>2026-03-22T14:56:34Z</time></trkpt><trkpt lat="49.20024392504766" lon="2.581872422175924"><ele>59.0</ele><time>2026-03-22T14:56:37Z</time></trkpt><trkpt lat="49.20030655142027" lon="2.581923602015328"><ele>59.0</ele><time>2026-03-22T14:56:40Z</time></trkpt><trkpt lat="49.20036437780674" lon="2.5819729981527018"><ele>59.0</ele><time>2026-03-22T14:56:43Z</time></trkpt><trkpt lat="49.200423935115026" lon="2.582012918922698"><ele>58.66666666666667</ele><time>2026-03-22T14:56:46Z</time></trkpt><trkpt lat="49.200501857567055" lon="2.5820760224336174"><ele>58.333333333333336</ele><time>2026-03-22T14:56:50Z</time></trkpt><trkpt lat="49.20058204356608" lon="2.5821487162725663"><ele>58.0</ele><time>2026-03-22T14:56:53Z</time></trkpt><trkpt lat="49.20065372257326" lon="2.5821841568753587"><ele>57.66666666666667</ele><time>2026-03-22T14:56:55Z</time></trkpt><trkpt lat="49.20073428940611" lon="2.5822214301058444"><ele>57.333333333333336</ele><time>2026-03-22T14:56:57Z</time></trkpt><trkpt lat="49.20080132850111" lon="2.582296448004136"><ele>57.0</ele><time>2026-03-22T14:56:59Z</time></trkpt><trkpt lat="49.20085769419886" lon="2.5823615270533704"><ele>56.75</ele><time>2026-03-22T14:57:01Z</time></trkpt><trkpt lat="49.200909049175316" lon="2.582616105658113"><ele>56.5</ele><time>2026-03-22T14:57:03Z</time></trkpt><trkpt lat="49.20101161700796" lon="2.5827066617042203"><ele>56.25</ele><time>2026-03-22T14:57:05Z</time></trkpt><trkpt lat="49.20112001829523" lon="2.582785501360666"><ele>56.0</ele><time>2026-03-22T14:57:06.999Z</time></trkpt><trkpt lat="49.20120358354361" lon="2.5828464621184417"><ele>55.599999999999994</ele><time>2026-03-22T14:57:08.999Z</time></trkpt><trkpt lat="49.20113093315291" lon="2.5829499023466362"><ele>55.199999999999996</ele><time>2026-03-22T14:57:09.999Z</time></trkpt><trkpt lat="49.20107756931488" lon="2.5830755371676286"><ele>54.800000000000004</ele><time>2026-03-22T14:57:11.999Z</time></trkpt><trkpt lat="49.201035925731624" lon="2.5831598931997184"><ele>54.400000000000006</ele><time>2026-03-22T14:57:13.999Z</time></trkpt><trkpt lat="49.20096064403365" lon="2.5832395843429246"><ele>54.0</ele><time>2026-03-22T14:57:16.999Z</time></trkpt><trkpt lat="49.200888650606124" lon="2.583329579222423"><ele>54.0</ele><time>2026-03-22T14:57:18.999Z</time></trkpt><trkpt lat="49.20082055290315" lon="2.5834147042079914"><ele>54.0</ele><time>2026-03-22T14:57:20.999Z</time></trkpt><trkpt lat="49.200862159143796" lon="2.583264403927189"><ele>54.0</ele><time>2026-03-22T14:57:21.999Z</time></trkpt><trkpt lat="49.20061477290285" lon="2.5836559089717794"><ele>53.75</ele><time>2026-03-22T14:57:26.999Z</time></trkpt><trkpt lat="49.20055981459909" lon="2.5837377161749195"><ele>53.5</ele><time>2026-03-22T14:57:28.999Z</time></trkpt><trkpt lat="49.20050041969949" lon="2.583831515292782"><ele>53.25</ele><time>2026-03-22T14:57:30.999Z</time></trkpt><trkpt lat="49.200441451788436" lon="2.5839281900694937"><ele>53.0</ele><time>2026-03-22T14:57:32.999Z</time></trkpt><trkpt lat="49.200709191062" lon="2.584318354146743"><ele>53.00000000000001</ele><time>2026-03-22T14:57:34.999Z</time></trkpt><trkpt lat="49.20067020281017" lon="2.5844287154204917"><ele>53.0</ele><time>2026-03-22T14:57:36.999Z</time></trkpt><trkpt lat="49.2006094058383" lon="2.5845174591195375"><ele>53.0</ele><time>2026-03-22T14:57:38.998Z</time></trkpt><trkpt lat="49.20057193759015" lon="2.5846244345576195"><ele>53.0</ele><time>2026-03-22T14:57:40.998Z</time></trkpt><trkpt lat="49.20052419771002" lon="2.5847280366531216"><ele>53.00000000000001</ele><time>2026-03-22T14:57:42.998Z</time></trkpt><trkpt lat="49.20048244788647" lon="2.5848394498211325"><ele>53.0</ele><time>2026-03-22T14:57:44.998Z</time></trkpt><trkpt lat="49.20044261588848" lon="2.5849528351589828"><ele>53.00000000000001</ele><time>2026-03-22T14:57:46.998Z</time></trkpt><trkpt lat="49.2003964559815" lon="2.58506662250306"><ele>53.0</ele><time>2026-03-22T14:57:48.998Z</time></trkpt><trkpt lat="49.20035020557768" lon="2.5851805242292687"><ele>53.0</ele><time>2026-03-22T14:57:50.998Z</time></trkpt><trkpt lat="49.2002879665289" lon="2.5852792357441254"><ele>53.0</ele><time>2026-03-22T14:57:52.998Z</time></trkpt><trkpt lat="49.20024261209063" lon="2.585383026890613"><ele>53.00000000000001</ele><time>2026-03-22T14:57:54.998Z</time></trkpt><trkpt lat="49.20019164533444" lon="2.585493813136282"><ele>53.0</ele><time>2026-03-22T14:57:56.998Z</time></trkpt><trkpt lat="49.20014306722909" lon="2.5855994069295747"><ele>53.00000000000001</ele><time>2026-03-22T14:57:58.998Z</time></trkpt><trkpt lat="49.20009428775431" lon="2.585705688246054"><ele>53.0</ele><time>2026-03-22T14:58:00.998Z</time></trkpt><trkpt lat="49.20004533366572" lon="2.585813493600098"><ele>53.0</ele><time>2026-03-22T14:58:02.998Z</time></trkpt><trkpt lat="49.199996820656835" lon="2.5859203289712034"><ele>53.0</ele><time>2026-03-22T14:58:04.998Z</time></trkpt><trkpt lat="49.19994990302089" lon="2.586026257190356"><ele>53.00000000000001</ele><time>2026-03-22T14:58:06.998Z</time></trkpt><trkpt lat="49.19990230356003" lon="2.5861331124636813"><ele>53.0</ele><time>2026-03-22T14:58:08.998Z</time></trkpt><trkpt lat="49.199855170091375" lon="2.5862395902288178"><ele>53.333333333333336</ele><time>2026-03-22T14:58:10.997Z</time></trkpt><trkpt lat="49.19980840482926" lon="2.586346223818917"><ele>53.66666666666667</ele><time>2026-03-22T14:58:12.997Z</time></trkpt><trkpt lat="49.1997601994335" lon="2.5864561412285205"><ele>54.0</ele><time>2026-03-22T14:58:14.997Z</time></trkpt><trkpt lat="49.199710952796735" lon="2.586568432718202"><ele>54.33333333333333</ele><time>2026-03-22T14:58:16.997Z</time></trkpt><trkpt lat="49.19965874293306" lon="2.5866874810238847"><ele>54.666666666666664</ele><time>2026-03-22T14:58:18.997Z</time></trkpt><trkpt lat="49.19960461269713" lon="2.586809860165247"><ele>55.0</ele><time>2026-03-22T14:58:20.997Z</time></trkpt><trkpt lat="49.19954510112541" lon="2.5869317185432616"><ele>54.8</ele><time>2026-03-22T14:58:22.997Z</time></trkpt><trkpt lat="49.199477538832376" lon="2.587036028867863"><ele>54.6</ele><time>2026-03-22T14:58:24.997Z</time></trkpt><trkpt lat="49.19951646629559" lon="2.587230249548904"><ele>54.400000000000006</ele><time>2026-03-22T14:58:27.001Z</time></trkpt><trkpt lat="49.199536775060196" lon="2.5873898259692054"><ele>54.2</ele><time>2026-03-22T14:58:29.001Z</time></trkpt><trkpt lat="49.19956759293361" lon="2.5875366373341935"><ele>54.0</ele><time>2026-03-22T14:58:31Z</time></trkpt><trkpt lat="49.19959937635526" lon="2.587687335415236"><ele>54.0</ele><time>2026-03-22T14:58:33.001Z</time></trkpt><trkpt lat="49.199642695398204" lon="2.587833530705495"><ele>54.00000000000001</ele><time>2026-03-22T14:58:35Z</time></trkpt><trkpt lat="49.19967483658773" lon="2.5879849502048695"><ele>54.00000000000001</ele><time>2026-03-22T14:58:37Z</time></trkpt><trkpt lat="49.19970512217935" lon="2.5881386125315746"><ele>54.0</ele><time>2026-03-22T14:58:39.001Z</time></trkpt><trkpt lat="49.1997373377947" lon="2.5882904386003758"><ele>54.0</ele><time>2026-03-22T14:58:41Z</time></trkpt><trkpt lat="49.19975938657947" lon="2.588437393226985"><ele>54.0</ele><time>2026-03-22T14:58:43Z</time></trkpt><trkpt lat="49.19979008058313" lon="2.5885779435811562"><ele>54.00000000000001</ele><time>2026-03-22T14:58:45Z</time></trkpt><trkpt lat="49.199820009961975" lon="2.5887157029728565"><ele>54.00000000000001</ele><time>2026-03-22T14:58:47Z</time></trkpt><trkpt lat="49.1998317855102" lon="2.5888593465780327"><ele>54.0</ele><time>2026-03-22T14:58:49Z</time></trkpt><trkpt lat="49.199859666086695" lon="2.5889955444938093"><ele>54.0</ele><time>2026-03-22T14:58:51Z</time></trkpt><trkpt lat="49.19988066032471" lon="2.5891301297708607"><ele>53.800000000000004</ele><time>2026-03-22T14:58:53Z</time></trkpt><trkpt lat="49.199878365634675" lon="2.5892684923451186"><ele>53.60000000000001</ele><time>2026-03-22T14:58:55Z</time></trkpt><trkpt lat="49.19986952019391" lon="2.589408553938933"><ele>53.4</ele><time>2026-03-22T14:58:57Z</time></trkpt><trkpt lat="49.19986634391859" lon="2.589548120484486"><ele>53.2</ele><time>2026-03-22T14:58:59Z</time></trkpt><trkpt lat="49.19986090722822" lon="2.5896932827939887"><ele>53.0</ele><time>2026-03-22T14:59:01Z</time></trkpt><trkpt lat="49.19985362984901" lon="2.5898411213281682"><ele>53.0</ele><time>2026-03-22T14:59:03Z</time></trkpt><trkpt lat="49.199848200912236" lon="2.5899930965475764"><ele>53.0</ele><time>2026-03-22T14:59:05Z</time></trkpt><trkpt lat="49.19983695346455" lon="2.5901470384700738"><ele>53.0</ele><time>2026-03-22T14:59:07Z</time></trkpt><trkpt lat="49.1998270114852" lon="2.590306142739062"><ele>53.0</ele><time>2026-03-22T14:59:09Z</time></trkpt><trkpt lat="49.19981679912638" lon="2.5904680509087123"><ele>53.0</ele><time>2026-03-22T14:59:10.999Z</time></trkpt><trkpt lat="49.19979844939716" lon="2.5906248347664538"><ele>53.8</ele><time>2026-03-22T14:59:12.999Z</time></trkpt><trkpt lat="49.19978860159906" lon="2.5907786252170526"><ele>54.599999999999994</ele><time>2026-03-22T14:59:14.999Z</time></trkpt><trkpt lat="49.1997796939848" lon="2.590927175052231"><ele>55.400000000000006</ele><time>2026-03-22T14:59:16.999Z</time></trkpt><trkpt lat="49.19977555109917" lon="2.5910754459331495"><ele>56.2</ele><time>2026-03-22T14:59:18.999Z</time></trkpt><trkpt lat="49.19977136884993" lon="2.5912222160936174"><ele>57.0</ele><time>2026-03-22T14:59:20.999Z</time></trkpt><trkpt lat="49.199766755719544" lon="2.5913645200896607"><ele>57.0</ele><time>2026-03-22T14:59:22.999Z</time></trkpt><trkpt lat="49.19975878744504" lon="2.591500500092555"><ele>57.0</ele><time>2026-03-22T14:59:24.999Z</time></trkpt><trkpt lat="49.199733305694" lon="2.5916293298732938"><ele>57.0</ele><time>2026-03-22T14:59:26.999Z</time></trkpt><trkpt lat="49.19972460981701" lon="2.591756597874763"><ele>57.0</ele><time>2026-03-22T14:59:28.999Z</time></trkpt><trkpt lat="49.19973069642256" lon="2.5918816653899794"><ele>57.0</ele><time>2026-03-22T14:59:30.999Z</time></trkpt><trkpt lat="49.19972340721034" lon="2.5919979698049653"><ele>57.0</ele><time>2026-03-22T14:59:32.999Z</time></trkpt><trkpt lat="49.19971244024306" lon="2.5921140099327995"><ele>57.0</ele><time>2026-03-22T14:59:34.999Z</time></trkpt><trkpt lat="49.199705706537095" lon="2.5922238282965737"><ele>56.99999999999999</ele><time>2026-03-22T14:59:36.999Z</time></trkpt><trkpt lat="49.19964872099035" lon="2.592295880650817"><ele>57.0</ele><time>2026-03-22T14:59:38.999Z</time></trkpt><trkpt lat="49.19958867362683" lon="2.5923341328241305"><ele>57.0</ele><time>2026-03-22T14:59:40.998Z</time></trkpt><trkpt lat="49.19964969125759" lon="2.5922887885397534"><ele>56.99999999999999</ele><time>2026-03-22T14:59:47.998Z</time></trkpt><trkpt lat="49.199724259006736" lon="2.5922820953155856"><ele>57.0</ele><time>2026-03-22T14:59:49.998Z</time></trkpt><trkpt lat="49.19979219293019" lon="2.5922349895718027"><ele>57.0</ele><time>2026-03-22T14:59:51.998Z</time></trkpt><trkpt lat="49.1998598053593" lon="2.5921764483932566"><ele>56.5</ele><time>2026-03-22T14:59:53.998Z</time></trkpt><trkpt lat="49.19993673290113" lon="2.592130938259151"><ele>56.0</ele><time>2026-03-22T14:59:55.998Z</time></trkpt><trkpt lat="49.20001569557478" lon="2.592092634335341"><ele>55.5</ele><time>2026-03-22T14:59:57.998Z</time></trkpt><trkpt lat="49.20009605868714" lon="2.5920497620354097"><ele>55.0</ele><time>2026-03-22T14:59:59.998Z</time></trkpt><trkpt lat="49.20018068666303" lon="2.5920052059126983"><ele>54.5</ele><time>2026-03-22T15:00:01.998Z</time></trkpt><trkpt lat="49.20027548515597" lon="2.5919755551630166"><ele>54.0</ele><time>2026-03-22T15:00:03.998Z</time></trkpt><trkpt lat="49.20036662603699" lon="2.5919186691235487"><ele>54.0</ele><time>2026-03-22T15:00:05.998Z</time></trkpt><trkpt lat="49.200460647423014" lon="2.5918804541309015"><ele>54.00000000000001</ele><time>2026-03-22T15:00:07.998Z</time></trkpt><trkpt lat="49.20055691093669" lon="2.591832908759492"><ele>54.00000000000001</ele><time>2026-03-22T15:00:09.998Z</time></trkpt><trkpt lat="49.20065258102628" lon="2.591785480760734"><ele>54.0</ele><time>2026-03-22T15:00:11.998Z</time></trkpt><trkpt lat="49.20074119040006" lon="2.5917396411638944"><ele>54.0</ele><time>2026-03-22T15:00:13.997Z</time></trkpt><trkpt lat="49.20083902302472" lon="2.5916811208093558"><ele>53.6</ele><time>2026-03-22T15:00:15.997Z</time></trkpt><trkpt lat="49.20092760976031" lon="2.5916315483339085"><ele>53.2</ele><time>2026-03-22T15:00:17.997Z</time></trkpt><trkpt lat="49.20101672416251" lon="2.5915763835532424"><ele>52.800000000000004</ele><time>2026-03-22T15:00:19.997Z</time></trkpt><trkpt lat="49.20110351293975" lon="2.591520564713859"><ele>52.400000000000006</ele><time>2026-03-22T15:00:21.997Z</time></trkpt><trkpt lat="49.20117728283482" lon="2.5914184778227174"><ele>52.0</ele><time>2026-03-22T15:00:23.997Z</time></trkpt><trkpt lat="49.20127538497606" lon="2.591397046466761"><ele>52.0</ele><time>2026-03-22T15:00:25.997Z</time></trkpt><trkpt lat="49.201370995706945" lon="2.5914847954569185"><ele>52.0</ele><time>2026-03-22T15:00:27.997Z</time></trkpt><trkpt lat="49.20142294312054" lon="2.5916382597241117"><ele>52.0</ele><time>2026-03-22T15:00:29.997Z</time></trkpt><trkpt lat="49.20144399984231" lon="2.591815203922782"><ele>52.0</ele><time>2026-03-22T15:00:32Z</time></trkpt><trkpt lat="49.20148045169093" lon="2.5919868325350417"><ele>52.25</ele><time>2026-03-22T15:00:34Z</time></trkpt><trkpt lat="49.20155392933004" lon="2.592128253943045"><ele>52.5</ele><time>2026-03-22T15:00:36Z</time></trkpt><trkpt lat="49.201663164863504" lon="2.5922000179286635"><ele>52.75</ele><time>2026-03-22T15:00:38Z</time></trkpt><trkpt lat="49.20177275250582" lon="2.5922340481403716"><ele>53.0</ele><time>2026-03-22T15:00:40Z</time></trkpt><trkpt lat="49.201880730585124" lon="2.592255111939024"><ele>53.00000000000001</ele><time>2026-03-22T15:00:42Z</time></trkpt><trkpt lat="49.20198215445122" lon="2.59226319608184"><ele>53.0</ele><time>2026-03-22T15:00:44Z</time></trkpt><trkpt lat="49.20206848165013" lon="2.59227621798765"><ele>53.0</ele><time>2026-03-22T15:00:46Z</time></trkpt><trkpt lat="49.20213708179387" lon="2.592271961917806"><ele>53.0</ele><time>2026-03-22T15:00:48Z</time></trkpt><trkpt lat="49.202211900591834" lon="2.592288045254409"><ele>53.00000000000001</ele><time>2026-03-22T15:00:51Z</time></trkpt><trkpt lat="49.202289975938925" lon="2.592292239228662"><ele>53.0</ele><time>2026-03-22T15:01:06Z</time></trkpt><trkpt lat="49.20236931450799" lon="2.5922618025566275"><ele>53.66666666666667</ele><time>2026-03-22T15:06:52Z</time></trkpt><trkpt lat="49.202461757090305" lon="2.5922597481866756"><ele>54.333333333333336</ele><time>2026-03-22T15:06:55Z</time></trkpt><trkpt lat="49.202524854817376" lon="2.592272209935136"><ele>55.0</ele><time>2026-03-22T15:06:57Z</time></trkpt><trkpt lat="49.20261841005157" lon="2.592273529097327"><ele>55.66666666666667</ele><time>2026-03-22T15:07:00Z</time></trkpt><trkpt lat="49.202682326548086" lon="2.592221660428777"><ele>56.333333333333336</ele><time>2026-03-22T15:07:03Z</time></trkpt><trkpt lat="49.202748435302944" lon="2.592171629392223"><ele>57.0</ele><time>2026-03-22T15:07:06Z</time></trkpt><trkpt lat="49.20281552507662" lon="2.5921067412503467"><ele>57.0</ele><time>2026-03-22T15:07:09Z</time></trkpt><trkpt lat="49.20287793512537" lon="2.592048381122101"><ele>57.0</ele><time>2026-03-22T15:07:12Z</time></trkpt><trkpt lat="49.2029461236711" lon="2.591977938318787"><ele>57.0</ele><time>2026-03-22T15:07:15Z</time></trkpt><trkpt lat="49.2030068681996" lon="2.591914100305708"><ele>57.0</ele><time>2026-03-22T15:07:18Z</time></trkpt><trkpt lat="49.20307852244772" lon="2.59186359514179"><ele>57.0</ele><time>2026-03-22T15:07:21Z</time></trkpt><trkpt lat="49.20315093796145" lon="2.5918038030879074"><ele>57.0</ele><time>2026-03-22T15:07:24Z</time></trkpt><trkpt lat="49.20322545439536" lon="2.59174918954088"><ele>57.333333333333336</ele><time>2026-03-22T15:07:27Z</time></trkpt><trkpt lat="49.203303855047835" lon="2.5917227171010295"><ele>57.66666666666667</ele><time>2026-03-22T15:07:29.999Z</time></trkpt><trkpt lat="49.20338725120143" lon="2.5916748916430508"><ele>58.0</ele><time>2026-03-22T15:07:32.999Z</time></trkpt><trkpt lat="49.20346459801896" lon="2.5916189128837255"><ele>58.333333333333336</ele><time>2026-03-22T15:07:35.999Z</time></trkpt><trkpt lat="49.20354760248372" lon="2.591594334312803"><ele>58.66666666666667</ele><time>2026-03-22T15:07:38.999Z</time></trkpt><trkpt lat="49.20362363375216" lon="2.5915621754204823"><ele>59.0</ele><time>2026-03-22T15:07:41.999Z</time></trkpt><trkpt lat="49.20370259430756" lon="2.591534424074785"><ele>59.00000000000001</ele><time>2026-03-22T15:07:44.999Z</time></trkpt><trkpt lat="49.203779421075794" lon="2.5915256769255177"><ele>59.0</ele><time>2026-03-22T15:07:47.999Z</time></trkpt><trkpt lat="49.203862671431786" lon="2.5915082556685762"><ele>59.0</ele><time>2026-03-22T15:07:50.999Z</time></trkpt><trkpt lat="49.203948553851475" lon="2.591472299329213"><ele>59.0</ele><time>2026-03-22T15:07:53.999Z</time></trkpt><trkpt lat="49.20403992698846" lon="2.591471534814539"><ele>59.00000000000001</ele><time>2026-03-22T15:07:56.999Z</time></trkpt><trkpt lat="49.20412693426356" lon="2.5914770213290854"><ele>59.0</ele><time>2026-03-22T15:07:59.998Z</time></trkpt><trkpt lat="49.20421585435146" lon="2.5914983830226537"><ele>59.50000000000001</ele><time>2026-03-22T15:08:02.998Z</time></trkpt><trkpt lat="49.20427983721435" lon="2.5915096212948785"><ele>60.0</ele><time>2026-03-22T15:08:04.998Z</time></trkpt><trkpt lat="49.204369690516536" lon="2.5915039048984005"><ele>60.5</ele><time>2026-03-22T15:08:07.998Z</time></trkpt><trkpt lat="49.20445939223617" lon="2.591500944869388"><ele>61.0</ele><time>2026-03-22T15:08:10.998Z</time></trkpt><trkpt lat="49.20454780339414" lon="2.5915022094715323"><ele>61.50000000000001</ele><time>2026-03-22T15:08:13.998Z</time></trkpt><trkpt lat="49.2046131314767" lon="2.5915093427683367"><ele>62.0</ele><time>2026-03-22T15:08:15.998Z</time></trkpt><trkpt lat="49.20467808756435" lon="2.591512447920384"><ele>62.0</ele><time>2026-03-22T15:08:17.998Z</time></trkpt><trkpt lat="49.204737292205145" lon="2.5915602388303154"><ele>62.00000000000001</ele><time>2026-03-22T15:08:19.998Z</time></trkpt><trkpt lat="49.204754943229815" lon="2.5916728733386543"><ele>62.0</ele><time>2026-03-22T15:08:21.998Z</time></trkpt><trkpt lat="49.204732774377675" lon="2.591784350401981"><ele>62.0</ele><time>2026-03-22T15:08:23.998Z</time></trkpt><trkpt lat="49.20471733833173" lon="2.5919053416048"><ele>62.00000000000001</ele><time>2026-03-22T15:08:25.998Z</time></trkpt><trkpt lat="49.20473596767402" lon="2.592026443118851"><ele>62.0</ele><time>2026-03-22T15:08:27.998Z</time></trkpt><trkpt lat="49.20472760787573" lon="2.5921251365603952"><ele>62.0</ele><time>2026-03-22T15:08:29.998Z</time></trkpt><trkpt lat="49.2047013238212" lon="2.5922300967279597"><ele>62.00000000000001</ele><time>2026-03-22T15:08:31.997Z</time></trkpt><trkpt lat="49.20477735681703" lon="2.592295064333089"><ele>62.0</ele><time>2026-03-22T15:08:33.997Z</time></trkpt><trkpt lat="49.20484944988743" lon="2.592300034493174"><ele>62.0</ele><time>2026-03-22T15:08:35.997Z</time></trkpt><trkpt lat="49.20491467116245" lon="2.5922879844187636"><ele>62.0</ele><time>2026-03-22T15:08:37.997Z</time></trkpt><trkpt lat="49.205002964622274" lon="2.59228909863983"><ele>62.00000000000001</ele><time>2026-03-22T15:08:40.997Z</time></trkpt><trkpt lat="49.20509210500552" lon="2.5922877778381457"><ele>62.0</ele><time>2026-03-22T15:08:43.997Z</time></trkpt><trkpt lat="49.20517792674771" lon="2.5922734135284657"><ele>62.833333333333336</ele><time>2026-03-22T15:08:46.997Z</time></trkpt><trkpt lat="49.20525588473588" lon="2.59227415801791"><ele>63.66666666666667</ele><time>2026-03-22T15:08:49.997Z</time></trkpt><trkpt lat="49.2053423660969" lon="2.5922659715848466"><ele>64.5</ele><time>2026-03-22T15:08:53Z</time></trkpt><trkpt lat="49.20542958577574" lon="2.592255014312815"><ele>65.33333333333333</ele><time>2026-03-22T15:08:56Z</time></trkpt><trkpt lat="49.20551132006422" lon="2.592253515986274"><ele>66.16666666666666</ele><time>2026-03-22T15:08:59Z</time></trkpt><trkpt lat="49.20557878224813" lon="2.592194942036802"><ele>67.0</ele><time>2026-03-22T15:09:02Z</time></trkpt><trkpt lat="49.2056597924673" lon="2.5921789739352503"><ele>67.33333333333333</ele><time>2026-03-22T15:09:05Z</time></trkpt><trkpt lat="49.205742597595055" lon="2.592167964822686"><ele>67.66666666666666</ele><time>2026-03-22T15:09:08Z</time></trkpt><trkpt lat="49.20582336669582" lon="2.5921508193772373"><ele>68.0</ele><time>2026-03-22T15:09:11Z</time></trkpt><trkpt lat="49.20586409030859" lon="2.5920644773513373"><ele>68.33333333333333</ele><time>2026-03-22T15:09:14Z</time></trkpt><trkpt lat="49.20592351382964" lon="2.591977490134287"><ele>68.66666666666667</ele><time>2026-03-22T15:09:17Z</time></trkpt><trkpt lat="49.20598513980366" lon="2.5919116332589818"><ele>69.0</ele><time>2026-03-22T15:09:20Z</time></trkpt><trkpt lat="49.20603253721146" lon="2.591822222124494"><ele>69.16666666666667</ele><time>2026-03-22T15:09:24Z</time></trkpt><trkpt lat="49.20606843669992" lon="2.5917417508162313"><ele>69.33333333333333</ele><time>2026-03-22T15:09:28Z</time></trkpt><trkpt lat="49.206153756784154" lon="2.591623541276266"><ele>69.5</ele><time>2026-03-22T15:15:09Z</time></trkpt><trkpt lat="49.20617912566033" lon="2.591517470602282"><ele>69.66666666666666</ele><time>2026-03-22T15:15:12Z</time></trkpt><trkpt lat="49.20616540843737" lon="2.5914013279962917"><ele>69.83333333333333</ele><time>2026-03-22T15:15:15Z</time></trkpt><trkpt lat="49.206159608508585" lon="2.591278403493578"><ele>70.0</ele><time>2026-03-22T15:15:18Z</time></trkpt><trkpt lat="49.20616135340073" lon="2.5911664679254605"><ele>70.0</ele><time>2026-03-22T15:15:21Z</time></trkpt><trkpt lat="49.20614816010328" lon="2.5910350657105927"><ele>70.0</ele><time>2026-03-22T15:15:24Z</time></trkpt><trkpt lat="49.20614954618668" lon="2.590901632903791"><ele>70.0</ele><time>2026-03-22T15:15:27Z</time></trkpt><trkpt lat="49.20618709333295" lon="2.5907870715016372"><ele>70.0</ele><time>2026-03-22T15:15:30Z</time></trkpt><trkpt lat="49.20618068014894" lon="2.5906399054048728"><ele>70.0</ele><time>2026-03-22T15:15:33Z</time></trkpt><trkpt lat="49.206204251414874" lon="2.5905346665120588"><ele>70.0</ele><time>2026-03-22T15:15:36Z</time></trkpt><trkpt lat="49.20628244865288" lon="2.590505155343431"><ele>70.0</ele><time>2026-03-22T15:15:38Z</time></trkpt><trkpt lat="49.20636795618823" lon="2.5905067515119815"><ele>70.0</ele><time>2026-03-22T15:15:41Z</time></trkpt><trkpt lat="49.2064189637172" lon="2.590434625533158"><ele>70.0</ele><time>2026-03-22T15:15:43Z</time></trkpt><trkpt lat="49.20645984776672" lon="2.590349198576456"><ele>70.0</ele><time>2026-03-22T15:15:45Z</time></trkpt><trkpt lat="49.2065098823341" lon="2.5902351557102463"><ele>70.0</ele><time>2026-03-22T15:15:47.999Z</time></trkpt><trkpt lat="49.20658859787248" lon="2.590150847384627"><ele>70.0</ele><time>2026-03-22T15:15:50.999Z</time></trkpt><trkpt lat="49.20663143914863" lon="2.5900760159992102"><ele>70.5</ele><time>2026-03-22T15:15:52.999Z</time></trkpt><trkpt lat="49.20667219234007" lon="2.5900007375855942"><ele>71.0</ele><time>2026-03-22T15:15:54.999Z</time></trkpt><trkpt lat="49.20672615080609" lon="2.5898900668968783"><ele>71.5</ele><time>2026-03-22T15:15:57.999Z</time></trkpt><trkpt lat="49.20679534891936" lon="2.589927274634751"><ele>72.0</ele><time>2026-03-22T15:16:00.999Z</time></trkpt><trkpt lat="49.20687023061766" lon="2.5899784824367127"><ele>72.5</ele><time>2026-03-22T15:16:03.999Z</time></trkpt><trkpt lat="49.20695345739994" lon="2.590029184071983"><ele>73.0</ele><time>2026-03-22T15:16:06.999Z</time></trkpt><trkpt lat="49.20701738761182" lon="2.590037456723772"><ele>73.0</ele><time>2026-03-22T15:16:08.999Z</time></trkpt><trkpt lat="49.2070828267129" lon="2.5900566045808504"><ele>73.0</ele><time>2026-03-22T15:16:10.999Z</time></trkpt><trkpt lat="49.207170368184336" lon="2.5901149070466296"><ele>73.0</ele><time>2026-03-22T15:16:13.999Z</time></trkpt><trkpt lat="49.207237671397394" lon="2.5900948739244334"><ele>73.0</ele><time>2026-03-22T15:16:15.999Z</time></trkpt><trkpt lat="49.20732521525346" lon="2.5900885200892776"><ele>73.0</ele><time>2026-03-22T15:16:18.999Z</time></trkpt><trkpt lat="49.20729508763022" lon="2.59000391368093"><ele>73.0</ele><time>2026-03-22T15:16:22.998Z</time></trkpt><trkpt lat="49.207230761186324" lon="2.5899582973765356"><ele>73.0</ele><time>2026-03-22T15:16:25.998Z</time></trkpt><trkpt lat="49.20730635182379" lon="2.5899449951840463"><ele>73.0</ele><time>2026-03-22T15:16:45.998Z</time></trkpt><trkpt lat="49.207380777468956" lon="2.5898433475836096"><ele>73.0</ele><time>2026-03-22T15:16:50.998Z</time></trkpt><trkpt lat="49.20748523988061" lon="2.5898151142356727"><ele>73.0</ele><time>2026-03-22T15:17:03.997Z</time></trkpt><trkpt lat="49.207559951637755" lon="2.5897480803900295"><ele>73.0</ele><time>2026-03-22T15:17:04.997Z</time></trkpt><trkpt lat="49.20765996097411" lon="2.5896961358852115"><ele>73.25</ele><time>2026-03-22T15:17:07.997Z</time></trkpt><trkpt lat="49.20766042206868" lon="2.5895962677576003"><ele>73.5</ele><time>2026-03-22T15:17:08.997Z</time></trkpt><trkpt lat="49.207710330279575" lon="2.5894548907353934"><ele>73.75</ele><time>2026-03-22T15:17:10.997Z</time></trkpt><trkpt lat="49.20770290362116" lon="2.5893576543819026"><ele>74.0</ele><time>2026-03-22T15:17:15Z</time></trkpt><trkpt lat="49.20793281716844" lon="2.588121746820217"><ele>76.0</ele><time>2026-03-22T15:17:17Z</time></trkpt><trkpt lat="49.20773239148262" lon="2.5889618850163707"><ele>76.0</ele><time>2026-03-22T15:17:20Z</time></trkpt><trkpt lat="49.20778830303398" lon="2.5886008631105852"><ele>76.0</ele><time>2026-03-22T15:17:21Z</time></trkpt><trkpt lat="49.207826139564176" lon="2.5883444878114608"><ele>76.0</ele><time>2026-03-22T15:17:22Z</time></trkpt><trkpt lat="49.20778175595575" lon="2.5886955224915127"><ele>74.0</ele><time>2026-03-22T15:17:25Z</time></trkpt><trkpt lat="49.2073365064657" lon="2.5899013322584787"><ele>73.85714285714286</ele><time>2026-03-22T15:17:36.029Z</time></trkpt><trkpt lat="49.207309844668636" lon="2.5898104036176637"><ele>73.71428571428571</ele><time>2026-03-22T15:17:52.066Z</time></trkpt><trkpt lat="49.207274444180115" lon="2.589895430167996"><ele>73.57142857142857</ele><time>2026-03-22T15:18:02.02Z</time></trkpt><trkpt lat="49.207225958974725" lon="2.5899806348082097"><ele>73.42857142857143</ele><time>2026-03-22T15:19:38.02Z</time></trkpt><trkpt lat="49.20716113632725" lon="2.590007680891344"><ele>73.28571428571429</ele><time>2026-03-22T15:19:45.018Z</time></trkpt><trkpt lat="49.20721201411423" lon="2.5900668459930944"><ele>73.14285714285714</ele><time>2026-03-22T15:19:49.015Z</time></trkpt><trkpt lat="49.20726778268813" lon="2.5901298939241633"><ele>73.0</ele><time>2026-03-22T15:19:51.015Z</time></trkpt><trkpt lat="49.20722783274223" lon="2.5902199022922456"><ele>73.0</ele><time>2026-03-22T15:19:55.014Z</time></trkpt><trkpt lat="49.207162942561226" lon="2.5902305538230013"><ele>73.0</ele><time>2026-03-22T15:20:01.013Z</time></trkpt><trkpt lat="49.2070915244468" lon="2.5901986059970334"><ele>73.0</ele><time>2026-03-22T15:20:05.013Z</time></trkpt><trkpt lat="49.207027214160476" lon="2.59018645291506"><ele>73.0</ele><time>2026-03-22T15:20:10.019Z</time></trkpt><trkpt lat="49.20712489591902" lon="2.5900708415180698"><ele>73.0</ele><time>2026-03-22T15:20:11.018Z</time></trkpt><trkpt lat="49.207111026088924" lon="2.589966456107615"><ele>73.0</ele><time>2026-03-22T15:20:29.019Z</time></trkpt><trkpt lat="49.20710147602387" lon="2.5898669785626907"><ele>73.0</ele><time>2026-03-22T15:24:33.997Z</time></trkpt><trkpt lat="49.20706756455551" lon="2.5897807443035927"><ele>73.0</ele><time>2026-03-22T15:24:35.997Z</time></trkpt><trkpt lat="49.20698453904108" lon="2.589738912542796"><ele>73.0</ele><time>2026-03-22T15:24:38.997Z</time></trkpt><trkpt lat="49.2069226953332" lon="2.589664981103665"><ele>73.0</ele><time>2026-03-22T15:24:41.997Z</time></trkpt><trkpt lat="49.2068769783053" lon="2.5895842647350027"><ele>73.0</ele><time>2026-03-22T15:24:43.997Z</time></trkpt><trkpt lat="49.206808872364476" lon="2.5895389924861694"><ele>73.0</ele><time>2026-03-22T15:24:45.997Z</time></trkpt><trkpt lat="49.206739628480705" lon="2.5895034277346936"><ele>73.0</ele><time>2026-03-22T15:24:47.997Z</time></trkpt><trkpt lat="49.20665142224087" lon="2.5895028210509725"><ele>73.0</ele><time>2026-03-22T15:24:51Z</time></trkpt><trkpt lat="49.20659845121763" lon="2.589441156918737"><ele>73.0</ele><time>2026-03-22T15:24:54Z</time></trkpt><trkpt lat="49.20658006532473" lon="2.5893404717711452"><ele>73.0</ele><time>2026-03-22T15:24:56Z</time></trkpt><trkpt lat="49.206501266821085" lon="2.589283317270906"><ele>73.0</ele><time>2026-03-22T15:24:58Z</time></trkpt><trkpt lat="49.20643532409728" lon="2.589188340799148"><ele>73.0</ele><time>2026-03-22T15:25:00Z</time></trkpt><trkpt lat="49.20639735093557" lon="2.58906125984966"><ele>73.0</ele><time>2026-03-22T15:25:02Z</time></trkpt><trkpt lat="49.20635391019675" lon="2.5889535751132073"><ele>72.66666666666666</ele><time>2026-03-22T15:25:04Z</time></trkpt><trkpt lat="49.20631282435893" lon="2.588843026336208"><ele>72.33333333333333</ele><time>2026-03-22T15:25:06Z</time></trkpt><trkpt lat="49.20627261223818" lon="2.5887401284635034"><ele>72.0</ele><time>2026-03-22T15:25:08Z</time></trkpt><trkpt lat="49.20623284250249" lon="2.58863689986843"><ele>71.66666666666667</ele><time>2026-03-22T15:25:10Z</time></trkpt><trkpt lat="49.206199033572844" lon="2.5885335246522763"><ele>71.33333333333334</ele><time>2026-03-22T15:25:12Z</time></trkpt><trkpt lat="49.20617675602614" lon="2.5884197048121003"><ele>71.0</ele><time>2026-03-22T15:25:14Z</time></trkpt><trkpt lat="49.206172564569584" lon="2.588298581605006"><ele>71.0</ele><time>2026-03-22T15:25:16Z</time></trkpt><trkpt lat="49.20617433942882" lon="2.5881868218386908"><ele>71.0</ele><time>2026-03-22T15:25:18Z</time></trkpt><trkpt lat="49.206179434678" lon="2.588067588835033"><ele>71.0</ele><time>2026-03-22T15:25:20Z</time></trkpt><trkpt lat="49.20617954041427" lon="2.587965821996993"><ele>71.0</ele><time>2026-03-22T15:25:22Z</time></trkpt><trkpt lat="49.20618252719895" lon="2.5878597354096358"><ele>71.0</ele><time>2026-03-22T15:25:24Z</time></trkpt><trkpt lat="49.20618210370533" lon="2.587755373613383"><ele>71.0</ele><time>2026-03-22T15:25:26Z</time></trkpt><trkpt lat="49.20618232349185" lon="2.587655350005083"><ele>71.0</ele><time>2026-03-22T15:25:27.999Z</time></trkpt><trkpt lat="49.20617508609997" lon="2.5875524817819286"><ele>71.16666666666667</ele><time>2026-03-22T15:25:29.999Z</time></trkpt><trkpt lat="49.20610918998727" lon="2.5874889925879856"><ele>71.33333333333334</ele><time>2026-03-22T15:25:31.999Z</time></trkpt><trkpt lat="49.20606854854237" lon="2.5873849678894993"><ele>71.5</ele><time>2026-03-22T15:25:33.999Z</time></trkpt><trkpt lat="49.206019617411634" lon="2.58727322218946"><ele>71.66666666666667</ele><time>2026-03-22T15:25:36.999Z</time></trkpt><trkpt lat="49.20594783255275" lon="2.5872647086818716"><ele>71.83333333333333</ele><time>2026-03-22T15:25:41.999Z</time></trkpt><trkpt lat="49.205920560973695" lon="2.587385925435364"><ele>72.0</ele><time>2026-03-22T15:25:43.999Z</time></trkpt><trkpt lat="49.20587687579185" lon="2.5874713990219838"><ele>72.0</ele><time>2026-03-22T15:25:45.999Z</time></trkpt><trkpt lat="49.20583063396945" lon="2.5875683385160744"><ele>72.0</ele><time>2026-03-22T15:25:47.999Z</time></trkpt><trkpt lat="49.20576363118225" lon="2.58761911796604"><ele>72.0</ele><time>2026-03-22T15:25:50.999Z</time></trkpt><trkpt lat="49.20571349766781" lon="2.587529855614801"><ele>72.0</ele><time>2026-03-22T15:25:53.999Z</time></trkpt><trkpt lat="49.20567995310191" lon="2.587399197246376"><ele>72.0</ele><time>2026-03-22T15:25:56.999Z</time></trkpt><trkpt lat="49.205635332078984" lon="2.5873154324666503"><ele>72.0</ele><time>2026-03-22T15:25:58.999Z</time></trkpt><trkpt lat="49.20559877985825" lon="2.5872177978415625"><ele>71.5</ele><time>2026-03-22T15:26:00.998Z</time></trkpt><trkpt lat="49.205561827331074" lon="2.587110999344681"><ele>71.0</ele><time>2026-03-22T15:26:02.998Z</time></trkpt><trkpt lat="49.20552106289397" lon="2.587006619735939"><ele>70.5</ele><time>2026-03-22T15:26:04.998Z</time></trkpt><trkpt lat="49.2054812537281" lon="2.586891242379022"><ele>70.0</ele><time>2026-03-22T15:26:06.998Z</time></trkpt><trkpt lat="49.205436430385944" lon="2.5867819845737166"><ele>69.5</ele><time>2026-03-22T15:26:08.998Z</time></trkpt><trkpt lat="49.2053931640733" lon="2.586666430066585"><ele>69.0</ele><time>2026-03-22T15:26:10.998Z</time></trkpt><trkpt lat="49.20534387737863" lon="2.5865620631785373"><ele>69.0</ele><time>2026-03-22T15:26:12.998Z</time></trkpt><trkpt lat="49.205303645044225" lon="2.5864674075455136"><ele>69.0</ele><time>2026-03-22T15:26:14.998Z</time></trkpt><trkpt lat="49.205274343598106" lon="2.586373823082296"><ele>69.0</ele><time>2026-03-22T15:26:16.998Z</time></trkpt><trkpt lat="49.20522234640669" lon="2.586276836512298"><ele>69.0</ele><time>2026-03-22T15:26:18.998Z</time></trkpt><trkpt lat="49.20517976148398" lon="2.5861463493956856"><ele>69.0</ele><time>2026-03-22T15:26:20.998Z</time></trkpt><trkpt lat="49.20513598116477" lon="2.58602400226708"><ele>69.0</ele><time>2026-03-22T15:26:22.998Z</time></trkpt><trkpt lat="49.20509966982393" lon="2.585896349197947"><ele>69.2</ele><time>2026-03-22T15:26:24.998Z</time></trkpt><trkpt lat="49.20506113973615" lon="2.5857685252713676"><ele>69.4</ele><time>2026-03-22T15:26:26.998Z</time></trkpt><trkpt lat="49.20505427565312" lon="2.585608275822681"><ele>69.6</ele><time>2026-03-22T15:26:28.998Z</time></trkpt><trkpt lat="49.20505147127378" lon="2.5854790285171534"><ele>69.8</ele><time>2026-03-22T15:26:30.998Z</time></trkpt><trkpt lat="49.20503958873802" lon="2.5853316699447833"><ele>70.0</ele><time>2026-03-22T15:26:32.997Z</time></trkpt><trkpt lat="49.20503514248181" lon="2.585199975986012"><ele>70.33333333333333</ele><time>2026-03-22T15:26:34.997Z</time></trkpt><trkpt lat="49.205040503025124" lon="2.585068832861654"><ele>70.66666666666666</ele><time>2026-03-22T15:26:36.997Z</time></trkpt><trkpt lat="49.20505384231768" lon="2.584951870230847"><ele>71.0</ele><time>2026-03-22T15:26:38.997Z</time></trkpt><trkpt lat="49.205060974535215" lon="2.5848249371490706"><ele>71.33333333333333</ele><time>2026-03-22T15:26:40.997Z</time></trkpt><trkpt lat="49.20506734674512" lon="2.5847122574141017"><ele>71.66666666666667</ele><time>2026-03-22T15:26:42.997Z</time></trkpt><trkpt lat="49.20507505199573" lon="2.584602594856321"><ele>72.0</ele><time>2026-03-22T15:26:44.997Z</time></trkpt><trkpt lat="49.20508811320838" lon="2.5844771478030966"><ele>72.16666666666667</ele><time>2026-03-22T15:26:46.997Z</time></trkpt><trkpt lat="49.20511555235431" lon="2.584352441748111"><ele>72.33333333333333</ele><time>2026-03-22T15:26:48.997Z</time></trkpt><trkpt lat="49.2051427660471" lon="2.5842378522562495"><ele>72.5</ele><time>2026-03-22T15:26:50.997Z</time></trkpt><trkpt lat="49.20516792388782" lon="2.584124776245521"><ele>72.66666666666666</ele><time>2026-03-22T15:26:52.997Z</time></trkpt><trkpt lat="49.205189864108696" lon="2.5840077763369576"><ele>72.83333333333333</ele><time>2026-03-22T15:26:54.997Z</time></trkpt><trkpt lat="49.205217628924714" lon="2.583891066107294"><ele>73.0</ele><time>2026-03-22T15:26:57Z</time></trkpt><trkpt lat="49.20524122884211" lon="2.583771683891135"><ele>73.0</ele><time>2026-03-22T15:26:59Z</time></trkpt><trkpt lat="49.20518049024362" lon="2.5837290130809993"><ele>73.0</ele><time>2026-03-22T15:27:01Z</time></trkpt><trkpt lat="49.20506997834511" lon="2.5836861811181326"><ele>73.0</ele><time>2026-03-22T15:27:03Z</time></trkpt><trkpt lat="49.20501227969478" lon="2.5836445628541034"><ele>73.0</ele><time>2026-03-22T15:27:04Z</time></trkpt><trkpt lat="49.2049515400569" lon="2.5836181606522164"><ele>73.0</ele><time>2026-03-22T15:27:05Z</time></trkpt><trkpt lat="49.20488895412267" lon="2.5835739024188147"><ele>73.0</ele><time>2026-03-22T15:27:06Z</time></trkpt><trkpt lat="49.20481764934831" lon="2.583533217772412"><ele>71.16666666666666</ele><time>2026-03-22T15:27:07Z</time></trkpt><trkpt lat="49.204745986280415" lon="2.583473279621727"><ele>69.33333333333333</ele><time>2026-03-22T15:27:08Z</time></trkpt><trkpt lat="49.2046762657603" lon="2.583426297082072"><ele>67.5</ele><time>2026-03-22T15:27:09Z</time></trkpt><trkpt lat="49.20459716254665" lon="2.5833679723002163"><ele>65.66666666666667</ele><time>2026-03-22T15:27:10Z</time></trkpt><trkpt lat="49.20452015482957" lon="2.5833072113857645"><ele>63.833333333333336</ele><time>2026-03-22T15:27:11Z</time></trkpt><trkpt lat="49.204446013127374" lon="2.5832279633042474"><ele>62.0</ele><time>2026-03-22T15:27:12Z</time></trkpt><trkpt lat="49.204365586995436" lon="2.5831591059155934"><ele>62.0</ele><time>2026-03-22T15:27:13Z</time></trkpt><trkpt lat="49.20428037731878" lon="2.5830909072794244"><ele>62.0</ele><time>2026-03-22T15:27:14Z</time></trkpt><trkpt lat="49.20418109746252" lon="2.583010653606898"><ele>62.0</ele><time>2026-03-22T15:27:15Z</time></trkpt><trkpt lat="49.20409402820658" lon="2.582955561564715"><ele>62.0</ele><time>2026-03-22T15:27:16Z</time></trkpt><trkpt lat="49.20400122328276" lon="2.58288440175123"><ele>62.0</ele><time>2026-03-22T15:27:17Z</time></trkpt><trkpt lat="49.20390838175237" lon="2.582803202333169"><ele>60.5</ele><time>2026-03-22T15:27:18Z</time></trkpt><trkpt lat="49.20380670954942" lon="2.5827283965395025"><ele>59.0</ele><time>2026-03-22T15:27:19Z</time></trkpt><trkpt lat="49.20370093407824" lon="2.5826540822267177"><ele>57.5</ele><time>2026-03-22T15:27:20Z</time></trkpt><trkpt lat="49.20360222202652" lon="2.582576215025522"><ele>56.0</ele><time>2026-03-22T15:27:21Z</time></trkpt><trkpt lat="49.20348759520844" lon="2.58250017648784"><ele>56.0</ele><time>2026-03-22T15:27:22Z</time></trkpt><trkpt lat="49.203385591141135" lon="2.582443029430298"><ele>55.99999999999999</ele><time>2026-03-22T15:27:23Z</time></trkpt><trkpt lat="49.203292333527735" lon="2.5823759496822984"><ele>55.99999999999999</ele><time>2026-03-22T15:27:24Z</time></trkpt><trkpt lat="49.20320901233707" lon="2.582277071387331"><ele>56.0</ele><time>2026-03-22T15:27:25Z</time></trkpt><trkpt lat="49.203098495084824" lon="2.5822344983366485"><ele>56.0</ele><time>2026-03-22T15:27:26Z</time></trkpt><trkpt lat="49.203011887298935" lon="2.5821482283353983"><ele>55.50000000000001</ele><time>2026-03-22T15:27:27Z</time></trkpt><trkpt lat="49.20292206373033" lon="2.5820869968855376"><ele>55.0</ele><time>2026-03-22T15:27:28Z</time></trkpt><trkpt lat="49.202848100396395" lon="2.582030262855957"><ele>54.5</ele><time>2026-03-22T15:27:29Z</time></trkpt><trkpt lat="49.202776328104676" lon="2.5819765293269534"><ele>54.0</ele><time>2026-03-22T15:27:30Z</time></trkpt><trkpt lat="49.202702639557735" lon="2.5819322946863545"><ele>53.50000000000001</ele><time>2026-03-22T15:27:31Z</time></trkpt><trkpt lat="49.20263302218774" lon="2.581883669012026"><ele>53.0</ele><time>2026-03-22T15:27:32Z</time></trkpt><trkpt lat="49.20256448792692" lon="2.5818368367312794"><ele>53.0</ele><time>2026-03-22T15:27:32.999Z</time></trkpt><trkpt lat="49.20250529402312" lon="2.581770545721079"><ele>53.0</ele><time>2026-03-22T15:27:33.999Z</time></trkpt><trkpt lat="49.202434596869516" lon="2.581747605830889"><ele>53.0</ele><time>2026-03-22T15:27:34.999Z</time></trkpt><trkpt lat="49.20237364125929" lon="2.5816976106140626"><ele>53.0</ele><time>2026-03-22T15:27:35.999Z</time></trkpt><trkpt lat="49.20231342086299" lon="2.5816519070115502"><ele>53.0</ele><time>2026-03-22T15:27:36.999Z</time></trkpt><trkpt lat="49.20225585844082" lon="2.581604859369528"><ele>53.0</ele><time>2026-03-22T15:27:37.999Z</time></trkpt><trkpt lat="49.202207753556166" lon="2.581538015977963"><ele>53.0</ele><time>2026-03-22T15:27:38.999Z</time></trkpt><trkpt lat="49.20214830606595" lon="2.5814948801633153"><ele>53.4</ele><time>2026-03-22T15:27:39.999Z</time></trkpt><trkpt lat="49.202085692412304" lon="2.5814783131293826"><ele>53.8</ele><time>2026-03-22T15:27:40.999Z</time></trkpt><trkpt lat="49.201976976953766" lon="2.5814154506645965"><ele>54.2</ele><time>2026-03-22T15:27:42.999Z</time></trkpt><trkpt lat="49.20187199410334" lon="2.5813591311937008"><ele>54.6</ele><time>2026-03-22T15:27:44.999Z</time></trkpt><trkpt lat="49.20177752547407" lon="2.5813009924144166"><ele>55.0</ele><time>2026-03-22T15:27:46.999Z</time></trkpt><trkpt lat="49.201691692739324" lon="2.5812455829636463"><ele>55.0</ele><time>2026-03-22T15:27:48.999Z</time></trkpt><trkpt lat="49.20160248982837" lon="2.5811954005484425"><ele>55.0</ele><time>2026-03-22T15:27:50.999Z</time></trkpt><trkpt lat="49.20151988594599" lon="2.5811430795467643"><ele>55.0</ele><time>2026-03-22T15:27:52.999Z</time></trkpt><trkpt lat="49.20143748535193" lon="2.5810907609743894"><ele>55.0</ele><time>2026-03-22T15:27:54.999Z</time></trkpt><trkpt lat="49.201356367005495" lon="2.5810403488376643"><ele>55.0</ele><time>2026-03-22T15:27:56.999Z</time></trkpt><trkpt lat="49.20127248958948" lon="2.580996300374839"><ele>56.0</ele><time>2026-03-22T15:27:58.999Z</time></trkpt><trkpt lat="49.201188963488605" lon="2.5809477130485754"><ele>57.0</ele><time>2026-03-22T15:28:00.999Z</time></trkpt><trkpt lat="49.20110813496375" lon="2.580887245432792"><ele>58.0</ele><time>2026-03-22T15:28:02.999Z</time></trkpt><trkpt lat="49.201026408370346" lon="2.5808341242838746"><ele>59.0</ele><time>2026-03-22T15:28:04.998Z</time></trkpt><trkpt lat="49.20094250994245" lon="2.580782341792119"><ele>60.0</ele><time>2026-03-22T15:28:06.998Z</time></trkpt><trkpt lat="49.200855380617924" lon="2.580732386903026"><ele>60.0</ele><time>2026-03-22T15:28:08.998Z</time></trkpt><trkpt lat="49.20076851905539" lon="2.580687115084244"><ele>60.0</ele><time>2026-03-22T15:28:10.998Z</time></trkpt><trkpt lat="49.20068517166155" lon="2.58061693166127"><ele>60.0</ele><time>2026-03-22T15:28:12.998Z</time></trkpt><trkpt lat="49.20060559614542" lon="2.5805202322404313"><ele>60.0</ele><time>2026-03-22T15:28:14.998Z</time></trkpt><trkpt lat="49.200518679888475" lon="2.580456010369722"><ele>60.0</ele><time>2026-03-22T15:28:16.998Z</time></trkpt><trkpt lat="49.20043020498186" lon="2.5803954779800837"><ele>60.0</ele><time>2026-03-22T15:28:18.998Z</time></trkpt><trkpt lat="49.200343047575046" lon="2.5803369374298124"><ele>60.0</ele><time>2026-03-22T15:28:20.998Z</time></trkpt><trkpt lat="49.200257943133494" lon="2.580272035792833"><ele>60.0</ele><time>2026-03-22T15:28:22.998Z</time></trkpt><trkpt lat="49.20017280792262" lon="2.580205691853479"><ele>60.0</ele><time>2026-03-22T15:28:24.998Z</time></trkpt><trkpt lat="49.200087019173324" lon="2.5801453501597127"><ele>60.0</ele><time>2026-03-22T15:28:26.998Z</time></trkpt><trkpt lat="49.20000119317194" lon="2.5800794680511223"><ele>60.0</ele><time>2026-03-22T15:28:28.998Z</time></trkpt><trkpt lat="49.199914968372724" lon="2.580013407316751"><ele>60.0</ele><time>2026-03-22T15:28:30.998Z</time></trkpt><trkpt lat="49.19982831442373" lon="2.5799443764789682"><ele>60.0</ele><time>2026-03-22T15:28:32.998Z</time></trkpt><trkpt lat="49.199743090826026" lon="2.5798765605379534"><ele>60.0</ele><time>2026-03-22T15:28:34.998Z</time></trkpt><trkpt lat="49.19965684368245" lon="2.579814637195259"><ele>60.0</ele><time>2026-03-22T15:28:36.997Z</time></trkpt><trkpt lat="49.19957067692036" lon="2.579749961329973"><ele>60.0</ele><time>2026-03-22T15:28:38.997Z</time></trkpt><trkpt lat="49.1994796296354" lon="2.579689611495472"><ele>60.0</ele><time>2026-03-22T15:28:40.997Z</time></trkpt><trkpt lat="49.199390901976415" lon="2.5796244198970055"><ele>60.0</ele><time>2026-03-22T15:28:42.997Z</time></trkpt><trkpt lat="49.19929962422087" lon="2.579559359222119"><ele>60.0</ele><time>2026-03-22T15:28:44.997Z</time></trkpt><trkpt lat="49.19920954643527" lon="2.5794902088954816"><ele>60.0</ele><time>2026-03-22T15:28:46.997Z</time></trkpt><trkpt lat="49.199113782309745" lon="2.579428401192953"><ele>60.0</ele><time>2026-03-22T15:28:48.997Z</time></trkpt><trkpt lat="49.1990118528297" lon="2.5793550460728856"><ele>60.0</ele><time>2026-03-22T15:28:50.997Z</time></trkpt><trkpt lat="49.198917996261855" lon="2.5792853200622687"><ele>60.0</ele><time>2026-03-22T15:28:52.997Z</time></trkpt><trkpt lat="49.19881367216672" lon="2.5792160073992165"><ele>60.0</ele><time>2026-03-22T15:28:54.997Z</time></trkpt><trkpt lat="49.19870665447647" lon="2.5791430655659475"><ele>60.0</ele><time>2026-03-22T15:28:56.997Z</time></trkpt><trkpt lat="49.198595147998944" lon="2.5790670675524425"><ele>59.6</ele><time>2026-03-22T15:28:58.997Z</time></trkpt><trkpt lat="49.19848332028483" lon="2.578991979164314"><ele>59.2</ele><time>2026-03-22T15:29:00.997Z</time></trkpt><trkpt lat="49.198372819983646" lon="2.5789199252763857"><ele>58.8</ele><time>2026-03-22T15:29:03Z</time></trkpt><trkpt lat="49.198253597552004" lon="2.578852733187698"><ele>58.4</ele><time>2026-03-22T15:29:05Z</time></trkpt><trkpt lat="49.198195590948586" lon="2.578809287565997"><ele>58.0</ele><time>2026-03-22T15:29:06Z</time></trkpt><trkpt lat="49.19813637825012" lon="2.5787701355875505"><ele>58.00000000000001</ele><time>2026-03-22T15:29:07Z</time></trkpt><trkpt lat="49.198075793520715" lon="2.5787257871773814"><ele>58.0</ele><time>2026-03-22T15:29:08Z</time></trkpt><trkpt lat="49.19801560352729" lon="2.5786851844216763"><ele>58.00000000000001</ele><time>2026-03-22T15:29:09Z</time></trkpt><trkpt lat="49.19795274141908" lon="2.5786422884403564"><ele>58.00000000000001</ele><time>2026-03-22T15:29:10Z</time></trkpt><trkpt lat="49.19788808724531" lon="2.578601707060123"><ele>58.0</ele><time>2026-03-22T15:29:11Z</time></trkpt><trkpt lat="49.19782366667397" lon="2.578558582644273"><ele>58.00000000000001</ele><time>2026-03-22T15:29:12Z</time></trkpt><trkpt lat="49.19776127891813" lon="2.5785141764569843"><ele>58.00000000000001</ele><time>2026-03-22T15:29:13Z</time></trkpt><trkpt lat="49.19769799893397" lon="2.5784679053919577"><ele>57.71428571428572</ele><time>2026-03-22T15:29:14Z</time></trkpt><trkpt lat="49.19763391447785" lon="2.5784233026054015"><ele>57.42857142857143</ele><time>2026-03-22T15:29:15Z</time></trkpt><trkpt lat="49.19756871377942" lon="2.578376388036378"><ele>57.142857142857146</ele><time>2026-03-22T15:29:16Z</time></trkpt><trkpt lat="49.19750246594632" lon="2.5783364759152203"><ele>56.85714285714286</ele><time>2026-03-22T15:29:17Z</time></trkpt><trkpt lat="49.19743560321" lon="2.578292689969997"><ele>56.57142857142857</ele><time>2026-03-22T15:29:18Z</time></trkpt><trkpt lat="49.19737039658917" lon="2.5782515025609576"><ele>56.285714285714285</ele><time>2026-03-22T15:29:19Z</time></trkpt><trkpt lat="49.19730388204508" lon="2.57820931137897"><ele>56.0</ele><time>2026-03-22T15:29:20Z</time></trkpt><trkpt lat="49.19723731337769" lon="2.578169978878975"><ele>55.857142857142854</ele><time>2026-03-22T15:29:21Z</time></trkpt><trkpt lat="49.19717392506737" lon="2.5781249107510606"><ele>55.714285714285715</ele><time>2026-03-22T15:29:22Z</time></trkpt><trkpt lat="49.19711030541389" lon="2.57807920485634"><ele>55.57142857142857</ele><time>2026-03-22T15:29:23Z</time></trkpt><trkpt lat="49.19704452305007" lon="2.5780372149643993"><ele>55.42857142857143</ele><time>2026-03-22T15:29:24Z</time></trkpt><trkpt lat="49.19697912569308" lon="2.5779969617185907"><ele>55.285714285714285</ele><time>2026-03-22T15:29:25Z</time></trkpt><trkpt lat="49.19691172069786" lon="2.5779554142345975"><ele>55.14285714285714</ele><time>2026-03-22T15:29:26Z</time></trkpt><trkpt lat="49.1968454877213" lon="2.5779117607277438"><ele>55.0</ele><time>2026-03-22T15:29:27Z</time></trkpt><trkpt lat="49.19677732426025" lon="2.5778719420430285"><ele>54.99999999999999</ele><time>2026-03-22T15:29:28Z</time></trkpt><trkpt lat="49.19671309741398" lon="2.57780442499813"><ele>55.0</ele><time>2026-03-22T15:29:29Z</time></trkpt><trkpt lat="49.19664014901186" lon="2.5777839970702816"><ele>55.0</ele><time>2026-03-22T15:29:30Z</time></trkpt><trkpt lat="49.196571345798134" lon="2.577737701724078"><ele>55.0</ele><time>2026-03-22T15:29:31Z</time></trkpt><trkpt lat="49.19650400698284" lon="2.5776950302721087"><ele>54.99999999999999</ele><time>2026-03-22T15:29:32Z</time></trkpt><trkpt lat="49.19643402628188" lon="2.577649741438099"><ele>55.0</ele><time>2026-03-22T15:29:33Z</time></trkpt><trkpt lat="49.19636323752559" lon="2.5776028145355885"><ele>54.99999999999999</ele><time>2026-03-22T15:29:34Z</time></trkpt><trkpt lat="49.19629221759793" lon="2.5775609787598484"><ele>55.0</ele><time>2026-03-22T15:29:35Z</time></trkpt><trkpt lat="49.19622308758672" lon="2.5775193442255695"><ele>55.0</ele><time>2026-03-22T15:29:36Z</time></trkpt><trkpt lat="49.19615605148098" lon="2.577477411372854"><ele>55.0</ele><time>2026-03-22T15:29:37Z</time></trkpt><trkpt lat="49.196090596111986" lon="2.577437767807751"><ele>55.0</ele><time>2026-03-22T15:29:37.999Z</time></trkpt><trkpt lat="49.19602576327889" lon="2.577397450905398"><ele>54.99999999999999</ele><time>2026-03-22T15:29:38.999Z</time></trkpt><trkpt lat="49.19596200059886" lon="2.577354848145168"><ele>55.0</ele><time>2026-03-22T15:29:39.999Z</time></trkpt><trkpt lat="49.195898230074945" lon="2.577315199432948"><ele>55.0</ele><time>2026-03-22T15:29:40.999Z</time></trkpt><trkpt lat="49.19583574608961" lon="2.577276239278105"><ele>55.0</ele><time>2026-03-22T15:29:41.999Z</time></trkpt><trkpt lat="49.1957745406888" lon="2.577233729100379"><ele>55.0</ele><time>2026-03-22T15:29:42.999Z</time></trkpt><trkpt lat="49.19565793875163" lon="2.577156196550618"><ele>55.0</ele><time>2026-03-22T15:29:44.999Z</time></trkpt><trkpt lat="49.19558730297886" lon="2.577026372547274"><ele>55.0</ele><time>2026-03-22T15:29:46.999Z</time></trkpt><trkpt lat="49.19549174280643" lon="2.576942487881657"><ele>55.0</ele><time>2026-03-22T15:29:48.999Z</time></trkpt><trkpt lat="49.195383970751095" lon="2.576872368138315"><ele>55.0</ele><time>2026-03-22T15:29:50.999Z</time></trkpt><trkpt lat="49.19528305600482" lon="2.576828539843381"><ele>55.0</ele><time>2026-03-22T15:29:52.999Z</time></trkpt><trkpt lat="49.19518141590083" lon="2.576768545450963"><ele>55.0</ele><time>2026-03-22T15:29:54.999Z</time></trkpt><trkpt lat="49.19508078560693" lon="2.576710177796438"><ele>55.0</ele><time>2026-03-22T15:29:56.999Z</time></trkpt><trkpt lat="49.19498108994482" lon="2.576645734908363"><ele>55.0</ele><time>2026-03-22T15:29:58.999Z</time></trkpt><trkpt lat="49.1948820766121" lon="2.576578846019585"><ele>55.0</ele><time>2026-03-22T15:30:00.999Z</time></trkpt><trkpt lat="49.1947819895431" lon="2.5765078870543108"><ele>55.0</ele><time>2026-03-22T15:30:02.999Z</time></trkpt><trkpt lat="49.194681803826754" lon="2.5764417548653515"><ele>55.0</ele><time>2026-03-22T15:30:04.999Z</time></trkpt><trkpt lat="49.19458408071468" lon="2.5763681179190314"><ele>55.0</ele><time>2026-03-22T15:30:06.999Z</time></trkpt><trkpt lat="49.19448409424365" lon="2.5763023266947638"><ele>55.0</ele><time>2026-03-22T15:30:08.999Z</time></trkpt><trkpt lat="49.194387787406114" lon="2.5762315566660163"><ele>55.0</ele><time>2026-03-22T15:30:10.998Z</time></trkpt><trkpt lat="49.19429091507584" lon="2.5761672882295987"><ele>55.0</ele><time>2026-03-22T15:30:12.998Z</time></trkpt><trkpt lat="49.19419484681279" lon="2.57609551580938"><ele>55.0</ele><time>2026-03-22T15:30:14.998Z</time></trkpt><trkpt lat="49.19409868502969" lon="2.576031230124036"><ele>55.0</ele><time>2026-03-22T15:30:16.998Z</time></trkpt><trkpt lat="49.1940027860363" lon="2.5759616633562565"><ele>55.4</ele><time>2026-03-22T15:30:18.998Z</time></trkpt><trkpt lat="49.193907503578345" lon="2.5758925961312995"><ele>55.8</ele><time>2026-03-22T15:30:20.998Z</time></trkpt><trkpt lat="49.19381384799405" lon="2.5758203312433077"><ele>56.2</ele><time>2026-03-22T15:30:22.998Z</time></trkpt><trkpt lat="49.193716868642646" lon="2.5757572506682513"><ele>56.6</ele><time>2026-03-22T15:30:24.998Z</time></trkpt><trkpt lat="49.193615640332624" lon="2.5757023571321613"><ele>57.0</ele><time>2026-03-22T15:30:26.998Z</time></trkpt><trkpt lat="49.19352324715119" lon="2.5756294950552387"><ele>57.0</ele><time>2026-03-22T15:30:28.998Z</time></trkpt><trkpt lat="49.19342585637978" lon="2.575563903264111"><ele>57.0</ele><time>2026-03-22T15:30:30.998Z</time></trkpt><trkpt lat="49.193331049182824" lon="2.5755011504465775"><ele>57.0</ele><time>2026-03-22T15:30:32.998Z</time></trkpt><trkpt lat="49.19323998660036" lon="2.5754350632792877"><ele>57.0</ele><time>2026-03-22T15:30:34.998Z</time></trkpt><trkpt lat="49.193147467825305" lon="2.575372581279794"><ele>57.0</ele><time>2026-03-22T15:30:36.998Z</time></trkpt><trkpt lat="49.19305463554105" lon="2.5753054279140213"><ele>57.400000000000006</ele><time>2026-03-22T15:30:38.998Z</time></trkpt><trkpt lat="49.19296335234675" lon="2.5752415533126563"><ele>57.800000000000004</ele><time>2026-03-22T15:30:40.998Z</time></trkpt><trkpt lat="49.192869871014764" lon="2.5751769451580206"><ele>58.2</ele><time>2026-03-22T15:30:42.997Z</time></trkpt><trkpt lat="49.192776255682375" lon="2.5751126632973356"><ele>58.6</ele><time>2026-03-22T15:30:44.997Z</time></trkpt><trkpt lat="49.19268302689632" lon="2.575048285508014"><ele>59.0</ele><time>2026-03-22T15:30:46.997Z</time></trkpt><trkpt lat="49.19259029342508" lon="2.574985263911587"><ele>59.0</ele><time>2026-03-22T15:30:48.997Z</time></trkpt><trkpt lat="49.19249766161577" lon="2.574917457583548"><ele>59.00000000000001</ele><time>2026-03-22T15:30:50.997Z</time></trkpt><trkpt lat="49.19240367512323" lon="2.574847439690994"><ele>59.00000000000001</ele><time>2026-03-22T15:30:52.997Z</time></trkpt><trkpt lat="49.19230377237771" lon="2.574782663202984"><ele>59.0</ele><time>2026-03-22T15:30:54.997Z</time></trkpt><trkpt lat="49.19220556529317" lon="2.57471226682209"><ele>59.0</ele><time>2026-03-22T15:30:56.997Z</time></trkpt><trkpt lat="49.192107747418596" lon="2.5746320478348017"><ele>59.2</ele><time>2026-03-22T15:30:58.997Z</time></trkpt><trkpt lat="49.19200663947178" lon="2.5745573032880107"><ele>59.400000000000006</ele><time>2026-03-22T15:31:00.997Z</time></trkpt><trkpt lat="49.19190933202692" lon="2.5744819777747305"><ele>59.6</ele><time>2026-03-22T15:31:02.997Z</time></trkpt><trkpt lat="49.191816620985215" lon="2.574402973746126"><ele>59.8</ele><time>2026-03-22T15:31:04.997Z</time></trkpt><trkpt lat="49.19172170592603" lon="2.5743106290941244"><ele>60.0</ele><time>2026-03-22T15:31:07Z</time></trkpt><trkpt lat="49.191637460978335" lon="2.574197983092788"><ele>60.25</ele><time>2026-03-22T15:31:09Z</time></trkpt><trkpt lat="49.1915779949502" lon="2.5740519304596727"><ele>60.5</ele><time>2026-03-22T15:31:11Z</time></trkpt><trkpt lat="49.19149625614096" lon="2.5739206826608254"><ele>60.75</ele><time>2026-03-22T15:31:13Z</time></trkpt><trkpt lat="49.1913807936497" lon="2.57385915135916"><ele>61.0</ele><time>2026-03-22T15:31:15Z</time></trkpt><trkpt lat="49.19126258040559" lon="2.5738581028218226"><ele>61.4</ele><time>2026-03-22T15:31:17Z</time></trkpt><trkpt lat="49.191163381107664" lon="2.573959141882574"><ele>61.8</ele><time>2026-03-22T15:31:19Z</time></trkpt><trkpt lat="49.191100686113025" lon="2.5740963374780623"><ele>62.199999999999996</ele><time>2026-03-22T15:31:21Z</time></trkpt><trkpt lat="49.1910748035809" lon="2.5742536252963313"><ele>62.599999999999994</ele><time>2026-03-22T15:31:23Z</time></trkpt><trkpt lat="49.19110348248086" lon="2.5744038792028054"><ele>63.0</ele><time>2026-03-22T15:31:25Z</time></trkpt><trkpt lat="49.191044067300915" lon="2.5745148317399535"><ele>63.0</ele><time>2026-03-22T15:31:28Z</time></trkpt><trkpt lat="49.19098114095713" lon="2.574521026305328"><ele>63.0</ele><time>2026-03-22T15:31:30Z</time></trkpt><trkpt lat="49.190917162797426" lon="2.574546232298752"><ele>63.0</ele><time>2026-03-22T15:31:32Z</time></trkpt><trkpt lat="49.19083477518332" lon="2.5745132733601226"><ele>63.0</ele><time>2026-03-22T15:31:35Z</time></trkpt><trkpt lat="49.19074199044168" lon="2.5744919853473354"><ele>63.0</ele><time>2026-03-22T15:31:38Z</time></trkpt><trkpt lat="49.19067692462534" lon="2.5744894142952823"><ele>63.0</ele><time>2026-03-22T15:31:40Z</time></trkpt><trkpt lat="49.19060095862197" lon="2.574507326803217"><ele>63.666666666666664</ele><time>2026-03-22T15:31:41.999Z</time></trkpt><trkpt lat="49.19052268770124" lon="2.574496349966956"><ele>64.33333333333333</ele><time>2026-03-22T15:31:43.999Z</time></trkpt><trkpt lat="49.19045053048717" lon="2.574482353636873"><ele>65.0</ele><time>2026-03-22T15:31:45.999Z</time></trkpt><trkpt lat="49.190371500369736" lon="2.5744886066043056"><ele>65.66666666666666</ele><time>2026-03-22T15:31:47.999Z</time></trkpt><trkpt lat="49.19030562201602" lon="2.5744920251724523"><ele>66.33333333333333</ele><time>2026-03-22T15:31:49.999Z</time></trkpt><trkpt lat="49.19023115055754" lon="2.5744980879910724"><ele>67.0</ele><time>2026-03-22T15:31:51.999Z</time></trkpt><trkpt lat="49.190149756485575" lon="2.5744941948012174"><ele>67.0</ele><time>2026-03-22T15:31:53.999Z</time></trkpt><trkpt lat="49.19006551942062" lon="2.5744852154388047"><ele>67.0</ele><time>2026-03-22T15:31:55.999Z</time></trkpt><trkpt lat="49.18997688547361" lon="2.5744920370014994"><ele>67.0</ele><time>2026-03-22T15:31:57.999Z</time></trkpt><trkpt lat="49.18988933474721" lon="2.574494567322943"><ele>67.0</ele><time>2026-03-22T15:31:59.999Z</time></trkpt><trkpt lat="49.18980209908335" lon="2.5744804759191395"><ele>67.0</ele><time>2026-03-22T15:32:01.999Z</time></trkpt><trkpt lat="49.18971177031931" lon="2.574483563943023"><ele>67.0</ele><time>2026-03-22T15:32:03.999Z</time></trkpt><trkpt lat="49.189619301080576" lon="2.5744695047621553"><ele>67.8</ele><time>2026-03-22T15:32:05.999Z</time></trkpt><trkpt lat="49.189525301287944" lon="2.5744719307793225"><ele>68.6</ele><time>2026-03-22T15:32:07.999Z</time></trkpt><trkpt lat="49.18942563451763" lon="2.5744884193878157"><ele>69.39999999999999</ele><time>2026-03-22T15:32:09.999Z</time></trkpt><trkpt lat="49.189333013945486" lon="2.574496416259337"><ele>70.2</ele><time>2026-03-22T15:32:11.999Z</time></trkpt><trkpt lat="49.18923963133923" lon="2.574482940460078"><ele>71.0</ele><time>2026-03-22T15:32:13.998Z</time></trkpt><trkpt lat="49.18915532309723" lon="2.5744700439480894"><ele>71.0</ele><time>2026-03-22T15:32:15.998Z</time></trkpt><trkpt lat="49.18907882576367" lon="2.574463674980835"><ele>71.0</ele><time>2026-03-22T15:32:17.998Z</time></trkpt><trkpt lat="49.1889898575778" lon="2.574443579563206"><ele>71.0</ele><time>2026-03-22T15:32:19.998Z</time></trkpt><trkpt lat="49.188901425269385" lon="2.5744708707096513"><ele>71.0</ele><time>2026-03-22T15:32:21.998Z</time></trkpt><trkpt lat="49.188807492885864" lon="2.5744727042533904"><ele>71.0</ele><time>2026-03-22T15:32:23.998Z</time></trkpt><trkpt lat="49.188725055472126" lon="2.5744985812441614"><ele>71.0</ele><time>2026-03-22T15:32:25.998Z</time></trkpt><trkpt lat="49.1886430246372" lon="2.5745216829865463"><ele>71.0</ele><time>2026-03-22T15:32:27.998Z</time></trkpt><trkpt lat="49.18855897579985" lon="2.5745231714212236"><ele>71.0</ele><time>2026-03-22T15:32:29.998Z</time></trkpt><trkpt lat="49.18847508687219" lon="2.574509393058166"><ele>71.0</ele><time>2026-03-22T15:32:31.998Z</time></trkpt><trkpt lat="49.18839027062743" lon="2.5744665403826246"><ele>71.0</ele><time>2026-03-22T15:32:33.998Z</time></trkpt><trkpt lat="49.18830564385063" lon="2.5744801780115396"><ele>71.0</ele><time>2026-03-22T15:32:35.998Z</time></trkpt><trkpt lat="49.18821433948649" lon="2.5744854512963316"><ele>71.0</ele><time>2026-03-22T15:32:37.998Z</time></trkpt><trkpt lat="49.18811985359316" lon="2.574471170750382"><ele>70.39999999999999</ele><time>2026-03-22T15:32:39.998Z</time></trkpt><trkpt lat="49.188023152355726" lon="2.5744665987492112"><ele>69.8</ele><time>2026-03-22T15:32:41.998Z</time></trkpt><trkpt lat="49.187931251438755" lon="2.5744570768223296"><ele>69.19999999999999</ele><time>2026-03-22T15:32:43.998Z</time></trkpt><trkpt lat="49.187835631070385" lon="2.57445010810826"><ele>68.6</ele><time>2026-03-22T15:32:45.997Z</time></trkpt><trkpt lat="49.18774221516265" lon="2.574462029626461"><ele>68.0</ele><time>2026-03-22T15:32:47.997Z</time></trkpt><trkpt lat="49.18765458428369" lon="2.5744731669377323"><ele>68.0</ele><time>2026-03-22T15:32:49.997Z</time></trkpt><trkpt lat="49.18756424917183" lon="2.5745023254095942"><ele>68.0</ele><time>2026-03-22T15:32:51.997Z</time></trkpt><trkpt lat="49.187465198365715" lon="2.574479219591386"><ele>68.0</ele><time>2026-03-22T15:32:53.997Z</time></trkpt><trkpt lat="49.18736832302234" lon="2.574476488700935"><ele>68.0</ele><time>2026-03-22T15:32:55.997Z</time></trkpt><trkpt lat="49.18727290987652" lon="2.5744696512210163"><ele>68.0</ele><time>2026-03-22T15:32:57.997Z</time></trkpt><trkpt lat="49.187184941206205" lon="2.5744515118797238"><ele>67.6</ele><time>2026-03-22T15:32:59.997Z</time></trkpt><trkpt lat="49.1870920785688" lon="2.574448364223111"><ele>67.19999999999999</ele><time>2026-03-22T15:33:01.997Z</time></trkpt><trkpt lat="49.187000286243105" lon="2.574449088070589"><ele>66.8</ele><time>2026-03-22T15:33:03.997Z</time></trkpt><trkpt lat="49.18690867424845" lon="2.574444585862792"><ele>66.39999999999999</ele><time>2026-03-22T15:33:05.997Z</time></trkpt><trkpt lat="49.18681684623517" lon="2.5744226889862856"><ele>66.0</ele><time>2026-03-22T15:33:07.997Z</time></trkpt><trkpt lat="49.18672742614077" lon="2.5743946889103175"><ele>66.0</ele><time>2026-03-22T15:33:09.997Z</time></trkpt><trkpt lat="49.18665172726343" lon="2.5743375196322766"><ele>66.0</ele><time>2026-03-22T15:33:12Z</time></trkpt><trkpt lat="49.18658939124677" lon="2.5742634562041773"><ele>66.0</ele><time>2026-03-22T15:33:14Z</time></trkpt><trkpt lat="49.18653801322149" lon="2.574190065497306"><ele>66.0</ele><time>2026-03-22T15:33:16Z</time></trkpt><trkpt lat="49.1864765409203" lon="2.574145916789242"><ele>66.0</ele><time>2026-03-22T15:33:18Z</time></trkpt><trkpt lat="49.186393244160065" lon="2.574088073587356"><ele>66.0</ele><time>2026-03-22T15:33:22Z</time></trkpt><trkpt lat="49.18630528003844" lon="2.5740313631576535"><ele>65.85714285714286</ele><time>2026-03-22T15:33:25Z</time></trkpt><trkpt lat="49.18624714473494" lon="2.573985239870615"><ele>65.71428571428572</ele><time>2026-03-22T15:33:27Z</time></trkpt><trkpt lat="49.18618306389619" lon="2.5739446447108496"><ele>65.57142857142858</ele><time>2026-03-22T15:33:29Z</time></trkpt><trkpt lat="49.18610665572505" lon="2.573935993617153"><ele>65.42857142857143</ele><time>2026-03-22T15:33:31Z</time></trkpt><trkpt lat="49.186038065451115" lon="2.5739290192154978"><ele>65.28571428571429</ele><time>2026-03-22T15:33:33Z</time></trkpt><trkpt lat="49.18596439372068" lon="2.573911992651958"><ele>65.14285714285715</ele><time>2026-03-22T15:33:35Z</time></trkpt><trkpt lat="49.18588743265856" lon="2.573871202459328"><ele>65.0</ele><time>2026-03-22T15:33:37Z</time></trkpt><trkpt lat="49.18580427211685" lon="2.573824150008142"><ele>65.0</ele><time>2026-03-22T15:33:39Z</time></trkpt><trkpt lat="49.185720024793504" lon="2.5737981798037217"><ele>65.0</ele><time>2026-03-22T15:33:41Z</time></trkpt><trkpt lat="49.18562995846299" lon="2.573778591803822"><ele>65.0</ele><time>2026-03-22T15:33:43Z</time></trkpt><trkpt lat="49.18554687477256" lon="2.573789662658925"><ele>65.0</ele><time>2026-03-22T15:33:44.999Z</time></trkpt><trkpt lat="49.185452110974055" lon="2.573813928406055"><ele>65.0</ele><time>2026-03-22T15:33:46.999Z</time></trkpt><trkpt lat="49.185366493043695" lon="2.5738413927144057"><ele>65.0</ele><time>2026-03-22T15:33:48.999Z</time></trkpt><trkpt lat="49.185293677225005" lon="2.573872173538168"><ele>64.6</ele><time>2026-03-22T15:33:50.999Z</time></trkpt><trkpt lat="49.18521177290228" lon="2.573895765116291"><ele>64.2</ele><time>2026-03-22T15:33:52.999Z</time></trkpt><trkpt lat="49.18511460171568" lon="2.573941262162791"><ele>63.8</ele><time>2026-03-22T15:33:54.999Z</time></trkpt><trkpt lat="49.18502426854837" lon="2.5740042133737253"><ele>63.4</ele><time>2026-03-22T15:33:56.999Z</time></trkpt><trkpt lat="49.184940119964914" lon="2.5740700799733234"><ele>63.0</ele><time>2026-03-22T15:33:58.999Z</time></trkpt><trkpt lat="49.18483319832068" lon="2.574134768782658"><ele>62.4</ele><time>2026-03-22T15:34:00.999Z</time></trkpt><trkpt lat="49.18474985893999" lon="2.574201530772895"><ele>61.8</ele><time>2026-03-22T15:34:02.999Z</time></trkpt><trkpt lat="49.18467790144087" lon="2.5742815845783764"><ele>61.2</ele><time>2026-03-22T15:34:04.999Z</time></trkpt><trkpt lat="49.18459586349671" lon="2.5743467514075573"><ele>60.6</ele><time>2026-03-22T15:34:06.999Z</time></trkpt><trkpt lat="49.184505133834264" lon="2.5744004361195776"><ele>60.0</ele><time>2026-03-22T15:34:08.999Z</time></trkpt><trkpt lat="49.18442074271073" lon="2.574471273494706"><ele>60.6</ele><time>2026-03-22T15:34:10.999Z</time></trkpt><trkpt lat="49.18433140532672" lon="2.5745366589806165"><ele>61.2</ele><time>2026-03-22T15:34:12.999Z</time></trkpt><trkpt lat="49.18423409655088" lon="2.57455595726597"><ele>61.8</ele><time>2026-03-22T15:34:14.999Z</time></trkpt><trkpt lat="49.1841430392313" lon="2.5745746635926032"><ele>62.4</ele><time>2026-03-22T15:34:16.998Z</time></trkpt><trkpt lat="49.18404987309411" lon="2.5745973119776084"><ele>63.0</ele><time>2026-03-22T15:34:18.998Z</time></trkpt><trkpt lat="49.18396018234843" lon="2.5746279387514335"><ele>63.166666666666664</ele><time>2026-03-22T15:34:20.998Z</time></trkpt><trkpt lat="49.18389130422577" lon="2.5746726628021337"><ele>63.33333333333333</ele><time>2026-03-22T15:34:22.998Z</time></trkpt><trkpt lat="49.183808465229546" lon="2.574726791253986"><ele>63.5</ele><time>2026-03-22T15:34:24.998Z</time></trkpt><trkpt lat="49.183737615093605" lon="2.574747254202734"><ele>63.666666666666664</ele><time>2026-03-22T15:34:26.998Z</time></trkpt><trkpt lat="49.183669059428" lon="2.5747878057110047"><ele>63.83333333333333</ele><time>2026-03-22T15:34:28.998Z</time></trkpt><trkpt lat="49.18359138894568" lon="2.5748231161922024"><ele>64.0</ele><time>2026-03-22T15:34:30.998Z</time></trkpt><trkpt lat="49.18352902283088" lon="2.574870561810895"><ele>64.0</ele><time>2026-03-22T15:34:32.998Z</time></trkpt><trkpt lat="49.18346245121331" lon="2.574897577208747"><ele>63.99999999999999</ele><time>2026-03-22T15:34:34.998Z</time></trkpt><trkpt lat="49.18338149088336" lon="2.574935283933662"><ele>64.0</ele><time>2026-03-22T15:34:37.998Z</time></trkpt><trkpt lat="49.183310306398404" lon="2.5749561026570293"><ele>64.0</ele><time>2026-03-22T15:34:40.998Z</time></trkpt><trkpt lat="49.183240066810455" lon="2.574915961894571"><ele>63.99999999999999</ele><time>2026-03-22T15:34:55.997Z</time></trkpt><trkpt lat="49.18317732071308" lon="2.5748997043164215"><ele>64.0</ele><time>2026-03-22T15:34:57.997Z</time></trkpt><trkpt lat="49.18311590074158" lon="2.574863903910217"><ele>64.0</ele><time>2026-03-22T15:34:59.997Z</time></trkpt><trkpt lat="49.183052595758944" lon="2.57480901548575"><ele>64.16666666666666</ele><time>2026-03-22T15:35:01.997Z</time></trkpt><trkpt lat="49.182968915660695" lon="2.5747735948285593"><ele>64.33333333333333</ele><time>2026-03-22T15:35:03.997Z</time></trkpt><trkpt lat="49.182885512328326" lon="2.5747564584952825"><ele>64.5</ele><time>2026-03-22T15:35:05.997Z</time></trkpt><trkpt lat="49.1828067958289" lon="2.574738286281108"><ele>64.66666666666667</ele><time>2026-03-22T15:35:07.997Z</time></trkpt><trkpt lat="49.18271673455661" lon="2.5747246393891317"><ele>64.83333333333334</ele><time>2026-03-22T15:35:09.997Z</time></trkpt><trkpt lat="49.182625213466316" lon="2.5747318086913524"><ele>65.0</ele><time>2026-03-22T15:35:11.997Z</time></trkpt><trkpt lat="49.182531956965654" lon="2.574752969586772"><ele>65.0</ele><time>2026-03-22T15:35:13.997Z</time></trkpt><trkpt lat="49.18243441165258" lon="2.574759241924794"><ele>65.0</ele><time>2026-03-22T15:35:15.997Z</time></trkpt><trkpt lat="49.18233367280701" lon="2.5747238425324745"><ele>65.0</ele><time>2026-03-22T15:35:18Z</time></trkpt><trkpt lat="49.182249717307734" lon="2.574646575012525"><ele>65.0</ele><time>2026-03-22T15:35:20Z</time></trkpt><trkpt lat="49.18215486160543" lon="2.5745828361698893"><ele>65.0</ele><time>2026-03-22T15:35:22Z</time></trkpt><trkpt lat="49.18206412655262" lon="2.5745186575866175"><ele>64.6</ele><time>2026-03-22T15:35:24Z</time></trkpt><trkpt lat="49.181977407834204" lon="2.5744481563640047"><ele>64.2</ele><time>2026-03-22T15:35:26Z</time></trkpt><trkpt lat="49.18189466556338" lon="2.5743678679663575"><ele>63.8</ele><time>2026-03-22T15:35:28Z</time></trkpt><trkpt lat="49.18179735103294" lon="2.574310754656689"><ele>63.4</ele><time>2026-03-22T15:35:30Z</time></trkpt><trkpt lat="49.18170244148114" lon="2.574249078390071"><ele>63.0</ele><time>2026-03-22T15:35:32Z</time></trkpt><trkpt lat="49.1816038162721" lon="2.5742138715789067"><ele>62.2</ele><time>2026-03-22T15:35:34Z</time></trkpt><trkpt lat="49.18151321278443" lon="2.5741441307902733"><ele>61.4</ele><time>2026-03-22T15:35:36Z</time></trkpt><trkpt lat="49.18141417558064" lon="2.5740728838364677"><ele>60.60000000000001</ele><time>2026-03-22T15:35:38Z</time></trkpt><trkpt lat="49.181319008966305" lon="2.5740103725954095"><ele>59.800000000000004</ele><time>2026-03-22T15:35:40Z</time></trkpt><trkpt lat="49.18122161538656" lon="2.5739390064959227"><ele>59.0</ele><time>2026-03-22T15:35:42Z</time></trkpt><trkpt lat="49.181125438189056" lon="2.5738740622084655"><ele>59.0</ele><time>2026-03-22T15:35:44Z</time></trkpt><trkpt lat="49.181028323450214" lon="2.5738104827772417"><ele>59.00000000000001</ele><time>2026-03-22T15:35:46Z</time></trkpt><trkpt lat="49.18092975003405" lon="2.57373774272373"><ele>59.00000000000001</ele><time>2026-03-22T15:35:47.999Z</time></trkpt><trkpt lat="49.18083464746336" lon="2.573674430990537"><ele>59.0</ele><time>2026-03-22T15:35:49.999Z</time></trkpt><trkpt lat="49.1807323688723" lon="2.573614604382136"><ele>59.0</ele><time>2026-03-22T15:35:51.999Z</time></trkpt><trkpt lat="49.18064681040161" lon="2.5735663597465352"><ele>59.66666666666667</ele><time>2026-03-22T15:35:53.999Z</time></trkpt><trkpt lat="49.180561182333804" lon="2.5735262639938745"><ele>60.333333333333336</ele><time>2026-03-22T15:35:55.999Z</time></trkpt><trkpt lat="49.18047878604199" lon="2.573481161950861"><ele>61.0</ele><time>2026-03-22T15:35:57.999Z</time></trkpt><trkpt lat="49.18040881615864" lon="2.5734267575106844"><ele>61.66666666666667</ele><time>2026-03-22T15:35:59.999Z</time></trkpt><trkpt lat="49.18035404557292" lon="2.5733626558398224"><ele>62.333333333333336</ele><time>2026-03-22T15:36:01.999Z</time></trkpt><trkpt lat="49.18027464027098" lon="2.5733280312078817"><ele>63.0</ele><time>2026-03-22T15:36:03.999Z</time></trkpt><trkpt lat="49.180216622761144" lon="2.5732401800371165"><ele>63.0</ele><time>2026-03-22T15:36:05.999Z</time></trkpt><trkpt lat="49.18013113581654" lon="2.573176984781266"><ele>63.0</ele><time>2026-03-22T15:36:07.999Z</time></trkpt><trkpt lat="49.18003857686995" lon="2.573117495312925"><ele>63.0</ele><time>2026-03-22T15:36:09.999Z</time></trkpt><trkpt lat="49.179948988880106" lon="2.57305783589579"><ele>63.0</ele><time>2026-03-22T15:36:11.999Z</time></trkpt><trkpt lat="49.17985441264102" lon="2.5730045058387656"><ele>63.0</ele><time>2026-03-22T15:36:13.999Z</time></trkpt><trkpt lat="49.17976672793648" lon="2.572937530457524"><ele>63.0</ele><time>2026-03-22T15:36:15.999Z</time></trkpt><trkpt lat="49.17966621434815" lon="2.5728712968720338"><ele>63.0</ele><time>2026-03-22T15:36:17.999Z</time></trkpt><trkpt lat="49.17957106855055" lon="2.572797150071627"><ele>63.0</ele><time>2026-03-22T15:36:19.999Z</time></trkpt><trkpt lat="49.17947534961249" lon="2.572736926530997"><ele>63.0</ele><time>2026-03-22T15:36:21.998Z</time></trkpt><trkpt lat="49.17940315020542" lon="2.5726827125033687"><ele>63.0</ele><time>2026-03-22T15:36:23.998Z</time></trkpt><trkpt lat="49.17933952636892" lon="2.5726303387368517"><ele>63.0</ele><time>2026-03-22T15:36:25.998Z</time></trkpt><trkpt lat="49.17926206763231" lon="2.5725790750636066"><ele>63.0</ele><time>2026-03-22T15:36:27.998Z</time></trkpt><trkpt lat="49.179177447349915" lon="2.572521135333285"><ele>63.0</ele><time>2026-03-22T15:36:29.998Z</time></trkpt><trkpt lat="49.17909431454781" lon="2.5724594314269105"><ele>63.0</ele><time>2026-03-22T15:36:31.998Z</time></trkpt><trkpt lat="49.17902843226668" lon="2.572408172187113"><ele>63.0</ele><time>2026-03-22T15:36:33.998Z</time></trkpt><trkpt lat="49.17894850301" lon="2.572361450439369"><ele>63.0</ele><time>2026-03-22T15:36:35.998Z</time></trkpt><trkpt lat="49.17887568214718" lon="2.5723061590767666"><ele>63.0</ele><time>2026-03-22T15:36:37.998Z</time></trkpt><trkpt lat="49.17879573686443" lon="2.5722486087216416"><ele>63.0</ele><time>2026-03-22T15:36:39.998Z</time></trkpt><trkpt lat="49.17871226821116" lon="2.57218499119331"><ele>63.0</ele><time>2026-03-22T15:36:41.998Z</time></trkpt><trkpt lat="49.1786247674805" lon="2.5721294260277934"><ele>63.0</ele><time>2026-03-22T15:36:43.998Z</time></trkpt><trkpt lat="49.178550526617784" lon="2.572080689664036"><ele>63.0</ele><time>2026-03-22T15:36:45.998Z</time></trkpt><trkpt lat="49.17848164314605" lon="2.57203115348258"><ele>63.0</ele><time>2026-03-22T15:36:47.998Z</time></trkpt><trkpt lat="49.17841553893487" lon="2.5719744323873037"><ele>63.166666666666664</ele><time>2026-03-22T15:36:49.998Z</time></trkpt><trkpt lat="49.178346549480175" lon="2.571929315732961"><ele>63.33333333333333</ele><time>2026-03-22T15:36:51.998Z</time></trkpt><trkpt lat="49.17827166216553" lon="2.5718816088408767"><ele>63.5</ele><time>2026-03-22T15:36:53.997Z</time></trkpt><trkpt lat="49.17820265642529" lon="2.571829411887657"><ele>63.666666666666664</ele><time>2026-03-22T15:36:55.997Z</time></trkpt><trkpt lat="49.17812641451499" lon="2.5717823848460992"><ele>63.83333333333333</ele><time>2026-03-22T15:36:57.997Z</time></trkpt><trkpt lat="49.17804982030239" lon="2.571727309571195"><ele>64.0</ele><time>2026-03-22T15:36:59.997Z</time></trkpt><trkpt lat="49.17796951779407" lon="2.571674215682304"><ele>63.2</ele><time>2026-03-22T15:37:01.997Z</time></trkpt><trkpt lat="49.17788900385114" lon="2.5716164680454088"><ele>62.400000000000006</ele><time>2026-03-22T15:37:03.997Z</time></trkpt><trkpt lat="49.177804899093545" lon="2.571558114194722"><ele>61.6</ele><time>2026-03-22T15:37:05.997Z</time></trkpt><trkpt lat="49.17770671839725" lon="2.5714874862487336"><ele>60.8</ele><time>2026-03-22T15:37:07.997Z</time></trkpt><trkpt lat="49.17761550839762" lon="2.5714208196951955"><ele>60.0</ele><time>2026-03-22T15:37:09.997Z</time></trkpt><trkpt lat="49.17751340440967" lon="2.5713547162954704"><ele>60.0</ele><time>2026-03-22T15:37:11.997Z</time></trkpt><trkpt lat="49.17741832373689" lon="2.5712867426027195"><ele>60.0</ele><time>2026-03-22T15:37:13.997Z</time></trkpt><trkpt lat="49.17731494067428" lon="2.571219947199563"><ele>60.0</ele><time>2026-03-22T15:37:15.997Z</time></trkpt><trkpt lat="49.177218234835806" lon="2.57114868304155"><ele>60.0</ele><time>2026-03-22T15:37:17.997Z</time></trkpt><trkpt lat="49.177124740515104" lon="2.5710874420149885"><ele>60.0</ele><time>2026-03-22T15:37:19.997Z</time></trkpt><trkpt lat="49.177026728712534" lon="2.571018821294278"><ele>60.0</ele><time>2026-03-22T15:37:21.997Z</time></trkpt><trkpt lat="49.17693885431572" lon="2.5709471370467014"><ele>60.0</ele><time>2026-03-22T15:37:24Z</time></trkpt><trkpt lat="49.176837132325225" lon="2.570893607501705"><ele>60.0</ele><time>2026-03-22T15:37:26Z</time></trkpt><trkpt lat="49.17674959624635" lon="2.570826202759635"><ele>60.0</ele><time>2026-03-22T15:37:28Z</time></trkpt><trkpt lat="49.176657311235225" lon="2.5707515940129655"><ele>60.0</ele><time>2026-03-22T15:37:30Z</time></trkpt><trkpt lat="49.176567899440755" lon="2.570692178515443"><ele>60.6</ele><time>2026-03-22T15:37:32Z</time></trkpt><trkpt lat="49.176471910448214" lon="2.5706235928403784"><ele>61.2</ele><time>2026-03-22T15:37:34Z</time></trkpt><trkpt lat="49.17638764939551" lon="2.570551835522113"><ele>61.8</ele><time>2026-03-22T15:37:36Z</time></trkpt><trkpt lat="49.176296830861105" lon="2.570495697041048"><ele>62.4</ele><time>2026-03-22T15:37:38Z</time></trkpt><trkpt lat="49.17620353188388" lon="2.5704302305117235"><ele>63.0</ele><time>2026-03-22T15:37:40Z</time></trkpt><trkpt lat="49.17611189725578" lon="2.5703641758913736"><ele>63.0</ele><time>2026-03-22T15:37:42Z</time></trkpt><trkpt lat="49.17601781895147" lon="2.5702928873151647"><ele>63.0</ele><time>2026-03-22T15:37:44Z</time></trkpt><trkpt lat="49.175933460087236" lon="2.570232103456345"><ele>63.0</ele><time>2026-03-22T15:37:46Z</time></trkpt><trkpt lat="49.17584519992893" lon="2.5701666256895064"><ele>63.0</ele><time>2026-03-22T15:37:48Z</time></trkpt><trkpt lat="49.1757494370361" lon="2.5701067490402245"><ele>63.0</ele><time>2026-03-22T15:37:50Z</time></trkpt><trkpt lat="49.175651026260105" lon="2.5700308446790303"><ele>63.8</ele><time>2026-03-22T15:37:51.999Z</time></trkpt><trkpt lat="49.17555496252271" lon="2.569962716721856"><ele>64.6</ele><time>2026-03-22T15:37:53.999Z</time></trkpt><trkpt lat="49.17544794199494" lon="2.5698964469765113"><ele>65.4</ele><time>2026-03-22T15:37:55.999Z</time></trkpt><trkpt lat="49.175347713518384" lon="2.5698226123492125"><ele>66.2</ele><time>2026-03-22T15:37:57.999Z</time></trkpt><trkpt lat="49.175245591490715" lon="2.5697668452127322"><ele>67.0</ele><time>2026-03-22T15:37:59.999Z</time></trkpt><trkpt lat="49.1751545612747" lon="2.5696968808433147"><ele>67.0</ele><time>2026-03-22T15:38:01.999Z</time></trkpt><trkpt lat="49.17509964900345" lon="2.569649232658816"><ele>67.0</ele><time>2026-03-22T15:38:02.999Z</time></trkpt><trkpt lat="49.17500102409591" lon="2.5695836641127254"><ele>67.0</ele><time>2026-03-22T15:38:04.999Z</time></trkpt><trkpt lat="49.17490653627656" lon="2.5694934855971643"><ele>67.0</ele><time>2026-03-22T15:38:06.999Z</time></trkpt><trkpt lat="49.17480332945167" lon="2.5694301747544532"><ele>67.0</ele><time>2026-03-22T15:38:08.999Z</time></trkpt><trkpt lat="49.17470766630748" lon="2.5693623517160726"><ele>67.2</ele><time>2026-03-22T15:38:10.999Z</time></trkpt><trkpt lat="49.17460796138038" lon="2.5692976821518076"><ele>67.4</ele><time>2026-03-22T15:38:12.999Z</time></trkpt><trkpt lat="49.174508494131615" lon="2.569236256414462"><ele>67.6</ele><time>2026-03-22T15:38:14.999Z</time></trkpt><trkpt lat="49.17440145155329" lon="2.569165073933695"><ele>67.8</ele><time>2026-03-22T15:38:16.999Z</time></trkpt><trkpt lat="49.17431302717153" lon="2.569106563427823"><ele>68.0</ele><time>2026-03-22T15:38:18.999Z</time></trkpt><trkpt lat="49.17422994796598" lon="2.5690414730814335"><ele>68.0</ele><time>2026-03-22T15:38:20.999Z</time></trkpt><trkpt lat="49.17415238319363" lon="2.568987944105223"><ele>68.0</ele><time>2026-03-22T15:38:22.999Z</time></trkpt><trkpt lat="49.174070307742326" lon="2.568931079430612"><ele>68.0</ele><time>2026-03-22T15:38:24.998Z</time></trkpt><trkpt lat="49.17399780995805" lon="2.5688783887549618"><ele>68.0</ele><time>2026-03-22T15:38:26.998Z</time></trkpt><trkpt lat="49.17390765458552" lon="2.5688396667756677"><ele>68.0</ele><time>2026-03-22T15:38:29.998Z</time></trkpt><trkpt lat="49.173849551843894" lon="2.5687701465663393"><ele>68.0</ele><time>2026-03-22T15:38:32.998Z</time></trkpt><trkpt lat="49.17378864522" lon="2.568731292801389"><ele>67.83333333333334</ele><time>2026-03-22T15:38:34.998Z</time></trkpt><trkpt lat="49.17371884865464" lon="2.56868538264203"><ele>67.66666666666667</ele><time>2026-03-22T15:38:36.998Z</time></trkpt><trkpt lat="49.173658514818435" lon="2.5686462657280598"><ele>67.5</ele><time>2026-03-22T15:38:38.998Z</time></trkpt><trkpt lat="49.17358336260173" lon="2.5685916435023994"><ele>67.33333333333333</ele><time>2026-03-22T15:38:40.998Z</time></trkpt><trkpt lat="49.17352111111041" lon="2.5685370925286586"><ele>67.16666666666666</ele><time>2026-03-22T15:38:42.998Z</time></trkpt><trkpt lat="49.17345493570862" lon="2.568488551921183"><ele>67.0</ele><time>2026-03-22T15:38:44.998Z</time></trkpt><trkpt lat="49.173376195636884" lon="2.5684332648606767"><ele>67.0</ele><time>2026-03-22T15:38:46.998Z</time></trkpt><trkpt lat="49.173308294585894" lon="2.568369455816252"><ele>67.0</ele><time>2026-03-22T15:38:48.998Z</time></trkpt><trkpt lat="49.173218141932196" lon="2.5683167994609777"><ele>67.0</ele><time>2026-03-22T15:38:50.998Z</time></trkpt><trkpt lat="49.17313698653793" lon="2.5682598188922077"><ele>67.0</ele><time>2026-03-22T15:38:52.998Z</time></trkpt><trkpt lat="49.173064491672484" lon="2.56820129195359"><ele>67.0</ele><time>2026-03-22T15:38:54.998Z</time></trkpt><trkpt lat="49.17298516560213" lon="2.5681515976490927"><ele>67.0</ele><time>2026-03-22T15:38:56.998Z</time></trkpt><trkpt lat="49.17289728249648" lon="2.568102741448971"><ele>67.16666666666666</ele><time>2026-03-22T15:38:58.997Z</time></trkpt><trkpt lat="49.17281613442435" lon="2.5680364556123565"><ele>67.33333333333333</ele><time>2026-03-22T15:39:00.997Z</time></trkpt><trkpt lat="49.172738984861496" lon="2.5679834040428093"><ele>67.5</ele><time>2026-03-22T15:39:02.997Z</time></trkpt><trkpt lat="49.17266523086715" lon="2.567932238366946"><ele>67.66666666666667</ele><time>2026-03-22T15:39:04.997Z</time></trkpt><trkpt lat="49.17258403361407" lon="2.5678638569190375"><ele>67.83333333333334</ele><time>2026-03-22T15:39:06.997Z</time></trkpt><trkpt lat="49.172499195369454" lon="2.567805526597798"><ele>68.0</ele><time>2026-03-22T15:39:08.997Z</time></trkpt><trkpt lat="49.17241665245095" lon="2.567740630207376"><ele>68.33333333333334</ele><time>2026-03-22T15:39:10.997Z</time></trkpt><trkpt lat="49.17233716815556" lon="2.56768664014616"><ele>68.66666666666667</ele><time>2026-03-22T15:39:12.997Z</time></trkpt><trkpt lat="49.17226094272216" lon="2.5676306476533624"><ele>69.0</ele><time>2026-03-22T15:39:14.997Z</time></trkpt><trkpt lat="49.172194574193945" lon="2.5675833151724725"><ele>69.33333333333333</ele><time>2026-03-22T15:39:16.997Z</time></trkpt><trkpt lat="49.17213075395953" lon="2.567544214297306"><ele>69.66666666666666</ele><time>2026-03-22T15:39:18.997Z</time></trkpt><trkpt lat="49.172065282547045" lon="2.56749477075343"><ele>70.0</ele><time>2026-03-22T15:39:20.997Z</time></trkpt><trkpt lat="49.17197289819593" lon="2.5674339987681325"><ele>70.0</ele><time>2026-03-22T15:39:23.997Z</time></trkpt><trkpt lat="49.17190830980508" lon="2.5673851956134452"><ele>70.0</ele><time>2026-03-22T15:39:25.997Z</time></trkpt><trkpt lat="49.17184731016293" lon="2.5673381264829014"><ele>70.0</ele><time>2026-03-22T15:39:28Z</time></trkpt><trkpt lat="49.17178590330584" lon="2.5672958329557014"><ele>70.0</ele><time>2026-03-22T15:39:30Z</time></trkpt><trkpt lat="49.17172310399584" lon="2.567240346432019"><ele>70.0</ele><time>2026-03-22T15:39:32Z</time></trkpt><trkpt lat="49.171660089074635" lon="2.567200473936121"><ele>70.0</ele><time>2026-03-22T15:39:34Z</time></trkpt><trkpt lat="49.17158085706738" lon="2.5671397756064325"><ele>70.0</ele><time>2026-03-22T15:39:36Z</time></trkpt><trkpt lat="49.171518078367384" lon="2.567093245929761"><ele>70.0</ele><time>2026-03-22T15:39:38Z</time></trkpt><trkpt lat="49.17145141011629" lon="2.5670574924477574"><ele>70.0</ele><time>2026-03-22T15:39:40Z</time></trkpt><trkpt lat="49.17138383652342" lon="2.5670065188587188"><ele>70.0</ele><time>2026-03-22T15:39:42Z</time></trkpt><trkpt lat="49.171293216158304" lon="2.5669491034584153"><ele>70.0</ele><time>2026-03-22T15:39:45Z</time></trkpt><trkpt lat="49.171224716208954" lon="2.566897218000717"><ele>70.0</ele><time>2026-03-22T15:39:47Z</time></trkpt><trkpt lat="49.171160133469314" lon="2.5668497347094705"><ele>70.0</ele><time>2026-03-22T15:39:49Z</time></trkpt><trkpt lat="49.171084671997626" lon="2.566826785328579"><ele>70.16666666666666</ele><time>2026-03-22T15:39:51Z</time></trkpt><trkpt lat="49.17102861262109" lon="2.5667517815390406"><ele>70.33333333333333</ele><time>2026-03-22T15:39:53Z</time></trkpt><trkpt lat="49.17096579424002" lon="2.5666976155560057"><ele>70.5</ele><time>2026-03-22T15:39:54.999Z</time></trkpt><trkpt lat="49.17088606225269" lon="2.5666510728565903"><ele>70.66666666666667</ele><time>2026-03-22T15:39:56.999Z</time></trkpt><trkpt lat="49.170814453607704" lon="2.5666013956273175"><ele>70.83333333333334</ele><time>2026-03-22T15:39:58.999Z</time></trkpt><trkpt lat="49.17073611621209" lon="2.5665529783728185"><ele>71.0</ele><time>2026-03-22T15:40:00.999Z</time></trkpt><trkpt lat="49.17066451920723" lon="2.566506260520463"><ele>71.0</ele><time>2026-03-22T15:40:02.999Z</time></trkpt><trkpt lat="49.17059396060102" lon="2.5664523445525744"><ele>71.0</ele><time>2026-03-22T15:40:04.999Z</time></trkpt><trkpt lat="49.17051948191509" lon="2.566392192477987"><ele>71.0</ele><time>2026-03-22T15:40:06.999Z</time></trkpt><trkpt lat="49.170443357676966" lon="2.566346348268885"><ele>71.0</ele><time>2026-03-22T15:40:08.999Z</time></trkpt><trkpt lat="49.17036751624377" lon="2.566292810552599"><ele>71.0</ele><time>2026-03-22T15:40:10.999Z</time></trkpt><trkpt lat="49.17028711105754" lon="2.5662351484393384"><ele>71.0</ele><time>2026-03-22T15:40:12.999Z</time></trkpt><trkpt lat="49.17021511422636" lon="2.566191431369592"><ele>71.16666666666667</ele><time>2026-03-22T15:40:14.999Z</time></trkpt><trkpt lat="49.17013974392701" lon="2.5661327611062643"><ele>71.33333333333334</ele><time>2026-03-22T15:40:16.999Z</time></trkpt><trkpt lat="49.170074667775616" lon="2.566087376533489"><ele>71.5</ele><time>2026-03-22T15:40:18.999Z</time></trkpt><trkpt lat="49.170008403663445" lon="2.5660379760023337"><ele>71.66666666666667</ele><time>2026-03-22T15:40:20.999Z</time></trkpt><trkpt lat="49.16994037729306" lon="2.5659851994166476"><ele>71.83333333333333</ele><time>2026-03-22T15:40:22.999Z</time></trkpt><trkpt lat="49.169865827833284" lon="2.5659371816782204"><ele>72.0</ele><time>2026-03-22T15:40:24.999Z</time></trkpt><trkpt lat="49.16980182268948" lon="2.5658731914857067"><ele>71.71428571428572</ele><time>2026-03-22T15:40:26.999Z</time></trkpt><trkpt lat="49.169738746972634" lon="2.565823112893454"><ele>71.42857142857143</ele><time>2026-03-22T15:40:28.998Z</time></trkpt><trkpt lat="49.16967487858041" lon="2.5657786786112027"><ele>71.14285714285714</ele><time>2026-03-22T15:40:30.998Z</time></trkpt><trkpt lat="49.16961046885531" lon="2.565730040477097"><ele>70.85714285714286</ele><time>2026-03-22T15:40:32.998Z</time></trkpt><trkpt lat="49.16954309959275" lon="2.565688936157878"><ele>70.57142857142857</ele><time>2026-03-22T15:40:34.998Z</time></trkpt><trkpt lat="49.16947398811812" lon="2.5656382595967795"><ele>70.28571428571429</ele><time>2026-03-22T15:40:36.998Z</time></trkpt><trkpt lat="49.16940726398431" lon="2.565577024434817"><ele>70.0</ele><time>2026-03-22T15:40:38.998Z</time></trkpt><trkpt lat="49.169335185393614" lon="2.565527580548837"><ele>70.0</ele><time>2026-03-22T15:40:40.998Z</time></trkpt><trkpt lat="49.16926110091935" lon="2.565478798706008"><ele>70.0</ele><time>2026-03-22T15:40:42.998Z</time></trkpt><trkpt lat="49.16918904374609" lon="2.565424352335578"><ele>70.0</ele><time>2026-03-22T15:40:44.998Z</time></trkpt><trkpt lat="49.169113647834536" lon="2.5653749385228464"><ele>70.0</ele><time>2026-03-22T15:40:46.998Z</time></trkpt><trkpt lat="49.169037000655194" lon="2.5653234583217968"><ele>70.0</ele><time>2026-03-22T15:40:48.998Z</time></trkpt><trkpt lat="49.16896163839706" lon="2.5652647137122013"><ele>70.0</ele><time>2026-03-22T15:40:50.998Z</time></trkpt><trkpt lat="49.16889050364821" lon="2.565214156467809"><ele>70.5</ele><time>2026-03-22T15:40:52.998Z</time></trkpt><trkpt lat="49.16882771848837" lon="2.5651657020788163"><ele>71.0</ele><time>2026-03-22T15:40:54.998Z</time></trkpt><trkpt lat="49.16874900779846" lon="2.5651078214227616"><ele>71.5</ele><time>2026-03-22T15:40:56.998Z</time></trkpt><trkpt lat="49.16867313295475" lon="2.5650592691751632"><ele>72.0</ele><time>2026-03-22T15:40:58.998Z</time></trkpt><trkpt lat="49.16859721204033" lon="2.565003975915978"><ele>72.5</ele><time>2026-03-22T15:41:00.998Z</time></trkpt><trkpt lat="49.168526961802996" lon="2.564950021482614"><ele>73.0</ele><time>2026-03-22T15:41:02.997Z</time></trkpt><trkpt lat="49.168459469680656" lon="2.5649103989846602"><ele>73.0</ele><time>2026-03-22T15:41:04.997Z</time></trkpt><trkpt lat="49.1683970221837" lon="2.564859002625571"><ele>73.0</ele><time>2026-03-22T15:41:06.997Z</time></trkpt><trkpt lat="49.1683154540188" lon="2.564801144928572"><ele>73.0</ele><time>2026-03-22T15:41:09.997Z</time></trkpt><trkpt lat="49.16823934933003" lon="2.5647526373407254"><ele>73.0</ele><time>2026-03-22T15:41:12.997Z</time></trkpt><trkpt lat="49.16817976885714" lon="2.564712465527438"><ele>73.0</ele><time>2026-03-22T15:41:42Z</time></trkpt><trkpt lat="49.16812262392846" lon="2.5646604138259184"><ele>73.0</ele><time>2026-03-22T15:41:46Z</time></trkpt><trkpt lat="49.16803816078369" lon="2.564613417398072"><ele>72.66666666666666</ele><time>2026-03-22T15:41:49Z</time></trkpt><trkpt lat="49.16797326630516" lon="2.5645629674953474"><ele>72.33333333333333</ele><time>2026-03-22T15:41:51Z</time></trkpt><trkpt lat="49.16790483224272" lon="2.5645126442218684"><ele>72.0</ele><time>2026-03-22T15:41:53Z</time></trkpt><trkpt lat="49.16783245271383" lon="2.5644602177328184"><ele>71.66666666666667</ele><time>2026-03-22T15:41:55Z</time></trkpt><trkpt lat="49.16775932678972" lon="2.564404151783149"><ele>71.33333333333334</ele><time>2026-03-22T15:41:57Z</time></trkpt><trkpt lat="49.16767782174701" lon="2.5643492930647427"><ele>71.0</ele><time>2026-03-22T15:41:58.999Z</time></trkpt><trkpt lat="49.167598843272174" lon="2.5642899752423265"><ele>71.0</ele><time>2026-03-22T15:42:00.999Z</time></trkpt><trkpt lat="49.16751886402401" lon="2.5642324733575736"><ele>71.0</ele><time>2026-03-22T15:42:02.999Z</time></trkpt><trkpt lat="49.167435989802286" lon="2.564171878433561"><ele>71.0</ele><time>2026-03-22T15:42:04.999Z</time></trkpt><trkpt lat="49.16735452028388" lon="2.564108936254739"><ele>71.0</ele><time>2026-03-22T15:42:06.999Z</time></trkpt><trkpt lat="49.16727226479059" lon="2.5640478872633206"><ele>71.0</ele><time>2026-03-22T15:42:08.999Z</time></trkpt><trkpt lat="49.16718447113405" lon="2.5639854950066647"><ele>71.0</ele><time>2026-03-22T15:42:10.999Z</time></trkpt><trkpt lat="49.16709576926637" lon="2.563925349766035"><ele>71.0</ele><time>2026-03-22T15:42:12.999Z</time></trkpt><trkpt lat="49.16701072379335" lon="2.5638675128429216"><ele>71.0</ele><time>2026-03-22T15:42:14.999Z</time></trkpt><trkpt lat="49.166919724203325" lon="2.5637968243626674"><ele>71.0</ele><time>2026-03-22T15:42:16.999Z</time></trkpt><trkpt lat="49.16682853616993" lon="2.563729950828357"><ele>71.0</ele><time>2026-03-22T15:42:18.999Z</time></trkpt><trkpt lat="49.166736250384666" lon="2.5636635269321455"><ele>71.2</ele><time>2026-03-22T15:42:20.999Z</time></trkpt><trkpt lat="49.16664169013509" lon="2.5635965679033177"><ele>71.39999999999999</ele><time>2026-03-22T15:42:22.999Z</time></trkpt><trkpt lat="49.166551837956185" lon="2.563537755842259"><ele>71.6</ele><time>2026-03-22T15:42:24.999Z</time></trkpt><trkpt lat="49.16646001469618" lon="2.563470038516854"><ele>71.8</ele><time>2026-03-22T15:42:26.999Z</time></trkpt><trkpt lat="49.16636394434636" lon="2.5634022060706356"><ele>72.0</ele><time>2026-03-22T15:42:28.999Z</time></trkpt><trkpt lat="49.166272761730234" lon="2.563332421808134"><ele>72.0</ele><time>2026-03-22T15:42:30.998Z</time></trkpt><trkpt lat="49.166167240864105" lon="2.5632642943771162"><ele>72.0</ele><time>2026-03-22T15:42:32.998Z</time></trkpt><trkpt lat="49.1660701347304" lon="2.5631942831964745"><ele>72.0</ele><time>2026-03-22T15:42:34.998Z</time></trkpt><trkpt lat="49.16596873674013" lon="2.563128466711809"><ele>72.0</ele><time>2026-03-22T15:42:36.998Z</time></trkpt><trkpt lat="49.16587121475258" lon="2.5630541648595364"><ele>72.0</ele><time>2026-03-22T15:42:38.998Z</time></trkpt><trkpt lat="49.16576995726172" lon="2.562979240726603"><ele>72.2</ele><time>2026-03-22T15:42:40.998Z</time></trkpt><trkpt lat="49.16567325720113" lon="2.562909301182473"><ele>72.4</ele><time>2026-03-22T15:42:42.998Z</time></trkpt><trkpt lat="49.16556890914892" lon="2.562842422745866"><ele>72.6</ele><time>2026-03-22T15:42:44.998Z</time></trkpt><trkpt lat="49.16547301677176" lon="2.562767280948387"><ele>72.8</ele><time>2026-03-22T15:42:46.998Z</time></trkpt><trkpt lat="49.16537639221851" lon="2.5627070175987514"><ele>73.0</ele><time>2026-03-22T15:42:48.998Z</time></trkpt><trkpt lat="49.165288009329075" lon="2.5626386220576953"><ele>72.8</ele><time>2026-03-22T15:42:50.998Z</time></trkpt><trkpt lat="49.16520597930585" lon="2.562567327213956"><ele>72.6</ele><time>2026-03-22T15:42:52.998Z</time></trkpt><trkpt lat="49.16511472250636" lon="2.5625052795904213"><ele>72.4</ele><time>2026-03-22T15:42:54.998Z</time></trkpt><trkpt lat="49.16501887407589" lon="2.5624420905341534"><ele>72.2</ele><time>2026-03-22T15:42:56.998Z</time></trkpt><trkpt lat="49.16492074807645" lon="2.562368454952341"><ele>72.0</ele><time>2026-03-22T15:42:58.998Z</time></trkpt><trkpt lat="49.16482418277276" lon="2.562296105484328"><ele>72.0</ele><time>2026-03-22T15:43:00.998Z</time></trkpt><trkpt lat="49.16472315229612" lon="2.562229459706815"><ele>72.0</ele><time>2026-03-22T15:43:02.998Z</time></trkpt><trkpt lat="49.16462168639677" lon="2.562159750732224"><ele>72.0</ele><time>2026-03-22T15:43:04.997Z</time></trkpt><trkpt lat="49.164523427039036" lon="2.5620854173496066"><ele>72.0</ele><time>2026-03-22T15:43:06.997Z</time></trkpt><trkpt lat="49.16442898756772" lon="2.562015626924607"><ele>72.0</ele><time>2026-03-22T15:43:08.997Z</time></trkpt><trkpt lat="49.164334770480124" lon="2.561947646892077"><ele>71.6</ele><time>2026-03-22T15:43:10.997Z</time></trkpt><trkpt lat="49.16424632895734" lon="2.561885377494349"><ele>71.2</ele><time>2026-03-22T15:43:12.997Z</time></trkpt><trkpt lat="49.16416428893366" lon="2.5618194694750778"><ele>70.8</ele><time>2026-03-22T15:43:14.997Z</time></trkpt><trkpt lat="49.16408832771449" lon="2.561739523684035"><ele>70.4</ele><time>2026-03-22T15:43:16.997Z</time></trkpt><trkpt lat="49.164040270115855" lon="2.5616076985195706"><ele>70.0</ele><time>2026-03-22T15:43:18.997Z</time></trkpt><trkpt lat="49.1640281440043" lon="2.561459949806892"><ele>70.0</ele><time>2026-03-22T15:43:20.997Z</time></trkpt><trkpt lat="49.16401670469523" lon="2.5613224080516783"><ele>70.0</ele><time>2026-03-22T15:43:22.997Z</time></trkpt><trkpt lat="49.16398643601057" lon="2.561178933863084"><ele>70.0</ele><time>2026-03-22T15:43:24.997Z</time></trkpt><trkpt lat="49.1638778978973" lon="2.561095060630294"><ele>70.0</ele><time>2026-03-22T15:43:26.997Z</time></trkpt><trkpt lat="49.16376049548964" lon="2.5610672242057824"><ele>70.0</ele><time>2026-03-22T15:43:28.997Z</time></trkpt><trkpt lat="49.16364104824566" lon="2.561061603992294"><ele>70.0</ele><time>2026-03-22T15:43:30.997Z</time></trkpt><trkpt lat="49.16357591385619" lon="2.561076402704758"><ele>70.0</ele><time>2026-03-22T15:43:31.997Z</time></trkpt><trkpt lat="49.16346953522349" lon="2.561112296549584"><ele>70.0</ele><time>2026-03-22T15:43:33.997Z</time></trkpt><trkpt lat="49.16336411774027" lon="2.561139443923947"><ele>70.0</ele><time>2026-03-22T15:43:35.997Z</time></trkpt><trkpt lat="49.16326728538108" lon="2.5611354330501253"><ele>70.0</ele><time>2026-03-22T15:43:38Z</time></trkpt><trkpt lat="49.16317257016902" lon="2.5611022431836963"><ele>69.4</ele><time>2026-03-22T15:43:40Z</time></trkpt><trkpt lat="49.1630819343515" lon="2.5610425566280743"><ele>68.8</ele><time>2026-03-22T15:43:42Z</time></trkpt><trkpt lat="49.162985011098314" lon="2.5609767023412346"><ele>68.2</ele><time>2026-03-22T15:43:44Z</time></trkpt><trkpt lat="49.16289201138807" lon="2.5609083324460347"><ele>67.6</ele><time>2026-03-22T15:43:46Z</time></trkpt><trkpt lat="49.1627950279814" lon="2.560838160308559"><ele>67.0</ele><time>2026-03-22T15:43:48Z</time></trkpt><trkpt lat="49.16269417488814" lon="2.5607745577351286"><ele>67.0</ele><time>2026-03-22T15:43:50Z</time></trkpt><trkpt lat="49.16259582793956" lon="2.560697454149226"><ele>67.0</ele><time>2026-03-22T15:43:52Z</time></trkpt><trkpt lat="49.16249811743644" lon="2.560627900315051"><ele>67.0</ele><time>2026-03-22T15:43:54Z</time></trkpt><trkpt lat="49.16239777703367" lon="2.5605479840399257"><ele>67.0</ele><time>2026-03-22T15:43:56Z</time></trkpt><trkpt lat="49.16229496685396" lon="2.5604729703349696"><ele>67.0</ele><time>2026-03-22T15:43:58Z</time></trkpt><trkpt lat="49.16219128997015" lon="2.5603956790474407"><ele>66.75</ele><time>2026-03-22T15:44:00Z</time></trkpt><trkpt lat="49.16209584609797" lon="2.560327492032141"><ele>66.5</ele><time>2026-03-22T15:44:02Z</time></trkpt><trkpt lat="49.16198894239894" lon="2.5602557955187586"><ele>66.25</ele><time>2026-03-22T15:44:03.999Z</time></trkpt><trkpt lat="49.16187914252773" lon="2.5601803643148213"><ele>66.0</ele><time>2026-03-22T15:44:05.999Z</time></trkpt><trkpt lat="49.16178032265853" lon="2.5600959468892355"><ele>66.0</ele><time>2026-03-22T15:44:07.999Z</time></trkpt><trkpt lat="49.16172147648769" lon="2.5600584458591946"><ele>66.0</ele><time>2026-03-22T15:44:08.999Z</time></trkpt><trkpt lat="49.16160981355443" lon="2.559982538816816"><ele>66.0</ele><time>2026-03-22T15:44:10.999Z</time></trkpt><trkpt lat="49.16150132960197" lon="2.5599019675110695"><ele>66.0</ele><time>2026-03-22T15:44:12.999Z</time></trkpt><trkpt lat="49.1613946296419" lon="2.5598242879481616"><ele>66.0</ele><time>2026-03-22T15:44:14.999Z</time></trkpt><trkpt lat="49.16128660954113" lon="2.5597457360487725"><ele>65.83333333333333</ele><time>2026-03-22T15:44:16.999Z</time></trkpt><trkpt lat="49.16122854291149" lon="2.5597060791572233"><ele>65.66666666666667</ele><time>2026-03-22T15:44:17.999Z</time></trkpt><trkpt lat="49.161118871834866" lon="2.559630446263223"><ele>65.5</ele><time>2026-03-22T15:44:19.999Z</time></trkpt><trkpt lat="49.16106178637463" lon="2.5595864677911595"><ele>65.33333333333334</ele><time>2026-03-22T15:44:20.999Z</time></trkpt><trkpt lat="49.161003928775294" lon="2.5595463667442386"><ele>65.16666666666667</ele><time>2026-03-22T15:44:21.999Z</time></trkpt><trkpt lat="49.16089289065784" lon="2.559465655633593"><ele>65.0</ele><time>2026-03-22T15:44:23.999Z</time></trkpt><trkpt lat="49.16077960220012" lon="2.5593866438436352"><ele>66.0</ele><time>2026-03-22T15:44:25.999Z</time></trkpt><trkpt lat="49.16066810045435" lon="2.5593134658389354"><ele>67.0</ele><time>2026-03-22T15:44:27.999Z</time></trkpt><trkpt lat="49.16055734705415" lon="2.559225855733715"><ele>68.0</ele><time>2026-03-22T15:44:29.999Z</time></trkpt><trkpt lat="49.160444731739304" lon="2.5591262883842925"><ele>69.0</ele><time>2026-03-22T15:44:31.999Z</time></trkpt><trkpt lat="49.16038835791575" lon="2.5590821974961373"><ele>70.0</ele><time>2026-03-22T15:44:32.999Z</time></trkpt><trkpt lat="49.16032951921247" lon="2.559039873785747"><ele>70.0</ele><time>2026-03-22T15:44:33.999Z</time></trkpt><trkpt lat="49.16027005072006" lon="2.559005977958863"><ele>70.0</ele><time>2026-03-22T15:44:34.999Z</time></trkpt><trkpt lat="49.16016766001362" lon="2.5589437303772242"><ele>70.0</ele><time>2026-03-22T15:44:36.999Z</time></trkpt><trkpt lat="49.160093755039604" lon="2.558837092118375"><ele>70.0</ele><time>2026-03-22T15:44:38.998Z</time></trkpt><trkpt lat="49.160058079181916" lon="2.558683444641592"><ele>70.0</ele><time>2026-03-22T15:44:40.998Z</time></trkpt><trkpt lat="49.16003517871523" lon="2.5585207186631442"><ele>70.2</ele><time>2026-03-22T15:44:42.998Z</time></trkpt><trkpt lat="49.15999552925757" lon="2.5583811241309267"><ele>70.4</ele><time>2026-03-22T15:44:44.998Z</time></trkpt><trkpt lat="49.15993892211746" lon="2.5582320451724208"><ele>70.6</ele><time>2026-03-22T15:44:46.998Z</time></trkpt><trkpt lat="49.1598801164267" lon="2.5580955192773462"><ele>70.8</ele><time>2026-03-22T15:44:48.998Z</time></trkpt><trkpt lat="49.15983994753747" lon="2.557945427813181"><ele>71.0</ele><time>2026-03-22T15:44:50.998Z</time></trkpt><trkpt lat="49.159798634205956" lon="2.5577833558784224"><ele>71.0</ele><time>2026-03-22T15:44:52.998Z</time></trkpt><trkpt lat="49.15977952373445" lon="2.557612330248389"><ele>71.0</ele><time>2026-03-22T15:44:54.998Z</time></trkpt><trkpt lat="49.1597673927797" lon="2.557453175958417"><ele>71.0</ele><time>2026-03-22T15:44:56.998Z</time></trkpt><trkpt lat="49.15973929327696" lon="2.5572983471410478"><ele>71.0</ele><time>2026-03-22T15:44:58.998Z</time></trkpt><trkpt lat="49.15971510035137" lon="2.5571353246616724"><ele>71.0</ele><time>2026-03-22T15:45:00.998Z</time></trkpt><trkpt lat="49.159664621521664" lon="2.5569833773662074"><ele>70.6</ele><time>2026-03-22T15:45:02.998Z</time></trkpt><trkpt lat="49.159619637096846" lon="2.556831708910559"><ele>70.19999999999999</ele><time>2026-03-22T15:45:04.998Z</time></trkpt><trkpt lat="49.1596024328567" lon="2.5566819023336165"><ele>69.80000000000001</ele><time>2026-03-22T15:45:06.998Z</time></trkpt><trkpt lat="49.159580047546434" lon="2.5565284849652303"><ele>69.4</ele><time>2026-03-22T15:45:08.998Z</time></trkpt><trkpt lat="49.15956984686082" lon="2.55637452046283"><ele>69.0</ele><time>2026-03-22T15:45:10.998Z</time></trkpt><trkpt lat="49.15956844392816" lon="2.556223505370245"><ele>69.0</ele><time>2026-03-22T15:45:12.997Z</time></trkpt><trkpt lat="49.159550244602" lon="2.5560903414556884"><ele>69.0</ele><time>2026-03-22T15:45:14.997Z</time></trkpt><trkpt lat="49.15954523379716" lon="2.5559563194394466"><ele>69.0</ele><time>2026-03-22T15:45:16.997Z</time></trkpt><trkpt lat="49.15953797875488" lon="2.5558225617314343"><ele>69.0</ele><time>2026-03-22T15:45:18.997Z</time></trkpt><trkpt lat="49.15949275354875" lon="2.5556952920858382"><ele>69.0</ele><time>2026-03-22T15:45:20.997Z</time></trkpt><trkpt lat="49.159452930373185" lon="2.5555749686842693"><ele>69.0</ele><time>2026-03-22T15:45:22.997Z</time></trkpt><trkpt lat="49.15941064084387" lon="2.555438922472215"><ele>69.2</ele><time>2026-03-22T15:45:24.997Z</time></trkpt><trkpt lat="49.15936476742264" lon="2.555294805709287"><ele>69.4</ele><time>2026-03-22T15:45:26.997Z</time></trkpt><trkpt lat="49.15932877837196" lon="2.5551411557354253"><ele>69.6</ele><time>2026-03-22T15:45:28.997Z</time></trkpt><trkpt lat="49.159293932557034" lon="2.5549975759710613"><ele>69.8</ele><time>2026-03-22T15:45:30.997Z</time></trkpt><trkpt lat="49.15926471383214" lon="2.5548635318395827"><ele>70.0</ele><time>2026-03-22T15:45:32.997Z</time></trkpt><trkpt lat="49.15920879545598" lon="2.554755605952929"><ele>70.0</ele><time>2026-03-22T15:45:34.997Z</time></trkpt><trkpt lat="49.1591470454969" lon="2.5546612463928886"><ele>70.0</ele><time>2026-03-22T15:45:36.997Z</time></trkpt><trkpt lat="49.1590794109838" lon="2.554579347768969"><ele>70.0</ele><time>2026-03-22T15:45:38.997Z</time></trkpt><trkpt lat="49.15901387277601" lon="2.5544787904165496"><ele>70.0</ele><time>2026-03-22T15:45:40.997Z</time></trkpt><trkpt lat="49.15895224371903" lon="2.5543807813385717"><ele>70.0</ele><time>2026-03-22T15:45:42.997Z</time></trkpt><trkpt lat="49.15888162954435" lon="2.55428084843917"><ele>69.4</ele><time>2026-03-22T15:45:45Z</time></trkpt><trkpt lat="49.15881930526545" lon="2.554171755175812"><ele>68.8</ele><time>2026-03-22T15:45:47Z</time></trkpt><trkpt lat="49.158750011173815" lon="2.5540630073343515"><ele>68.2</ele><time>2026-03-22T15:45:49Z</time></trkpt><trkpt lat="49.15868721430895" lon="2.5539514138412858"><ele>67.6</ele><time>2026-03-22T15:45:51Z</time></trkpt><trkpt lat="49.15863028520444" lon="2.553836302134914"><ele>67.0</ele><time>2026-03-22T15:45:53Z</time></trkpt><trkpt lat="49.15857198500702" lon="2.5537326035180175"><ele>67.16666666666666</ele><time>2026-03-22T15:45:55Z</time></trkpt><trkpt lat="49.158525469203056" lon="2.5536209218355643"><ele>67.33333333333333</ele><time>2026-03-22T15:45:57Z</time></trkpt><trkpt lat="49.15847078499339" lon="2.553525193685075"><ele>67.5</ele><time>2026-03-22T15:45:59Z</time></trkpt><trkpt lat="49.15842667906866" lon="2.5534211435669483"><ele>67.66666666666667</ele><time>2026-03-22T15:46:01Z</time></trkpt><trkpt lat="49.15839008297517" lon="2.5533031099541827"><ele>67.83333333333334</ele><time>2026-03-22T15:46:03Z</time></trkpt><trkpt lat="49.158346543729834" lon="2.553159874587627"><ele>68.0</ele><time>2026-03-22T15:46:05Z</time></trkpt><trkpt lat="49.15829881695974" lon="2.5530326418596503"><ele>68.0</ele><time>2026-03-22T15:46:07Z</time></trkpt><trkpt lat="49.15825333304834" lon="2.552909867303638"><ele>68.0</ele><time>2026-03-22T15:46:08.999Z</time></trkpt><trkpt lat="49.158207916184445" lon="2.5528078480290812"><ele>68.0</ele><time>2026-03-22T15:46:10.999Z</time></trkpt><trkpt lat="49.15816149627654" lon="2.5527172734653893"><ele>68.0</ele><time>2026-03-22T15:46:12.999Z</time></trkpt><trkpt lat="49.158092571089526" lon="2.552635920180962"><ele>68.0</ele><time>2026-03-22T15:46:14.999Z</time></trkpt><trkpt lat="49.15801505892624" lon="2.5525690503153844"><ele>68.0</ele><time>2026-03-22T15:46:16.999Z</time></trkpt><trkpt lat="49.157931818685256" lon="2.552501145302218"><ele>67.33333333333334</ele><time>2026-03-22T15:46:18.999Z</time></trkpt><trkpt lat="49.157851884952095" lon="2.5524281558641633"><ele>66.66666666666667</ele><time>2026-03-22T15:46:20.999Z</time></trkpt><trkpt lat="49.15778660287807" lon="2.5523587279642617"><ele>66.0</ele><time>2026-03-22T15:46:22.999Z</time></trkpt><trkpt lat="49.15771260218651" lon="2.5522973502555963"><ele>65.33333333333333</ele><time>2026-03-22T15:46:24.999Z</time></trkpt><trkpt lat="49.15764008945867" lon="2.5522229400803274"><ele>64.66666666666666</ele><time>2026-03-22T15:46:26.999Z</time></trkpt><trkpt lat="49.15757973832822" lon="2.5521468842063806"><ele>64.0</ele><time>2026-03-22T15:46:28.999Z</time></trkpt><trkpt lat="49.157505617997884" lon="2.552068810083791"><ele>63.49999999999999</ele><time>2026-03-22T15:46:42.999Z</time></trkpt><trkpt lat="49.157440353684194" lon="2.552025960025337"><ele>63.0</ele><time>2026-03-22T15:46:44.998Z</time></trkpt><trkpt lat="49.15736473522421" lon="2.5519679266701116"><ele>62.5</ele><time>2026-03-22T15:46:46.998Z</time></trkpt><trkpt lat="49.157283368958154" lon="2.5519144374369738"><ele>62.0</ele><time>2026-03-22T15:46:48.998Z</time></trkpt><trkpt lat="49.157202487422786" lon="2.551837159498337"><ele>61.49999999999999</ele><time>2026-03-22T15:46:50.998Z</time></trkpt><trkpt lat="49.157149794905884" lon="2.551754485810684"><ele>61.0</ele><time>2026-03-22T15:46:52.998Z</time></trkpt><trkpt lat="49.157184975838504" lon="2.551639147906809"><ele>60.33333333333333</ele><time>2026-03-22T15:46:54.998Z</time></trkpt><trkpt lat="49.15716768266114" lon="2.5514842138966163"><ele>59.666666666666664</ele><time>2026-03-22T15:46:57.998Z</time></trkpt><trkpt lat="49.15709628191622" lon="2.55144271277884"><ele>59.0</ele><time>2026-03-22T15:46:59.998Z</time></trkpt><trkpt lat="49.15703272190854" lon="2.551385259715897"><ele>58.33333333333333</ele><time>2026-03-22T15:47:01.998Z</time></trkpt><trkpt lat="49.15695269315909" lon="2.551364804345701"><ele>57.666666666666664</ele><time>2026-03-22T15:47:03.998Z</time></trkpt><trkpt lat="49.15687398646917" lon="2.5513135618468366"><ele>57.0</ele><time>2026-03-22T15:47:05.998Z</time></trkpt><trkpt lat="49.15680189680404" lon="2.5512218877083788"><ele>56.6</ele><time>2026-03-22T15:47:07.998Z</time></trkpt><trkpt lat="49.156703678654786" lon="2.5511531420322706"><ele>56.2</ele><time>2026-03-22T15:47:09.998Z</time></trkpt><trkpt lat="49.15659060781098" lon="2.551106439150568"><ele>55.8</ele><time>2026-03-22T15:47:11.998Z</time></trkpt><trkpt lat="49.156514612933556" lon="2.5509610080196796"><ele>55.4</ele><time>2026-03-22T15:47:13.998Z</time></trkpt><trkpt lat="49.156507003026015" lon="2.5508631825559953"><ele>55.0</ele><time>2026-03-22T15:47:14.998Z</time></trkpt><trkpt lat="49.15651718498087" lon="2.550766351940156"><ele>55.0</ele><time>2026-03-22T15:47:15.998Z</time></trkpt><trkpt lat="49.15648727519229" lon="2.5505958391331895"><ele>55.0</ele><time>2026-03-22T15:47:17.997Z</time></trkpt><trkpt lat="49.156443411508484" lon="2.550446211529169"><ele>55.0</ele><time>2026-03-22T15:47:19.997Z</time></trkpt><trkpt lat="49.15642583314473" lon="2.550275197653901"><ele>55.0</ele><time>2026-03-22T15:47:21.997Z</time></trkpt><trkpt lat="49.15638458967685" lon="2.5501160841208166"><ele>55.0</ele><time>2026-03-22T15:47:23.997Z</time></trkpt><trkpt lat="49.156359196312096" lon="2.549949996551542"><ele>55.4</ele><time>2026-03-22T15:47:25.997Z</time></trkpt><trkpt lat="49.15632891195524" lon="2.549788798159448"><ele>55.8</ele><time>2026-03-22T15:47:27.997Z</time></trkpt><trkpt lat="49.15631579556627" lon="2.5496198121092863"><ele>56.2</ele><time>2026-03-22T15:47:29.997Z</time></trkpt><trkpt lat="49.15628635910692" lon="2.5494554417745023"><ele>56.6</ele><time>2026-03-22T15:47:31.997Z</time></trkpt><trkpt lat="49.15625765621206" lon="2.54929669268877"><ele>57.0</ele><time>2026-03-22T15:47:33.997Z</time></trkpt><trkpt lat="49.1562288367298" lon="2.5491387701227106"><ele>57.0</ele><time>2026-03-22T15:47:35.997Z</time></trkpt><trkpt lat="49.15619976301855" lon="2.5489841905256094"><ele>57.0</ele><time>2026-03-22T15:47:37.997Z</time></trkpt><trkpt lat="49.15617070329453" lon="2.5488296852942853"><ele>57.0</ele><time>2026-03-22T15:47:39.997Z</time></trkpt><trkpt lat="49.15614112138746" lon="2.5486775654633917"><ele>57.0</ele><time>2026-03-22T15:47:41.997Z</time></trkpt><trkpt lat="49.15610975539986" lon="2.548524336495285"><ele>57.0</ele><time>2026-03-22T15:47:43.997Z</time></trkpt><trkpt lat="49.156074402011384" lon="2.5483711013848223"><ele>56.6</ele><time>2026-03-22T15:47:45.997Z</time></trkpt><trkpt lat="49.156033661629706" lon="2.548219823147511"><ele>56.2</ele><time>2026-03-22T15:47:47.997Z</time></trkpt><trkpt lat="49.155983762753415" lon="2.5480687215687143"><ele>55.8</ele><time>2026-03-22T15:47:50Z</time></trkpt><trkpt lat="49.15593241099089" lon="2.5479283414749045"><ele>55.4</ele><time>2026-03-22T15:47:52Z</time></trkpt><trkpt lat="49.15586460455695" lon="2.5477883433557387"><ele>55.0</ele><time>2026-03-22T15:47:54Z</time></trkpt><trkpt lat="49.1557650027321" lon="2.547710435332358"><ele>54.666666666666664</ele><time>2026-03-22T15:47:56Z</time></trkpt><trkpt lat="49.15570984001451" lon="2.5476524309135193"><ele>54.33333333333333</ele><time>2026-03-22T15:47:57Z</time></trkpt><trkpt lat="49.15566182899511" lon="2.5475325578780157"><ele>54.0</ele><time>2026-03-22T15:47:59Z</time></trkpt><trkpt lat="49.15560478720523" lon="2.5474201197369593"><ele>53.66666666666667</ele><time>2026-03-22T15:48:01Z</time></trkpt><trkpt lat="49.15556136519479" lon="2.547308384689863"><ele>53.333333333333336</ele><time>2026-03-22T15:48:03Z</time></trkpt><trkpt lat="49.15552048138737" lon="2.5471990689313895"><ele>53.0</ele><time>2026-03-22T15:48:05Z</time></trkpt><trkpt lat="49.15548115927346" lon="2.5470757986807375"><ele>53.333333333333336</ele><time>2026-03-22T15:48:07Z</time></trkpt><trkpt lat="49.15544711095262" lon="2.546968265317282"><ele>53.66666666666667</ele><time>2026-03-22T15:48:09Z</time></trkpt><trkpt lat="49.15540311682485" lon="2.5468559917655433"><ele>54.0</ele><time>2026-03-22T15:48:11Z</time></trkpt><trkpt lat="49.155382083338196" lon="2.5467146262125158"><ele>54.33333333333333</ele><time>2026-03-22T15:48:12.999Z</time></trkpt><trkpt lat="49.15535072780996" lon="2.5465923245050015"><ele>54.666666666666664</ele><time>2026-03-22T15:48:14.999Z</time></trkpt><trkpt lat="49.15531794530831" lon="2.5464649344615014"><ele>55.0</ele><time>2026-03-22T15:48:16.999Z</time></trkpt><trkpt lat="49.15529833071323" lon="2.546333149658564"><ele>54.99999999999999</ele><time>2026-03-22T15:48:18.999Z</time></trkpt><trkpt lat="49.15528130033142" lon="2.5462145015348585"><ele>55.0</ele><time>2026-03-22T15:48:20.999Z</time></trkpt><trkpt lat="49.15526289689059" lon="2.5460862875056653"><ele>55.0</ele><time>2026-03-22T15:48:22.999Z</time></trkpt><trkpt lat="49.15525748539089" lon="2.5459647981686375"><ele>55.0</ele><time>2026-03-22T15:48:24.999Z</time></trkpt><trkpt lat="49.15525206046578" lon="2.545838433180068"><ele>54.99999999999999</ele><time>2026-03-22T15:48:26.999Z</time></trkpt><trkpt lat="49.15524668643608" lon="2.5457132536765386"><ele>55.0</ele><time>2026-03-22T15:48:28.999Z</time></trkpt><trkpt lat="49.155230594871625" lon="2.5455926632992782"><ele>55.49999999999999</ele><time>2026-03-22T15:48:30.999Z</time></trkpt><trkpt lat="49.155226304586414" lon="2.545477106966277"><ele>56.0</ele><time>2026-03-22T15:48:32.999Z</time></trkpt><trkpt lat="49.15523548288419" lon="2.545356398928997"><ele>56.5</ele><time>2026-03-22T15:48:34.999Z</time></trkpt><trkpt lat="49.15521519761633" lon="2.5452296948354514"><ele>57.0</ele><time>2026-03-22T15:48:36.999Z</time></trkpt><trkpt lat="49.15522967160612" lon="2.545100343397031"><ele>57.49999999999999</ele><time>2026-03-22T15:48:38.999Z</time></trkpt><trkpt lat="49.15522804698135" lon="2.5449720719173134"><ele>58.0</ele><time>2026-03-22T15:48:40.999Z</time></trkpt><trkpt lat="49.15522645676635" lon="2.544846517214779"><ele>58.166666666666664</ele><time>2026-03-22T15:48:42.999Z</time></trkpt><trkpt lat="49.15521383327866" lon="2.5447152553950123"><ele>58.33333333333333</ele><time>2026-03-22T15:48:44.999Z</time></trkpt><trkpt lat="49.15520996891881" lon="2.5445924300483584"><ele>58.5</ele><time>2026-03-22T15:48:46.999Z</time></trkpt><trkpt lat="49.15522421574785" lon="2.54445218818971"><ele>58.66666666666667</ele><time>2026-03-22T15:48:48.998Z</time></trkpt><trkpt lat="49.155227879983244" lon="2.5443165486380046"><ele>58.833333333333336</ele><time>2026-03-22T15:48:50.998Z</time></trkpt><trkpt lat="49.15522085069866" lon="2.5441804729285167"><ele>59.0</ele><time>2026-03-22T15:48:52.998Z</time></trkpt><trkpt lat="49.1552221243915" lon="2.544038392393347"><ele>58.800000000000004</ele><time>2026-03-22T15:48:54.998Z</time></trkpt><trkpt lat="49.15522709561865" lon="2.5438945298696756"><ele>58.60000000000001</ele><time>2026-03-22T15:48:56.998Z</time></trkpt><trkpt lat="49.15522742893563" lon="2.5437513360046604"><ele>58.4</ele><time>2026-03-22T15:48:58.998Z</time></trkpt><trkpt lat="49.155217795232595" lon="2.5436072207556695"><ele>58.2</ele><time>2026-03-22T15:49:00.998Z</time></trkpt><trkpt lat="49.155200761652885" lon="2.54345311106364"><ele>58.0</ele><time>2026-03-22T15:49:02.998Z</time></trkpt><trkpt lat="49.155182216827754" lon="2.543295587784035"><ele>58.0</ele><time>2026-03-22T15:49:04.998Z</time></trkpt><trkpt lat="49.15516416458564" lon="2.5431455135668166"><ele>58.0</ele><time>2026-03-22T15:49:06.998Z</time></trkpt><trkpt lat="49.15516290420452" lon="2.54299599731946"><ele>58.0</ele><time>2026-03-22T15:49:08.998Z</time></trkpt><trkpt lat="49.155148706557156" lon="2.54284848559465"><ele>58.0</ele><time>2026-03-22T15:49:10.998Z</time></trkpt><trkpt lat="49.155119081325495" lon="2.542707571880202"><ele>58.0</ele><time>2026-03-22T15:49:12.998Z</time></trkpt><trkpt lat="49.15511084122273" lon="2.542562494101428"><ele>58.2</ele><time>2026-03-22T15:49:14.998Z</time></trkpt><trkpt lat="49.15509426933222" lon="2.5424186693197623"><ele>58.4</ele><time>2026-03-22T15:49:16.998Z</time></trkpt><trkpt lat="49.15509302132654" lon="2.542269854283751"><ele>58.60000000000001</ele><time>2026-03-22T15:49:18.998Z</time></trkpt><trkpt lat="49.15507400837377" lon="2.5421146905346794"><ele>58.800000000000004</ele><time>2026-03-22T15:49:20.998Z</time></trkpt><trkpt lat="49.155080700733656" lon="2.5419544560464775"><ele>59.0</ele><time>2026-03-22T15:49:22.997Z</time></trkpt><trkpt lat="49.155057850507596" lon="2.5417964599683427"><ele>59.0</ele><time>2026-03-22T15:49:24.997Z</time></trkpt><trkpt lat="49.155072959188786" lon="2.5416384474425695"><ele>59.00000000000001</ele><time>2026-03-22T15:49:26.997Z</time></trkpt><trkpt lat="49.15505900343126" lon="2.5414791643492483"><ele>59.00000000000001</ele><time>2026-03-22T15:49:28.997Z</time></trkpt><trkpt lat="49.15506334685161" lon="2.541322834395825"><ele>59.0</ele><time>2026-03-22T15:49:30.997Z</time></trkpt><trkpt lat="49.15506423619671" lon="2.541164193387897"><ele>59.0</ele><time>2026-03-22T15:49:32.997Z</time></trkpt><trkpt lat="49.1550653700044" lon="2.541029442112472"><ele>59.00000000000001</ele><time>2026-03-22T15:49:34.997Z</time></trkpt><trkpt lat="49.15506679685304" lon="2.540885535021031"><ele>59.0</ele><time>2026-03-22T15:49:36.997Z</time></trkpt><trkpt lat="49.15506408539533" lon="2.5407638208122414"><ele>59.0</ele><time>2026-03-22T15:49:38.997Z</time></trkpt><trkpt lat="49.15507732538737" lon="2.540633579256406"><ele>59.0</ele><time>2026-03-22T15:49:40.997Z</time></trkpt><trkpt lat="49.155083765013984" lon="2.54049688427994"><ele>59.00000000000001</ele><time>2026-03-22T15:49:42.997Z</time></trkpt><trkpt lat="49.15509331387182" lon="2.540364317325257"><ele>59.0</ele><time>2026-03-22T15:49:44.997Z</time></trkpt><trkpt lat="49.15510816649287" lon="2.5402253577653595"><ele>58.66666666666667</ele><time>2026-03-22T15:49:46.997Z</time></trkpt><trkpt lat="49.15512071868443" lon="2.5400955282889646"><ele>58.333333333333336</ele><time>2026-03-22T15:49:48.997Z</time></trkpt><trkpt lat="49.155130862374705" lon="2.5399524963547893"><ele>58.0</ele><time>2026-03-22T15:49:50.997Z</time></trkpt><trkpt lat="49.1551378677202" lon="2.539814691009938"><ele>57.66666666666667</ele><time>2026-03-22T15:49:52.997Z</time></trkpt><trkpt lat="49.15515905866818" lon="2.539685433214203"><ele>57.333333333333336</ele><time>2026-03-22T15:49:55Z</time></trkpt><trkpt lat="49.15515241709273" lon="2.5395540039939815"><ele>57.0</ele><time>2026-03-22T15:49:57Z</time></trkpt><trkpt lat="49.15516895004818" lon="2.539422986729395"><ele>57.0</ele><time>2026-03-22T15:49:59Z</time></trkpt><trkpt lat="49.155171582701044" lon="2.5392956196251686"><ele>57.0</ele><time>2026-03-22T15:50:01Z</time></trkpt><trkpt lat="49.15515728308454" lon="2.5391651293221913"><ele>57.0</ele><time>2026-03-22T15:50:03Z</time></trkpt><trkpt lat="49.155161506749735" lon="2.539035232416669"><ele>57.0</ele><time>2026-03-22T15:50:05Z</time></trkpt><trkpt lat="49.15517555110991" lon="2.538909493879352"><ele>57.0</ele><time>2026-03-22T15:50:07Z</time></trkpt><trkpt lat="49.15515793792686" lon="2.5387946635510206"><ele>57.0</ele><time>2026-03-22T15:50:09Z</time></trkpt><trkpt lat="49.1551491273064" lon="2.538672984496179"><ele>57.8</ele><time>2026-03-22T15:50:11Z</time></trkpt><trkpt lat="49.15516075658252" lon="2.5385388853429514"><ele>58.6</ele><time>2026-03-22T15:50:13Z</time></trkpt><trkpt lat="49.15516123566978" lon="2.5383958445360966"><ele>59.39999999999999</ele><time>2026-03-22T15:50:15Z</time></trkpt><trkpt lat="49.15516160329325" lon="2.5382517366054436"><ele>60.199999999999996</ele><time>2026-03-22T15:50:17Z</time></trkpt><trkpt lat="49.15516259123524" lon="2.5380979440548153"><ele>61.0</ele><time>2026-03-22T15:50:18.999Z</time></trkpt><trkpt lat="49.155164898890284" lon="2.5379501900643593"><ele>61.599999999999994</ele><time>2026-03-22T15:50:20.999Z</time></trkpt><trkpt lat="49.15516865593076" lon="2.537794109465498"><ele>62.199999999999996</ele><time>2026-03-22T15:50:22.999Z</time></trkpt><trkpt lat="49.15517607427983" lon="2.537641024143217"><ele>62.800000000000004</ele><time>2026-03-22T15:50:24.999Z</time></trkpt><trkpt lat="49.15518883587019" lon="2.537494539099277"><ele>63.400000000000006</ele><time>2026-03-22T15:50:26.999Z</time></trkpt><trkpt lat="49.15521130561245" lon="2.5373578133620307"><ele>64.0</ele><time>2026-03-22T15:50:28.999Z</time></trkpt><trkpt lat="49.15524912606726" lon="2.537229881556807"><ele>64.0</ele><time>2026-03-22T15:50:30.999Z</time></trkpt><trkpt lat="49.15529983423386" lon="2.537128892550389"><ele>63.99999999999999</ele><time>2026-03-22T15:50:32.999Z</time></trkpt><trkpt lat="49.1553496524865" lon="2.537026565374186"><ele>64.0</ele><time>2026-03-22T15:50:34.999Z</time></trkpt><trkpt lat="49.155384234574754" lon="2.536943285547785"><ele>64.0</ele><time>2026-03-22T15:50:36.999Z</time></trkpt><trkpt lat="49.15541464228161" lon="2.536842512255449"><ele>63.99999999999999</ele><time>2026-03-22T15:50:38.999Z</time></trkpt><trkpt lat="49.1554406959968" lon="2.5367441699264273"><ele>64.0</ele><time>2026-03-22T15:50:40.999Z</time></trkpt><trkpt lat="49.155463745070406" lon="2.5366491074803177"><ele>64.0</ele><time>2026-03-22T15:50:42.999Z</time></trkpt><trkpt lat="49.155487738513145" lon="2.5365485875577596"><ele>64.14285714285714</ele><time>2026-03-22T15:50:44.999Z</time></trkpt><trkpt lat="49.155511316124546" lon="2.536448234668726"><ele>64.28571428571428</ele><time>2026-03-22T15:50:46.999Z</time></trkpt><trkpt lat="49.155533320770644" lon="2.536348852710654"><ele>64.42857142857143</ele><time>2026-03-22T15:50:48.999Z</time></trkpt><trkpt lat="49.15555504187773" lon="2.536250751319822"><ele>64.57142857142857</ele><time>2026-03-22T15:50:50.999Z</time></trkpt><trkpt lat="49.15557681043346" lon="2.5361498622714627"><ele>64.71428571428572</ele><time>2026-03-22T15:50:52.999Z</time></trkpt><trkpt lat="49.155600504746666" lon="2.536037897497764"><ele>64.85714285714286</ele><time>2026-03-22T15:50:54.998Z</time></trkpt><trkpt lat="49.155622568173136" lon="2.535933611604117"><ele>65.0</ele><time>2026-03-22T15:50:56.998Z</time></trkpt><trkpt lat="49.155649588675566" lon="2.535797841243236"><ele>65.14285714285715</ele><time>2026-03-22T15:50:59.998Z</time></trkpt><trkpt lat="49.15567073584365" lon="2.5356915827256548"><ele>65.28571428571429</ele><time>2026-03-22T15:51:01.998Z</time></trkpt><trkpt lat="49.1556925121512" lon="2.5355747433888975"><ele>65.42857142857143</ele><time>2026-03-22T15:51:03.998Z</time></trkpt><trkpt lat="49.15571292431255" lon="2.535463444435148"><ele>65.57142857142858</ele><time>2026-03-22T15:51:05.998Z</time></trkpt><trkpt lat="49.155730212092436" lon="2.5353591160352513"><ele>65.71428571428572</ele><time>2026-03-22T15:51:07.998Z</time></trkpt><trkpt lat="49.15573353600166" lon="2.5352539733732518"><ele>65.85714285714286</ele><time>2026-03-22T15:51:09.998Z</time></trkpt><trkpt lat="49.15575259663038" lon="2.5351397762389474"><ele>66.0</ele><time>2026-03-22T15:51:11.998Z</time></trkpt><trkpt lat="49.15578154577073" lon="2.535031353924619"><ele>66.0</ele><time>2026-03-22T15:51:13.998Z</time></trkpt><trkpt lat="49.15579687560306" lon="2.534916329497496"><ele>66.0</ele><time>2026-03-22T15:51:15.998Z</time></trkpt><trkpt lat="49.15580811840011" lon="2.5348001362792716"><ele>66.0</ele><time>2026-03-22T15:51:17.998Z</time></trkpt><trkpt lat="49.155816596973416" lon="2.5346808793030715"><ele>66.0</ele><time>2026-03-22T15:51:19.998Z</time></trkpt><trkpt lat="49.155823119983935" lon="2.5345574309275953"><ele>66.0</ele><time>2026-03-22T15:51:21.998Z</time></trkpt><trkpt lat="49.15582674951957" lon="2.534427106051999"><ele>66.0</ele><time>2026-03-22T15:51:23.998Z</time></trkpt><trkpt lat="49.15582883295598" lon="2.5342989587364735"><ele>65.8</ele><time>2026-03-22T15:51:25.998Z</time></trkpt><trkpt lat="49.15583011427989" lon="2.5341586538849605"><ele>65.6</ele><time>2026-03-22T15:51:27.998Z</time></trkpt><trkpt lat="49.15582866730471" lon="2.5340095903473023"><ele>65.4</ele><time>2026-03-22T15:51:29.997Z</time></trkpt><trkpt lat="49.15582524242416" lon="2.5338656870882983"><ele>65.2</ele><time>2026-03-22T15:51:31.997Z</time></trkpt><trkpt lat="49.15582024391271" lon="2.533721911040007"><ele>65.0</ele><time>2026-03-22T15:51:33.997Z</time></trkpt><trkpt lat="49.155805515281685" lon="2.533581823442908"><ele>64.5</ele><time>2026-03-22T15:51:35.997Z</time></trkpt><trkpt lat="49.155796680160115" lon="2.5334468986475582"><ele>64.0</ele><time>2026-03-22T15:51:37.997Z</time></trkpt><trkpt lat="49.155796440431665" lon="2.5333283587202664"><ele>63.5</ele><time>2026-03-22T15:51:39.997Z</time></trkpt><trkpt lat="49.15578841920483" lon="2.533203783032179"><ele>63.0</ele><time>2026-03-22T15:51:41.997Z</time></trkpt><trkpt lat="49.15576771354447" lon="2.5330836526849456"><ele>62.50000000000001</ele><time>2026-03-22T15:51:43.997Z</time></trkpt><trkpt lat="49.15574071442418" lon="2.532970425769986"><ele>62.0</ele><time>2026-03-22T15:51:45.997Z</time></trkpt><trkpt lat="49.155729622484806" lon="2.532829680911759"><ele>61.6</ele><time>2026-03-22T15:51:47.997Z</time></trkpt><trkpt lat="49.15570013267073" lon="2.532683022798378"><ele>61.2</ele><time>2026-03-22T15:51:49.997Z</time></trkpt><trkpt lat="49.155670854435705" lon="2.532539781479679"><ele>60.8</ele><time>2026-03-22T15:51:51.997Z</time></trkpt><trkpt lat="49.15563935607518" lon="2.5323890130757722"><ele>60.4</ele><time>2026-03-22T15:51:53.997Z</time></trkpt><trkpt lat="49.15559818366575" lon="2.5322543108921503"><ele>60.0</ele><time>2026-03-22T15:51:55.997Z</time></trkpt><trkpt lat="49.155575452493316" lon="2.5321066121056277"><ele>59.6</ele><time>2026-03-22T15:51:57.997Z</time></trkpt><trkpt lat="49.15557371938134" lon="2.5319532169119507"><ele>59.2</ele><time>2026-03-22T15:52:00Z</time></trkpt><trkpt lat="49.15555029007757" lon="2.531789700165287"><ele>58.8</ele><time>2026-03-22T15:52:02Z</time></trkpt><trkpt lat="49.15554063263482" lon="2.5316326662295725"><ele>58.4</ele><time>2026-03-22T15:52:04Z</time></trkpt><trkpt lat="49.15553926591163" lon="2.531469990026748"><ele>58.0</ele><time>2026-03-22T15:52:06Z</time></trkpt><trkpt lat="49.155547327609376" lon="2.5313079368622025"><ele>58.0</ele><time>2026-03-22T15:52:08Z</time></trkpt><trkpt lat="49.155547062837805" lon="2.5311503234445234"><ele>58.0</ele><time>2026-03-22T15:52:10Z</time></trkpt><trkpt lat="49.155556273911486" lon="2.5309986197573253"><ele>58.0</ele><time>2026-03-22T15:52:12Z</time></trkpt><trkpt lat="49.15556198041168" lon="2.53083677576716"><ele>58.0</ele><time>2026-03-22T15:52:14Z</time></trkpt><trkpt lat="49.15556617601179" lon="2.530665246562818"><ele>58.0</ele><time>2026-03-22T15:52:16Z</time></trkpt><trkpt lat="49.155566867990146" lon="2.5304865496132924"><ele>57.75</ele><time>2026-03-22T15:52:18Z</time></trkpt><trkpt lat="49.155571824067906" lon="2.530312588531987"><ele>57.5</ele><time>2026-03-22T15:52:20Z</time></trkpt><trkpt lat="49.15554006038184" lon="2.5301402197359963"><ele>57.25</ele><time>2026-03-22T15:52:22Z</time></trkpt><trkpt lat="49.155517774829185" lon="2.529964599401689"><ele>57.0</ele><time>2026-03-22T15:52:24Z</time></trkpt><trkpt lat="49.15548107640602" lon="2.529789615081967"><ele>57.0</ele><time>2026-03-22T15:52:25.999Z</time></trkpt><trkpt lat="49.15542725160844" lon="2.5296151108134266"><ele>57.0</ele><time>2026-03-22T15:52:27.999Z</time></trkpt><trkpt lat="49.15540687895437" lon="2.5294357865944224"><ele>57.0</ele><time>2026-03-22T15:52:29.999Z</time></trkpt><trkpt lat="49.15537224758062" lon="2.529270634378851"><ele>57.0</ele><time>2026-03-22T15:52:31.999Z</time></trkpt><trkpt lat="49.155340063821086" lon="2.5291175206163237"><ele>56.6</ele><time>2026-03-22T15:52:33.999Z</time></trkpt><trkpt lat="49.1553087207285" lon="2.528971460350571"><ele>56.2</ele><time>2026-03-22T15:52:35.999Z</time></trkpt><trkpt lat="49.1552699701191" lon="2.5288332412593864"><ele>55.8</ele><time>2026-03-22T15:52:37.999Z</time></trkpt><trkpt lat="49.155254917335014" lon="2.528687176938474"><ele>55.4</ele><time>2026-03-22T15:52:39.999Z</time></trkpt><trkpt lat="49.15522993302941" lon="2.528543917048157"><ele>55.0</ele><time>2026-03-22T15:52:41.999Z</time></trkpt><trkpt lat="49.1552300893239" lon="2.528389043268666"><ele>54.2</ele><time>2026-03-22T15:52:43.999Z</time></trkpt><trkpt lat="49.15520881790412" lon="2.5282398269874524"><ele>53.4</ele><time>2026-03-22T15:52:45.999Z</time></trkpt><trkpt lat="49.155189746899545" lon="2.5280892682553215"><ele>52.599999999999994</ele><time>2026-03-22T15:52:47.999Z</time></trkpt><trkpt lat="49.15517757328062" lon="2.5279313401356585"><ele>51.8</ele><time>2026-03-22T15:52:49.999Z</time></trkpt><trkpt lat="49.15518284555863" lon="2.527767406046367"><ele>51.0</ele><time>2026-03-22T15:52:51.999Z</time></trkpt><trkpt lat="49.155173916756894" lon="2.527637665541713"><ele>51.0</ele><time>2026-03-22T15:52:53.999Z</time></trkpt><trkpt lat="49.155151417407424" lon="2.5274924749323007"><ele>51.0</ele><time>2026-03-22T15:52:55.999Z</time></trkpt><trkpt lat="49.155143937145" lon="2.52734589595014"><ele>51.0</ele><time>2026-03-22T15:52:57.999Z</time></trkpt><trkpt lat="49.15513692857352" lon="2.527197684698485"><ele>51.0</ele><time>2026-03-22T15:52:59.999Z</time></trkpt><trkpt lat="49.15515001933731" lon="2.5270534477324036"><ele>51.0</ele><time>2026-03-22T15:53:01.998Z</time></trkpt><trkpt lat="49.155129997498626" lon="2.5269042503588"><ele>51.0</ele><time>2026-03-22T15:53:03.998Z</time></trkpt><trkpt lat="49.15512780161962" lon="2.5267629026975804"><ele>51.0</ele><time>2026-03-22T15:53:05.998Z</time></trkpt><trkpt lat="49.15514284095976" lon="2.526625631161339"><ele>51.0</ele><time>2026-03-22T15:53:07.998Z</time></trkpt><trkpt lat="49.155126919645475" lon="2.5264904452332884"><ele>51.0</ele><time>2026-03-22T15:53:09.998Z</time></trkpt><trkpt lat="49.15514178962974" lon="2.5263635581428514"><ele>51.0</ele><time>2026-03-22T15:53:11.998Z</time></trkpt><trkpt lat="49.15512478486382" lon="2.526246887363965"><ele>51.0</ele><time>2026-03-22T15:53:13.998Z</time></trkpt><trkpt lat="49.15514079741606" lon="2.5261162214933583"><ele>51.166666666666664</ele><time>2026-03-22T15:53:15.998Z</time></trkpt><trkpt lat="49.155140224028216" lon="2.5259732884610084"><ele>51.33333333333333</ele><time>2026-03-22T15:53:17.998Z</time></trkpt><trkpt lat="49.15513979827826" lon="2.5258487813305526"><ele>51.5</ele><time>2026-03-22T15:53:19.998Z</time></trkpt><trkpt lat="49.15513963721797" lon="2.5257270002910164"><ele>51.666666666666664</ele><time>2026-03-22T15:53:21.998Z</time></trkpt><trkpt lat="49.15513946063213" lon="2.5255934790623145"><ele>51.83333333333333</ele><time>2026-03-22T15:53:23.998Z</time></trkpt><trkpt lat="49.155126122743496" lon="2.5254690001418387"><ele>52.0</ele><time>2026-03-22T15:53:25.998Z</time></trkpt><trkpt lat="49.155122579838164" lon="2.525343334744773"><ele>52.33333333333333</ele><time>2026-03-22T15:53:27.998Z</time></trkpt><trkpt lat="49.155141604751584" lon="2.5252172766196073"><ele>52.666666666666664</ele><time>2026-03-22T15:53:29.998Z</time></trkpt><trkpt lat="49.15513139018385" lon="2.52508928119638"><ele>53.0</ele><time>2026-03-22T15:53:31.998Z</time></trkpt><trkpt lat="49.15515295336628" lon="2.5249743068635575"><ele>53.33333333333333</ele><time>2026-03-22T15:53:33.998Z</time></trkpt><trkpt lat="49.155154625947866" lon="2.524861241271383"><ele>53.666666666666664</ele><time>2026-03-22T15:53:35.997Z</time></trkpt><trkpt lat="49.155158083387576" lon="2.5247477111966186"><ele>54.0</ele><time>2026-03-22T15:53:37.997Z</time></trkpt><trkpt lat="49.1551797907624" lon="2.524630503145127"><ele>54.166666666666664</ele><time>2026-03-22T15:53:39.997Z</time></trkpt><trkpt lat="49.155177505097946" lon="2.5245161317710045"><ele>54.33333333333333</ele><time>2026-03-22T15:53:41.997Z</time></trkpt><trkpt lat="49.155175104115976" lon="2.52439598810598"><ele>54.5</ele><time>2026-03-22T15:53:43.997Z</time></trkpt><trkpt lat="49.15515895448735" lon="2.5242488398156326"><ele>54.666666666666664</ele><time>2026-03-22T15:53:45.997Z</time></trkpt><trkpt lat="49.15514948198478" lon="2.52413744567546"><ele>54.83333333333333</ele><time>2026-03-22T15:53:47.997Z</time></trkpt><trkpt lat="49.155139265939184" lon="2.5240358672680636"><ele>55.0</ele><time>2026-03-22T15:53:49.997Z</time></trkpt><trkpt lat="49.15514360601219" lon="2.523939018582877"><ele>54.99999999999999</ele><time>2026-03-22T15:53:51.997Z</time></trkpt><trkpt lat="49.15513685957381" lon="2.5238271170340654"><ele>55.0</ele><time>2026-03-22T15:53:53.997Z</time></trkpt><trkpt lat="49.15512764635379" lon="2.5237127251505997"><ele>55.0</ele><time>2026-03-22T15:53:55.997Z</time></trkpt><trkpt lat="49.15511708565079" lon="2.5235901553830278"><ele>55.0</ele><time>2026-03-22T15:53:57.997Z</time></trkpt><trkpt lat="49.15510900196117" lon="2.523480688982823"><ele>55.0</ele><time>2026-03-22T15:53:59.997Z</time></trkpt><trkpt lat="49.155103351869485" lon="2.5233713957699404"><ele>54.99999999999999</ele><time>2026-03-22T15:54:01.997Z</time></trkpt><trkpt lat="49.15509886137742" lon="2.523269311922871"><ele>55.0</ele><time>2026-03-22T15:54:03.997Z</time></trkpt><trkpt lat="49.155094084898884" lon="2.5231489139305037"><ele>54.99999999999999</ele><time>2026-03-22T15:54:06Z</time></trkpt><trkpt lat="49.155093686616176" lon="2.5230261171205557"><ele>55.0</ele><time>2026-03-22T15:54:09Z</time></trkpt><trkpt lat="49.155096218461246" lon="2.5229007905515624"><ele>55.0</ele><time>2026-03-22T15:54:11Z</time></trkpt><trkpt lat="49.15510309466058" lon="2.5227861361409305"><ele>55.0</ele><time>2026-03-22T15:54:13Z</time></trkpt><trkpt lat="49.155110533221674" lon="2.5226844733028515"><ele>54.99999999999999</ele><time>2026-03-22T15:54:15Z</time></trkpt><trkpt lat="49.15512015404151" lon="2.5225626594154895"><ele>55.0</ele><time>2026-03-22T15:54:17Z</time></trkpt><trkpt lat="49.15512912274927" lon="2.522458270199462"><ele>55.28571428571428</ele><time>2026-03-22T15:54:19Z</time></trkpt><trkpt lat="49.15513895292423" lon="2.5223438536712335"><ele>55.57142857142857</ele><time>2026-03-22T15:54:21Z</time></trkpt><trkpt lat="49.15514470335669" lon="2.522231690825002"><ele>55.857142857142854</ele><time>2026-03-22T15:54:23Z</time></trkpt><trkpt lat="49.15515110349385" lon="2.5221189160049784"><ele>56.14285714285714</ele><time>2026-03-22T15:54:25Z</time></trkpt><trkpt lat="49.155157230192316" lon="2.5220109593122495"><ele>56.42857142857142</ele><time>2026-03-22T15:54:27Z</time></trkpt><trkpt lat="49.1551628906745" lon="2.521911217707743"><ele>56.71428571428571</ele><time>2026-03-22T15:54:29Z</time></trkpt><trkpt lat="49.15516872676989" lon="2.521805658130232"><ele>57.0</ele><time>2026-03-22T15:54:30.999Z</time></trkpt><trkpt lat="49.15517363649512" lon="2.52170703692648"><ele>57.333333333333336</ele><time>2026-03-22T15:54:32.999Z</time></trkpt><trkpt lat="49.15517846729149" lon="2.521592100063924"><ele>57.66666666666667</ele><time>2026-03-22T15:54:34.999Z</time></trkpt><trkpt lat="49.15517992084194" lon="2.5214746349696204"><ele>58.0</ele><time>2026-03-22T15:54:36.999Z</time></trkpt><trkpt lat="49.155175823841425" lon="2.5213458303128222"><ele>58.333333333333336</ele><time>2026-03-22T15:54:38.999Z</time></trkpt><trkpt lat="49.15515694312238" lon="2.5211972999401353"><ele>58.66666666666667</ele><time>2026-03-22T15:54:40.999Z</time></trkpt><trkpt lat="49.155120178095814" lon="2.5210488025140747"><ele>59.0</ele><time>2026-03-22T15:54:42.999Z</time></trkpt><trkpt lat="49.1550764013985" lon="2.5209317431494314"><ele>59.0</ele><time>2026-03-22T15:54:44.999Z</time></trkpt><trkpt lat="49.15505115442331" lon="2.5208283386644346"><ele>59.0</ele><time>2026-03-22T15:54:49.999Z</time></trkpt><trkpt lat="49.1550718685002" lon="2.5207339791905197"><ele>59.0</ele><time>2026-03-22T15:54:51.999Z</time></trkpt><trkpt lat="49.155097681288815" lon="2.520634623587886"><ele>59.0</ele><time>2026-03-22T15:54:53.999Z</time></trkpt><trkpt lat="49.15509967030089" lon="2.520529650132045"><ele>59.0</ele><time>2026-03-22T15:54:55.999Z</time></trkpt><trkpt lat="49.1550974673403" lon="2.5204188943157155"><ele>59.0</ele><time>2026-03-22T15:54:57.999Z</time></trkpt><trkpt lat="49.15510194033882" lon="2.5203008687348074"><ele>59.0</ele><time>2026-03-22T15:54:59.999Z</time></trkpt><trkpt lat="49.15510150652959" lon="2.520181337470385"><ele>58.833333333333336</ele><time>2026-03-22T15:55:01.999Z</time></trkpt><trkpt lat="49.15509610297242" lon="2.5200523486495636"><ele>58.66666666666667</ele><time>2026-03-22T15:55:03.999Z</time></trkpt><trkpt lat="49.1550995604524" lon="2.519923638699388"><ele>58.5</ele><time>2026-03-22T15:55:05.998Z</time></trkpt><trkpt lat="49.155105065437866" lon="2.5198003438492504"><ele>58.33333333333333</ele><time>2026-03-22T15:55:07.998Z</time></trkpt><trkpt lat="49.15510560416337" lon="2.5196669646356353"><ele>58.166666666666664</ele><time>2026-03-22T15:55:09.998Z</time></trkpt><trkpt lat="49.1551091189973" lon="2.519532777366879"><ele>58.0</ele><time>2026-03-22T15:55:11.998Z</time></trkpt><trkpt lat="49.155112193899534" lon="2.519392228194189"><ele>58.0</ele><time>2026-03-22T15:55:13.998Z</time></trkpt><trkpt lat="49.15511667889179" lon="2.5192469141725464"><ele>58.0</ele><time>2026-03-22T15:55:15.998Z</time></trkpt><trkpt lat="49.15511709206886" lon="2.5191027297555517"><ele>58.0</ele><time>2026-03-22T15:55:17.998Z</time></trkpt><trkpt lat="49.155112646778534" lon="2.518956285952167"><ele>58.0</ele><time>2026-03-22T15:55:19.998Z</time></trkpt><trkpt lat="49.155110818698134" lon="2.518811153428325"><ele>58.0</ele><time>2026-03-22T15:55:21.998Z</time></trkpt><trkpt lat="49.15511924749267" lon="2.5186676597491933"><ele>58.2</ele><time>2026-03-22T15:55:23.998Z</time></trkpt><trkpt lat="49.15511423385859" lon="2.5185513524592107"><ele>58.4</ele><time>2026-03-22T15:55:25.998Z</time></trkpt><trkpt lat="49.155006655888656" lon="2.5184933813528225"><ele>58.60000000000001</ele><time>2026-03-22T15:55:26.998Z</time></trkpt><trkpt lat="49.15492785580919" lon="2.518413572052606"><ele>58.800000000000004</ele><time>2026-03-22T15:55:28.998Z</time></trkpt><trkpt lat="49.15484035572752" lon="2.518328613404476"><ele>59.0</ele><time>2026-03-22T15:55:30.998Z</time></trkpt><trkpt lat="49.154747323679416" lon="2.518252514339808"><ele>58.0</ele><time>2026-03-22T15:55:32.998Z</time></trkpt><trkpt lat="49.15465042444351" lon="2.518189982876903"><ele>57.00000000000001</ele><time>2026-03-22T15:55:34.998Z</time></trkpt><trkpt lat="49.154555542852414" lon="2.518129326999824"><ele>56.00000000000001</ele><time>2026-03-22T15:55:36.998Z</time></trkpt><trkpt lat="49.1544609403902" lon="2.5180673364176154"><ele>55.0</ele><time>2026-03-22T15:55:38.998Z</time></trkpt><trkpt lat="49.15436433927261" lon="2.5180036648503954"><ele>54.0</ele><time>2026-03-22T15:55:40.997Z</time></trkpt><trkpt lat="49.15425525481332" lon="2.517937915307373"><ele>54.5</ele><time>2026-03-22T15:55:42.997Z</time></trkpt><trkpt lat="49.154152940368874" lon="2.5178753544368284"><ele>55.0</ele><time>2026-03-22T15:55:44.997Z</time></trkpt><trkpt lat="49.15404432990257" lon="2.517806543679243"><ele>55.5</ele><time>2026-03-22T15:55:46.997Z</time></trkpt><trkpt lat="49.153940267739706" lon="2.5177348704056395"><ele>56.0</ele><time>2026-03-22T15:55:48.997Z</time></trkpt><trkpt lat="49.153838103892554" lon="2.517662626431822"><ele>56.0</ele><time>2026-03-22T15:55:50.997Z</time></trkpt><trkpt lat="49.15374334469737" lon="2.51759315580056"><ele>55.99999999999999</ele><time>2026-03-22T15:55:52.997Z</time></trkpt><trkpt lat="49.15364989848517" lon="2.5175245516629983"><ele>55.99999999999999</ele><time>2026-03-22T15:55:54.997Z</time></trkpt><trkpt lat="49.15355222666023" lon="2.517454061429248"><ele>56.0</ele><time>2026-03-22T15:55:56.997Z</time></trkpt><trkpt lat="49.1534405022461" lon="2.5174092271852606"><ele>56.0</ele><time>2026-03-22T15:55:58.997Z</time></trkpt><trkpt lat="49.15334615691132" lon="2.5173278528900433"><ele>56.0</ele><time>2026-03-22T15:56:00.997Z</time></trkpt><trkpt lat="49.15323229601706" lon="2.5172710143028505"><ele>56.0</ele><time>2026-03-22T15:56:02.997Z</time></trkpt><trkpt lat="49.153121266237186" lon="2.5172584441309196"><ele>56.0</ele><time>2026-03-22T15:56:04.997Z</time></trkpt><trkpt lat="49.15301029904766" lon="2.5172222700496434"><ele>56.0</ele><time>2026-03-22T15:56:06.997Z</time></trkpt><trkpt lat="49.15289475947229" lon="2.517191781163565"><ele>56.0</ele><time>2026-03-22T15:56:08.997Z</time></trkpt><trkpt lat="49.1527774535535" lon="2.5171981887085755"><ele>55.99999999999999</ele><time>2026-03-22T15:56:10.997Z</time></trkpt><trkpt lat="49.15265700510506" lon="2.5171756388299755"><ele>55.99999999999999</ele><time>2026-03-22T15:56:13Z</time></trkpt><trkpt lat="49.15253353260814" lon="2.5172002994255345"><ele>56.0</ele><time>2026-03-22T15:56:15Z</time></trkpt><trkpt lat="49.15246977380234" lon="2.517189181285244"><ele>56.0</ele><time>2026-03-22T15:56:16Z</time></trkpt><trkpt lat="49.152403711523725" lon="2.517194689391838"><ele>55.0</ele><time>2026-03-22T15:56:17Z</time></trkpt><trkpt lat="49.15233757315609" lon="2.5171981959286276"><ele>54.0</ele><time>2026-03-22T15:56:18Z</time></trkpt><trkpt lat="49.152268538755486" lon="2.5171990017250994"><ele>53.0</ele><time>2026-03-22T15:56:19Z</time></trkpt><trkpt lat="49.152198883938205" lon="2.517200165884151"><ele>52.0</ele><time>2026-03-22T15:56:20Z</time></trkpt><trkpt lat="49.15212932537419" lon="2.5171994535392406"><ele>51.0</ele><time>2026-03-22T15:56:21Z</time></trkpt><trkpt lat="49.15205368178566" lon="2.517201416730351"><ele>50.0</ele><time>2026-03-22T15:56:22Z</time></trkpt><trkpt lat="49.15197821846225" lon="2.51720431545939"><ele>49.0</ele><time>2026-03-22T15:56:23Z</time></trkpt><trkpt lat="49.15190420543691" lon="2.5171712687162544"><ele>48.99999999999999</ele><time>2026-03-22T15:56:24Z</time></trkpt><trkpt lat="49.15182323933337" lon="2.51717277737378"><ele>49.0</ele><time>2026-03-22T15:56:25Z</time></trkpt><trkpt lat="49.15174661478195" lon="2.517138803013432"><ele>49.0</ele><time>2026-03-22T15:56:26Z</time></trkpt><trkpt lat="49.15168331569514" lon="2.5170553817996737"><ele>49.0</ele><time>2026-03-22T15:56:27Z</time></trkpt><trkpt lat="49.15162985650916" lon="2.516968192119493"><ele>48.99999999999999</ele><time>2026-03-22T15:56:28Z</time></trkpt><trkpt lat="49.15159405511157" lon="2.516863249315793"><ele>49.0</ele><time>2026-03-22T15:56:29Z</time></trkpt><trkpt lat="49.15156404216301" lon="2.516752356299283"><ele>48.666666666666664</ele><time>2026-03-22T15:56:30Z</time></trkpt><trkpt lat="49.15151619858694" lon="2.5166531305412865"><ele>48.33333333333333</ele><time>2026-03-22T15:56:31Z</time></trkpt><trkpt lat="49.15148093877432" lon="2.516550641621202"><ele>48.0</ele><time>2026-03-22T15:56:32Z</time></trkpt><trkpt lat="49.15142685213549" lon="2.5164664020487635"><ele>47.666666666666664</ele><time>2026-03-22T15:56:33Z</time></trkpt><trkpt lat="49.15136725653139" lon="2.516399832801318"><ele>47.33333333333333</ele><time>2026-03-22T15:56:34Z</time></trkpt><trkpt lat="49.15131160411343" lon="2.516321019173019"><ele>47.0</ele><time>2026-03-22T15:56:34.999Z</time></trkpt><trkpt lat="49.1512521485886" lon="2.516263523349729"><ele>47.285714285714285</ele><time>2026-03-22T15:56:35.999Z</time></trkpt><trkpt lat="49.15119418228551" lon="2.516203750156539"><ele>47.57142857142857</ele><time>2026-03-22T15:56:36.999Z</time></trkpt><trkpt lat="49.15114188311918" lon="2.516132561092402"><ele>47.85714285714286</ele><time>2026-03-22T15:56:37.999Z</time></trkpt><trkpt lat="49.151080232353394" lon="2.5160709372003938"><ele>48.14285714285714</ele><time>2026-03-22T15:56:38.999Z</time></trkpt><trkpt lat="49.1510271426483" lon="2.516000141885717"><ele>48.42857142857143</ele><time>2026-03-22T15:56:39.999Z</time></trkpt><trkpt lat="49.15096237465616" lon="2.515948464409474"><ele>48.714285714285715</ele><time>2026-03-22T15:56:40.999Z</time></trkpt><trkpt lat="49.150909802686655" lon="2.5158727631561875"><ele>49.0</ele><time>2026-03-22T15:56:41.999Z</time></trkpt><trkpt lat="49.15084888628262" lon="2.515812362430151"><ele>49.0</ele><time>2026-03-22T15:56:42.999Z</time></trkpt><trkpt lat="49.15077717607141" lon="2.515759561804887"><ele>49.0</ele><time>2026-03-22T15:56:43.999Z</time></trkpt><trkpt lat="49.15070230990593" lon="2.515723191025872"><ele>49.0</ele><time>2026-03-22T15:56:44.999Z</time></trkpt><trkpt lat="49.15061661079479" lon="2.515744121497621"><ele>49.0</ele><time>2026-03-22T15:56:45.999Z</time></trkpt><trkpt lat="49.15054852173539" lon="2.515756887244622"><ele>49.0</ele><time>2026-03-22T15:56:46.999Z</time></trkpt><trkpt lat="49.15048265991229" lon="2.5157569863977245"><ele>49.0</ele><time>2026-03-22T15:56:47.999Z</time></trkpt><trkpt lat="49.15041950446681" lon="2.5157616214005483"><ele>49.0</ele><time>2026-03-22T15:56:48.999Z</time></trkpt><trkpt lat="49.1502947721087" lon="2.515775022333603"><ele>49.25</ele><time>2026-03-22T15:56:50.999Z</time></trkpt><trkpt lat="49.150171665988715" lon="2.5158037077084434"><ele>49.5</ele><time>2026-03-22T15:56:52.999Z</time></trkpt><trkpt lat="49.15004765728025" lon="2.515829636102747"><ele>49.75</ele><time>2026-03-22T15:56:54.999Z</time></trkpt><trkpt lat="49.14992717749951" lon="2.5158689542795014"><ele>50.0</ele><time>2026-03-22T15:56:56.999Z</time></trkpt><trkpt lat="49.14980700103889" lon="2.515902774691575"><ele>50.0</ele><time>2026-03-22T15:56:58.999Z</time></trkpt><trkpt lat="49.14968685013314" lon="2.515936167014016"><ele>50.0</ele><time>2026-03-22T15:57:00.999Z</time></trkpt><trkpt lat="49.14956518609919" lon="2.515970064307412"><ele>50.0</ele><time>2026-03-22T15:57:02.999Z</time></trkpt><trkpt lat="49.14944317643758" lon="2.5160030048721267"><ele>50.0</ele><time>2026-03-22T15:57:04.999Z</time></trkpt><trkpt lat="49.149379502501766" lon="2.5160186816564782"><ele>50.0</ele><time>2026-03-22T15:57:05.999Z</time></trkpt><trkpt lat="49.14931733355548" lon="2.516036340585014"><ele>50.00000000000001</ele><time>2026-03-22T15:57:06.999Z</time></trkpt><trkpt lat="49.14925235295448" lon="2.5160490838109277"><ele>50.0</ele><time>2026-03-22T15:57:07.999Z</time></trkpt><trkpt lat="49.149187131126546" lon="2.5160634441774388"><ele>50.0</ele><time>2026-03-22T15:57:08.999Z</time></trkpt><trkpt lat="49.14912301086744" lon="2.516079702188349"><ele>50.0</ele><time>2026-03-22T15:57:09.999Z</time></trkpt><trkpt lat="49.1490582553321" lon="2.516095902338238"><ele>50.0</ele><time>2026-03-22T15:57:10.998Z</time></trkpt><trkpt lat="49.14899258919496" lon="2.5161079983088577"><ele>50.00000000000001</ele><time>2026-03-22T15:57:11.998Z</time></trkpt><trkpt lat="49.14892639885641" lon="2.516115296351376"><ele>50.0</ele><time>2026-03-22T15:57:12.998Z</time></trkpt><trkpt lat="49.14886064246862" lon="2.516116528511097"><ele>49.833333333333336</ele><time>2026-03-22T15:57:13.998Z</time></trkpt><trkpt lat="49.1487952470287" lon="2.5161172572037493"><ele>49.66666666666667</ele><time>2026-03-22T15:57:14.998Z</time></trkpt><trkpt lat="49.14872820067706" lon="2.516113652311921"><ele>49.5</ele><time>2026-03-22T15:57:15.998Z</time></trkpt><trkpt lat="49.14860125561003" lon="2.5161076611942024"><ele>49.33333333333333</ele><time>2026-03-22T15:57:17.998Z</time></trkpt><trkpt lat="49.14853775734698" lon="2.5161044148728315"><ele>49.166666666666664</ele><time>2026-03-22T15:57:18.998Z</time></trkpt><trkpt lat="49.14847294419534" lon="2.5161022980998973"><ele>49.0</ele><time>2026-03-22T15:57:19.998Z</time></trkpt><trkpt lat="49.14840665696139" lon="2.5160968022256305"><ele>49.0</ele><time>2026-03-22T15:57:20.998Z</time></trkpt><trkpt lat="49.14834068634739" lon="2.5160866229763843"><ele>49.0</ele><time>2026-03-22T15:57:21.998Z</time></trkpt><trkpt lat="49.14827524011957" lon="2.516077132772565"><ele>49.0</ele><time>2026-03-22T15:57:22.998Z</time></trkpt><trkpt lat="49.148210316831275" lon="2.516071673514055"><ele>49.0</ele><time>2026-03-22T15:57:23.998Z</time></trkpt><trkpt lat="49.148144629271066" lon="2.516062345344383"><ele>49.0</ele><time>2026-03-22T15:57:24.998Z</time></trkpt><trkpt lat="49.148079705005195" lon="2.5160540851186624"><ele>49.0</ele><time>2026-03-22T15:57:25.998Z</time></trkpt><trkpt lat="49.14801475109143" lon="2.5160462465013698"><ele>49.0</ele><time>2026-03-22T15:57:26.998Z</time></trkpt><trkpt lat="49.147950045928255" lon="2.516042554374297"><ele>49.166666666666664</ele><time>2026-03-22T15:57:27.998Z</time></trkpt><trkpt lat="49.1478844014356" lon="2.516035155919726"><ele>49.33333333333333</ele><time>2026-03-22T15:57:28.998Z</time></trkpt><trkpt lat="49.14782005190615" lon="2.5160221340265916"><ele>49.5</ele><time>2026-03-22T15:57:29.998Z</time></trkpt><trkpt lat="49.14775549981349" lon="2.516013825352805"><ele>49.66666666666667</ele><time>2026-03-22T15:57:30.998Z</time></trkpt><trkpt lat="49.14769208682655" lon="2.5160071417131427"><ele>49.833333333333336</ele><time>2026-03-22T15:57:31.998Z</time></trkpt><trkpt lat="49.147567748657245" lon="2.5159989055428698"><ele>50.0</ele><time>2026-03-22T15:57:33.998Z</time></trkpt><trkpt lat="49.147449418998825" lon="2.515976542565849"><ele>50.0</ele><time>2026-03-22T15:57:35.998Z</time></trkpt><trkpt lat="49.14733962822251" lon="2.5159611642068063"><ele>50.0</ele><time>2026-03-22T15:57:37.998Z</time></trkpt><trkpt lat="49.14723749222089" lon="2.5159475707744186"><ele>50.0</ele><time>2026-03-22T15:57:39.998Z</time></trkpt><trkpt lat="49.14714280976721" lon="2.5159178040561927"><ele>50.0</ele><time>2026-03-22T15:57:41.998Z</time></trkpt><trkpt lat="49.14705007489865" lon="2.5158945087124764"><ele>50.0</ele><time>2026-03-22T15:57:43.998Z</time></trkpt><trkpt lat="49.14695514967808" lon="2.5158613034143387"><ele>50.0</ele><time>2026-03-22T15:57:45.997Z</time></trkpt><trkpt lat="49.14685576887699" lon="2.5158368673272125"><ele>50.0</ele><time>2026-03-22T15:57:47.997Z</time></trkpt><trkpt lat="49.14675750499848" lon="2.5158159626798997"><ele>50.0</ele><time>2026-03-22T15:57:49.997Z</time></trkpt><trkpt lat="49.14665394530559" lon="2.5158113105276096"><ele>50.0</ele><time>2026-03-22T15:57:51.997Z</time></trkpt><trkpt lat="49.14655285478961" lon="2.5158249606773353"><ele>50.0</ele><time>2026-03-22T15:57:53.997Z</time></trkpt><trkpt lat="49.14644799450571" lon="2.5158370477053054"><ele>50.0</ele><time>2026-03-22T15:57:55.997Z</time></trkpt><trkpt lat="49.14634352386553" lon="2.515855596202726"><ele>50.0</ele><time>2026-03-22T15:57:57.997Z</time></trkpt><trkpt lat="49.14623909045471" lon="2.515877596023889"><ele>50.0</ele><time>2026-03-22T15:57:59.997Z</time></trkpt><trkpt lat="49.146133483885016" lon="2.515914917850777"><ele>50.0</ele><time>2026-03-22T15:58:01.997Z</time></trkpt><trkpt lat="49.14603110831784" lon="2.515952298699201"><ele>50.0</ele><time>2026-03-22T15:58:03.997Z</time></trkpt><trkpt lat="49.14593153147277" lon="2.5159924877008857"><ele>50.00000000000001</ele><time>2026-03-22T15:58:05.997Z</time></trkpt><trkpt lat="49.14583279838856" lon="2.516025776237061"><ele>50.0</ele><time>2026-03-22T15:58:07.997Z</time></trkpt><trkpt lat="49.14574243135404" lon="2.5160600304988914"><ele>50.0</ele><time>2026-03-22T15:58:09.997Z</time></trkpt><trkpt lat="49.145657486121976" lon="2.516101277237357"><ele>50.0</ele><time>2026-03-22T15:58:11.997Z</time></trkpt><trkpt lat="49.14557850308609" lon="2.5161277263324804"><ele>50.00000000000001</ele><time>2026-03-22T15:58:13.997Z</time></trkpt><trkpt lat="49.14550507098753" lon="2.5161593872732246"><ele>50.0</ele><time>2026-03-22T15:58:15.997Z</time></trkpt><trkpt lat="49.14543354188965" lon="2.51619748078584"><ele>50.57142857142858</ele><time>2026-03-22T15:58:18Z</time></trkpt><trkpt lat="49.1453605301008" lon="2.5162174855610493"><ele>51.142857142857146</ele><time>2026-03-22T15:58:20Z</time></trkpt><trkpt lat="49.145287303626304" lon="2.5162406063602063"><ele>51.714285714285715</ele><time>2026-03-22T15:58:22Z</time></trkpt><trkpt lat="49.14521647851483" lon="2.5162662428366698"><ele>52.28571428571429</ele><time>2026-03-22T15:58:24Z</time></trkpt><trkpt lat="49.14514451469076" lon="2.5162853013539093"><ele>52.857142857142854</ele><time>2026-03-22T15:58:26Z</time></trkpt><trkpt lat="49.14507356852526" lon="2.5163018973455253"><ele>53.42857142857143</ele><time>2026-03-22T15:58:28Z</time></trkpt><trkpt lat="49.14500192870749" lon="2.516322661846597"><ele>54.0</ele><time>2026-03-22T15:58:30Z</time></trkpt><trkpt lat="49.144928437282616" lon="2.516329465308682"><ele>54.285714285714285</ele><time>2026-03-22T15:58:32Z</time></trkpt><trkpt lat="49.14485569744896" lon="2.5163389775597573"><ele>54.57142857142857</ele><time>2026-03-22T15:58:34Z</time></trkpt><trkpt lat="49.14478446769738" lon="2.5163191540728995"><ele>54.85714285714286</ele><time>2026-03-22T15:58:36Z</time></trkpt><trkpt lat="49.144731320808596" lon="2.5162341968631603"><ele>55.14285714285714</ele><time>2026-03-22T15:58:38Z</time></trkpt><trkpt lat="49.14468791863194" lon="2.516150387976694"><ele>55.42857142857143</ele><time>2026-03-22T15:58:40Z</time></trkpt><trkpt lat="49.144629103043584" lon="2.516068123904227"><ele>55.714285714285715</ele><time>2026-03-22T15:58:41.999Z</time></trkpt><trkpt lat="49.14458475632021" lon="2.5159886877232447"><ele>56.0</ele><time>2026-03-22T15:58:43.999Z</time></trkpt><trkpt lat="49.14455776225292" lon="2.5158876542875417"><ele>56.0</ele><time>2026-03-22T15:58:45.999Z</time></trkpt><trkpt lat="49.14450376484461" lon="2.515768194327331"><ele>56.0</ele><time>2026-03-22T15:58:48.999Z</time></trkpt><trkpt lat="49.144452465147076" lon="2.5156954503026965"><ele>56.0</ele><time>2026-03-22T15:58:50.999Z</time></trkpt><trkpt lat="49.14440153399055" lon="2.5156215815158633"><ele>56.0</ele><time>2026-03-22T15:58:52.999Z</time></trkpt><trkpt lat="49.14435053012876" lon="2.515544774589603"><ele>56.0</ele><time>2026-03-22T15:58:54.999Z</time></trkpt><trkpt lat="49.14430234624852" lon="2.5154717455947115"><ele>56.0</ele><time>2026-03-22T15:58:56.999Z</time></trkpt><trkpt lat="49.144285761989146" lon="2.515361418798935"><ele>56.0</ele><time>2026-03-22T15:58:59.999Z</time></trkpt><trkpt lat="49.14434339541784" lon="2.515311293206117"><ele>55.857142857142854</ele><time>2026-03-22T15:59:26.998Z</time></trkpt><trkpt lat="49.14442295277362" lon="2.5153544953915"><ele>55.714285714285715</ele><time>2026-03-22T16:00:07.997Z</time></trkpt><trkpt lat="49.144471577629254" lon="2.5152845737094047"><ele>55.57142857142857</ele><time>2026-03-22T16:00:17.997Z</time></trkpt><trkpt lat="49.144422977898486" lon="2.515218197062657"><ele>55.42857142857143</ele><time>2026-03-22T16:00:31Z</time></trkpt><trkpt lat="49.14436213793283" lon="2.51525454463892"><ele>55.285714285714285</ele><time>2026-03-22T16:00:47Z</time></trkpt><trkpt lat="49.144302395596085" lon="2.5153153910755592"><ele>55.14285714285714</ele><time>2026-03-22T16:00:58.999Z</time></trkpt><trkpt lat="49.14424048118618" lon="2.5153506255580043"><ele>55.0</ele><time>2026-03-22T16:01:29.998Z</time></trkpt><trkpt lat="49.14418147601171" lon="2.515302075071135"><ele>54.99999999999999</ele><time>2026-03-22T16:01:50.998Z</time></trkpt><trkpt lat="49.1441300338626" lon="2.5152355799503763"><ele>55.0</ele><time>2026-03-22T16:01:53.998Z</time></trkpt><trkpt lat="49.14407055385885" lon="2.515141905565564"><ele>55.0</ele><time>2026-03-22T16:01:56.998Z</time></trkpt><trkpt lat="49.144008675985475" lon="2.515043557647178"><ele>55.0</ele><time>2026-03-22T16:01:59.997Z</time></trkpt><trkpt lat="49.14396056561938" lon="2.5149697247709275"><ele>55.0</ele><time>2026-03-22T16:02:01.997Z</time></trkpt><trkpt lat="49.14391332864069" lon="2.5149024802082134"><ele>54.99999999999999</ele><time>2026-03-22T16:02:03.997Z</time></trkpt><trkpt lat="49.14386416575379" lon="2.5148327038739717"><ele>55.0</ele><time>2026-03-22T16:02:05.997Z</time></trkpt><trkpt lat="49.14381496732782" lon="2.514757713077246"><ele>55.33333333333333</ele><time>2026-03-22T16:02:07.997Z</time></trkpt><trkpt lat="49.143763450971" lon="2.5146823536046776"><ele>55.666666666666664</ele><time>2026-03-22T16:02:09.997Z</time></trkpt><trkpt lat="49.14370966233684" lon="2.5145984966544934"><ele>56.0</ele><time>2026-03-22T16:02:11.997Z</time></trkpt><trkpt lat="49.143656369423454" lon="2.514512417936955"><ele>56.33333333333333</ele><time>2026-03-22T16:02:13.997Z</time></trkpt><trkpt lat="49.1435986606501" lon="2.5144273769951138"><ele>56.666666666666664</ele><time>2026-03-22T16:02:15.997Z</time></trkpt><trkpt lat="49.143541650002824" lon="2.514346157553626"><ele>57.0</ele><time>2026-03-22T16:02:17.997Z</time></trkpt><trkpt lat="49.14348289063232" lon="2.514259419287308"><ele>57.0</ele><time>2026-03-22T16:02:19.997Z</time></trkpt><trkpt lat="49.143420087154134" lon="2.514171199928142"><ele>57.0</ele><time>2026-03-22T16:02:21.997Z</time></trkpt><trkpt lat="49.14335898555996" lon="2.5140769321137633"><ele>57.0</ele><time>2026-03-22T16:02:23.997Z</time></trkpt><trkpt lat="49.14329409792219" lon="2.5139795519073895"><ele>57.0</ele><time>2026-03-22T16:02:25.997Z</time></trkpt><trkpt lat="49.143226398169524" lon="2.513885223553646"><ele>57.0</ele><time>2026-03-22T16:02:27.997Z</time></trkpt><trkpt lat="49.14315709816508" lon="2.513788604761157"><ele>57.0</ele><time>2026-03-22T16:02:30Z</time></trkpt><trkpt lat="49.143089856540264" lon="2.5136899682873564"><ele>57.2</ele><time>2026-03-22T16:02:32Z</time></trkpt><trkpt lat="49.14302457219503" lon="2.5135889512965837"><ele>57.400000000000006</ele><time>2026-03-22T16:02:34Z</time></trkpt><trkpt lat="49.142959457400956" lon="2.513486475235506"><ele>57.599999999999994</ele><time>2026-03-22T16:02:36Z</time></trkpt><trkpt lat="49.14289375060319" lon="2.513387527953232"><ele>57.8</ele><time>2026-03-22T16:02:38Z</time></trkpt><trkpt lat="49.14282952011121" lon="2.5132881941250513"><ele>58.0</ele><time>2026-03-22T16:02:40Z</time></trkpt><trkpt lat="49.14276338165742" lon="2.5131884114559537"><ele>57.99999999999999</ele><time>2026-03-22T16:02:42Z</time></trkpt><trkpt lat="49.14269984653254" lon="2.513090987028781"><ele>58.0</ele><time>2026-03-22T16:02:44Z</time></trkpt><trkpt lat="49.14263925942958" lon="2.513004242980461"><ele>58.0</ele><time>2026-03-22T16:02:46Z</time></trkpt><trkpt lat="49.142586841926814" lon="2.5129188313735846"><ele>58.0</ele><time>2026-03-22T16:02:48Z</time></trkpt><trkpt lat="49.1425316467751" lon="2.512845052073507"><ele>57.99999999999999</ele><time>2026-03-22T16:02:50Z</time></trkpt><trkpt lat="49.14247382194757" lon="2.5127595229411175"><ele>58.0</ele><time>2026-03-22T16:02:52Z</time></trkpt><trkpt lat="49.1423995945787" lon="2.5126578448340413"><ele>58.00000000000001</ele><time>2026-03-22T16:02:55Z</time></trkpt><trkpt lat="49.14234761745486" lon="2.512578978670863"><ele>58.0</ele><time>2026-03-22T16:02:57Z</time></trkpt><trkpt lat="49.14229615474037" lon="2.51250213334503"><ele>58.00000000000001</ele><time>2026-03-22T16:02:58.999Z</time></trkpt><trkpt lat="49.14224358342811" lon="2.512433249709179"><ele>58.00000000000001</ele><time>2026-03-22T16:03:00.999Z</time></trkpt><trkpt lat="49.142192164451366" lon="2.512369714903225"><ele>58.0</ele><time>2026-03-22T16:03:02.999Z</time></trkpt><trkpt lat="49.14213336806326" lon="2.5122968965391514"><ele>58.00000000000001</ele><time>2026-03-22T16:03:04.999Z</time></trkpt><trkpt lat="49.14207656269706" lon="2.5122171638940767"><ele>58.00000000000001</ele><time>2026-03-22T16:03:06.999Z</time></trkpt><trkpt lat="49.14201722669734" lon="2.5121369758911647"><ele>57.99999999999999</ele><time>2026-03-22T16:03:08.999Z</time></trkpt><trkpt lat="49.14195859388789" lon="2.512057917780263"><ele>58.0</ele><time>2026-03-22T16:03:10.999Z</time></trkpt><trkpt lat="49.14189953885757" lon="2.511980226609925"><ele>58.0</ele><time>2026-03-22T16:03:12.999Z</time></trkpt><trkpt lat="49.14183523991553" lon="2.511905887648337"><ele>58.0</ele><time>2026-03-22T16:03:14.999Z</time></trkpt><trkpt lat="49.14177576566815" lon="2.5118270125182667"><ele>57.99999999999999</ele><time>2026-03-22T16:03:16.999Z</time></trkpt><trkpt lat="49.14171651906443" lon="2.511752948029155"><ele>58.0</ele><time>2026-03-22T16:03:18.999Z</time></trkpt><trkpt lat="49.14166093578908" lon="2.511683013782118"><ele>58.00000000000001</ele><time>2026-03-22T16:03:20.999Z</time></trkpt><trkpt lat="49.14160218567191" lon="2.5116147083300775"><ele>58.0</ele><time>2026-03-22T16:03:22.999Z</time></trkpt><trkpt lat="49.1415424592176" lon="2.511546374685028"><ele>58.00000000000001</ele><time>2026-03-22T16:03:24.999Z</time></trkpt><trkpt lat="49.14148145093991" lon="2.5114856508629386"><ele>58.00000000000001</ele><time>2026-03-22T16:03:26.999Z</time></trkpt><trkpt lat="49.141423936978526" lon="2.511426848038999"><ele>58.0</ele><time>2026-03-22T16:03:28.999Z</time></trkpt><trkpt lat="49.141366173546935" lon="2.5113674153739383"><ele>58.00000000000001</ele><time>2026-03-22T16:03:30.998Z</time></trkpt><trkpt lat="49.14131046118741" lon="2.511307826303873"><ele>58.00000000000001</ele><time>2026-03-22T16:03:32.998Z</time></trkpt><trkpt lat="49.14125612135082" lon="2.5112563498469958"><ele>58.571428571428584</ele><time>2026-03-22T16:03:34.998Z</time></trkpt><trkpt lat="49.141199926752705" lon="2.5111995202357527"><ele>59.142857142857146</ele><time>2026-03-22T16:03:36.998Z</time></trkpt><trkpt lat="49.14114036068224" lon="2.511139065161208"><ele>59.71428571428572</ele><time>2026-03-22T16:03:38.998Z</time></trkpt><trkpt lat="49.14108435647601" lon="2.5110857125402553"><ele>60.28571428571429</ele><time>2026-03-22T16:03:40.998Z</time></trkpt><trkpt lat="49.14102851275861" lon="2.5110271320688455"><ele>60.85714285714286</ele><time>2026-03-22T16:03:42.998Z</time></trkpt><trkpt lat="49.14097525145682" lon="2.5109719509286186"><ele>61.42857142857143</ele><time>2026-03-22T16:03:44.998Z</time></trkpt><trkpt lat="49.14089539109218" lon="2.5108837541251225"><ele>62.0</ele><time>2026-03-22T16:03:47.998Z</time></trkpt><trkpt lat="49.14084343080926" lon="2.5108247586973076"><ele>62.0</ele><time>2026-03-22T16:03:49.998Z</time></trkpt><trkpt lat="49.14078496864078" lon="2.510765564220935"><ele>62.00000000000001</ele><time>2026-03-22T16:03:51.998Z</time></trkpt><trkpt lat="49.14072358361497" lon="2.5107034769887338"><ele>62.0</ele><time>2026-03-22T16:03:53.998Z</time></trkpt><trkpt lat="49.140666261896854" lon="2.510643754565228"><ele>62.0</ele><time>2026-03-22T16:03:55.998Z</time></trkpt><trkpt lat="49.140606962544645" lon="2.51058640667183"><ele>62.00000000000001</ele><time>2026-03-22T16:03:57.998Z</time></trkpt><trkpt lat="49.14054796620162" lon="2.5105276155122374"><ele>62.0</ele><time>2026-03-22T16:03:59.998Z</time></trkpt><trkpt lat="49.14048753020398" lon="2.5104693847084256"><ele>62.0</ele><time>2026-03-22T16:04:01.998Z</time></trkpt><trkpt lat="49.14043163088858" lon="2.510409838267509"><ele>62.0</ele><time>2026-03-22T16:04:03.998Z</time></trkpt><trkpt lat="49.140371041549386" lon="2.510357935509086"><ele>62.00000000000001</ele><time>2026-03-22T16:04:05.997Z</time></trkpt><trkpt lat="49.14031407468952" lon="2.510306425213373"><ele>62.0</ele><time>2026-03-22T16:04:07.997Z</time></trkpt><trkpt lat="49.140258132259824" lon="2.510259626107243"><ele>62.0</ele><time>2026-03-22T16:04:09.997Z</time></trkpt><trkpt lat="49.14020415029683" lon="2.510204807369257"><ele>62.00000000000001</ele><time>2026-03-22T16:04:11.997Z</time></trkpt><trkpt lat="49.14014739827664" lon="2.510154608965827"><ele>62.0</ele><time>2026-03-22T16:04:13.997Z</time></trkpt><trkpt lat="49.14009027438244" lon="2.5101009403349375"><ele>62.0</ele><time>2026-03-22T16:04:15.997Z</time></trkpt><trkpt lat="49.1400318804802" lon="2.5100457953765836"><ele>62.0</ele><time>2026-03-22T16:04:17.997Z</time></trkpt><trkpt lat="49.139970800213376" lon="2.5099921400272573"><ele>62.00000000000001</ele><time>2026-03-22T16:04:19.997Z</time></trkpt><trkpt lat="49.13990860085726" lon="2.509935865236267"><ele>62.0</ele><time>2026-03-22T16:04:21.997Z</time></trkpt><trkpt lat="49.139847208635246" lon="2.5098825800754456"><ele>62.0</ele><time>2026-03-22T16:04:23.997Z</time></trkpt><trkpt lat="49.13978616060564" lon="2.509822041186109"><ele>62.00000000000001</ele><time>2026-03-22T16:04:25.997Z</time></trkpt><trkpt lat="49.1397251902518" lon="2.509767003195014"><ele>62.0</ele><time>2026-03-22T16:04:27.997Z</time></trkpt><trkpt lat="49.139664220400284" lon="2.5097098081258125"><ele>62.0</ele><time>2026-03-22T16:04:29.997Z</time></trkpt><trkpt lat="49.13960248523958" lon="2.5096502940180585"><ele>62.142857142857146</ele><time>2026-03-22T16:04:31.997Z</time></trkpt><trkpt lat="49.13954075359661" lon="2.5095925833115125"><ele>62.28571428571429</ele><time>2026-03-22T16:04:33.997Z</time></trkpt><trkpt lat="49.13947874189683" lon="2.509534709693709"><ele>62.42857142857143</ele><time>2026-03-22T16:04:36Z</time></trkpt><trkpt lat="49.13941270435784" lon="2.5094784229692784"><ele>62.57142857142857</ele><time>2026-03-22T16:04:38Z</time></trkpt><trkpt lat="49.139350383288345" lon="2.509421657495686"><ele>62.714285714285715</ele><time>2026-03-22T16:04:40Z</time></trkpt><trkpt lat="49.139286301440634" lon="2.5093670461186517"><ele>62.85714285714286</ele><time>2026-03-22T16:04:42Z</time></trkpt><trkpt lat="49.13922147125478" lon="2.5093168401268255"><ele>63.0</ele><time>2026-03-22T16:04:44Z</time></trkpt><trkpt lat="49.13915718797532" lon="2.5092648662733263"><ele>63.285714285714285</ele><time>2026-03-22T16:04:46Z</time></trkpt><trkpt lat="49.13909179935762" lon="2.5092133152972402"><ele>63.57142857142857</ele><time>2026-03-22T16:04:48Z</time></trkpt><trkpt lat="49.13902517935323" lon="2.509162476462726"><ele>63.85714285714286</ele><time>2026-03-22T16:04:50Z</time></trkpt><trkpt lat="49.13895892235889" lon="2.509112422405877"><ele>64.14285714285714</ele><time>2026-03-22T16:04:52Z</time></trkpt><trkpt lat="49.13889094412895" lon="2.5090677210816197"><ele>64.42857142857143</ele><time>2026-03-22T16:04:54Z</time></trkpt><trkpt lat="49.138824891604465" lon="2.5090185123537267"><ele>64.71428571428572</ele><time>2026-03-22T16:04:56Z</time></trkpt><trkpt lat="49.138755074685015" lon="2.508980804852147"><ele>65.0</ele><time>2026-03-22T16:04:58Z</time></trkpt><trkpt lat="49.13868661217609" lon="2.5089337676291183"><ele>65.42857142857143</ele><time>2026-03-22T16:05:00Z</time></trkpt><trkpt lat="49.13866589513841" lon="2.5088231834701338"><ele>65.85714285714286</ele><time>2026-03-22T16:05:01Z</time></trkpt><trkpt lat="49.138595195211316" lon="2.508794599458782"><ele>66.28571428571428</ele><time>2026-03-22T16:05:02.999Z</time></trkpt><trkpt lat="49.138531489772056" lon="2.508771219650291"><ele>66.71428571428572</ele><time>2026-03-22T16:05:04.999Z</time></trkpt><trkpt lat="49.13846902047619" lon="2.50873761452773"><ele>67.14285714285714</ele><time>2026-03-22T16:05:06.999Z</time></trkpt><trkpt lat="49.13840284005616" lon="2.5086959998002727"><ele>67.57142857142857</ele><time>2026-03-22T16:05:08.999Z</time></trkpt><trkpt lat="49.138333659224486" lon="2.5086531375234595"><ele>68.0</ele><time>2026-03-22T16:05:10.999Z</time></trkpt><trkpt lat="49.13826240942305" lon="2.508611121147539"><ele>68.83333333333334</ele><time>2026-03-22T16:05:12.999Z</time></trkpt><trkpt lat="49.13818500358607" lon="2.5085654745288157"><ele>69.66666666666667</ele><time>2026-03-22T16:05:14.999Z</time></trkpt><trkpt lat="49.13810867825629" lon="2.5085198989463957"><ele>70.5</ele><time>2026-03-22T16:05:16.999Z</time></trkpt><trkpt lat="49.138031175331385" lon="2.508473081076261"><ele>71.33333333333333</ele><time>2026-03-22T16:05:18.999Z</time></trkpt><trkpt lat="49.137954337722476" lon="2.508424922502367"><ele>72.16666666666666</ele><time>2026-03-22T16:05:20.999Z</time></trkpt><trkpt lat="49.137873414518104" lon="2.5083733129066736"><ele>73.0</ele><time>2026-03-22T16:05:22.999Z</time></trkpt><trkpt lat="49.137785643155645" lon="2.508317633089789"><ele>73.0</ele><time>2026-03-22T16:05:24.999Z</time></trkpt><trkpt lat="49.13769898286922" lon="2.508263741476862"><ele>73.0</ele><time>2026-03-22T16:05:26.999Z</time></trkpt><trkpt lat="49.13760721462645" lon="2.5082079290645085"><ele>73.0</ele><time>2026-03-22T16:05:28.999Z</time></trkpt><trkpt lat="49.1375225596749" lon="2.5081564774521845"><ele>73.0</ele><time>2026-03-22T16:05:30.999Z</time></trkpt><trkpt lat="49.13743658383694" lon="2.508105035930502"><ele>73.0</ele><time>2026-03-22T16:05:32.999Z</time></trkpt><trkpt lat="49.137355685623845" lon="2.508057468001257"><ele>72.83333333333333</ele><time>2026-03-22T16:05:34.998Z</time></trkpt><trkpt lat="49.137274519361924" lon="2.50801083473458"><ele>72.66666666666666</ele><time>2026-03-22T16:05:36.998Z</time></trkpt><trkpt lat="49.13719723193653" lon="2.5079670797810505"><ele>72.5</ele><time>2026-03-22T16:05:38.998Z</time></trkpt><trkpt lat="49.13711741406699" lon="2.507922906578357"><ele>72.33333333333333</ele><time>2026-03-22T16:05:40.998Z</time></trkpt><trkpt lat="49.137040686423504" lon="2.507881073799396"><ele>72.16666666666667</ele><time>2026-03-22T16:05:42.998Z</time></trkpt><trkpt lat="49.13696634998299" lon="2.5078405445514824"><ele>72.0</ele><time>2026-03-22T16:05:44.998Z</time></trkpt><trkpt lat="49.13688827237458" lon="2.507797635619767"><ele>72.5</ele><time>2026-03-22T16:05:46.998Z</time></trkpt><trkpt lat="49.13681441271243" lon="2.5077735240375056"><ele>73.0</ele><time>2026-03-22T16:05:48.998Z</time></trkpt><trkpt lat="49.136743453628505" lon="2.5077163177803086"><ele>73.5</ele><time>2026-03-22T16:05:50.998Z</time></trkpt><trkpt lat="49.136663517379695" lon="2.507693945826067"><ele>74.0</ele><time>2026-03-22T16:05:52.998Z</time></trkpt><trkpt lat="49.13660126721589" lon="2.507630504268652"><ele>74.5</ele><time>2026-03-22T16:05:54.998Z</time></trkpt><trkpt lat="49.136530444111045" lon="2.5075801834813447"><ele>75.0</ele><time>2026-03-22T16:05:56.998Z</time></trkpt><trkpt lat="49.13645561259623" lon="2.50753180209949"><ele>75.0</ele><time>2026-03-22T16:05:58.998Z</time></trkpt><trkpt lat="49.136385310432885" lon="2.5074896892673015"><ele>75.0</ele><time>2026-03-22T16:06:00.998Z</time></trkpt><trkpt lat="49.13630984949042" lon="2.507446783794119"><ele>75.0</ele><time>2026-03-22T16:06:02.998Z</time></trkpt><trkpt lat="49.136235305366455" lon="2.507405752500401"><ele>75.0</ele><time>2026-03-22T16:06:04.998Z</time></trkpt><trkpt lat="49.13616693811381" lon="2.507369160876646"><ele>75.0</ele><time>2026-03-22T16:06:06.997Z</time></trkpt><trkpt lat="49.13605777752698" lon="2.5073259933147782"><ele>75.0</ele><time>2026-03-22T16:06:09.997Z</time></trkpt><trkpt lat="49.135996375660234" lon="2.5072502643339294"><ele>75.0</ele><time>2026-03-22T16:06:11.997Z</time></trkpt><trkpt lat="49.135915540689666" lon="2.507246682331936"><ele>75.0</ele><time>2026-03-22T16:06:13.997Z</time></trkpt><trkpt lat="49.135834483902094" lon="2.507219393746749"><ele>75.0</ele><time>2026-03-22T16:06:15.997Z</time></trkpt><trkpt lat="49.13574708389805" lon="2.5072039009288534"><ele>75.0</ele><time>2026-03-22T16:06:17.997Z</time></trkpt><trkpt lat="49.13565465926781" lon="2.5071791422174425"><ele>75.0</ele><time>2026-03-22T16:06:19.997Z</time></trkpt><trkpt lat="49.135567273930555" lon="2.507168533793667"><ele>75.0</ele><time>2026-03-22T16:06:21.997Z</time></trkpt><trkpt lat="49.135483025406785" lon="2.5071493666395983"><ele>75.0</ele><time>2026-03-22T16:06:23.997Z</time></trkpt><trkpt lat="49.13539702415953" lon="2.5071293054574544"><ele>75.0</ele><time>2026-03-22T16:06:25.997Z</time></trkpt><trkpt lat="49.13531166403326" lon="2.5070951536044337"><ele>75.0</ele><time>2026-03-22T16:06:27.997Z</time></trkpt><trkpt lat="49.135226962927064" lon="2.5070770309472103"><ele>75.0</ele><time>2026-03-22T16:06:29.997Z</time></trkpt><trkpt lat="49.1351382509392" lon="2.507057166083199"><ele>75.0</ele><time>2026-03-22T16:06:31.997Z</time></trkpt><trkpt lat="49.13505117308668" lon="2.507036656219692"><ele>75.0</ele><time>2026-03-22T16:06:33.997Z</time></trkpt><trkpt lat="49.13495979411033" lon="2.507029374077815"><ele>76.0</ele><time>2026-03-22T16:06:35.997Z</time></trkpt><trkpt lat="49.13486845264391" lon="2.5070072344282175"><ele>77.0</ele><time>2026-03-22T16:06:37.997Z</time></trkpt><trkpt lat="49.13477886995065" lon="2.5069829133925645"><ele>78.0</ele><time>2026-03-22T16:06:39.996Z</time></trkpt><trkpt lat="49.1346896899194" lon="2.506954137311309"><ele>79.0</ele><time>2026-03-22T16:06:42Z</time></trkpt><trkpt lat="49.13461180009572" lon="2.506893547708917"><ele>80.0</ele><time>2026-03-22T16:06:44Z</time></trkpt><trkpt lat="49.13452703982716" lon="2.5068512184027014"><ele>80.0</ele><time>2026-03-22T16:06:46Z</time></trkpt><trkpt lat="49.13444820093505" lon="2.506808334935584"><ele>80.0</ele><time>2026-03-22T16:06:48Z</time></trkpt><trkpt lat="49.1343699992215" lon="2.5067627119732014"><ele>80.0</ele><time>2026-03-22T16:06:50Z</time></trkpt><trkpt lat="49.134301121730836" lon="2.506720023837814"><ele>80.0</ele><time>2026-03-22T16:06:52Z</time></trkpt><trkpt lat="49.134234047425885" lon="2.5066784531806174"><ele>80.0</ele><time>2026-03-22T16:06:54Z</time></trkpt><trkpt lat="49.134161221489244" lon="2.5069001321974063"><ele>80.0</ele><time>2026-03-22T16:06:56Z</time></trkpt><trkpt lat="49.134102611347856" lon="2.507030629955501"><ele>80.0</ele><time>2026-03-22T16:06:58Z</time></trkpt><trkpt lat="49.13404304532764" lon="2.5071799946901585"><ele>80.0</ele><time>2026-03-22T16:07:00Z</time></trkpt><trkpt lat="49.133981035313276" lon="2.50733341235287"><ele>80.0</ele><time>2026-03-22T16:07:01.999Z</time></trkpt><trkpt lat="49.133918326021686" lon="2.5074873144351435"><ele>79.6</ele><time>2026-03-22T16:07:03.999Z</time></trkpt><trkpt lat="49.13386002632853" lon="2.507633865973343"><ele>79.2</ele><time>2026-03-22T16:07:05.999Z</time></trkpt><trkpt lat="49.13380562205048" lon="2.507770988180076"><ele>78.8</ele><time>2026-03-22T16:07:07.999Z</time></trkpt><trkpt lat="49.13375720931451" lon="2.5078928268991896"><ele>78.4</ele><time>2026-03-22T16:07:09.999Z</time></trkpt><trkpt lat="49.133716135249166" lon="2.507996455071636"><ele>78.0</ele><time>2026-03-22T16:07:11.999Z</time></trkpt><trkpt lat="49.13359652813238" lon="2.5079509109178706"><ele>78.0</ele><time>2026-03-22T16:19:52Z</time></trkpt><trkpt lat="49.13359652813238" lon="2.5079509109178706"><ele>78.0</ele><time>2026-03-22T16:19:52Z</time></trkpt></trkseg></trk></gpx>